<?xml version="1.0" encoding="UTF-8" standalone="no" ?>
<gpx xmlns="http://www.topografix.com/GPX/1/1" xmlns:xsi="http://www.w3.org/2001/XMLSchema-instance" xsi:schemaLocation="http://www.topografix.com/GPX/1/1 http://www.topografix.com/GPX/1/1/gpx.xsd" version="1.1" creator="VisuGPX - https://www.visugpx.com">
  <metadata>
    <name>83-V-Aups</name>
    <desc><![CDATA[83-V-Aup : clos saint André
2026-04-17]]></desc>
  </metadata>
  <trk>
    <name><![CDATA[Randonnée en boucle au printemps autour d’Aups, dans le Parc naturel régional du Verdon, le 24 mars 2026]]></name>
    <extensions>
      <line xmlns="http://www.topografix.com/GPX/gpx_style/0/2">
        <color>0000FF</color>
        <width>4</width>
      </line>
    </extensions>
    <trkseg>
      <trkpt lat="43.64466" lon="6.20106">
        <ele>529.24564</ele>
        <time>2026-03-24T08:05:59.996Z</time>
      </trkpt>
      <trkpt lat="43.64471" lon="6.20104">
        <ele>529.2151</ele>
        <time>2026-03-24T08:07:40.996Z</time>
      </trkpt>
      <trkpt lat="43.64473" lon="6.20107">
        <ele>529.23436</ele>
        <time>2026-03-24T08:08:22.995Z</time>
      </trkpt>
      <trkpt lat="43.64471" lon="6.20101">
        <ele>529.28085</ele>
        <time>2026-03-24T08:08:32.995Z</time>
      </trkpt>
      <trkpt lat="43.64468" lon="6.201">
        <ele>529.28966</ele>
        <time>2026-03-24T08:08:37.995Z</time>
      </trkpt>
      <trkpt lat="43.64467" lon="6.20096">
        <ele>529.29258</ele>
        <time>2026-03-24T08:08:41.995Z</time>
      </trkpt>
      <trkpt lat="43.64463" lon="6.20096">
        <ele>529.28124</ele>
        <time>2026-03-24T08:08:44.995Z</time>
      </trkpt>
      <trkpt lat="43.6446" lon="6.20093">
        <ele>529.25691</ele>
        <time>2026-03-24T08:08:48.995Z</time>
      </trkpt>
      <trkpt lat="43.64457" lon="6.2009">
        <ele>529.22593</ele>
        <time>2026-03-24T08:08:52.995Z</time>
      </trkpt>
      <trkpt lat="43.64454" lon="6.20087">
        <ele>528.93353</ele>
        <time>2026-03-24T08:09:29.995Z</time>
      </trkpt>
      <trkpt lat="43.64457" lon="6.20088">
        <ele>528.91033</ele>
        <time>2026-03-24T08:09:33.995Z</time>
      </trkpt>
      <trkpt lat="43.64459" lon="6.2009">
        <ele>528.89237</ele>
        <time>2026-03-24T08:09:36.995Z</time>
      </trkpt>
      <trkpt lat="43.64461" lon="6.20093">
        <ele>528.87773</ele>
        <time>2026-03-24T08:09:39.995Z</time>
      </trkpt>
      <trkpt lat="43.64463" lon="6.20096">
        <ele>528.87036</ele>
        <time>2026-03-24T08:09:41.995Z</time>
      </trkpt>
      <trkpt lat="43.64464" lon="6.20098">
        <ele>528.86079</ele>
        <time>2026-03-24T08:09:44.995Z</time>
      </trkpt>
      <trkpt lat="43.64464" lon="6.20102">
        <ele>528.85593</ele>
        <time>2026-03-24T08:09:46.995Z</time>
      </trkpt>
      <trkpt lat="43.64468" lon="6.20101">
        <ele>528.85207</ele>
        <time>2026-03-24T08:09:52.995Z</time>
      </trkpt>
      <trkpt lat="43.64471" lon="6.20099">
        <ele>528.85243</ele>
        <time>2026-03-24T08:09:54.995Z</time>
      </trkpt>
      <trkpt lat="43.6447" lon="6.20096">
        <ele>528.85217</ele>
        <time>2026-03-24T08:09:57.995Z</time>
      </trkpt>
      <trkpt lat="43.64471" lon="6.20092">
        <ele>528.85262</ele>
        <time>2026-03-24T08:10:00.995Z</time>
      </trkpt>
      <trkpt lat="43.64474" lon="6.20089">
        <ele>528.85153</ele>
        <time>2026-03-24T08:10:04.995Z</time>
      </trkpt>
      <trkpt lat="43.64476" lon="6.20088">
        <ele>528.85038</ele>
        <time>2026-03-24T08:10:07.995Z</time>
      </trkpt>
      <trkpt lat="43.64479" lon="6.20086">
        <ele>528.84893</ele>
        <time>2026-03-24T08:10:10.995Z</time>
      </trkpt>
      <trkpt lat="43.64481" lon="6.20084">
        <ele>528.84926</ele>
        <time>2026-03-24T08:10:13.995Z</time>
      </trkpt>
      <trkpt lat="43.64484" lon="6.20084">
        <ele>528.84959</ele>
        <time>2026-03-24T08:10:15.994Z</time>
      </trkpt>
      <trkpt lat="43.64486" lon="6.20083">
        <ele>528.85049</ele>
        <time>2026-03-24T08:10:19.994Z</time>
      </trkpt>
      <trkpt lat="43.64488" lon="6.20082">
        <ele>528.85121</ele>
        <time>2026-03-24T08:10:22.994Z</time>
      </trkpt>
      <trkpt lat="43.64491" lon="6.20081">
        <ele>528.85289</ele>
        <time>2026-03-24T08:10:27.994Z</time>
      </trkpt>
      <trkpt lat="43.64494" lon="6.2008">
        <ele>528.85403</ele>
        <time>2026-03-24T08:10:29.994Z</time>
      </trkpt>
      <trkpt lat="43.64497" lon="6.20078">
        <ele>528.85615</ele>
        <time>2026-03-24T08:10:32.994Z</time>
      </trkpt>
      <trkpt lat="43.645" lon="6.20076">
        <ele>528.85987</ele>
        <time>2026-03-24T08:10:35.994Z</time>
      </trkpt>
      <trkpt lat="43.64503" lon="6.20075">
        <ele>528.86458</ele>
        <time>2026-03-24T08:10:38.994Z</time>
      </trkpt>
      <trkpt lat="43.64506" lon="6.20074">
        <ele>528.86924</ele>
        <time>2026-03-24T08:10:40.994Z</time>
      </trkpt>
      <trkpt lat="43.64508" lon="6.20073">
        <ele>528.88001</ele>
        <time>2026-03-24T08:10:43.994Z</time>
      </trkpt>
      <trkpt lat="43.64511" lon="6.20072">
        <ele>528.88991</ele>
        <time>2026-03-24T08:10:46.994Z</time>
      </trkpt>
      <trkpt lat="43.64513" lon="6.20074">
        <ele>528.90306</ele>
        <time>2026-03-24T08:10:51.994Z</time>
      </trkpt>
      <trkpt lat="43.64514" lon="6.20077">
        <ele>528.91657</ele>
        <time>2026-03-24T08:10:55.994Z</time>
      </trkpt>
      <trkpt lat="43.64514" lon="6.20083">
        <ele>529.04198</ele>
        <time>2026-03-24T08:11:11.994Z</time>
      </trkpt>
      <trkpt lat="43.64519" lon="6.20082">
        <ele>529.07612</ele>
        <time>2026-03-24T08:11:17.994Z</time>
      </trkpt>
      <trkpt lat="43.64521" lon="6.20082">
        <ele>529.08297</ele>
        <time>2026-03-24T08:11:18.994Z</time>
      </trkpt>
      <trkpt lat="43.64525" lon="6.20082">
        <ele>529.09279</ele>
        <time>2026-03-24T08:11:20.994Z</time>
      </trkpt>
      <trkpt lat="43.64528" lon="6.20082">
        <ele>529.11506</ele>
        <time>2026-03-24T08:11:22.994Z</time>
      </trkpt>
      <trkpt lat="43.6453" lon="6.20082">
        <ele>529.16205</ele>
        <time>2026-03-24T08:11:27.994Z</time>
      </trkpt>
      <trkpt lat="43.64532" lon="6.20081">
        <ele>529.18232</ele>
        <time>2026-03-24T08:11:29.994Z</time>
      </trkpt>
      <trkpt lat="43.64534" lon="6.20084">
        <ele>529.2177</ele>
        <time>2026-03-24T08:11:32.994Z</time>
      </trkpt>
      <trkpt lat="43.64538" lon="6.20086">
        <ele>529.26077</ele>
        <time>2026-03-24T08:11:35.994Z</time>
      </trkpt>
      <trkpt lat="43.6454" lon="6.20084">
        <ele>529.3215</ele>
        <time>2026-03-24T08:11:38.994Z</time>
      </trkpt>
      <trkpt lat="43.64543" lon="6.20084">
        <ele>529.3706</ele>
        <time>2026-03-24T08:11:40.994Z</time>
      </trkpt>
      <trkpt lat="43.64546" lon="6.20086">
        <ele>529.43258</ele>
        <time>2026-03-24T08:11:42.994Z</time>
      </trkpt>
      <trkpt lat="43.64548" lon="6.20087">
        <ele>529.52007</ele>
        <time>2026-03-24T08:11:44.994Z</time>
      </trkpt>
      <trkpt lat="43.6455" lon="6.20088">
        <ele>529.73934</ele>
        <time>2026-03-24T08:11:47.994Z</time>
      </trkpt>
      <trkpt lat="43.64553" lon="6.20089">
        <ele>530.06955</ele>
        <time>2026-03-24T08:11:51.994Z</time>
      </trkpt>
      <trkpt lat="43.64555" lon="6.2009">
        <ele>530.28223</ele>
        <time>2026-03-24T08:11:53.994Z</time>
      </trkpt>
      <trkpt lat="43.64557" lon="6.20092">
        <ele>530.50112</ele>
        <time>2026-03-24T08:11:55.994Z</time>
      </trkpt>
      <trkpt lat="43.6456" lon="6.20094">
        <ele>530.84488</ele>
        <time>2026-03-24T08:11:58.994Z</time>
      </trkpt>
      <trkpt lat="43.64563" lon="6.20097">
        <ele>531.07466</ele>
        <time>2026-03-24T08:12:00.994Z</time>
      </trkpt>
      <trkpt lat="43.64564" lon="6.201">
        <ele>531.30621</ele>
        <time>2026-03-24T08:12:02.994Z</time>
      </trkpt>
      <trkpt lat="43.64566" lon="6.20102">
        <ele>531.72664</ele>
        <time>2026-03-24T08:12:05.994Z</time>
      </trkpt>
      <trkpt lat="43.64568" lon="6.20106">
        <ele>532.29231</ele>
        <time>2026-03-24T08:12:10.994Z</time>
      </trkpt>
      <trkpt lat="43.64569" lon="6.2011">
        <ele>532.50959</ele>
        <time>2026-03-24T08:12:13.994Z</time>
      </trkpt>
      <trkpt lat="43.64571" lon="6.20113">
        <ele>532.866</ele>
        <time>2026-03-24T08:12:17.994Z</time>
      </trkpt>
      <trkpt lat="43.64572" lon="6.20116">
        <ele>533.05633</ele>
        <time>2026-03-24T08:12:19.994Z</time>
      </trkpt>
      <trkpt lat="43.64573" lon="6.20121">
        <ele>533.52857</ele>
        <time>2026-03-24T08:12:25.994Z</time>
      </trkpt>
      <trkpt lat="43.64574" lon="6.20124">
        <ele>533.74209</ele>
        <time>2026-03-24T08:12:28.994Z</time>
      </trkpt>
      <trkpt lat="43.64575" lon="6.20127">
        <ele>533.91527</ele>
        <time>2026-03-24T08:12:31.993Z</time>
      </trkpt>
      <trkpt lat="43.64576" lon="6.20131">
        <ele>534.13809</ele>
        <time>2026-03-24T08:12:34.993Z</time>
      </trkpt>
      <trkpt lat="43.64576" lon="6.20135">
        <ele>534.33241</ele>
        <time>2026-03-24T08:12:37.993Z</time>
      </trkpt>
      <trkpt lat="43.64577" lon="6.20138">
        <ele>534.46196</ele>
        <time>2026-03-24T08:12:39.993Z</time>
      </trkpt>
      <trkpt lat="43.64578" lon="6.20143">
        <ele>534.71071</ele>
        <time>2026-03-24T08:12:42.993Z</time>
      </trkpt>
      <trkpt lat="43.64579" lon="6.20146">
        <ele>535.00916</ele>
        <time>2026-03-24T08:12:45.993Z</time>
      </trkpt>
      <trkpt lat="43.64581" lon="6.20149">
        <ele>535.21533</ele>
        <time>2026-03-24T08:12:47.993Z</time>
      </trkpt>
      <trkpt lat="43.64582" lon="6.20152">
        <ele>535.55644</ele>
        <time>2026-03-24T08:12:50.993Z</time>
      </trkpt>
      <trkpt lat="43.64584" lon="6.20154">
        <ele>535.97686</ele>
        <time>2026-03-24T08:12:53.993Z</time>
      </trkpt>
      <trkpt lat="43.64586" lon="6.20157">
        <ele>536.35021</ele>
        <time>2026-03-24T08:12:56.993Z</time>
      </trkpt>
      <trkpt lat="43.64588" lon="6.20159">
        <ele>536.55889</ele>
        <time>2026-03-24T08:12:58.993Z</time>
      </trkpt>
      <trkpt lat="43.64591" lon="6.20161">
        <ele>536.82062</ele>
        <time>2026-03-24T08:13:01.993Z</time>
      </trkpt>
      <trkpt lat="43.64592" lon="6.20165">
        <ele>536.98091</ele>
        <time>2026-03-24T08:13:03.993Z</time>
      </trkpt>
      <trkpt lat="43.64595" lon="6.20167">
        <ele>537.27472</ele>
        <time>2026-03-24T08:13:06.993Z</time>
      </trkpt>
      <trkpt lat="43.64597" lon="6.20169">
        <ele>537.54189</ele>
        <time>2026-03-24T08:13:09.993Z</time>
      </trkpt>
      <trkpt lat="43.64599" lon="6.20172">
        <ele>537.7579</ele>
        <time>2026-03-24T08:13:12.993Z</time>
      </trkpt>
      <trkpt lat="43.64602" lon="6.20173">
        <ele>537.88834</ele>
        <time>2026-03-24T08:13:14.993Z</time>
      </trkpt>
      <trkpt lat="43.64603" lon="6.20176">
        <ele>537.97852</ele>
        <time>2026-03-24T08:13:16.993Z</time>
      </trkpt>
      <trkpt lat="43.64605" lon="6.2018">
        <ele>538.06059</ele>
        <time>2026-03-24T08:13:18.993Z</time>
      </trkpt>
      <trkpt lat="43.64607" lon="6.20182">
        <ele>538.13166</ele>
        <time>2026-03-24T08:13:20.993Z</time>
      </trkpt>
      <trkpt lat="43.64609" lon="6.20184">
        <ele>538.19246</ele>
        <time>2026-03-24T08:13:22.993Z</time>
      </trkpt>
      <trkpt lat="43.64612" lon="6.20188">
        <ele>538.24406</ele>
        <time>2026-03-24T08:13:24.993Z</time>
      </trkpt>
      <trkpt lat="43.64613" lon="6.2019">
        <ele>538.29007</ele>
        <time>2026-03-24T08:13:26.993Z</time>
      </trkpt>
      <trkpt lat="43.64616" lon="6.20194">
        <ele>538.33839</ele>
        <time>2026-03-24T08:13:29.993Z</time>
      </trkpt>
      <trkpt lat="43.64617" lon="6.20197">
        <ele>538.35975</ele>
        <time>2026-03-24T08:13:31.993Z</time>
      </trkpt>
      <trkpt lat="43.64617" lon="6.20201">
        <ele>538.3885</ele>
        <time>2026-03-24T08:13:33.993Z</time>
      </trkpt>
      <trkpt lat="43.64618" lon="6.20204">
        <ele>538.41998</ele>
        <time>2026-03-24T08:13:35.993Z</time>
      </trkpt>
      <trkpt lat="43.64618" lon="6.20208">
        <ele>538.44252</ele>
        <time>2026-03-24T08:13:37.993Z</time>
      </trkpt>
      <trkpt lat="43.64619" lon="6.20212">
        <ele>538.51363</ele>
        <time>2026-03-24T08:13:40.993Z</time>
      </trkpt>
      <trkpt lat="43.64619" lon="6.20215">
        <ele>538.58752</ele>
        <time>2026-03-24T08:13:43.993Z</time>
      </trkpt>
      <trkpt lat="43.6462" lon="6.20218">
        <ele>538.71151</ele>
        <time>2026-03-24T08:13:46.993Z</time>
      </trkpt>
      <trkpt lat="43.6462" lon="6.20221">
        <ele>538.83345</ele>
        <time>2026-03-24T08:13:48.993Z</time>
      </trkpt>
      <trkpt lat="43.64621" lon="6.20226">
        <ele>539.16831</ele>
        <time>2026-03-24T08:13:52.993Z</time>
      </trkpt>
      <trkpt lat="43.64622" lon="6.20229">
        <ele>539.47712</ele>
        <time>2026-03-24T08:13:55.993Z</time>
      </trkpt>
      <trkpt lat="43.64622" lon="6.20234">
        <ele>539.71716</ele>
        <time>2026-03-24T08:13:57.993Z</time>
      </trkpt>
      <trkpt lat="43.64623" lon="6.20238">
        <ele>540.05428</ele>
        <time>2026-03-24T08:14:00.993Z</time>
      </trkpt>
      <trkpt lat="43.64625" lon="6.20241">
        <ele>540.2996</ele>
        <time>2026-03-24T08:14:02.993Z</time>
      </trkpt>
      <trkpt lat="43.64626" lon="6.20244">
        <ele>540.52781</ele>
        <time>2026-03-24T08:14:04.993Z</time>
      </trkpt>
      <trkpt lat="43.64628" lon="6.20248">
        <ele>540.95501</ele>
        <time>2026-03-24T08:14:07.993Z</time>
      </trkpt>
      <trkpt lat="43.6463" lon="6.20251">
        <ele>541.18887</ele>
        <time>2026-03-24T08:14:09.993Z</time>
      </trkpt>
      <trkpt lat="43.64633" lon="6.20252">
        <ele>541.45715</ele>
        <time>2026-03-24T08:14:11.993Z</time>
      </trkpt>
      <trkpt lat="43.64635" lon="6.20254">
        <ele>541.66857</ele>
        <time>2026-03-24T08:14:13.993Z</time>
      </trkpt>
      <trkpt lat="43.64638" lon="6.20254">
        <ele>541.84656</ele>
        <time>2026-03-24T08:14:15.993Z</time>
      </trkpt>
      <trkpt lat="43.64641" lon="6.20255">
        <ele>542.01644</ele>
        <time>2026-03-24T08:14:18.993Z</time>
      </trkpt>
      <trkpt lat="43.64643" lon="6.20255">
        <ele>542.08722</ele>
        <time>2026-03-24T08:14:20.993Z</time>
      </trkpt>
      <trkpt lat="43.64647" lon="6.20254">
        <ele>542.15456</ele>
        <time>2026-03-24T08:14:23.993Z</time>
      </trkpt>
      <trkpt lat="43.64649" lon="6.20252">
        <ele>542.17131</ele>
        <time>2026-03-24T08:14:25.993Z</time>
      </trkpt>
      <trkpt lat="43.64651" lon="6.20248">
        <ele>542.17211</ele>
        <time>2026-03-24T08:14:27.993Z</time>
      </trkpt>
      <trkpt lat="43.64654" lon="6.20245">
        <ele>542.15733</ele>
        <time>2026-03-24T08:14:29.993Z</time>
      </trkpt>
      <trkpt lat="43.64655" lon="6.20241">
        <ele>542.06315</ele>
        <time>2026-03-24T08:14:34.993Z</time>
      </trkpt>
      <trkpt lat="43.64652" lon="6.2024">
        <ele>541.79724</ele>
        <time>2026-03-24T08:14:42.993Z</time>
      </trkpt>
      <trkpt lat="43.64652" lon="6.20243">
        <ele>541.47004</ele>
        <time>2026-03-24T08:14:52.992Z</time>
      </trkpt>
      <trkpt lat="43.64653" lon="6.20247">
        <ele>541.17215</ele>
        <time>2026-03-24T08:15:08.992Z</time>
      </trkpt>
      <trkpt lat="43.64652" lon="6.20251">
        <ele>541.12011</ele>
        <time>2026-03-24T08:15:10.992Z</time>
      </trkpt>
      <trkpt lat="43.64652" lon="6.20255">
        <ele>541.06966</ele>
        <time>2026-03-24T08:15:13.992Z</time>
      </trkpt>
      <trkpt lat="43.64652" lon="6.20258">
        <ele>541.05151</ele>
        <time>2026-03-24T08:15:15.992Z</time>
      </trkpt>
      <trkpt lat="43.64653" lon="6.20262">
        <ele>541.0454</ele>
        <time>2026-03-24T08:15:17.992Z</time>
      </trkpt>
      <trkpt lat="43.64654" lon="6.20264">
        <ele>541.04117</ele>
        <time>2026-03-24T08:15:19.992Z</time>
      </trkpt>
      <trkpt lat="43.64656" lon="6.20266">
        <ele>541.03247</ele>
        <time>2026-03-24T08:15:21.992Z</time>
      </trkpt>
      <trkpt lat="43.64659" lon="6.20267">
        <ele>541.02561</ele>
        <time>2026-03-24T08:15:23.992Z</time>
      </trkpt>
      <trkpt lat="43.64661" lon="6.20268">
        <ele>541.01478</ele>
        <time>2026-03-24T08:15:25.992Z</time>
      </trkpt>
      <trkpt lat="43.64662" lon="6.2027">
        <ele>540.99841</ele>
        <time>2026-03-24T08:15:27.992Z</time>
      </trkpt>
      <trkpt lat="43.64665" lon="6.20273">
        <ele>540.96167</ele>
        <time>2026-03-24T08:15:30.992Z</time>
      </trkpt>
      <trkpt lat="43.64667" lon="6.20276">
        <ele>540.92845</ele>
        <time>2026-03-24T08:15:32.992Z</time>
      </trkpt>
      <trkpt lat="43.64668" lon="6.20279">
        <ele>540.89506</ele>
        <time>2026-03-24T08:15:34.992Z</time>
      </trkpt>
      <trkpt lat="43.6467" lon="6.20282">
        <ele>540.86021</ele>
        <time>2026-03-24T08:15:36.992Z</time>
      </trkpt>
      <trkpt lat="43.64673" lon="6.20283">
        <ele>540.82797</ele>
        <time>2026-03-24T08:15:38.992Z</time>
      </trkpt>
      <trkpt lat="43.64676" lon="6.20284">
        <ele>540.7859</ele>
        <time>2026-03-24T08:15:41.992Z</time>
      </trkpt>
      <trkpt lat="43.64679" lon="6.20286">
        <ele>540.77</ele>
        <time>2026-03-24T08:15:43.992Z</time>
      </trkpt>
      <trkpt lat="43.64681" lon="6.20288">
        <ele>540.75047</ele>
        <time>2026-03-24T08:15:45.992Z</time>
      </trkpt>
      <trkpt lat="43.64683" lon="6.20289">
        <ele>540.725</ele>
        <time>2026-03-24T08:15:47.992Z</time>
      </trkpt>
      <trkpt lat="43.64686" lon="6.2029">
        <ele>540.69657</ele>
        <time>2026-03-24T08:15:49.992Z</time>
      </trkpt>
      <trkpt lat="43.64689" lon="6.20291">
        <ele>540.67948</ele>
        <time>2026-03-24T08:15:51.992Z</time>
      </trkpt>
      <trkpt lat="43.64691" lon="6.20291">
        <ele>540.66479</ele>
        <time>2026-03-24T08:15:53.992Z</time>
      </trkpt>
      <trkpt lat="43.64695" lon="6.20291">
        <ele>540.65023</ele>
        <time>2026-03-24T08:15:56.992Z</time>
      </trkpt>
      <trkpt lat="43.64697" lon="6.20291">
        <ele>540.64304</ele>
        <time>2026-03-24T08:15:58.992Z</time>
      </trkpt>
      <trkpt lat="43.647" lon="6.20291">
        <ele>540.63569</ele>
        <time>2026-03-24T08:16:00.992Z</time>
      </trkpt>
      <trkpt lat="43.64703" lon="6.2029">
        <ele>540.6284</ele>
        <time>2026-03-24T08:16:02.992Z</time>
      </trkpt>
      <trkpt lat="43.64705" lon="6.20289">
        <ele>540.62579</ele>
        <time>2026-03-24T08:16:04.992Z</time>
      </trkpt>
      <trkpt lat="43.64708" lon="6.20289">
        <ele>540.62433</ele>
        <time>2026-03-24T08:16:06.992Z</time>
      </trkpt>
      <trkpt lat="43.64711" lon="6.20288">
        <ele>540.62403</ele>
        <time>2026-03-24T08:16:08.992Z</time>
      </trkpt>
      <trkpt lat="43.64714" lon="6.20287">
        <ele>540.62737</ele>
        <time>2026-03-24T08:16:10.992Z</time>
      </trkpt>
      <trkpt lat="43.64717" lon="6.20287">
        <ele>540.6305</ele>
        <time>2026-03-24T08:16:12.992Z</time>
      </trkpt>
      <trkpt lat="43.64719" lon="6.20287">
        <ele>540.63735</ele>
        <time>2026-03-24T08:16:14.992Z</time>
      </trkpt>
      <trkpt lat="43.64722" lon="6.20285">
        <ele>540.64396</ele>
        <time>2026-03-24T08:16:16.992Z</time>
      </trkpt>
      <trkpt lat="43.64725" lon="6.20284">
        <ele>540.65615</ele>
        <time>2026-03-24T08:16:19.992Z</time>
      </trkpt>
      <trkpt lat="43.64728" lon="6.20284">
        <ele>540.67496</ele>
        <time>2026-03-24T08:16:22.992Z</time>
      </trkpt>
      <trkpt lat="43.64731" lon="6.20283">
        <ele>540.69277</ele>
        <time>2026-03-24T08:16:24.992Z</time>
      </trkpt>
      <trkpt lat="43.64734" lon="6.20282">
        <ele>540.71364</ele>
        <time>2026-03-24T08:16:26.992Z</time>
      </trkpt>
      <trkpt lat="43.64736" lon="6.20282">
        <ele>540.73712</ele>
        <time>2026-03-24T08:16:28.992Z</time>
      </trkpt>
      <trkpt lat="43.64738" lon="6.20283">
        <ele>540.75949</ele>
        <time>2026-03-24T08:16:30.992Z</time>
      </trkpt>
      <trkpt lat="43.64741" lon="6.20283">
        <ele>540.77799</ele>
        <time>2026-03-24T08:16:32.992Z</time>
      </trkpt>
      <trkpt lat="43.64743" lon="6.20282">
        <ele>540.80782</ele>
        <time>2026-03-24T08:16:35.992Z</time>
      </trkpt>
      <trkpt lat="43.64746" lon="6.20282">
        <ele>540.83093</ele>
        <time>2026-03-24T08:16:37.992Z</time>
      </trkpt>
      <trkpt lat="43.64749" lon="6.20283">
        <ele>540.87837</ele>
        <time>2026-03-24T08:16:40.992Z</time>
      </trkpt>
      <trkpt lat="43.64752" lon="6.20282">
        <ele>540.90754</ele>
        <time>2026-03-24T08:16:42.992Z</time>
      </trkpt>
      <trkpt lat="43.64754" lon="6.2028">
        <ele>540.92943</ele>
        <time>2026-03-24T08:16:44.992Z</time>
      </trkpt>
      <trkpt lat="43.64757" lon="6.20279">
        <ele>540.97076</ele>
        <time>2026-03-24T08:16:47.992Z</time>
      </trkpt>
      <trkpt lat="43.6476" lon="6.20277">
        <ele>541.00044</ele>
        <time>2026-03-24T08:16:49.992Z</time>
      </trkpt>
      <trkpt lat="43.64762" lon="6.20275">
        <ele>541.0308</ele>
        <time>2026-03-24T08:16:51.992Z</time>
      </trkpt>
      <trkpt lat="43.64764" lon="6.20272">
        <ele>541.06843</ele>
        <time>2026-03-24T08:16:53.992Z</time>
      </trkpt>
      <trkpt lat="43.64765" lon="6.20269">
        <ele>541.11086</ele>
        <time>2026-03-24T08:16:55.992Z</time>
      </trkpt>
      <trkpt lat="43.64766" lon="6.20266">
        <ele>541.16712</ele>
        <time>2026-03-24T08:16:57.992Z</time>
      </trkpt>
      <trkpt lat="43.64768" lon="6.20263">
        <ele>541.23546</ele>
        <time>2026-03-24T08:16:59.992Z</time>
      </trkpt>
      <trkpt lat="43.64768" lon="6.2026">
        <ele>541.31809</ele>
        <time>2026-03-24T08:17:01.991Z</time>
      </trkpt>
      <trkpt lat="43.64768" lon="6.20255">
        <ele>541.47768</ele>
        <time>2026-03-24T08:17:04.991Z</time>
      </trkpt>
      <trkpt lat="43.64769" lon="6.20252">
        <ele>541.58705</ele>
        <time>2026-03-24T08:17:06.991Z</time>
      </trkpt>
      <trkpt lat="43.64769" lon="6.20248">
        <ele>541.72132</ele>
        <time>2026-03-24T08:17:08.991Z</time>
      </trkpt>
      <trkpt lat="43.6477" lon="6.20244">
        <ele>541.85942</ele>
        <time>2026-03-24T08:17:10.991Z</time>
      </trkpt>
      <trkpt lat="43.64771" lon="6.20241">
        <ele>542.00626</ele>
        <time>2026-03-24T08:17:12.991Z</time>
      </trkpt>
      <trkpt lat="43.64772" lon="6.20238">
        <ele>542.15966</ele>
        <time>2026-03-24T08:17:14.991Z</time>
      </trkpt>
      <trkpt lat="43.64773" lon="6.20235">
        <ele>542.31113</ele>
        <time>2026-03-24T08:17:16.991Z</time>
      </trkpt>
      <trkpt lat="43.64774" lon="6.20231">
        <ele>542.51125</ele>
        <time>2026-03-24T08:17:18.991Z</time>
      </trkpt>
      <trkpt lat="43.64775" lon="6.20227">
        <ele>542.88613</ele>
        <time>2026-03-24T08:17:21.991Z</time>
      </trkpt>
      <trkpt lat="43.64777" lon="6.20224">
        <ele>543.17845</ele>
        <time>2026-03-24T08:17:23.991Z</time>
      </trkpt>
      <trkpt lat="43.64779" lon="6.20221">
        <ele>543.49905</ele>
        <time>2026-03-24T08:17:25.991Z</time>
      </trkpt>
      <trkpt lat="43.64779" lon="6.20216">
        <ele>544.02014</ele>
        <time>2026-03-24T08:17:28.991Z</time>
      </trkpt>
      <trkpt lat="43.6478" lon="6.20212">
        <ele>544.381</ele>
        <time>2026-03-24T08:17:30.991Z</time>
      </trkpt>
      <trkpt lat="43.64781" lon="6.20209">
        <ele>544.7191</ele>
        <time>2026-03-24T08:17:32.991Z</time>
      </trkpt>
      <trkpt lat="43.64781" lon="6.20203">
        <ele>545.21805</ele>
        <time>2026-03-24T08:17:35.991Z</time>
      </trkpt>
      <trkpt lat="43.64781" lon="6.202">
        <ele>545.5578</ele>
        <time>2026-03-24T08:17:37.991Z</time>
      </trkpt>
      <trkpt lat="43.64783" lon="6.20197">
        <ele>545.9413</ele>
        <time>2026-03-24T08:17:39.991Z</time>
      </trkpt>
      <trkpt lat="43.64783" lon="6.20194">
        <ele>546.30967</ele>
        <time>2026-03-24T08:17:41.991Z</time>
      </trkpt>
      <trkpt lat="43.64784" lon="6.2019">
        <ele>546.657</ele>
        <time>2026-03-24T08:17:43.991Z</time>
      </trkpt>
      <trkpt lat="43.64783" lon="6.20185">
        <ele>547.03164</ele>
        <time>2026-03-24T08:17:45.991Z</time>
      </trkpt>
      <trkpt lat="43.64785" lon="6.20182">
        <ele>547.41872</ele>
        <time>2026-03-24T08:17:47.991Z</time>
      </trkpt>
      <trkpt lat="43.64787" lon="6.20178">
        <ele>547.91394</ele>
        <time>2026-03-24T08:17:50.991Z</time>
      </trkpt>
      <trkpt lat="43.64787" lon="6.20175">
        <ele>548.30978</ele>
        <time>2026-03-24T08:17:52.991Z</time>
      </trkpt>
      <trkpt lat="43.64789" lon="6.20172">
        <ele>548.64035</ele>
        <time>2026-03-24T08:17:54.991Z</time>
      </trkpt>
      <trkpt lat="43.64791" lon="6.20168">
        <ele>549.07957</ele>
        <time>2026-03-24T08:17:57.991Z</time>
      </trkpt>
      <trkpt lat="43.64792" lon="6.20164">
        <ele>549.35279</ele>
        <time>2026-03-24T08:17:59.991Z</time>
      </trkpt>
      <trkpt lat="43.64794" lon="6.20162">
        <ele>549.61578</ele>
        <time>2026-03-24T08:18:01.991Z</time>
      </trkpt>
      <trkpt lat="43.64795" lon="6.20157">
        <ele>550.07018</ele>
        <time>2026-03-24T08:18:04.991Z</time>
      </trkpt>
      <trkpt lat="43.64797" lon="6.20155">
        <ele>550.56221</ele>
        <time>2026-03-24T08:18:07.991Z</time>
      </trkpt>
      <trkpt lat="43.64799" lon="6.20154">
        <ele>550.87262</ele>
        <time>2026-03-24T08:18:09.991Z</time>
      </trkpt>
      <trkpt lat="43.64802" lon="6.20152">
        <ele>551.33395</ele>
        <time>2026-03-24T08:18:12.991Z</time>
      </trkpt>
      <trkpt lat="43.64805" lon="6.20149">
        <ele>551.74003</ele>
        <time>2026-03-24T08:18:15.991Z</time>
      </trkpt>
      <trkpt lat="43.64808" lon="6.20149">
        <ele>551.96859</ele>
        <time>2026-03-24T08:18:17.991Z</time>
      </trkpt>
      <trkpt lat="43.6481" lon="6.20148">
        <ele>552.18013</ele>
        <time>2026-03-24T08:18:19.991Z</time>
      </trkpt>
      <trkpt lat="43.64813" lon="6.20146">
        <ele>552.46219</ele>
        <time>2026-03-24T08:18:22.991Z</time>
      </trkpt>
      <trkpt lat="43.64815" lon="6.20146">
        <ele>552.60891</ele>
        <time>2026-03-24T08:18:24.991Z</time>
      </trkpt>
      <trkpt lat="43.64818" lon="6.20146">
        <ele>552.73322</ele>
        <time>2026-03-24T08:18:26.991Z</time>
      </trkpt>
      <trkpt lat="43.64821" lon="6.20147">
        <ele>552.82974</ele>
        <time>2026-03-24T08:18:28.991Z</time>
      </trkpt>
      <trkpt lat="43.64824" lon="6.20147">
        <ele>552.95385</ele>
        <time>2026-03-24T08:18:31.991Z</time>
      </trkpt>
      <trkpt lat="43.64826" lon="6.20149">
        <ele>552.98404</ele>
        <time>2026-03-24T08:18:33.991Z</time>
      </trkpt>
      <trkpt lat="43.64829" lon="6.20151">
        <ele>552.99956</ele>
        <time>2026-03-24T08:18:36.991Z</time>
      </trkpt>
      <trkpt lat="43.64831" lon="6.20152">
        <ele>553.00509</ele>
        <time>2026-03-24T08:18:38.991Z</time>
      </trkpt>
      <trkpt lat="43.64834" lon="6.20153">
        <ele>552.99917</ele>
        <time>2026-03-24T08:18:41.991Z</time>
      </trkpt>
      <trkpt lat="43.64837" lon="6.20155">
        <ele>552.98736</ele>
        <time>2026-03-24T08:18:43.991Z</time>
      </trkpt>
      <trkpt lat="43.64841" lon="6.20158">
        <ele>552.94789</ele>
        <time>2026-03-24T08:18:46.991Z</time>
      </trkpt>
      <trkpt lat="43.64843" lon="6.2016">
        <ele>552.9191</ele>
        <time>2026-03-24T08:18:49.002Z</time>
      </trkpt>
      <trkpt lat="43.64845" lon="6.20163">
        <ele>552.88333</ele>
        <time>2026-03-24T08:18:51.002Z</time>
      </trkpt>
      <trkpt lat="43.64847" lon="6.20167">
        <ele>552.84151</ele>
        <time>2026-03-24T08:18:53.002Z</time>
      </trkpt>
      <trkpt lat="43.64849" lon="6.20169">
        <ele>552.75995</ele>
        <time>2026-03-24T08:18:56.002Z</time>
      </trkpt>
      <trkpt lat="43.6485" lon="6.20172">
        <ele>552.69257</ele>
        <time>2026-03-24T08:18:58.002Z</time>
      </trkpt>
      <trkpt lat="43.64851" lon="6.20175">
        <ele>552.61921</ele>
        <time>2026-03-24T08:19:00.002Z</time>
      </trkpt>
      <trkpt lat="43.64853" lon="6.2018">
        <ele>552.55793</ele>
        <time>2026-03-24T08:19:02.002Z</time>
      </trkpt>
      <trkpt lat="43.64856" lon="6.20182">
        <ele>552.489</ele>
        <time>2026-03-24T08:19:05.002Z</time>
      </trkpt>
      <trkpt lat="43.64859" lon="6.20182">
        <ele>552.45577</ele>
        <time>2026-03-24T08:19:07.002Z</time>
      </trkpt>
      <trkpt lat="43.64861" lon="6.20183">
        <ele>552.4258</ele>
        <time>2026-03-24T08:19:09.002Z</time>
      </trkpt>
      <trkpt lat="43.64864" lon="6.20184">
        <ele>552.40844</ele>
        <time>2026-03-24T08:19:12.002Z</time>
      </trkpt>
      <trkpt lat="43.64867" lon="6.20184">
        <ele>552.40766</ele>
        <time>2026-03-24T08:19:14.002Z</time>
      </trkpt>
      <trkpt lat="43.64869" lon="6.20184">
        <ele>552.41178</ele>
        <time>2026-03-24T08:19:16.002Z</time>
      </trkpt>
      <trkpt lat="43.64872" lon="6.20185">
        <ele>552.41707</ele>
        <time>2026-03-24T08:19:19.002Z</time>
      </trkpt>
      <trkpt lat="43.64875" lon="6.20184">
        <ele>552.4245</ele>
        <time>2026-03-24T08:19:21.002Z</time>
      </trkpt>
      <trkpt lat="43.64878" lon="6.20185">
        <ele>552.43889</ele>
        <time>2026-03-24T08:19:23.002Z</time>
      </trkpt>
      <trkpt lat="43.64881" lon="6.20184">
        <ele>552.44589</ele>
        <time>2026-03-24T08:19:25.002Z</time>
      </trkpt>
      <trkpt lat="43.64883" lon="6.20183">
        <ele>552.45356</ele>
        <time>2026-03-24T08:19:28.002Z</time>
      </trkpt>
      <trkpt lat="43.64886" lon="6.20182">
        <ele>552.45493</ele>
        <time>2026-03-24T08:19:30.002Z</time>
      </trkpt>
      <trkpt lat="43.64889" lon="6.20179">
        <ele>552.47256</ele>
        <time>2026-03-24T08:19:33.002Z</time>
      </trkpt>
      <trkpt lat="43.64891" lon="6.20178">
        <ele>552.47433</ele>
        <time>2026-03-24T08:19:35.002Z</time>
      </trkpt>
      <trkpt lat="43.64893" lon="6.20176">
        <ele>552.49082</ele>
        <time>2026-03-24T08:19:38.002Z</time>
      </trkpt>
      <trkpt lat="43.64896" lon="6.20173">
        <ele>552.50995</ele>
        <time>2026-03-24T08:19:40.002Z</time>
      </trkpt>
      <trkpt lat="43.64899" lon="6.20172">
        <ele>552.5259</ele>
        <time>2026-03-24T08:19:42.002Z</time>
      </trkpt>
      <trkpt lat="43.64901" lon="6.20171">
        <ele>552.54383</ele>
        <time>2026-03-24T08:19:44.002Z</time>
      </trkpt>
      <trkpt lat="43.64904" lon="6.20171">
        <ele>552.57572</ele>
        <time>2026-03-24T08:19:46.002Z</time>
      </trkpt>
      <trkpt lat="43.64907" lon="6.20169">
        <ele>552.61844</ele>
        <time>2026-03-24T08:19:48.002Z</time>
      </trkpt>
      <trkpt lat="43.6491" lon="6.20168">
        <ele>552.7014</ele>
        <time>2026-03-24T08:19:51.002Z</time>
      </trkpt>
      <trkpt lat="43.64913" lon="6.20168">
        <ele>552.80847</ele>
        <time>2026-03-24T08:19:54.003Z</time>
      </trkpt>
      <trkpt lat="43.64916" lon="6.20168">
        <ele>552.92614</ele>
        <time>2026-03-24T08:19:56.004Z</time>
      </trkpt>
      <trkpt lat="43.64919" lon="6.20168">
        <ele>553.16086</ele>
        <time>2026-03-24T08:19:59.004Z</time>
      </trkpt>
      <trkpt lat="43.64921" lon="6.2017">
        <ele>553.50421</ele>
        <time>2026-03-24T08:20:02.004Z</time>
      </trkpt>
      <trkpt lat="43.64924" lon="6.20171">
        <ele>553.79365</ele>
        <time>2026-03-24T08:20:04.004Z</time>
      </trkpt>
      <trkpt lat="43.64927" lon="6.20172">
        <ele>554.26878</ele>
        <time>2026-03-24T08:20:07.003Z</time>
      </trkpt>
      <trkpt lat="43.64929" lon="6.20174">
        <ele>554.56794</ele>
        <time>2026-03-24T08:20:09.003Z</time>
      </trkpt>
      <trkpt lat="43.64931" lon="6.20176">
        <ele>554.86497</ele>
        <time>2026-03-24T08:20:11.003Z</time>
      </trkpt>
      <trkpt lat="43.64933" lon="6.2018">
        <ele>555.34244</ele>
        <time>2026-03-24T08:20:14.003Z</time>
      </trkpt>
      <trkpt lat="43.64935" lon="6.20183">
        <ele>555.68294</ele>
        <time>2026-03-24T08:20:16.003Z</time>
      </trkpt>
      <trkpt lat="43.64936" lon="6.20186">
        <ele>556.09056</ele>
        <time>2026-03-24T08:20:19.002Z</time>
      </trkpt>
      <trkpt lat="43.64937" lon="6.20189">
        <ele>556.37344</ele>
        <time>2026-03-24T08:20:21.002Z</time>
      </trkpt>
      <trkpt lat="43.64938" lon="6.20191">
        <ele>556.67312</ele>
        <time>2026-03-24T08:20:23.002Z</time>
      </trkpt>
      <trkpt lat="43.64938" lon="6.20195">
        <ele>557.0277</ele>
        <time>2026-03-24T08:20:26.002Z</time>
      </trkpt>
      <trkpt lat="43.64938" lon="6.20198">
        <ele>557.30961</ele>
        <time>2026-03-24T08:20:29.002Z</time>
      </trkpt>
      <trkpt lat="43.64937" lon="6.20202">
        <ele>557.45157</ele>
        <time>2026-03-24T08:20:32.002Z</time>
      </trkpt>
      <trkpt lat="43.64937" lon="6.20206">
        <ele>557.54398</ele>
        <time>2026-03-24T08:20:34.002Z</time>
      </trkpt>
      <trkpt lat="43.64937" lon="6.2021">
        <ele>557.6826</ele>
        <time>2026-03-24T08:20:37.002Z</time>
      </trkpt>
      <trkpt lat="43.64937" lon="6.20213">
        <ele>557.76223</ele>
        <time>2026-03-24T08:20:39.002Z</time>
      </trkpt>
      <trkpt lat="43.64937" lon="6.20218">
        <ele>557.87088</ele>
        <time>2026-03-24T08:20:42.002Z</time>
      </trkpt>
      <trkpt lat="43.64938" lon="6.20222">
        <ele>557.97511</ele>
        <time>2026-03-24T08:20:45.002Z</time>
      </trkpt>
      <trkpt lat="43.6494" lon="6.20223">
        <ele>558.09477</ele>
        <time>2026-03-24T08:20:48.002Z</time>
      </trkpt>
      <trkpt lat="43.64943" lon="6.20226">
        <ele>558.14672</ele>
        <time>2026-03-24T08:20:50.002Z</time>
      </trkpt>
      <trkpt lat="43.64944" lon="6.20228">
        <ele>558.20109</ele>
        <time>2026-03-24T08:20:52.002Z</time>
      </trkpt>
      <trkpt lat="43.64947" lon="6.20231">
        <ele>558.30987</ele>
        <time>2026-03-24T08:20:55.002Z</time>
      </trkpt>
      <trkpt lat="43.6495" lon="6.20232">
        <ele>558.3886</ele>
        <time>2026-03-24T08:20:57.002Z</time>
      </trkpt>
      <trkpt lat="43.64952" lon="6.20234">
        <ele>558.4939</ele>
        <time>2026-03-24T08:20:59.002Z</time>
      </trkpt>
      <trkpt lat="43.64955" lon="6.20235">
        <ele>558.61692</ele>
        <time>2026-03-24T08:21:01.002Z</time>
      </trkpt>
      <trkpt lat="43.64957" lon="6.20236">
        <ele>558.76908</ele>
        <time>2026-03-24T08:21:03.002Z</time>
      </trkpt>
      <trkpt lat="43.64959" lon="6.20239">
        <ele>558.94309</ele>
        <time>2026-03-24T08:21:05.002Z</time>
      </trkpt>
      <trkpt lat="43.64962" lon="6.20241">
        <ele>559.16991</ele>
        <time>2026-03-24T08:21:08.002Z</time>
      </trkpt>
      <trkpt lat="43.64964" lon="6.20244">
        <ele>559.41669</ele>
        <time>2026-03-24T08:21:11.002Z</time>
      </trkpt>
      <trkpt lat="43.64968" lon="6.20245">
        <ele>559.65667</ele>
        <time>2026-03-24T08:21:14.002Z</time>
      </trkpt>
      <trkpt lat="43.64971" lon="6.20248">
        <ele>559.87712</ele>
        <time>2026-03-24T08:21:17.002Z</time>
      </trkpt>
      <trkpt lat="43.64974" lon="6.2025">
        <ele>560.06767</ele>
        <time>2026-03-24T08:21:20.002Z</time>
      </trkpt>
      <trkpt lat="43.64976" lon="6.20252">
        <ele>560.20104</ele>
        <time>2026-03-24T08:21:22.002Z</time>
      </trkpt>
      <trkpt lat="43.64979" lon="6.20253">
        <ele>560.39568</ele>
        <time>2026-03-24T08:21:25.002Z</time>
      </trkpt>
      <trkpt lat="43.64982" lon="6.20253">
        <ele>560.53373</ele>
        <time>2026-03-24T08:21:27.002Z</time>
      </trkpt>
      <trkpt lat="43.64984" lon="6.20254">
        <ele>560.73491</ele>
        <time>2026-03-24T08:21:29.002Z</time>
      </trkpt>
      <trkpt lat="43.64986" lon="6.20255">
        <ele>561.01776</ele>
        <time>2026-03-24T08:21:31.002Z</time>
      </trkpt>
      <trkpt lat="43.64989" lon="6.20256">
        <ele>561.2797</ele>
        <time>2026-03-24T08:21:33.002Z</time>
      </trkpt>
      <trkpt lat="43.64992" lon="6.20257">
        <ele>561.75787</ele>
        <time>2026-03-24T08:21:36.002Z</time>
      </trkpt>
      <trkpt lat="43.64995" lon="6.20257">
        <ele>562.16463</ele>
        <time>2026-03-24T08:21:38.002Z</time>
      </trkpt>
      <trkpt lat="43.64998" lon="6.20257">
        <ele>562.82615</ele>
        <time>2026-03-24T08:21:41.002Z</time>
      </trkpt>
      <trkpt lat="43.65002" lon="6.20258">
        <ele>563.55087</ele>
        <time>2026-03-24T08:21:44.002Z</time>
      </trkpt>
      <trkpt lat="43.65004" lon="6.20258">
        <ele>564.03168</ele>
        <time>2026-03-24T08:21:46.002Z</time>
      </trkpt>
      <trkpt lat="43.65007" lon="6.20259">
        <ele>564.77245</ele>
        <time>2026-03-24T08:21:49.002Z</time>
      </trkpt>
      <trkpt lat="43.6501" lon="6.20261">
        <ele>565.25913</ele>
        <time>2026-03-24T08:21:51.002Z</time>
      </trkpt>
      <trkpt lat="43.65013" lon="6.20262">
        <ele>565.96291</ele>
        <time>2026-03-24T08:21:54.002Z</time>
      </trkpt>
      <trkpt lat="43.65015" lon="6.20265">
        <ele>566.42632</ele>
        <time>2026-03-24T08:21:56.002Z</time>
      </trkpt>
      <trkpt lat="43.65017" lon="6.20266">
        <ele>566.87164</ele>
        <time>2026-03-24T08:21:58.004Z</time>
      </trkpt>
      <trkpt lat="43.6502" lon="6.20268">
        <ele>567.24304</ele>
        <time>2026-03-24T08:22:00.004Z</time>
      </trkpt>
      <trkpt lat="43.65021" lon="6.20271">
        <ele>567.7446</ele>
        <time>2026-03-24T08:22:03.004Z</time>
      </trkpt>
      <trkpt lat="43.65024" lon="6.20273">
        <ele>568.20862</ele>
        <time>2026-03-24T08:22:06.005Z</time>
      </trkpt>
      <trkpt lat="43.65027" lon="6.20275">
        <ele>568.53701</ele>
        <time>2026-03-24T08:22:08.004Z</time>
      </trkpt>
      <trkpt lat="43.65029" lon="6.20277">
        <ele>568.88808</ele>
        <time>2026-03-24T08:22:11.004Z</time>
      </trkpt>
      <trkpt lat="43.65032" lon="6.20278">
        <ele>569.07883</ele>
        <time>2026-03-24T08:22:13.004Z</time>
      </trkpt>
      <trkpt lat="43.65034" lon="6.20279">
        <ele>569.19948</ele>
        <time>2026-03-24T08:22:15.004Z</time>
      </trkpt>
      <trkpt lat="43.65037" lon="6.20279">
        <ele>569.34824</ele>
        <time>2026-03-24T08:22:17.004Z</time>
      </trkpt>
      <trkpt lat="43.65039" lon="6.20278">
        <ele>569.48137</ele>
        <time>2026-03-24T08:22:19.004Z</time>
      </trkpt>
      <trkpt lat="43.65042" lon="6.20278">
        <ele>569.65735</ele>
        <time>2026-03-24T08:22:21.004Z</time>
      </trkpt>
      <trkpt lat="43.65045" lon="6.20279">
        <ele>569.80703</ele>
        <time>2026-03-24T08:22:23.004Z</time>
      </trkpt>
      <trkpt lat="43.65048" lon="6.2028">
        <ele>569.96268</ele>
        <time>2026-03-24T08:22:25.004Z</time>
      </trkpt>
      <trkpt lat="43.65051" lon="6.20282">
        <ele>570.19658</ele>
        <time>2026-03-24T08:22:28.004Z</time>
      </trkpt>
      <trkpt lat="43.65053" lon="6.20282">
        <ele>570.38808</ele>
        <time>2026-03-24T08:22:30.004Z</time>
      </trkpt>
      <trkpt lat="43.65057" lon="6.20283">
        <ele>570.60534</ele>
        <time>2026-03-24T08:22:32.004Z</time>
      </trkpt>
      <trkpt lat="43.6506" lon="6.20285">
        <ele>570.90228</ele>
        <time>2026-03-24T08:22:35.004Z</time>
      </trkpt>
      <trkpt lat="43.65063" lon="6.20287">
        <ele>571.1383</ele>
        <time>2026-03-24T08:22:37.004Z</time>
      </trkpt>
      <trkpt lat="43.65065" lon="6.2029">
        <ele>571.40061</ele>
        <time>2026-03-24T08:22:39.004Z</time>
      </trkpt>
      <trkpt lat="43.65067" lon="6.20292">
        <ele>571.64427</ele>
        <time>2026-03-24T08:22:41.004Z</time>
      </trkpt>
      <trkpt lat="43.65069" lon="6.20294">
        <ele>571.9018</ele>
        <time>2026-03-24T08:22:43.004Z</time>
      </trkpt>
      <trkpt lat="43.6507" lon="6.20296">
        <ele>572.22364</ele>
        <time>2026-03-24T08:22:45.004Z</time>
      </trkpt>
      <trkpt lat="43.65073" lon="6.20298">
        <ele>572.75711</ele>
        <time>2026-03-24T08:22:48.004Z</time>
      </trkpt>
      <trkpt lat="43.65075" lon="6.20302">
        <ele>573.31318</ele>
        <time>2026-03-24T08:22:51.004Z</time>
      </trkpt>
      <trkpt lat="43.65077" lon="6.20306">
        <ele>573.83342</ele>
        <time>2026-03-24T08:22:54.004Z</time>
      </trkpt>
      <trkpt lat="43.65079" lon="6.20309">
        <ele>574.28957</ele>
        <time>2026-03-24T08:22:57.004Z</time>
      </trkpt>
      <trkpt lat="43.65081" lon="6.20311">
        <ele>574.52191</ele>
        <time>2026-03-24T08:22:59.004Z</time>
      </trkpt>
      <trkpt lat="43.65082" lon="6.20316">
        <ele>574.84488</ele>
        <time>2026-03-24T08:23:02.004Z</time>
      </trkpt>
      <trkpt lat="43.65084" lon="6.20319">
        <ele>575.05115</ele>
        <time>2026-03-24T08:23:04.004Z</time>
      </trkpt>
      <trkpt lat="43.65086" lon="6.20322">
        <ele>575.39425</ele>
        <time>2026-03-24T08:23:07.004Z</time>
      </trkpt>
      <trkpt lat="43.65089" lon="6.20323">
        <ele>575.74506</ele>
        <time>2026-03-24T08:23:10.004Z</time>
      </trkpt>
      <trkpt lat="43.65092" lon="6.20322">
        <ele>576.12821</ele>
        <time>2026-03-24T08:23:13.004Z</time>
      </trkpt>
      <trkpt lat="43.65095" lon="6.20319">
        <ele>576.4056</ele>
        <time>2026-03-24T08:23:15.004Z</time>
      </trkpt>
      <trkpt lat="43.65097" lon="6.20316">
        <ele>576.82165</ele>
        <time>2026-03-24T08:23:18.004Z</time>
      </trkpt>
      <trkpt lat="43.65098" lon="6.20312">
        <ele>577.31486</ele>
        <time>2026-03-24T08:23:22.004Z</time>
      </trkpt>
      <trkpt lat="43.65098" lon="6.20309">
        <ele>577.55399</ele>
        <time>2026-03-24T08:23:24.004Z</time>
      </trkpt>
      <trkpt lat="43.65096" lon="6.20304">
        <ele>577.83507</ele>
        <time>2026-03-24T08:23:27.004Z</time>
      </trkpt>
      <trkpt lat="43.65094" lon="6.20301">
        <ele>578.03137</ele>
        <time>2026-03-24T08:23:30.004Z</time>
      </trkpt>
      <trkpt lat="43.65093" lon="6.20297">
        <ele>578.17394</ele>
        <time>2026-03-24T08:23:33.004Z</time>
      </trkpt>
      <trkpt lat="43.65091" lon="6.20293">
        <ele>578.26466</ele>
        <time>2026-03-24T08:23:36.004Z</time>
      </trkpt>
      <trkpt lat="43.6509" lon="6.20291">
        <ele>578.3315</ele>
        <time>2026-03-24T08:23:38.004Z</time>
      </trkpt>
      <trkpt lat="43.65089" lon="6.20288">
        <ele>578.37872</ele>
        <time>2026-03-24T08:23:40.004Z</time>
      </trkpt>
      <trkpt lat="43.65087" lon="6.20284">
        <ele>578.4286</ele>
        <time>2026-03-24T08:23:43.004Z</time>
      </trkpt>
      <trkpt lat="43.65086" lon="6.2028">
        <ele>578.47627</ele>
        <time>2026-03-24T08:23:45.004Z</time>
      </trkpt>
      <trkpt lat="43.65085" lon="6.20277">
        <ele>578.55034</ele>
        <time>2026-03-24T08:23:48.003Z</time>
      </trkpt>
      <trkpt lat="43.65083" lon="6.20275">
        <ele>578.59496</ele>
        <time>2026-03-24T08:23:50.003Z</time>
      </trkpt>
      <trkpt lat="43.65081" lon="6.20272">
        <ele>578.62176</ele>
        <time>2026-03-24T08:23:52.003Z</time>
      </trkpt>
      <trkpt lat="43.65079" lon="6.20269">
        <ele>578.64595</ele>
        <time>2026-03-24T08:23:54.003Z</time>
      </trkpt>
      <trkpt lat="43.65077" lon="6.20267">
        <ele>578.67048</ele>
        <time>2026-03-24T08:23:56.003Z</time>
      </trkpt>
      <trkpt lat="43.65074" lon="6.20264">
        <ele>578.71018</ele>
        <time>2026-03-24T08:23:59.003Z</time>
      </trkpt>
      <trkpt lat="43.65073" lon="6.20261">
        <ele>578.72586</ele>
        <time>2026-03-24T08:24:01.003Z</time>
      </trkpt>
      <trkpt lat="43.65071" lon="6.20258">
        <ele>578.73765</ele>
        <time>2026-03-24T08:24:04.005Z</time>
      </trkpt>
      <trkpt lat="43.65069" lon="6.20255">
        <ele>578.74806</ele>
        <time>2026-03-24T08:24:06.005Z</time>
      </trkpt>
      <trkpt lat="43.65067" lon="6.20252">
        <ele>578.75532</ele>
        <time>2026-03-24T08:24:08.005Z</time>
      </trkpt>
      <trkpt lat="43.65064" lon="6.20249">
        <ele>578.75848</ele>
        <time>2026-03-24T08:24:11.004Z</time>
      </trkpt>
      <trkpt lat="43.65063" lon="6.20247">
        <ele>578.74983</ele>
        <time>2026-03-24T08:24:13.005Z</time>
      </trkpt>
      <trkpt lat="43.65061" lon="6.20244">
        <ele>578.74474</ele>
        <time>2026-03-24T08:24:15.005Z</time>
      </trkpt>
      <trkpt lat="43.65059" lon="6.20243">
        <ele>578.7406</ele>
        <time>2026-03-24T08:24:18.005Z</time>
      </trkpt>
      <trkpt lat="43.65058" lon="6.2024">
        <ele>578.73967</ele>
        <time>2026-03-24T08:24:20.005Z</time>
      </trkpt>
      <trkpt lat="43.65056" lon="6.20237">
        <ele>578.73642</ele>
        <time>2026-03-24T08:24:23.005Z</time>
      </trkpt>
      <trkpt lat="43.65053" lon="6.20235">
        <ele>578.73905</ele>
        <time>2026-03-24T08:24:25.005Z</time>
      </trkpt>
      <trkpt lat="43.65051" lon="6.20231">
        <ele>578.7425</ele>
        <time>2026-03-24T08:24:28.005Z</time>
      </trkpt>
      <trkpt lat="43.65049" lon="6.20229">
        <ele>578.74914</ele>
        <time>2026-03-24T08:24:30.005Z</time>
      </trkpt>
      <trkpt lat="43.65048" lon="6.20226">
        <ele>578.7564</ele>
        <time>2026-03-24T08:24:32.005Z</time>
      </trkpt>
      <trkpt lat="43.65045" lon="6.20224">
        <ele>578.76574</ele>
        <time>2026-03-24T08:24:34.005Z</time>
      </trkpt>
      <trkpt lat="43.65043" lon="6.20221">
        <ele>578.77785</ele>
        <time>2026-03-24T08:24:36.005Z</time>
      </trkpt>
      <trkpt lat="43.6504" lon="6.20219">
        <ele>578.79754</ele>
        <time>2026-03-24T08:24:39.005Z</time>
      </trkpt>
      <trkpt lat="43.65038" lon="6.20217">
        <ele>578.80604</ele>
        <time>2026-03-24T08:24:41.005Z</time>
      </trkpt>
      <trkpt lat="43.65036" lon="6.20215">
        <ele>578.82381</ele>
        <time>2026-03-24T08:24:44.005Z</time>
      </trkpt>
      <trkpt lat="43.65033" lon="6.20214">
        <ele>578.83836</ele>
        <time>2026-03-24T08:24:47.005Z</time>
      </trkpt>
      <trkpt lat="43.65031" lon="6.20213">
        <ele>578.84301</ele>
        <time>2026-03-24T08:24:49.005Z</time>
      </trkpt>
      <trkpt lat="43.65026" lon="6.20212">
        <ele>578.84902</ele>
        <time>2026-03-24T08:24:52.005Z</time>
      </trkpt>
      <trkpt lat="43.65023" lon="6.20211">
        <ele>578.85226</ele>
        <time>2026-03-24T08:24:55.005Z</time>
      </trkpt>
      <trkpt lat="43.65021" lon="6.2021">
        <ele>578.84998</ele>
        <time>2026-03-24T08:24:57.005Z</time>
      </trkpt>
      <trkpt lat="43.65018" lon="6.20209">
        <ele>578.84322</ele>
        <time>2026-03-24T08:24:59.005Z</time>
      </trkpt>
      <trkpt lat="43.65016" lon="6.20208">
        <ele>578.82632</ele>
        <time>2026-03-24T08:25:02.005Z</time>
      </trkpt>
      <trkpt lat="43.65013" lon="6.20206">
        <ele>578.79715</ele>
        <time>2026-03-24T08:25:05.005Z</time>
      </trkpt>
      <trkpt lat="43.6501" lon="6.20203">
        <ele>578.74202</ele>
        <time>2026-03-24T08:25:08.005Z</time>
      </trkpt>
      <trkpt lat="43.65008" lon="6.20199">
        <ele>578.65107</ele>
        <time>2026-03-24T08:25:11.005Z</time>
      </trkpt>
      <trkpt lat="43.65006" lon="6.20195">
        <ele>578.5323</ele>
        <time>2026-03-24T08:25:14.005Z</time>
      </trkpt>
      <trkpt lat="43.65005" lon="6.20192">
        <ele>578.44396</ele>
        <time>2026-03-24T08:25:16.005Z</time>
      </trkpt>
      <trkpt lat="43.65004" lon="6.20189">
        <ele>578.34418</ele>
        <time>2026-03-24T08:25:18.005Z</time>
      </trkpt>
      <trkpt lat="43.65004" lon="6.20185">
        <ele>578.20773</ele>
        <time>2026-03-24T08:25:21.004Z</time>
      </trkpt>
      <trkpt lat="43.65004" lon="6.20181">
        <ele>578.13326</ele>
        <time>2026-03-24T08:25:23.004Z</time>
      </trkpt>
      <trkpt lat="43.65004" lon="6.20177">
        <ele>578.0732</ele>
        <time>2026-03-24T08:25:25.004Z</time>
      </trkpt>
      <trkpt lat="43.65004" lon="6.20172">
        <ele>578.01183</ele>
        <time>2026-03-24T08:25:28.004Z</time>
      </trkpt>
      <trkpt lat="43.65003" lon="6.20168">
        <ele>577.976</ele>
        <time>2026-03-24T08:25:31.004Z</time>
      </trkpt>
      <trkpt lat="43.65003" lon="6.20164">
        <ele>577.9585</ele>
        <time>2026-03-24T08:25:33.004Z</time>
      </trkpt>
      <trkpt lat="43.65003" lon="6.2016">
        <ele>577.94341</ele>
        <time>2026-03-24T08:25:35.004Z</time>
      </trkpt>
      <trkpt lat="43.65003" lon="6.20156">
        <ele>577.94784</ele>
        <time>2026-03-24T08:25:38.004Z</time>
      </trkpt>
      <trkpt lat="43.65003" lon="6.20151">
        <ele>577.96272</ele>
        <time>2026-03-24T08:25:41.004Z</time>
      </trkpt>
      <trkpt lat="43.65004" lon="6.20146">
        <ele>577.99159</ele>
        <time>2026-03-24T08:25:44.004Z</time>
      </trkpt>
      <trkpt lat="43.65004" lon="6.20143">
        <ele>578.01957</ele>
        <time>2026-03-24T08:25:46.004Z</time>
      </trkpt>
      <trkpt lat="43.65005" lon="6.2014">
        <ele>578.04398</ele>
        <time>2026-03-24T08:25:48.004Z</time>
      </trkpt>
      <trkpt lat="43.65005" lon="6.20135">
        <ele>578.10339</ele>
        <time>2026-03-24T08:25:51.004Z</time>
      </trkpt>
      <trkpt lat="43.65007" lon="6.20132">
        <ele>578.16669</ele>
        <time>2026-03-24T08:25:54.004Z</time>
      </trkpt>
      <trkpt lat="43.65007" lon="6.20128">
        <ele>578.22647</ele>
        <time>2026-03-24T08:25:56.004Z</time>
      </trkpt>
      <trkpt lat="43.65008" lon="6.20124">
        <ele>578.28813</ele>
        <time>2026-03-24T08:25:58.004Z</time>
      </trkpt>
      <trkpt lat="43.65008" lon="6.20119">
        <ele>578.42186</ele>
        <time>2026-03-24T08:26:01.004Z</time>
      </trkpt>
      <trkpt lat="43.65009" lon="6.20115">
        <ele>578.58581</ele>
        <time>2026-03-24T08:26:04.004Z</time>
      </trkpt>
      <trkpt lat="43.6501" lon="6.20111">
        <ele>578.74698</ele>
        <time>2026-03-24T08:26:07.004Z</time>
      </trkpt>
      <trkpt lat="43.65011" lon="6.20107">
        <ele>578.87436</ele>
        <time>2026-03-24T08:26:09.004Z</time>
      </trkpt>
      <trkpt lat="43.65012" lon="6.20104">
        <ele>579.01517</ele>
        <time>2026-03-24T08:26:11.006Z</time>
      </trkpt>
      <trkpt lat="43.65014" lon="6.20102">
        <ele>579.16859</ele>
        <time>2026-03-24T08:26:13.005Z</time>
      </trkpt>
      <trkpt lat="43.65016" lon="6.20099">
        <ele>579.4194</ele>
        <time>2026-03-24T08:26:16.006Z</time>
      </trkpt>
      <trkpt lat="43.65018" lon="6.20096">
        <ele>579.58807</ele>
        <time>2026-03-24T08:26:18.006Z</time>
      </trkpt>
      <trkpt lat="43.6502" lon="6.20093">
        <ele>579.81976</ele>
        <time>2026-03-24T08:26:21.006Z</time>
      </trkpt>
      <trkpt lat="43.65023" lon="6.2009">
        <ele>580.05127</ele>
        <time>2026-03-24T08:26:24.006Z</time>
      </trkpt>
      <trkpt lat="43.65025" lon="6.20087">
        <ele>580.26939</ele>
        <time>2026-03-24T08:26:27.006Z</time>
      </trkpt>
      <trkpt lat="43.65027" lon="6.20085">
        <ele>580.39792</ele>
        <time>2026-03-24T08:26:29.006Z</time>
      </trkpt>
      <trkpt lat="43.6503" lon="6.20082">
        <ele>580.57836</ele>
        <time>2026-03-24T08:26:32.006Z</time>
      </trkpt>
      <trkpt lat="43.65033" lon="6.2008">
        <ele>580.7004</ele>
        <time>2026-03-24T08:26:34.006Z</time>
      </trkpt>
      <trkpt lat="43.65035" lon="6.20078">
        <ele>580.79181</ele>
        <time>2026-03-24T08:26:36.006Z</time>
      </trkpt>
      <trkpt lat="43.65037" lon="6.20076">
        <ele>580.89792</ele>
        <time>2026-03-24T08:26:38.006Z</time>
      </trkpt>
      <trkpt lat="43.6504" lon="6.20073">
        <ele>581.01531</ele>
        <time>2026-03-24T08:26:41.006Z</time>
      </trkpt>
      <trkpt lat="43.65043" lon="6.20071">
        <ele>581.07779</ele>
        <time>2026-03-24T08:26:43.006Z</time>
      </trkpt>
      <trkpt lat="43.65046" lon="6.2007">
        <ele>581.17743</ele>
        <time>2026-03-24T08:26:46.006Z</time>
      </trkpt>
      <trkpt lat="43.65048" lon="6.20068">
        <ele>581.24863</ele>
        <time>2026-03-24T08:26:49.006Z</time>
      </trkpt>
      <trkpt lat="43.65051" lon="6.20068">
        <ele>581.28914</ele>
        <time>2026-03-24T08:26:51.006Z</time>
      </trkpt>
      <trkpt lat="43.65055" lon="6.20067">
        <ele>581.36331</ele>
        <time>2026-03-24T08:26:54.006Z</time>
      </trkpt>
      <trkpt lat="43.65057" lon="6.20066">
        <ele>581.41651</ele>
        <time>2026-03-24T08:26:56.006Z</time>
      </trkpt>
      <trkpt lat="43.6506" lon="6.20065">
        <ele>581.45546</ele>
        <time>2026-03-24T08:26:58.006Z</time>
      </trkpt>
      <trkpt lat="43.65062" lon="6.20062">
        <ele>581.54292</ele>
        <time>2026-03-24T08:27:01.006Z</time>
      </trkpt>
      <trkpt lat="43.65065" lon="6.20059">
        <ele>581.65164</ele>
        <time>2026-03-24T08:27:04.006Z</time>
      </trkpt>
      <trkpt lat="43.65067" lon="6.20056">
        <ele>581.72609</ele>
        <time>2026-03-24T08:27:06.006Z</time>
      </trkpt>
      <trkpt lat="43.6507" lon="6.20055">
        <ele>581.82005</ele>
        <time>2026-03-24T08:27:08.006Z</time>
      </trkpt>
      <trkpt lat="43.65073" lon="6.20053">
        <ele>581.98325</ele>
        <time>2026-03-24T08:27:11.006Z</time>
      </trkpt>
      <trkpt lat="43.65075" lon="6.2005">
        <ele>582.09514</ele>
        <time>2026-03-24T08:27:13.006Z</time>
      </trkpt>
      <trkpt lat="43.65078" lon="6.20047">
        <ele>582.30628</ele>
        <time>2026-03-24T08:27:16.006Z</time>
      </trkpt>
      <trkpt lat="43.6508" lon="6.20046">
        <ele>582.4649</ele>
        <time>2026-03-24T08:27:18.006Z</time>
      </trkpt>
      <trkpt lat="43.65082" lon="6.20043">
        <ele>582.64442</ele>
        <time>2026-03-24T08:27:20.006Z</time>
      </trkpt>
      <trkpt lat="43.65084" lon="6.2004">
        <ele>582.92924</ele>
        <time>2026-03-24T08:27:23.006Z</time>
      </trkpt>
      <trkpt lat="43.65086" lon="6.20037">
        <ele>583.09603</ele>
        <time>2026-03-24T08:27:25.006Z</time>
      </trkpt>
      <trkpt lat="43.65089" lon="6.20035">
        <ele>583.23768</ele>
        <time>2026-03-24T08:27:27.006Z</time>
      </trkpt>
      <trkpt lat="43.65091" lon="6.20032">
        <ele>583.4309</ele>
        <time>2026-03-24T08:27:30.006Z</time>
      </trkpt>
      <trkpt lat="43.65093" lon="6.2003">
        <ele>583.58052</ele>
        <time>2026-03-24T08:27:32.005Z</time>
      </trkpt>
      <trkpt lat="43.65095" lon="6.20027">
        <ele>583.7423</ele>
        <time>2026-03-24T08:27:34.005Z</time>
      </trkpt>
      <trkpt lat="43.65097" lon="6.20025">
        <ele>583.88002</ele>
        <time>2026-03-24T08:27:36.005Z</time>
      </trkpt>
      <trkpt lat="43.65099" lon="6.20021">
        <ele>584.09976</ele>
        <time>2026-03-24T08:27:39.005Z</time>
      </trkpt>
      <trkpt lat="43.65101" lon="6.20018">
        <ele>584.21555</ele>
        <time>2026-03-24T08:27:41.005Z</time>
      </trkpt>
      <trkpt lat="43.65103" lon="6.20015">
        <ele>584.30286</ele>
        <time>2026-03-24T08:27:44.005Z</time>
      </trkpt>
      <trkpt lat="43.65105" lon="6.20011">
        <ele>584.39382</ele>
        <time>2026-03-24T08:27:47.005Z</time>
      </trkpt>
      <trkpt lat="43.65107" lon="6.20008">
        <ele>584.454</ele>
        <time>2026-03-24T08:27:49.005Z</time>
      </trkpt>
      <trkpt lat="43.65108" lon="6.20003">
        <ele>584.5189</ele>
        <time>2026-03-24T08:27:52.005Z</time>
      </trkpt>
      <trkpt lat="43.65109" lon="6.2">
        <ele>584.54334</ele>
        <time>2026-03-24T08:27:54.005Z</time>
      </trkpt>
      <trkpt lat="43.6511" lon="6.19997">
        <ele>584.56491</ele>
        <time>2026-03-24T08:27:56.005Z</time>
      </trkpt>
      <trkpt lat="43.65111" lon="6.19993">
        <ele>584.56744</ele>
        <time>2026-03-24T08:27:58.005Z</time>
      </trkpt>
      <trkpt lat="43.65112" lon="6.1999">
        <ele>584.56417</ele>
        <time>2026-03-24T08:28:00.005Z</time>
      </trkpt>
      <trkpt lat="43.65114" lon="6.19986">
        <ele>584.55524</ele>
        <time>2026-03-24T08:28:02.005Z</time>
      </trkpt>
      <trkpt lat="43.65115" lon="6.19981">
        <ele>584.54547</ele>
        <time>2026-03-24T08:28:05.005Z</time>
      </trkpt>
      <trkpt lat="43.65115" lon="6.19977">
        <ele>584.53645</ele>
        <time>2026-03-24T08:28:07.005Z</time>
      </trkpt>
      <trkpt lat="43.65115" lon="6.19973">
        <ele>584.51166</ele>
        <time>2026-03-24T08:28:09.005Z</time>
      </trkpt>
      <trkpt lat="43.65117" lon="6.1997">
        <ele>584.48676</ele>
        <time>2026-03-24T08:28:11.005Z</time>
      </trkpt>
      <trkpt lat="43.65118" lon="6.19967">
        <ele>584.4589</ele>
        <time>2026-03-24T08:28:13.005Z</time>
      </trkpt>
      <trkpt lat="43.65119" lon="6.19964">
        <ele>584.43131</ele>
        <time>2026-03-24T08:28:15.005Z</time>
      </trkpt>
      <trkpt lat="43.65119" lon="6.1996">
        <ele>584.40932</ele>
        <time>2026-03-24T08:28:17.006Z</time>
      </trkpt>
      <trkpt lat="43.6512" lon="6.19956">
        <ele>584.37116</ele>
        <time>2026-03-24T08:28:20.007Z</time>
      </trkpt>
      <trkpt lat="43.65121" lon="6.19951">
        <ele>584.34295</ele>
        <time>2026-03-24T08:28:22.007Z</time>
      </trkpt>
      <trkpt lat="43.65121" lon="6.19947">
        <ele>584.32018</ele>
        <time>2026-03-24T08:28:24.006Z</time>
      </trkpt>
      <trkpt lat="43.65122" lon="6.19943">
        <ele>584.29598</ele>
        <time>2026-03-24T08:28:26.006Z</time>
      </trkpt>
      <trkpt lat="43.65123" lon="6.19939">
        <ele>584.28077</ele>
        <time>2026-03-24T08:28:28.007Z</time>
      </trkpt>
      <trkpt lat="43.65124" lon="6.19934">
        <ele>584.25965</ele>
        <time>2026-03-24T08:28:31.006Z</time>
      </trkpt>
      <trkpt lat="43.65126" lon="6.19931">
        <ele>584.24197</ele>
        <time>2026-03-24T08:28:33.006Z</time>
      </trkpt>
      <trkpt lat="43.65127" lon="6.19927">
        <ele>584.21752</ele>
        <time>2026-03-24T08:28:35.006Z</time>
      </trkpt>
      <trkpt lat="43.65128" lon="6.19924">
        <ele>584.19359</ele>
        <time>2026-03-24T08:28:37.006Z</time>
      </trkpt>
      <trkpt lat="43.6513" lon="6.19921">
        <ele>584.17263</ele>
        <time>2026-03-24T08:28:39.006Z</time>
      </trkpt>
      <trkpt lat="43.65132" lon="6.19918">
        <ele>584.15305</ele>
        <time>2026-03-24T08:28:41.006Z</time>
      </trkpt>
      <trkpt lat="43.65133" lon="6.19915">
        <ele>584.12228</ele>
        <time>2026-03-24T08:28:44.006Z</time>
      </trkpt>
      <trkpt lat="43.65135" lon="6.19912">
        <ele>584.09953</ele>
        <time>2026-03-24T08:28:47.006Z</time>
      </trkpt>
      <trkpt lat="43.65137" lon="6.19908">
        <ele>584.09131</ele>
        <time>2026-03-24T08:28:49.006Z</time>
      </trkpt>
      <trkpt lat="43.65138" lon="6.19905">
        <ele>584.0841</ele>
        <time>2026-03-24T08:28:51.006Z</time>
      </trkpt>
      <trkpt lat="43.65138" lon="6.19902">
        <ele>584.08005</ele>
        <time>2026-03-24T08:28:53.006Z</time>
      </trkpt>
      <trkpt lat="43.6514" lon="6.19899">
        <ele>584.07642</ele>
        <time>2026-03-24T08:28:55.006Z</time>
      </trkpt>
      <trkpt lat="43.65142" lon="6.19897">
        <ele>584.07385</ele>
        <time>2026-03-24T08:28:57.006Z</time>
      </trkpt>
      <trkpt lat="43.65144" lon="6.19894">
        <ele>584.06604</ele>
        <time>2026-03-24T08:28:59.006Z</time>
      </trkpt>
      <trkpt lat="43.65146" lon="6.19892">
        <ele>584.06187</ele>
        <time>2026-03-24T08:29:01.006Z</time>
      </trkpt>
      <trkpt lat="43.65147" lon="6.19889">
        <ele>584.05421</ele>
        <time>2026-03-24T08:29:04.006Z</time>
      </trkpt>
      <trkpt lat="43.65149" lon="6.19887">
        <ele>584.05329</ele>
        <time>2026-03-24T08:29:06.006Z</time>
      </trkpt>
      <trkpt lat="43.65152" lon="6.19884">
        <ele>584.0491</ele>
        <time>2026-03-24T08:29:08.006Z</time>
      </trkpt>
      <trkpt lat="43.65154" lon="6.19882">
        <ele>584.04976</ele>
        <time>2026-03-24T08:29:10.006Z</time>
      </trkpt>
      <trkpt lat="43.65155" lon="6.1988">
        <ele>584.04934</ele>
        <time>2026-03-24T08:29:12.006Z</time>
      </trkpt>
      <trkpt lat="43.65157" lon="6.19877">
        <ele>584.05037</ele>
        <time>2026-03-24T08:29:14.006Z</time>
      </trkpt>
      <trkpt lat="43.65159" lon="6.19873">
        <ele>584.05598</ele>
        <time>2026-03-24T08:29:17.006Z</time>
      </trkpt>
      <trkpt lat="43.65161" lon="6.19871">
        <ele>584.06054</ele>
        <time>2026-03-24T08:29:20.006Z</time>
      </trkpt>
      <trkpt lat="43.65164" lon="6.19867">
        <ele>584.06282</ele>
        <time>2026-03-24T08:29:23.006Z</time>
      </trkpt>
      <trkpt lat="43.65167" lon="6.19863">
        <ele>584.06663</ele>
        <time>2026-03-24T08:29:26.006Z</time>
      </trkpt>
      <trkpt lat="43.65169" lon="6.19861">
        <ele>584.07055</ele>
        <time>2026-03-24T08:29:28.006Z</time>
      </trkpt>
      <trkpt lat="43.65171" lon="6.19857">
        <ele>584.07869</ele>
        <time>2026-03-24T08:29:31.006Z</time>
      </trkpt>
      <trkpt lat="43.65173" lon="6.19856">
        <ele>584.08331</ele>
        <time>2026-03-24T08:29:33.006Z</time>
      </trkpt>
      <trkpt lat="43.65177" lon="6.19856">
        <ele>584.08958</ele>
        <time>2026-03-24T08:29:35.006Z</time>
      </trkpt>
      <trkpt lat="43.6518" lon="6.19856">
        <ele>584.09787</ele>
        <time>2026-03-24T08:29:37.006Z</time>
      </trkpt>
      <trkpt lat="43.65182" lon="6.19854">
        <ele>584.10961</ele>
        <time>2026-03-24T08:29:39.006Z</time>
      </trkpt>
      <trkpt lat="43.65184" lon="6.19854">
        <ele>584.12633</ele>
        <time>2026-03-24T08:29:41.006Z</time>
      </trkpt>
      <trkpt lat="43.65187" lon="6.19853">
        <ele>584.156</ele>
        <time>2026-03-24T08:29:43.006Z</time>
      </trkpt>
      <trkpt lat="43.65189" lon="6.19853">
        <ele>584.19406</ele>
        <time>2026-03-24T08:29:45.006Z</time>
      </trkpt>
      <trkpt lat="43.65192" lon="6.19852">
        <ele>584.23054</ele>
        <time>2026-03-24T08:29:47.006Z</time>
      </trkpt>
      <trkpt lat="43.65194" lon="6.19851">
        <ele>584.2783</ele>
        <time>2026-03-24T08:29:49.006Z</time>
      </trkpt>
      <trkpt lat="43.65197" lon="6.19851">
        <ele>584.34645</ele>
        <time>2026-03-24T08:29:51.006Z</time>
      </trkpt>
      <trkpt lat="43.65199" lon="6.1985">
        <ele>584.48598</ele>
        <time>2026-03-24T08:29:54.005Z</time>
      </trkpt>
      <trkpt lat="43.65202" lon="6.19849">
        <ele>584.68794</ele>
        <time>2026-03-24T08:29:57.005Z</time>
      </trkpt>
      <trkpt lat="43.65205" lon="6.19848">
        <ele>584.83549</ele>
        <time>2026-03-24T08:29:59.005Z</time>
      </trkpt>
      <trkpt lat="43.65208" lon="6.19847">
        <ele>585.02963</ele>
        <time>2026-03-24T08:30:01.005Z</time>
      </trkpt>
      <trkpt lat="43.6521" lon="6.19845">
        <ele>585.26077</ele>
        <time>2026-03-24T08:30:03.005Z</time>
      </trkpt>
      <trkpt lat="43.65212" lon="6.19844">
        <ele>585.50325</ele>
        <time>2026-03-24T08:30:05.005Z</time>
      </trkpt>
      <trkpt lat="43.65214" lon="6.19841">
        <ele>585.75018</ele>
        <time>2026-03-24T08:30:07.005Z</time>
      </trkpt>
      <trkpt lat="43.65217" lon="6.19839">
        <ele>585.9835</ele>
        <time>2026-03-24T08:30:09.005Z</time>
      </trkpt>
      <trkpt lat="43.65218" lon="6.19836">
        <ele>586.32578</ele>
        <time>2026-03-24T08:30:12.005Z</time>
      </trkpt>
      <trkpt lat="43.65221" lon="6.19834">
        <ele>586.536</ele>
        <time>2026-03-24T08:30:14.005Z</time>
      </trkpt>
      <trkpt lat="43.65223" lon="6.19832">
        <ele>586.84128</ele>
        <time>2026-03-24T08:30:16.005Z</time>
      </trkpt>
      <trkpt lat="43.65225" lon="6.1983">
        <ele>587.11994</ele>
        <time>2026-03-24T08:30:18.005Z</time>
      </trkpt>
      <trkpt lat="43.65228" lon="6.19828">
        <ele>587.34082</ele>
        <time>2026-03-24T08:30:20.005Z</time>
      </trkpt>
      <trkpt lat="43.65231" lon="6.19826">
        <ele>587.65774</ele>
        <time>2026-03-24T08:30:23.007Z</time>
      </trkpt>
      <trkpt lat="43.65234" lon="6.19824">
        <ele>587.93143</ele>
        <time>2026-03-24T08:30:26.007Z</time>
      </trkpt>
      <trkpt lat="43.65236" lon="6.19825">
        <ele>588.08845</ele>
        <time>2026-03-24T08:30:28.008Z</time>
      </trkpt>
      <trkpt lat="43.6524" lon="6.19825">
        <ele>588.22565</ele>
        <time>2026-03-24T08:30:30.007Z</time>
      </trkpt>
      <trkpt lat="43.65243" lon="6.19824">
        <ele>588.40923</ele>
        <time>2026-03-24T08:30:33.007Z</time>
      </trkpt>
      <trkpt lat="43.65246" lon="6.19824">
        <ele>588.513</ele>
        <time>2026-03-24T08:30:35.007Z</time>
      </trkpt>
      <trkpt lat="43.65248" lon="6.19824">
        <ele>588.6199</ele>
        <time>2026-03-24T08:30:37.007Z</time>
      </trkpt>
      <trkpt lat="43.65251" lon="6.19824">
        <ele>588.73856</ele>
        <time>2026-03-24T08:30:39.007Z</time>
      </trkpt>
      <trkpt lat="43.65253" lon="6.19824">
        <ele>588.83239</ele>
        <time>2026-03-24T08:30:41.007Z</time>
      </trkpt>
      <trkpt lat="43.65256" lon="6.19823">
        <ele>588.93583</ele>
        <time>2026-03-24T08:30:43.007Z</time>
      </trkpt>
      <trkpt lat="43.65259" lon="6.19822">
        <ele>589.02248</ele>
        <time>2026-03-24T08:30:45.007Z</time>
      </trkpt>
      <trkpt lat="43.65261" lon="6.1982">
        <ele>589.11715</ele>
        <time>2026-03-24T08:30:48.007Z</time>
      </trkpt>
      <trkpt lat="43.65264" lon="6.19818">
        <ele>589.219</ele>
        <time>2026-03-24T08:30:51.007Z</time>
      </trkpt>
      <trkpt lat="43.65267" lon="6.19815">
        <ele>589.31003</ele>
        <time>2026-03-24T08:30:54.007Z</time>
      </trkpt>
      <trkpt lat="43.65269" lon="6.19813">
        <ele>589.36638</ele>
        <time>2026-03-24T08:30:56.007Z</time>
      </trkpt>
      <trkpt lat="43.65272" lon="6.19811">
        <ele>589.42895</ele>
        <time>2026-03-24T08:30:59.007Z</time>
      </trkpt>
      <trkpt lat="43.65274" lon="6.19809">
        <ele>589.47406</ele>
        <time>2026-03-24T08:31:01.007Z</time>
      </trkpt>
      <trkpt lat="43.65277" lon="6.19808">
        <ele>589.52271</ele>
        <time>2026-03-24T08:31:03.007Z</time>
      </trkpt>
      <trkpt lat="43.65279" lon="6.19807">
        <ele>589.56372</ele>
        <time>2026-03-24T08:31:05.007Z</time>
      </trkpt>
      <trkpt lat="43.65281" lon="6.19805">
        <ele>589.62009</ele>
        <time>2026-03-24T08:31:07.007Z</time>
      </trkpt>
      <trkpt lat="43.65284" lon="6.19804">
        <ele>589.65142</ele>
        <time>2026-03-24T08:31:09.007Z</time>
      </trkpt>
      <trkpt lat="43.65287" lon="6.19803">
        <ele>589.7202</ele>
        <time>2026-03-24T08:31:12.007Z</time>
      </trkpt>
      <trkpt lat="43.6529" lon="6.19801">
        <ele>589.76184</ele>
        <time>2026-03-24T08:31:14.007Z</time>
      </trkpt>
      <trkpt lat="43.65294" lon="6.19801">
        <ele>589.83047</ele>
        <time>2026-03-24T08:31:17.007Z</time>
      </trkpt>
      <trkpt lat="43.65297" lon="6.198">
        <ele>589.90154</ele>
        <time>2026-03-24T08:31:20.007Z</time>
      </trkpt>
      <trkpt lat="43.653" lon="6.19801">
        <ele>589.96659</ele>
        <time>2026-03-24T08:31:22.007Z</time>
      </trkpt>
      <trkpt lat="43.65302" lon="6.19803">
        <ele>590.03548</ele>
        <time>2026-03-24T08:31:24.007Z</time>
      </trkpt>
      <trkpt lat="43.65305" lon="6.19804">
        <ele>590.07065</ele>
        <time>2026-03-24T08:31:26.007Z</time>
      </trkpt>
      <trkpt lat="43.65308" lon="6.19805">
        <ele>590.1059</ele>
        <time>2026-03-24T08:31:28.007Z</time>
      </trkpt>
      <trkpt lat="43.65309" lon="6.19807">
        <ele>590.14806</ele>
        <time>2026-03-24T08:31:30.007Z</time>
      </trkpt>
      <trkpt lat="43.65312" lon="6.19809">
        <ele>590.19052</ele>
        <time>2026-03-24T08:31:32.007Z</time>
      </trkpt>
      <trkpt lat="43.65315" lon="6.1981">
        <ele>590.23985</ele>
        <time>2026-03-24T08:31:34.007Z</time>
      </trkpt>
      <trkpt lat="43.65316" lon="6.19813">
        <ele>590.30932</ele>
        <time>2026-03-24T08:31:36.007Z</time>
      </trkpt>
      <trkpt lat="43.65318" lon="6.19816">
        <ele>590.37363</ele>
        <time>2026-03-24T08:31:38.007Z</time>
      </trkpt>
      <trkpt lat="43.65321" lon="6.19817">
        <ele>590.44402</ele>
        <time>2026-03-24T08:31:40.007Z</time>
      </trkpt>
      <trkpt lat="43.65324" lon="6.19818">
        <ele>590.52401</ele>
        <time>2026-03-24T08:31:42.007Z</time>
      </trkpt>
      <trkpt lat="43.65327" lon="6.19819">
        <ele>590.6362</ele>
        <time>2026-03-24T08:31:45.007Z</time>
      </trkpt>
      <trkpt lat="43.65329" lon="6.19821">
        <ele>590.69066</ele>
        <time>2026-03-24T08:31:47.007Z</time>
      </trkpt>
      <trkpt lat="43.65332" lon="6.19822">
        <ele>590.76549</ele>
        <time>2026-03-24T08:31:49.007Z</time>
      </trkpt>
      <trkpt lat="43.65335" lon="6.19822">
        <ele>590.87159</ele>
        <time>2026-03-24T08:31:52.007Z</time>
      </trkpt>
      <trkpt lat="43.65338" lon="6.19819">
        <ele>590.95519</ele>
        <time>2026-03-24T08:31:54.007Z</time>
      </trkpt>
      <trkpt lat="43.6534" lon="6.19818">
        <ele>591.00156</ele>
        <time>2026-03-24T08:31:56.007Z</time>
      </trkpt>
      <trkpt lat="43.65343" lon="6.19818">
        <ele>591.07496</ele>
        <time>2026-03-24T08:31:58.007Z</time>
      </trkpt>
      <trkpt lat="43.65346" lon="6.19816">
        <ele>591.1427</ele>
        <time>2026-03-24T08:32:00.007Z</time>
      </trkpt>
      <trkpt lat="43.65347" lon="6.19814">
        <ele>591.21208</ele>
        <time>2026-03-24T08:32:02.007Z</time>
      </trkpt>
      <trkpt lat="43.6535" lon="6.19813">
        <ele>591.26943</ele>
        <time>2026-03-24T08:32:04.007Z</time>
      </trkpt>
      <trkpt lat="43.65352" lon="6.19812">
        <ele>591.31949</ele>
        <time>2026-03-24T08:32:06.007Z</time>
      </trkpt>
      <trkpt lat="43.65355" lon="6.19811">
        <ele>591.38621</ele>
        <time>2026-03-24T08:32:08.007Z</time>
      </trkpt>
      <trkpt lat="43.65358" lon="6.19809">
        <ele>591.45745</ele>
        <time>2026-03-24T08:32:11.007Z</time>
      </trkpt>
      <trkpt lat="43.65361" lon="6.19808">
        <ele>591.51218</ele>
        <time>2026-03-24T08:32:13.007Z</time>
      </trkpt>
      <trkpt lat="43.65363" lon="6.19807">
        <ele>591.55415</ele>
        <time>2026-03-24T08:32:15.007Z</time>
      </trkpt>
      <trkpt lat="43.65367" lon="6.19807">
        <ele>591.63591</ele>
        <time>2026-03-24T08:32:18.006Z</time>
      </trkpt>
      <trkpt lat="43.65369" lon="6.19806">
        <ele>591.68534</ele>
        <time>2026-03-24T08:32:20.006Z</time>
      </trkpt>
      <trkpt lat="43.65372" lon="6.19808">
        <ele>591.71589</ele>
        <time>2026-03-24T08:32:22.006Z</time>
      </trkpt>
      <trkpt lat="43.65374" lon="6.19808">
        <ele>591.73884</ele>
        <time>2026-03-24T08:32:24.006Z</time>
      </trkpt>
      <trkpt lat="43.65378" lon="6.19809">
        <ele>591.76609</ele>
        <time>2026-03-24T08:32:27.008Z</time>
      </trkpt>
      <trkpt lat="43.65381" lon="6.1981">
        <ele>591.78982</ele>
        <time>2026-03-24T08:32:30.009Z</time>
      </trkpt>
      <trkpt lat="43.65384" lon="6.1981">
        <ele>591.80686</ele>
        <time>2026-03-24T08:32:32.008Z</time>
      </trkpt>
      <trkpt lat="43.65387" lon="6.1981">
        <ele>591.81728</ele>
        <time>2026-03-24T08:32:34.009Z</time>
      </trkpt>
      <trkpt lat="43.65389" lon="6.19811">
        <ele>591.83192</ele>
        <time>2026-03-24T08:32:36.009Z</time>
      </trkpt>
      <trkpt lat="43.65392" lon="6.19812">
        <ele>591.83998</ele>
        <time>2026-03-24T08:32:38.009Z</time>
      </trkpt>
      <trkpt lat="43.65394" lon="6.19812">
        <ele>591.83667</ele>
        <time>2026-03-24T08:32:40.009Z</time>
      </trkpt>
      <trkpt lat="43.65397" lon="6.19812">
        <ele>591.83076</ele>
        <time>2026-03-24T08:32:42.009Z</time>
      </trkpt>
      <trkpt lat="43.654" lon="6.19811">
        <ele>591.83545</ele>
        <time>2026-03-24T08:32:44.009Z</time>
      </trkpt>
      <trkpt lat="43.65402" lon="6.19811">
        <ele>591.83539</ele>
        <time>2026-03-24T08:32:46.009Z</time>
      </trkpt>
      <trkpt lat="43.65404" lon="6.19811">
        <ele>591.83876</ele>
        <time>2026-03-24T08:32:48.009Z</time>
      </trkpt>
      <trkpt lat="43.65407" lon="6.19811">
        <ele>591.84088</ele>
        <time>2026-03-24T08:32:50.009Z</time>
      </trkpt>
      <trkpt lat="43.6541" lon="6.19811">
        <ele>591.84022</ele>
        <time>2026-03-24T08:32:52.009Z</time>
      </trkpt>
      <trkpt lat="43.65412" lon="6.1981">
        <ele>591.83564</ele>
        <time>2026-03-24T08:32:54.009Z</time>
      </trkpt>
      <trkpt lat="43.65415" lon="6.1981">
        <ele>591.83125</ele>
        <time>2026-03-24T08:32:56.009Z</time>
      </trkpt>
      <trkpt lat="43.65418" lon="6.1981">
        <ele>591.82949</ele>
        <time>2026-03-24T08:32:58.009Z</time>
      </trkpt>
      <trkpt lat="43.6542" lon="6.19811">
        <ele>591.82667</ele>
        <time>2026-03-24T08:33:00.009Z</time>
      </trkpt>
      <trkpt lat="43.65423" lon="6.19812">
        <ele>591.8253</ele>
        <time>2026-03-24T08:33:02.009Z</time>
      </trkpt>
      <trkpt lat="43.65425" lon="6.19814">
        <ele>591.82478</ele>
        <time>2026-03-24T08:33:04.009Z</time>
      </trkpt>
      <trkpt lat="43.65427" lon="6.19816">
        <ele>591.82458</ele>
        <time>2026-03-24T08:33:06.009Z</time>
      </trkpt>
      <trkpt lat="43.6543" lon="6.19816">
        <ele>591.82546</ele>
        <time>2026-03-24T08:33:08.009Z</time>
      </trkpt>
      <trkpt lat="43.65433" lon="6.19818">
        <ele>591.82459</ele>
        <time>2026-03-24T08:33:10.009Z</time>
      </trkpt>
      <trkpt lat="43.65435" lon="6.1982">
        <ele>591.82192</ele>
        <time>2026-03-24T08:33:13.009Z</time>
      </trkpt>
      <trkpt lat="43.65438" lon="6.19822">
        <ele>591.82128</ele>
        <time>2026-03-24T08:33:15.008Z</time>
      </trkpt>
      <trkpt lat="43.65441" lon="6.19824">
        <ele>591.82097</ele>
        <time>2026-03-24T08:33:17.008Z</time>
      </trkpt>
      <trkpt lat="43.65444" lon="6.19826">
        <ele>591.81892</ele>
        <time>2026-03-24T08:33:20.008Z</time>
      </trkpt>
      <trkpt lat="43.65446" lon="6.19828">
        <ele>591.81759</ele>
        <time>2026-03-24T08:33:22.008Z</time>
      </trkpt>
      <trkpt lat="43.65448" lon="6.19831">
        <ele>591.81553</ele>
        <time>2026-03-24T08:33:24.008Z</time>
      </trkpt>
      <trkpt lat="43.65451" lon="6.19833">
        <ele>591.81477</ele>
        <time>2026-03-24T08:33:26.008Z</time>
      </trkpt>
      <trkpt lat="43.65453" lon="6.19834">
        <ele>591.81368</ele>
        <time>2026-03-24T08:33:29.008Z</time>
      </trkpt>
      <trkpt lat="43.65456" lon="6.19835">
        <ele>591.81376</ele>
        <time>2026-03-24T08:33:31.008Z</time>
      </trkpt>
      <trkpt lat="43.65458" lon="6.19836">
        <ele>591.81426</ele>
        <time>2026-03-24T08:33:33.008Z</time>
      </trkpt>
      <trkpt lat="43.65461" lon="6.19837">
        <ele>591.81413</ele>
        <time>2026-03-24T08:33:35.008Z</time>
      </trkpt>
      <trkpt lat="43.65464" lon="6.19838">
        <ele>591.81404</ele>
        <time>2026-03-24T08:33:37.008Z</time>
      </trkpt>
      <trkpt lat="43.65466" lon="6.19839">
        <ele>591.81244</ele>
        <time>2026-03-24T08:33:39.008Z</time>
      </trkpt>
      <trkpt lat="43.65469" lon="6.1984">
        <ele>591.81158</ele>
        <time>2026-03-24T08:33:41.008Z</time>
      </trkpt>
      <trkpt lat="43.65472" lon="6.1984">
        <ele>591.81071</ele>
        <time>2026-03-24T08:33:43.008Z</time>
      </trkpt>
      <trkpt lat="43.65475" lon="6.19839">
        <ele>591.81117</ele>
        <time>2026-03-24T08:33:45.008Z</time>
      </trkpt>
      <trkpt lat="43.65477" lon="6.1984">
        <ele>591.81133</ele>
        <time>2026-03-24T08:33:47.008Z</time>
      </trkpt>
      <trkpt lat="43.65481" lon="6.19841">
        <ele>591.81111</ele>
        <time>2026-03-24T08:33:49.008Z</time>
      </trkpt>
      <trkpt lat="43.65483" lon="6.19842">
        <ele>591.81111</ele>
        <time>2026-03-24T08:33:51.008Z</time>
      </trkpt>
      <trkpt lat="43.65486" lon="6.19843">
        <ele>591.81177</ele>
        <time>2026-03-24T08:33:53.008Z</time>
      </trkpt>
      <trkpt lat="43.65489" lon="6.19843">
        <ele>591.81163</ele>
        <time>2026-03-24T08:33:55.008Z</time>
      </trkpt>
      <trkpt lat="43.65491" lon="6.19843">
        <ele>591.81118</ele>
        <time>2026-03-24T08:33:57.008Z</time>
      </trkpt>
      <trkpt lat="43.65494" lon="6.19843">
        <ele>591.81119</ele>
        <time>2026-03-24T08:33:59.008Z</time>
      </trkpt>
      <trkpt lat="43.65497" lon="6.19845">
        <ele>591.81152</ele>
        <time>2026-03-24T08:34:01.008Z</time>
      </trkpt>
      <trkpt lat="43.655" lon="6.19846">
        <ele>591.81234</ele>
        <time>2026-03-24T08:34:04.008Z</time>
      </trkpt>
      <trkpt lat="43.65503" lon="6.19846">
        <ele>591.81264</ele>
        <time>2026-03-24T08:34:06.008Z</time>
      </trkpt>
      <trkpt lat="43.65506" lon="6.19847">
        <ele>591.81387</ele>
        <time>2026-03-24T08:34:08.008Z</time>
      </trkpt>
      <trkpt lat="43.65509" lon="6.19847">
        <ele>591.81645</ele>
        <time>2026-03-24T08:34:10.008Z</time>
      </trkpt>
      <trkpt lat="43.65511" lon="6.19847">
        <ele>591.82751</ele>
        <time>2026-03-24T08:34:12.008Z</time>
      </trkpt>
      <trkpt lat="43.65514" lon="6.19848">
        <ele>591.84351</ele>
        <time>2026-03-24T08:34:14.008Z</time>
      </trkpt>
      <trkpt lat="43.65516" lon="6.19848">
        <ele>591.86664</ele>
        <time>2026-03-24T08:34:16.008Z</time>
      </trkpt>
      <trkpt lat="43.65519" lon="6.19848">
        <ele>591.90703</ele>
        <time>2026-03-24T08:34:18.008Z</time>
      </trkpt>
      <trkpt lat="43.65522" lon="6.19846">
        <ele>591.98097</ele>
        <time>2026-03-24T08:34:20.008Z</time>
      </trkpt>
      <trkpt lat="43.65524" lon="6.19843">
        <ele>592.17248</ele>
        <time>2026-03-24T08:34:23.008Z</time>
      </trkpt>
      <trkpt lat="43.65527" lon="6.1984">
        <ele>592.36203</ele>
        <time>2026-03-24T08:34:25.008Z</time>
      </trkpt>
      <trkpt lat="43.6553" lon="6.19837">
        <ele>592.74275</ele>
        <time>2026-03-24T08:34:28.008Z</time>
      </trkpt>
      <trkpt lat="43.65532" lon="6.19835">
        <ele>593.03543</ele>
        <time>2026-03-24T08:34:30.008Z</time>
      </trkpt>
      <trkpt lat="43.65534" lon="6.19832">
        <ele>593.29225</ele>
        <time>2026-03-24T08:34:32.008Z</time>
      </trkpt>
      <trkpt lat="43.65537" lon="6.19829">
        <ele>593.55065</ele>
        <time>2026-03-24T08:34:34.010Z</time>
      </trkpt>
      <trkpt lat="43.65538" lon="6.19826">
        <ele>593.80852</ele>
        <time>2026-03-24T08:34:36.009Z</time>
      </trkpt>
      <trkpt lat="43.6554" lon="6.19823">
        <ele>594.21189</ele>
        <time>2026-03-24T08:34:39.009Z</time>
      </trkpt>
      <trkpt lat="43.65542" lon="6.1982">
        <ele>594.49423</ele>
        <time>2026-03-24T08:34:41.009Z</time>
      </trkpt>
      <trkpt lat="43.65544" lon="6.19819">
        <ele>594.77997</ele>
        <time>2026-03-24T08:34:43.009Z</time>
      </trkpt>
      <trkpt lat="43.65546" lon="6.19816">
        <ele>595.01469</ele>
        <time>2026-03-24T08:34:45.009Z</time>
      </trkpt>
      <trkpt lat="43.65547" lon="6.19813">
        <ele>595.23438</ele>
        <time>2026-03-24T08:34:47.009Z</time>
      </trkpt>
      <trkpt lat="43.65549" lon="6.1981">
        <ele>595.45542</ele>
        <time>2026-03-24T08:34:49.009Z</time>
      </trkpt>
      <trkpt lat="43.6555" lon="6.19808">
        <ele>595.64316</ele>
        <time>2026-03-24T08:34:51.009Z</time>
      </trkpt>
      <trkpt lat="43.65553" lon="6.19805">
        <ele>595.7882</ele>
        <time>2026-03-24T08:34:53.009Z</time>
      </trkpt>
      <trkpt lat="43.65553" lon="6.19801">
        <ele>595.95774</ele>
        <time>2026-03-24T08:34:56.009Z</time>
      </trkpt>
      <trkpt lat="43.65555" lon="6.19798">
        <ele>596.07578</ele>
        <time>2026-03-24T08:34:58.009Z</time>
      </trkpt>
      <trkpt lat="43.65557" lon="6.19796">
        <ele>596.17545</ele>
        <time>2026-03-24T08:35:00.009Z</time>
      </trkpt>
      <trkpt lat="43.65559" lon="6.19794">
        <ele>596.28765</ele>
        <time>2026-03-24T08:35:02.009Z</time>
      </trkpt>
      <trkpt lat="43.65561" lon="6.19792">
        <ele>596.38329</ele>
        <time>2026-03-24T08:35:04.009Z</time>
      </trkpt>
      <trkpt lat="43.65563" lon="6.19789">
        <ele>596.47849</ele>
        <time>2026-03-24T08:35:06.009Z</time>
      </trkpt>
      <trkpt lat="43.65566" lon="6.19787">
        <ele>596.57181</ele>
        <time>2026-03-24T08:35:08.009Z</time>
      </trkpt>
      <trkpt lat="43.65567" lon="6.19783">
        <ele>596.71555</ele>
        <time>2026-03-24T08:35:11.009Z</time>
      </trkpt>
      <trkpt lat="43.65569" lon="6.19779">
        <ele>596.82515</ele>
        <time>2026-03-24T08:35:14.009Z</time>
      </trkpt>
      <trkpt lat="43.65571" lon="6.19776">
        <ele>596.88398</ele>
        <time>2026-03-24T08:35:16.009Z</time>
      </trkpt>
      <trkpt lat="43.65572" lon="6.19773">
        <ele>596.98814</ele>
        <time>2026-03-24T08:35:18.009Z</time>
      </trkpt>
      <trkpt lat="43.65574" lon="6.19769">
        <ele>597.07139</ele>
        <time>2026-03-24T08:35:21.009Z</time>
      </trkpt>
      <trkpt lat="43.65575" lon="6.19766">
        <ele>597.10771</ele>
        <time>2026-03-24T08:35:23.009Z</time>
      </trkpt>
      <trkpt lat="43.65577" lon="6.19763">
        <ele>597.14018</ele>
        <time>2026-03-24T08:35:25.009Z</time>
      </trkpt>
      <trkpt lat="43.65579" lon="6.1976">
        <ele>597.15404</ele>
        <time>2026-03-24T08:35:28.009Z</time>
      </trkpt>
      <trkpt lat="43.65581" lon="6.19758">
        <ele>597.17195</ele>
        <time>2026-03-24T08:35:30.009Z</time>
      </trkpt>
      <trkpt lat="43.65583" lon="6.19754">
        <ele>597.22661</ele>
        <time>2026-03-24T08:35:33.009Z</time>
      </trkpt>
      <trkpt lat="43.65584" lon="6.19751">
        <ele>597.25248</ele>
        <time>2026-03-24T08:35:35.009Z</time>
      </trkpt>
      <trkpt lat="43.65586" lon="6.19747">
        <ele>597.28531</ele>
        <time>2026-03-24T08:35:37.009Z</time>
      </trkpt>
      <trkpt lat="43.65588" lon="6.19743">
        <ele>597.33299</ele>
        <time>2026-03-24T08:35:40.009Z</time>
      </trkpt>
      <trkpt lat="43.65591" lon="6.19741">
        <ele>597.38132</ele>
        <time>2026-03-24T08:35:42.009Z</time>
      </trkpt>
      <trkpt lat="43.65593" lon="6.19737">
        <ele>597.45549</ele>
        <time>2026-03-24T08:35:45.009Z</time>
      </trkpt>
      <trkpt lat="43.65595" lon="6.19734">
        <ele>597.52602</ele>
        <time>2026-03-24T08:35:47.009Z</time>
      </trkpt>
      <trkpt lat="43.65597" lon="6.19731">
        <ele>597.6017</ele>
        <time>2026-03-24T08:35:49.009Z</time>
      </trkpt>
      <trkpt lat="43.65598" lon="6.19729">
        <ele>597.69532</ele>
        <time>2026-03-24T08:35:51.009Z</time>
      </trkpt>
      <trkpt lat="43.656" lon="6.19726">
        <ele>597.79475</ele>
        <time>2026-03-24T08:35:53.009Z</time>
      </trkpt>
      <trkpt lat="43.65602" lon="6.19723">
        <ele>597.90511</ele>
        <time>2026-03-24T08:35:55.009Z</time>
      </trkpt>
      <trkpt lat="43.65604" lon="6.19721">
        <ele>598.03742</ele>
        <time>2026-03-24T08:35:57.009Z</time>
      </trkpt>
      <trkpt lat="43.65606" lon="6.19718">
        <ele>598.29705</ele>
        <time>2026-03-24T08:36:00.009Z</time>
      </trkpt>
      <trkpt lat="43.65608" lon="6.19716">
        <ele>598.49886</ele>
        <time>2026-03-24T08:36:02.009Z</time>
      </trkpt>
      <trkpt lat="43.6561" lon="6.19714">
        <ele>598.68325</ele>
        <time>2026-03-24T08:36:04.009Z</time>
      </trkpt>
      <trkpt lat="43.65612" lon="6.19711">
        <ele>598.84801</ele>
        <time>2026-03-24T08:36:06.009Z</time>
      </trkpt>
      <trkpt lat="43.65614" lon="6.19708">
        <ele>599.16456</ele>
        <time>2026-03-24T08:36:09.008Z</time>
      </trkpt>
      <trkpt lat="43.65616" lon="6.19706">
        <ele>599.37501</ele>
        <time>2026-03-24T08:36:11.008Z</time>
      </trkpt>
      <trkpt lat="43.65617" lon="6.19702">
        <ele>599.66851</ele>
        <time>2026-03-24T08:36:14.008Z</time>
      </trkpt>
      <trkpt lat="43.65619" lon="6.19701">
        <ele>599.85902</ele>
        <time>2026-03-24T08:36:16.008Z</time>
      </trkpt>
      <trkpt lat="43.65621" lon="6.19697">
        <ele>600.14657</ele>
        <time>2026-03-24T08:36:19.008Z</time>
      </trkpt>
      <trkpt lat="43.65623" lon="6.19694">
        <ele>600.41917</ele>
        <time>2026-03-24T08:36:22.008Z</time>
      </trkpt>
      <trkpt lat="43.65625" lon="6.19691">
        <ele>600.59584</ele>
        <time>2026-03-24T08:36:24.008Z</time>
      </trkpt>
      <trkpt lat="43.65627" lon="6.19687">
        <ele>600.88101</ele>
        <time>2026-03-24T08:36:27.008Z</time>
      </trkpt>
      <trkpt lat="43.6563" lon="6.19684">
        <ele>601.15257</ele>
        <time>2026-03-24T08:36:30.008Z</time>
      </trkpt>
      <trkpt lat="43.65632" lon="6.19681">
        <ele>601.45722</ele>
        <time>2026-03-24T08:36:33.008Z</time>
      </trkpt>
      <trkpt lat="43.65634" lon="6.19678">
        <ele>601.68124</ele>
        <time>2026-03-24T08:36:35.008Z</time>
      </trkpt>
      <trkpt lat="43.65636" lon="6.19676">
        <ele>601.89872</ele>
        <time>2026-03-24T08:36:37.008Z</time>
      </trkpt>
      <trkpt lat="43.65637" lon="6.19674">
        <ele>602.0985</ele>
        <time>2026-03-24T08:36:39.010Z</time>
      </trkpt>
      <trkpt lat="43.6564" lon="6.1967">
        <ele>602.35693</ele>
        <time>2026-03-24T08:36:42.010Z</time>
      </trkpt>
      <trkpt lat="43.65641" lon="6.19667">
        <ele>602.50745</ele>
        <time>2026-03-24T08:36:44.010Z</time>
      </trkpt>
      <trkpt lat="43.65643" lon="6.19665">
        <ele>602.65678</ele>
        <time>2026-03-24T08:36:46.011Z</time>
      </trkpt>
      <trkpt lat="43.65645" lon="6.19662">
        <ele>602.82037</ele>
        <time>2026-03-24T08:36:48.011Z</time>
      </trkpt>
      <trkpt lat="43.65648" lon="6.19659">
        <ele>603.00354</ele>
        <time>2026-03-24T08:36:51.010Z</time>
      </trkpt>
      <trkpt lat="43.65649" lon="6.19656">
        <ele>603.18521</ele>
        <time>2026-03-24T08:36:54.011Z</time>
      </trkpt>
      <trkpt lat="43.65651" lon="6.19653">
        <ele>603.291</ele>
        <time>2026-03-24T08:36:56.011Z</time>
      </trkpt>
      <trkpt lat="43.65653" lon="6.1965">
        <ele>603.39982</ele>
        <time>2026-03-24T08:36:58.011Z</time>
      </trkpt>
      <trkpt lat="43.65655" lon="6.19648">
        <ele>603.50312</ele>
        <time>2026-03-24T08:37:00.011Z</time>
      </trkpt>
      <trkpt lat="43.65656" lon="6.19645">
        <ele>603.60889</ele>
        <time>2026-03-24T08:37:02.011Z</time>
      </trkpt>
      <trkpt lat="43.65657" lon="6.19643">
        <ele>603.7143</ele>
        <time>2026-03-24T08:37:04.010Z</time>
      </trkpt>
      <trkpt lat="43.65659" lon="6.1964">
        <ele>603.82309</ele>
        <time>2026-03-24T08:37:06.010Z</time>
      </trkpt>
      <trkpt lat="43.65661" lon="6.19638">
        <ele>603.92786</ele>
        <time>2026-03-24T08:37:08.010Z</time>
      </trkpt>
      <trkpt lat="43.65661" lon="6.19634">
        <ele>604.46544</ele>
        <time>2026-03-24T08:37:21.010Z</time>
      </trkpt>
      <trkpt lat="43.65659" lon="6.19632">
        <ele>604.84</ele>
        <time>2026-03-24T08:37:31.010Z</time>
      </trkpt>
      <trkpt lat="43.65658" lon="6.19635">
        <ele>605.53644</ele>
        <time>2026-03-24T08:38:05.010Z</time>
      </trkpt>
      <trkpt lat="43.65657" lon="6.19638">
        <ele>605.54673</ele>
        <time>2026-03-24T08:38:08.010Z</time>
      </trkpt>
      <trkpt lat="43.65656" lon="6.19641">
        <ele>605.54887</ele>
        <time>2026-03-24T08:38:10.010Z</time>
      </trkpt>
      <trkpt lat="43.65654" lon="6.19643">
        <ele>605.55032</ele>
        <time>2026-03-24T08:38:12.010Z</time>
      </trkpt>
      <trkpt lat="43.65652" lon="6.19647">
        <ele>605.55072</ele>
        <time>2026-03-24T08:38:15.010Z</time>
      </trkpt>
      <trkpt lat="43.6565" lon="6.19651">
        <ele>605.54887</ele>
        <time>2026-03-24T08:38:18.010Z</time>
      </trkpt>
      <trkpt lat="43.65648" lon="6.19654">
        <ele>605.54818</ele>
        <time>2026-03-24T08:38:20.010Z</time>
      </trkpt>
      <trkpt lat="43.65646" lon="6.19657">
        <ele>605.54642</ele>
        <time>2026-03-24T08:38:23.010Z</time>
      </trkpt>
      <trkpt lat="43.65644" lon="6.1966">
        <ele>605.54328</ele>
        <time>2026-03-24T08:38:26.010Z</time>
      </trkpt>
      <trkpt lat="43.65643" lon="6.19663">
        <ele>605.54063</ele>
        <time>2026-03-24T08:38:28.010Z</time>
      </trkpt>
      <trkpt lat="43.65641" lon="6.19667">
        <ele>605.53389</ele>
        <time>2026-03-24T08:38:31.010Z</time>
      </trkpt>
      <trkpt lat="43.65639" lon="6.1967">
        <ele>605.5268</ele>
        <time>2026-03-24T08:38:33.010Z</time>
      </trkpt>
      <trkpt lat="43.65636" lon="6.19673">
        <ele>605.51731</ele>
        <time>2026-03-24T08:38:35.010Z</time>
      </trkpt>
      <trkpt lat="43.65634" lon="6.19676">
        <ele>605.49747</ele>
        <time>2026-03-24T08:38:38.010Z</time>
      </trkpt>
      <trkpt lat="43.65633" lon="6.19679">
        <ele>605.48067</ele>
        <time>2026-03-24T08:38:40.010Z</time>
      </trkpt>
      <trkpt lat="43.65631" lon="6.19682">
        <ele>605.40265</ele>
        <time>2026-03-24T08:38:47.011Z</time>
      </trkpt>
      <trkpt lat="43.65631" lon="6.19686">
        <ele>605.36359</ele>
        <time>2026-03-24T08:38:50.011Z</time>
      </trkpt>
      <trkpt lat="43.65629" lon="6.19688">
        <ele>605.3351</ele>
        <time>2026-03-24T08:38:52.011Z</time>
      </trkpt>
      <trkpt lat="43.65627" lon="6.19692">
        <ele>605.29801</ele>
        <time>2026-03-24T08:38:54.010Z</time>
      </trkpt>
      <trkpt lat="43.65625" lon="6.19695">
        <ele>605.24618</ele>
        <time>2026-03-24T08:38:56.011Z</time>
      </trkpt>
      <trkpt lat="43.65623" lon="6.19698">
        <ele>605.13087</ele>
        <time>2026-03-24T08:38:59.010Z</time>
      </trkpt>
      <trkpt lat="43.65621" lon="6.197">
        <ele>605.03434</ele>
        <time>2026-03-24T08:39:01.010Z</time>
      </trkpt>
      <trkpt lat="43.65618" lon="6.19702">
        <ele>604.91948</ele>
        <time>2026-03-24T08:39:03.010Z</time>
      </trkpt>
      <trkpt lat="43.65616" lon="6.19705">
        <ele>604.79256</ele>
        <time>2026-03-24T08:39:05.010Z</time>
      </trkpt>
      <trkpt lat="43.65615" lon="6.19707">
        <ele>604.598</ele>
        <time>2026-03-24T08:39:08.010Z</time>
      </trkpt>
      <trkpt lat="43.65612" lon="6.1971">
        <ele>604.40682</ele>
        <time>2026-03-24T08:39:11.010Z</time>
      </trkpt>
      <trkpt lat="43.6561" lon="6.19712">
        <ele>604.28015</ele>
        <time>2026-03-24T08:39:13.010Z</time>
      </trkpt>
      <trkpt lat="43.65607" lon="6.19715">
        <ele>604.1299</ele>
        <time>2026-03-24T08:39:16.010Z</time>
      </trkpt>
      <trkpt lat="43.65605" lon="6.19718">
        <ele>604.02071</ele>
        <time>2026-03-24T08:39:18.010Z</time>
      </trkpt>
      <trkpt lat="43.65604" lon="6.19721">
        <ele>603.896</ele>
        <time>2026-03-24T08:39:20.010Z</time>
      </trkpt>
      <trkpt lat="43.65602" lon="6.19723">
        <ele>603.74271</ele>
        <time>2026-03-24T08:39:22.010Z</time>
      </trkpt>
      <trkpt lat="43.656" lon="6.19727">
        <ele>603.49119</ele>
        <time>2026-03-24T08:39:25.010Z</time>
      </trkpt>
      <trkpt lat="43.65599" lon="6.1973">
        <ele>603.30185</ele>
        <time>2026-03-24T08:39:27.010Z</time>
      </trkpt>
      <trkpt lat="43.65597" lon="6.19733">
        <ele>602.99492</ele>
        <time>2026-03-24T08:39:30.010Z</time>
      </trkpt>
      <trkpt lat="43.65595" lon="6.19737">
        <ele>602.77287</ele>
        <time>2026-03-24T08:39:32.010Z</time>
      </trkpt>
      <trkpt lat="43.65593" lon="6.19738">
        <ele>602.57162</ele>
        <time>2026-03-24T08:39:34.010Z</time>
      </trkpt>
      <trkpt lat="43.65591" lon="6.19742">
        <ele>602.41812</ele>
        <time>2026-03-24T08:39:36.010Z</time>
      </trkpt>
      <trkpt lat="43.65589" lon="6.19745">
        <ele>602.19879</ele>
        <time>2026-03-24T08:39:38.010Z</time>
      </trkpt>
      <trkpt lat="43.65588" lon="6.19748">
        <ele>601.99795</ele>
        <time>2026-03-24T08:39:40.010Z</time>
      </trkpt>
      <trkpt lat="43.65586" lon="6.19751">
        <ele>601.82738</ele>
        <time>2026-03-24T08:39:42.010Z</time>
      </trkpt>
      <trkpt lat="43.65585" lon="6.19754">
        <ele>601.73413</ele>
        <time>2026-03-24T08:39:44.010Z</time>
      </trkpt>
      <trkpt lat="43.65584" lon="6.19757">
        <ele>601.63168</ele>
        <time>2026-03-24T08:39:46.010Z</time>
      </trkpt>
      <trkpt lat="43.65582" lon="6.19759">
        <ele>601.55064</ele>
        <time>2026-03-24T08:39:48.010Z</time>
      </trkpt>
      <trkpt lat="43.6558" lon="6.19762">
        <ele>601.4555</ele>
        <time>2026-03-24T08:39:50.010Z</time>
      </trkpt>
      <trkpt lat="43.65578" lon="6.19766">
        <ele>601.33175</ele>
        <time>2026-03-24T08:39:53.010Z</time>
      </trkpt>
      <trkpt lat="43.65577" lon="6.19769">
        <ele>601.26256</ele>
        <time>2026-03-24T08:39:55.010Z</time>
      </trkpt>
      <trkpt lat="43.65575" lon="6.19771">
        <ele>601.21438</ele>
        <time>2026-03-24T08:39:57.010Z</time>
      </trkpt>
      <trkpt lat="43.65572" lon="6.19774">
        <ele>601.15747</ele>
        <time>2026-03-24T08:39:59.010Z</time>
      </trkpt>
      <trkpt lat="43.6557" lon="6.19777">
        <ele>601.07226</ele>
        <time>2026-03-24T08:40:02.010Z</time>
      </trkpt>
      <trkpt lat="43.65569" lon="6.1978">
        <ele>601.00298</ele>
        <time>2026-03-24T08:40:04.010Z</time>
      </trkpt>
      <trkpt lat="43.65567" lon="6.19783">
        <ele>600.90698</ele>
        <time>2026-03-24T08:40:07.010Z</time>
      </trkpt>
      <trkpt lat="43.65565" lon="6.19786">
        <ele>600.82646</ele>
        <time>2026-03-24T08:40:09.010Z</time>
      </trkpt>
      <trkpt lat="43.65563" lon="6.1979">
        <ele>600.69082</ele>
        <time>2026-03-24T08:40:12.010Z</time>
      </trkpt>
      <trkpt lat="43.6556" lon="6.19793">
        <ele>600.58618</ele>
        <time>2026-03-24T08:40:14.010Z</time>
      </trkpt>
      <trkpt lat="43.65558" lon="6.19796">
        <ele>600.44495</ele>
        <time>2026-03-24T08:40:17.010Z</time>
      </trkpt>
      <trkpt lat="43.65556" lon="6.19799">
        <ele>600.34571</ele>
        <time>2026-03-24T08:40:19.010Z</time>
      </trkpt>
      <trkpt lat="43.65554" lon="6.19801">
        <ele>600.20969</ele>
        <time>2026-03-24T08:40:21.010Z</time>
      </trkpt>
      <trkpt lat="43.65553" lon="6.19803">
        <ele>600.05953</ele>
        <time>2026-03-24T08:40:23.010Z</time>
      </trkpt>
      <trkpt lat="43.65551" lon="6.19806">
        <ele>599.90478</ele>
        <time>2026-03-24T08:40:25.010Z</time>
      </trkpt>
      <trkpt lat="43.65549" lon="6.19808">
        <ele>599.74548</ele>
        <time>2026-03-24T08:40:27.010Z</time>
      </trkpt>
      <trkpt lat="43.65548" lon="6.19811">
        <ele>599.60704</ele>
        <time>2026-03-24T08:40:29.010Z</time>
      </trkpt>
      <trkpt lat="43.65546" lon="6.19814">
        <ele>599.47766</ele>
        <time>2026-03-24T08:40:31.009Z</time>
      </trkpt>
      <trkpt lat="43.65545" lon="6.19817">
        <ele>599.28201</ele>
        <time>2026-03-24T08:40:33.009Z</time>
      </trkpt>
      <trkpt lat="43.65542" lon="6.19819">
        <ele>599.07849</ele>
        <time>2026-03-24T08:40:35.009Z</time>
      </trkpt>
      <trkpt lat="43.65539" lon="6.19821">
        <ele>598.89027</ele>
        <time>2026-03-24T08:40:37.009Z</time>
      </trkpt>
      <trkpt lat="43.65537" lon="6.19823">
        <ele>598.67228</ele>
        <time>2026-03-24T08:40:39.009Z</time>
      </trkpt>
      <trkpt lat="43.65536" lon="6.19827">
        <ele>598.35658</ele>
        <time>2026-03-24T08:40:42.009Z</time>
      </trkpt>
      <trkpt lat="43.65535" lon="6.1983">
        <ele>598.12315</ele>
        <time>2026-03-24T08:40:44.009Z</time>
      </trkpt>
      <trkpt lat="43.65533" lon="6.19834">
        <ele>597.88372</ele>
        <time>2026-03-24T08:40:46.009Z</time>
      </trkpt>
      <trkpt lat="43.65531" lon="6.19837">
        <ele>597.44414</ele>
        <time>2026-03-24T08:40:49.009Z</time>
      </trkpt>
      <trkpt lat="43.65528" lon="6.1984">
        <ele>597.12002</ele>
        <time>2026-03-24T08:40:51.011Z</time>
      </trkpt>
      <trkpt lat="43.65527" lon="6.19843">
        <ele>596.81761</ele>
        <time>2026-03-24T08:40:53.011Z</time>
      </trkpt>
      <trkpt lat="43.65525" lon="6.19846">
        <ele>596.39736</ele>
        <time>2026-03-24T08:40:56.011Z</time>
      </trkpt>
      <trkpt lat="43.65523" lon="6.19846">
        <ele>595.97948</ele>
        <time>2026-03-24T08:40:59.012Z</time>
      </trkpt>
      <trkpt lat="43.65521" lon="6.19849">
        <ele>595.76982</ele>
        <time>2026-03-24T08:41:01.012Z</time>
      </trkpt>
      <trkpt lat="43.65519" lon="6.19853">
        <ele>595.44294</ele>
        <time>2026-03-24T08:41:04.012Z</time>
      </trkpt>
      <trkpt lat="43.65518" lon="6.19855">
        <ele>595.30945</ele>
        <time>2026-03-24T08:41:06.012Z</time>
      </trkpt>
      <trkpt lat="43.65516" lon="6.19857">
        <ele>595.18434</ele>
        <time>2026-03-24T08:41:08.012Z</time>
      </trkpt>
      <trkpt lat="43.65514" lon="6.1986">
        <ele>595.07565</ele>
        <time>2026-03-24T08:41:10.012Z</time>
      </trkpt>
      <trkpt lat="43.65512" lon="6.19862">
        <ele>594.9994</ele>
        <time>2026-03-24T08:41:12.012Z</time>
      </trkpt>
      <trkpt lat="43.6551" lon="6.19864">
        <ele>594.95631</ele>
        <time>2026-03-24T08:41:14.012Z</time>
      </trkpt>
      <trkpt lat="43.65507" lon="6.19866">
        <ele>594.87304</ele>
        <time>2026-03-24T08:41:17.012Z</time>
      </trkpt>
      <trkpt lat="43.65505" lon="6.1987">
        <ele>594.84101</ele>
        <time>2026-03-24T08:41:20.012Z</time>
      </trkpt>
      <trkpt lat="43.65503" lon="6.19872">
        <ele>594.83718</ele>
        <time>2026-03-24T08:41:22.012Z</time>
      </trkpt>
      <trkpt lat="43.655" lon="6.19873">
        <ele>594.84051</ele>
        <time>2026-03-24T08:41:24.012Z</time>
      </trkpt>
      <trkpt lat="43.65498" lon="6.19875">
        <ele>594.82739</ele>
        <time>2026-03-24T08:41:26.012Z</time>
      </trkpt>
      <trkpt lat="43.65497" lon="6.19879">
        <ele>594.82818</ele>
        <time>2026-03-24T08:41:29.012Z</time>
      </trkpt>
      <trkpt lat="43.65496" lon="6.19882">
        <ele>594.83397</ele>
        <time>2026-03-24T08:41:31.012Z</time>
      </trkpt>
      <trkpt lat="43.65496" lon="6.19885">
        <ele>594.83898</ele>
        <time>2026-03-24T08:41:34.012Z</time>
      </trkpt>
      <trkpt lat="43.65495" lon="6.19889">
        <ele>594.85979</ele>
        <time>2026-03-24T08:41:38.011Z</time>
      </trkpt>
      <trkpt lat="43.65492" lon="6.19892">
        <ele>594.87404</ele>
        <time>2026-03-24T08:41:41.011Z</time>
      </trkpt>
      <trkpt lat="43.65491" lon="6.19895">
        <ele>594.88143</ele>
        <time>2026-03-24T08:41:43.011Z</time>
      </trkpt>
      <trkpt lat="43.65489" lon="6.19896">
        <ele>594.88643</ele>
        <time>2026-03-24T08:41:45.011Z</time>
      </trkpt>
      <trkpt lat="43.65487" lon="6.199">
        <ele>594.90586</ele>
        <time>2026-03-24T08:41:48.011Z</time>
      </trkpt>
      <trkpt lat="43.65486" lon="6.19904">
        <ele>594.93059</ele>
        <time>2026-03-24T08:41:51.011Z</time>
      </trkpt>
      <trkpt lat="43.65485" lon="6.19908">
        <ele>594.96178</ele>
        <time>2026-03-24T08:41:54.011Z</time>
      </trkpt>
      <trkpt lat="43.65484" lon="6.19912">
        <ele>595.02703</ele>
        <time>2026-03-24T08:41:57.011Z</time>
      </trkpt>
      <trkpt lat="43.65483" lon="6.19915">
        <ele>595.07321</ele>
        <time>2026-03-24T08:41:59.011Z</time>
      </trkpt>
      <trkpt lat="43.65483" lon="6.19919">
        <ele>595.11238</ele>
        <time>2026-03-24T08:42:01.011Z</time>
      </trkpt>
      <trkpt lat="43.65483" lon="6.19923">
        <ele>595.16414</ele>
        <time>2026-03-24T08:42:04.011Z</time>
      </trkpt>
      <trkpt lat="43.65485" lon="6.19927">
        <ele>595.24261</ele>
        <time>2026-03-24T08:42:07.011Z</time>
      </trkpt>
      <trkpt lat="43.65484" lon="6.1993">
        <ele>595.30274</ele>
        <time>2026-03-24T08:42:09.011Z</time>
      </trkpt>
      <trkpt lat="43.65482" lon="6.19933">
        <ele>595.38999</ele>
        <time>2026-03-24T08:42:11.011Z</time>
      </trkpt>
      <trkpt lat="43.65481" lon="6.19937">
        <ele>595.53559</ele>
        <time>2026-03-24T08:42:14.011Z</time>
      </trkpt>
      <trkpt lat="43.6548" lon="6.19941">
        <ele>595.65684</ele>
        <time>2026-03-24T08:42:17.011Z</time>
      </trkpt>
      <trkpt lat="43.65478" lon="6.19944">
        <ele>595.8145</ele>
        <time>2026-03-24T08:42:21.011Z</time>
      </trkpt>
      <trkpt lat="43.65477" lon="6.19947">
        <ele>596.00895</ele>
        <time>2026-03-24T08:42:25.011Z</time>
      </trkpt>
      <trkpt lat="43.65475" lon="6.1995">
        <ele>596.15577</ele>
        <time>2026-03-24T08:42:28.011Z</time>
      </trkpt>
      <trkpt lat="43.65474" lon="6.19953">
        <ele>596.29178</ele>
        <time>2026-03-24T08:42:31.011Z</time>
      </trkpt>
      <trkpt lat="43.65474" lon="6.19957">
        <ele>596.98669</ele>
        <time>2026-03-24T08:42:46.011Z</time>
      </trkpt>
      <trkpt lat="43.65472" lon="6.19962">
        <ele>597.36879</ele>
        <time>2026-03-24T08:42:55.011Z</time>
      </trkpt>
      <trkpt lat="43.65471" lon="6.19965">
        <ele>597.45265</ele>
        <time>2026-03-24T08:42:57.012Z</time>
      </trkpt>
      <trkpt lat="43.65469" lon="6.19964">
        <ele>597.69466</ele>
        <time>2026-03-24T08:43:03.012Z</time>
      </trkpt>
      <trkpt lat="43.65465" lon="6.19963">
        <ele>597.75678</ele>
        <time>2026-03-24T08:43:05.012Z</time>
      </trkpt>
      <trkpt lat="43.65463" lon="6.19961">
        <ele>597.81144</ele>
        <time>2026-03-24T08:43:07.011Z</time>
      </trkpt>
      <trkpt lat="43.65461" lon="6.19959">
        <ele>597.85935</ele>
        <time>2026-03-24T08:43:09.011Z</time>
      </trkpt>
      <trkpt lat="43.65459" lon="6.19957">
        <ele>597.90516</ele>
        <time>2026-03-24T08:43:11.012Z</time>
      </trkpt>
      <trkpt lat="43.65456" lon="6.19956">
        <ele>597.96158</ele>
        <time>2026-03-24T08:43:14.012Z</time>
      </trkpt>
      <trkpt lat="43.65454" lon="6.19953">
        <ele>598.069</ele>
        <time>2026-03-24T08:43:21.011Z</time>
      </trkpt>
      <trkpt lat="43.65456" lon="6.1995">
        <ele>598.0742</ele>
        <time>2026-03-24T08:43:24.011Z</time>
      </trkpt>
      <trkpt lat="43.65458" lon="6.19948">
        <ele>598.07369</ele>
        <time>2026-03-24T08:43:27.011Z</time>
      </trkpt>
      <trkpt lat="43.6546" lon="6.19944">
        <ele>598.06849</ele>
        <time>2026-03-24T08:43:30.011Z</time>
      </trkpt>
      <trkpt lat="43.65461" lon="6.19941">
        <ele>598.06672</ele>
        <time>2026-03-24T08:43:32.011Z</time>
      </trkpt>
      <trkpt lat="43.65463" lon="6.19937">
        <ele>598.05204</ele>
        <time>2026-03-24T08:43:36.011Z</time>
      </trkpt>
      <trkpt lat="43.65465" lon="6.19935">
        <ele>598.04078</ele>
        <time>2026-03-24T08:43:38.011Z</time>
      </trkpt>
      <trkpt lat="43.65467" lon="6.19932">
        <ele>598.0284</ele>
        <time>2026-03-24T08:43:40.011Z</time>
      </trkpt>
      <trkpt lat="43.65468" lon="6.19929">
        <ele>598.00634</ele>
        <time>2026-03-24T08:43:43.011Z</time>
      </trkpt>
      <trkpt lat="43.6547" lon="6.19926">
        <ele>597.99015</ele>
        <time>2026-03-24T08:43:45.011Z</time>
      </trkpt>
      <trkpt lat="43.65472" lon="6.19923">
        <ele>597.97657</ele>
        <time>2026-03-24T08:43:47.011Z</time>
      </trkpt>
      <trkpt lat="43.65474" lon="6.19921">
        <ele>597.96357</ele>
        <time>2026-03-24T08:43:49.011Z</time>
      </trkpt>
      <trkpt lat="43.65476" lon="6.19919">
        <ele>597.94057</ele>
        <time>2026-03-24T08:43:52.011Z</time>
      </trkpt>
      <trkpt lat="43.65478" lon="6.19916">
        <ele>597.91716</ele>
        <time>2026-03-24T08:43:55.011Z</time>
      </trkpt>
      <trkpt lat="43.65479" lon="6.19913">
        <ele>597.85999</ele>
        <time>2026-03-24T08:44:02.011Z</time>
      </trkpt>
      <trkpt lat="43.6548" lon="6.1991">
        <ele>597.82664</ele>
        <time>2026-03-24T08:44:06.011Z</time>
      </trkpt>
      <trkpt lat="43.65481" lon="6.19913">
        <ele>597.6389</ele>
        <time>2026-03-24T08:44:30.011Z</time>
      </trkpt>
      <trkpt lat="43.65481" lon="6.19917">
        <ele>597.58163</ele>
        <time>2026-03-24T08:45:37.012Z</time>
      </trkpt>
      <trkpt lat="43.6548" lon="6.19921">
        <ele>597.58179</ele>
        <time>2026-03-24T08:45:43.012Z</time>
      </trkpt>
      <trkpt lat="43.65478" lon="6.19923">
        <ele>597.58194</ele>
        <time>2026-03-24T08:45:46.012Z</time>
      </trkpt>
      <trkpt lat="43.65476" lon="6.19924">
        <ele>597.583</ele>
        <time>2026-03-24T08:45:48.012Z</time>
      </trkpt>
      <trkpt lat="43.65473" lon="6.19925">
        <ele>597.58248</ele>
        <time>2026-03-24T08:45:50.012Z</time>
      </trkpt>
      <trkpt lat="43.65471" lon="6.19927">
        <ele>597.58197</ele>
        <time>2026-03-24T08:45:53.012Z</time>
      </trkpt>
      <trkpt lat="43.65468" lon="6.19929">
        <ele>597.58171</ele>
        <time>2026-03-24T08:45:57.012Z</time>
      </trkpt>
      <trkpt lat="43.65466" lon="6.19932">
        <ele>597.58318</ele>
        <time>2026-03-24T08:46:00.012Z</time>
      </trkpt>
      <trkpt lat="43.65464" lon="6.19933">
        <ele>597.58467</ele>
        <time>2026-03-24T08:46:02.012Z</time>
      </trkpt>
      <trkpt lat="43.65463" lon="6.19936">
        <ele>597.58613</ele>
        <time>2026-03-24T08:46:04.012Z</time>
      </trkpt>
      <trkpt lat="43.65461" lon="6.1994">
        <ele>597.58815</ele>
        <time>2026-03-24T08:46:07.012Z</time>
      </trkpt>
      <trkpt lat="43.65458" lon="6.19944">
        <ele>597.59003</ele>
        <time>2026-03-24T08:46:10.012Z</time>
      </trkpt>
      <trkpt lat="43.65456" lon="6.19947">
        <ele>597.59109</ele>
        <time>2026-03-24T08:46:13.012Z</time>
      </trkpt>
      <trkpt lat="43.65456" lon="6.19951">
        <ele>597.59439</ele>
        <time>2026-03-24T08:46:16.012Z</time>
      </trkpt>
      <trkpt lat="43.65458" lon="6.19953">
        <ele>597.59539</ele>
        <time>2026-03-24T08:46:18.012Z</time>
      </trkpt>
      <trkpt lat="43.65461" lon="6.19955">
        <ele>597.59639</ele>
        <time>2026-03-24T08:46:21.012Z</time>
      </trkpt>
      <trkpt lat="43.65463" lon="6.19957">
        <ele>597.59767</ele>
        <time>2026-03-24T08:46:23.012Z</time>
      </trkpt>
      <trkpt lat="43.65464" lon="6.1996">
        <ele>597.60096</ele>
        <time>2026-03-24T08:46:25.012Z</time>
      </trkpt>
      <trkpt lat="43.65466" lon="6.19963">
        <ele>597.60482</ele>
        <time>2026-03-24T08:46:28.012Z</time>
      </trkpt>
      <trkpt lat="43.65468" lon="6.19966">
        <ele>597.60774</ele>
        <time>2026-03-24T08:46:30.012Z</time>
      </trkpt>
      <trkpt lat="43.6547" lon="6.19969">
        <ele>597.61216</ele>
        <time>2026-03-24T08:46:32.012Z</time>
      </trkpt>
      <trkpt lat="43.65472" lon="6.19971">
        <ele>597.62146</ele>
        <time>2026-03-24T08:46:34.012Z</time>
      </trkpt>
      <trkpt lat="43.65474" lon="6.19974">
        <ele>597.62905</ele>
        <time>2026-03-24T08:46:36.012Z</time>
      </trkpt>
      <trkpt lat="43.65477" lon="6.19977">
        <ele>597.6449</ele>
        <time>2026-03-24T08:46:39.012Z</time>
      </trkpt>
      <trkpt lat="43.6548" lon="6.19981">
        <ele>597.66245</ele>
        <time>2026-03-24T08:46:42.012Z</time>
      </trkpt>
      <trkpt lat="43.65482" lon="6.19983">
        <ele>597.68909</ele>
        <time>2026-03-24T08:46:45.012Z</time>
      </trkpt>
      <trkpt lat="43.65485" lon="6.19987">
        <ele>597.72585</ele>
        <time>2026-03-24T08:46:48.012Z</time>
      </trkpt>
      <trkpt lat="43.65487" lon="6.19989">
        <ele>597.76084</ele>
        <time>2026-03-24T08:46:50.012Z</time>
      </trkpt>
      <trkpt lat="43.6549" lon="6.19991">
        <ele>597.80378</ele>
        <time>2026-03-24T08:46:52.012Z</time>
      </trkpt>
      <trkpt lat="43.65491" lon="6.19994">
        <ele>597.85499</ele>
        <time>2026-03-24T08:46:54.012Z</time>
      </trkpt>
      <trkpt lat="43.65493" lon="6.19997">
        <ele>597.90177</ele>
        <time>2026-03-24T08:46:56.012Z</time>
      </trkpt>
      <trkpt lat="43.65495" lon="6.19998">
        <ele>597.94777</ele>
        <time>2026-03-24T08:46:58.012Z</time>
      </trkpt>
      <trkpt lat="43.65497" lon="6.2">
        <ele>597.98887</ele>
        <time>2026-03-24T08:47:00.012Z</time>
      </trkpt>
      <trkpt lat="43.655" lon="6.20002">
        <ele>598.06188</ele>
        <time>2026-03-24T08:47:02.012Z</time>
      </trkpt>
      <trkpt lat="43.65502" lon="6.20004">
        <ele>598.12699</ele>
        <time>2026-03-24T08:47:04.012Z</time>
      </trkpt>
      <trkpt lat="43.65504" lon="6.20006">
        <ele>598.22358</ele>
        <time>2026-03-24T08:47:06.012Z</time>
      </trkpt>
      <trkpt lat="43.65506" lon="6.20008">
        <ele>598.32269</ele>
        <time>2026-03-24T08:47:08.011Z</time>
      </trkpt>
      <trkpt lat="43.65508" lon="6.20011">
        <ele>598.50428</ele>
        <time>2026-03-24T08:47:11.012Z</time>
      </trkpt>
      <trkpt lat="43.65511" lon="6.20013">
        <ele>598.61902</ele>
        <time>2026-03-24T08:47:13.013Z</time>
      </trkpt>
      <trkpt lat="43.65513" lon="6.20016">
        <ele>598.79755</ele>
        <time>2026-03-24T08:47:16.013Z</time>
      </trkpt>
      <trkpt lat="43.65517" lon="6.20019">
        <ele>598.95404</ele>
        <time>2026-03-24T08:47:19.013Z</time>
      </trkpt>
      <trkpt lat="43.65519" lon="6.20021">
        <ele>599.03076</ele>
        <time>2026-03-24T08:47:21.013Z</time>
      </trkpt>
      <trkpt lat="43.6552" lon="6.20024">
        <ele>599.11629</ele>
        <time>2026-03-24T08:47:23.013Z</time>
      </trkpt>
      <trkpt lat="43.65523" lon="6.20027">
        <ele>599.2015</ele>
        <time>2026-03-24T08:47:25.013Z</time>
      </trkpt>
      <trkpt lat="43.65525" lon="6.20029">
        <ele>599.2846</ele>
        <time>2026-03-24T08:47:27.013Z</time>
      </trkpt>
      <trkpt lat="43.65528" lon="6.20032">
        <ele>599.44578</ele>
        <time>2026-03-24T08:47:30.013Z</time>
      </trkpt>
      <trkpt lat="43.6553" lon="6.20033">
        <ele>599.54433</ele>
        <time>2026-03-24T08:47:32.013Z</time>
      </trkpt>
      <trkpt lat="43.65532" lon="6.20035">
        <ele>599.63697</ele>
        <time>2026-03-24T08:47:34.013Z</time>
      </trkpt>
      <trkpt lat="43.65535" lon="6.20035">
        <ele>599.75023</ele>
        <time>2026-03-24T08:47:36.013Z</time>
      </trkpt>
      <trkpt lat="43.65537" lon="6.20036">
        <ele>599.88602</ele>
        <time>2026-03-24T08:47:38.013Z</time>
      </trkpt>
      <trkpt lat="43.6554" lon="6.20037">
        <ele>599.99699</ele>
        <time>2026-03-24T08:47:40.013Z</time>
      </trkpt>
      <trkpt lat="43.65542" lon="6.20038">
        <ele>600.13024</ele>
        <time>2026-03-24T08:47:42.013Z</time>
      </trkpt>
      <trkpt lat="43.65545" lon="6.2004">
        <ele>600.31627</ele>
        <time>2026-03-24T08:47:45.013Z</time>
      </trkpt>
      <trkpt lat="43.65548" lon="6.20042">
        <ele>600.52849</ele>
        <time>2026-03-24T08:47:48.013Z</time>
      </trkpt>
      <trkpt lat="43.6555" lon="6.20043">
        <ele>600.67056</ele>
        <time>2026-03-24T08:47:50.013Z</time>
      </trkpt>
      <trkpt lat="43.65552" lon="6.20043">
        <ele>600.84713</ele>
        <time>2026-03-24T08:47:53.013Z</time>
      </trkpt>
      <trkpt lat="43.65555" lon="6.20043">
        <ele>600.95133</ele>
        <time>2026-03-24T08:47:55.013Z</time>
      </trkpt>
      <trkpt lat="43.65558" lon="6.20044">
        <ele>601.06849</ele>
        <time>2026-03-24T08:47:57.013Z</time>
      </trkpt>
      <trkpt lat="43.65562" lon="6.20044">
        <ele>601.25674</ele>
        <time>2026-03-24T08:48:00.013Z</time>
      </trkpt>
      <trkpt lat="43.65564" lon="6.20044">
        <ele>601.38669</ele>
        <time>2026-03-24T08:48:02.013Z</time>
      </trkpt>
      <trkpt lat="43.65567" lon="6.20043">
        <ele>601.48674</ele>
        <time>2026-03-24T08:48:04.013Z</time>
      </trkpt>
      <trkpt lat="43.6557" lon="6.20043">
        <ele>601.5661</ele>
        <time>2026-03-24T08:48:06.013Z</time>
      </trkpt>
      <trkpt lat="43.65573" lon="6.20042">
        <ele>601.66237</ele>
        <time>2026-03-24T08:48:09.013Z</time>
      </trkpt>
      <trkpt lat="43.65576" lon="6.20043">
        <ele>601.72196</ele>
        <time>2026-03-24T08:48:11.013Z</time>
      </trkpt>
      <trkpt lat="43.65579" lon="6.20043">
        <ele>601.78099</ele>
        <time>2026-03-24T08:48:14.013Z</time>
      </trkpt>
      <trkpt lat="43.65581" lon="6.20043">
        <ele>601.82015</ele>
        <time>2026-03-24T08:48:17.013Z</time>
      </trkpt>
      <trkpt lat="43.65584" lon="6.20044">
        <ele>601.86775</ele>
        <time>2026-03-24T08:48:20.013Z</time>
      </trkpt>
      <trkpt lat="43.65587" lon="6.20045">
        <ele>601.90029</ele>
        <time>2026-03-24T08:48:22.013Z</time>
      </trkpt>
      <trkpt lat="43.65591" lon="6.20044">
        <ele>601.94673</ele>
        <time>2026-03-24T08:48:25.013Z</time>
      </trkpt>
      <trkpt lat="43.65593" lon="6.20044">
        <ele>601.98596</ele>
        <time>2026-03-24T08:48:27.013Z</time>
      </trkpt>
      <trkpt lat="43.65596" lon="6.20044">
        <ele>602.03448</ele>
        <time>2026-03-24T08:48:29.013Z</time>
      </trkpt>
      <trkpt lat="43.65599" lon="6.20043">
        <ele>602.07127</ele>
        <time>2026-03-24T08:48:31.013Z</time>
      </trkpt>
      <trkpt lat="43.65601" lon="6.20042">
        <ele>602.13106</ele>
        <time>2026-03-24T08:48:33.013Z</time>
      </trkpt>
      <trkpt lat="43.65604" lon="6.20041">
        <ele>602.16264</ele>
        <time>2026-03-24T08:48:35.013Z</time>
      </trkpt>
      <trkpt lat="43.65606" lon="6.2004">
        <ele>602.24078</ele>
        <time>2026-03-24T08:48:38.013Z</time>
      </trkpt>
      <trkpt lat="43.65609" lon="6.2004">
        <ele>602.35312</ele>
        <time>2026-03-24T08:48:41.013Z</time>
      </trkpt>
      <trkpt lat="43.65612" lon="6.20039">
        <ele>602.5098</ele>
        <time>2026-03-24T08:48:44.013Z</time>
      </trkpt>
      <trkpt lat="43.65614" lon="6.20039">
        <ele>602.61347</ele>
        <time>2026-03-24T08:48:46.013Z</time>
      </trkpt>
      <trkpt lat="43.65617" lon="6.20038">
        <ele>602.7813</ele>
        <time>2026-03-24T08:48:49.013Z</time>
      </trkpt>
      <trkpt lat="43.6562" lon="6.20037">
        <ele>602.89113</ele>
        <time>2026-03-24T08:48:51.013Z</time>
      </trkpt>
      <trkpt lat="43.65622" lon="6.20036">
        <ele>603.08005</ele>
        <time>2026-03-24T08:48:54.013Z</time>
      </trkpt>
      <trkpt lat="43.65625" lon="6.20036">
        <ele>603.25443</ele>
        <time>2026-03-24T08:48:57.013Z</time>
      </trkpt>
      <trkpt lat="43.65628" lon="6.20038">
        <ele>603.38441</ele>
        <time>2026-03-24T08:48:59.013Z</time>
      </trkpt>
      <trkpt lat="43.6563" lon="6.20039">
        <ele>603.58425</ele>
        <time>2026-03-24T08:49:02.013Z</time>
      </trkpt>
      <trkpt lat="43.65634" lon="6.20039">
        <ele>603.76436</ele>
        <time>2026-03-24T08:49:05.013Z</time>
      </trkpt>
      <trkpt lat="43.65636" lon="6.20038">
        <ele>603.88774</ele>
        <time>2026-03-24T08:49:07.013Z</time>
      </trkpt>
      <trkpt lat="43.65639" lon="6.20038">
        <ele>604.07196</ele>
        <time>2026-03-24T08:49:09.013Z</time>
      </trkpt>
      <trkpt lat="43.65642" lon="6.20037">
        <ele>604.22829</ele>
        <time>2026-03-24T08:49:11.013Z</time>
      </trkpt>
      <trkpt lat="43.65645" lon="6.20037">
        <ele>604.3469</ele>
        <time>2026-03-24T08:49:13.012Z</time>
      </trkpt>
      <trkpt lat="43.65647" lon="6.20037">
        <ele>604.7478</ele>
        <time>2026-03-24T08:49:19.013Z</time>
      </trkpt>
      <trkpt lat="43.6565" lon="6.20037">
        <ele>604.91622</ele>
        <time>2026-03-24T08:49:22.014Z</time>
      </trkpt>
      <trkpt lat="43.65653" lon="6.2004">
        <ele>605.19505</ele>
        <time>2026-03-24T08:49:26.013Z</time>
      </trkpt>
      <trkpt lat="43.65656" lon="6.20044">
        <ele>605.33286</ele>
        <time>2026-03-24T08:49:28.013Z</time>
      </trkpt>
      <trkpt lat="43.65658" lon="6.20046">
        <ele>605.55974</ele>
        <time>2026-03-24T08:49:32.013Z</time>
      </trkpt>
      <trkpt lat="43.65659" lon="6.20049">
        <ele>605.8253</ele>
        <time>2026-03-24T08:49:36.013Z</time>
      </trkpt>
      <trkpt lat="43.65661" lon="6.20053">
        <ele>606.09393</ele>
        <time>2026-03-24T08:49:40.013Z</time>
      </trkpt>
      <trkpt lat="43.65662" lon="6.20057">
        <ele>606.30249</ele>
        <time>2026-03-24T08:49:43.013Z</time>
      </trkpt>
      <trkpt lat="43.65665" lon="6.20058">
        <ele>606.48727</ele>
        <time>2026-03-24T08:49:45.013Z</time>
      </trkpt>
      <trkpt lat="43.65668" lon="6.20058">
        <ele>606.67045</ele>
        <time>2026-03-24T08:49:47.013Z</time>
      </trkpt>
      <trkpt lat="43.65672" lon="6.20061">
        <ele>607.02362</ele>
        <time>2026-03-24T08:49:51.013Z</time>
      </trkpt>
      <trkpt lat="43.65673" lon="6.20064">
        <ele>607.21143</ele>
        <time>2026-03-24T08:49:53.013Z</time>
      </trkpt>
      <trkpt lat="43.65675" lon="6.20065">
        <ele>607.42386</ele>
        <time>2026-03-24T08:49:55.013Z</time>
      </trkpt>
      <trkpt lat="43.65678" lon="6.20066">
        <ele>607.681</ele>
        <time>2026-03-24T08:49:57.013Z</time>
      </trkpt>
      <trkpt lat="43.65681" lon="6.20067">
        <ele>608.07695</ele>
        <time>2026-03-24T08:50:01.013Z</time>
      </trkpt>
      <trkpt lat="43.65684" lon="6.2007">
        <ele>608.4077</ele>
        <time>2026-03-24T08:50:04.013Z</time>
      </trkpt>
      <trkpt lat="43.65686" lon="6.20074">
        <ele>608.63078</ele>
        <time>2026-03-24T08:50:06.013Z</time>
      </trkpt>
      <trkpt lat="43.65687" lon="6.20077">
        <ele>608.98054</ele>
        <time>2026-03-24T08:50:09.013Z</time>
      </trkpt>
      <trkpt lat="43.65689" lon="6.2008">
        <ele>609.26837</ele>
        <time>2026-03-24T08:50:11.013Z</time>
      </trkpt>
      <trkpt lat="43.65692" lon="6.20083">
        <ele>609.69052</ele>
        <time>2026-03-24T08:50:14.013Z</time>
      </trkpt>
      <trkpt lat="43.65694" lon="6.20085">
        <ele>610.04182</ele>
        <time>2026-03-24T08:50:17.013Z</time>
      </trkpt>
      <trkpt lat="43.65696" lon="6.20087">
        <ele>610.28633</ele>
        <time>2026-03-24T08:50:19.013Z</time>
      </trkpt>
      <trkpt lat="43.65698" lon="6.20089">
        <ele>610.70545</ele>
        <time>2026-03-24T08:50:22.013Z</time>
      </trkpt>
      <trkpt lat="43.657" lon="6.20091">
        <ele>610.96418</ele>
        <time>2026-03-24T08:50:24.013Z</time>
      </trkpt>
      <trkpt lat="43.65702" lon="6.20093">
        <ele>611.49519</ele>
        <time>2026-03-24T08:50:28.013Z</time>
      </trkpt>
      <trkpt lat="43.65706" lon="6.20093">
        <ele>611.92642</ele>
        <time>2026-03-24T08:50:31.013Z</time>
      </trkpt>
      <trkpt lat="43.65708" lon="6.20094">
        <ele>612.22189</ele>
        <time>2026-03-24T08:50:33.013Z</time>
      </trkpt>
      <trkpt lat="43.65712" lon="6.20096">
        <ele>612.5361</ele>
        <time>2026-03-24T08:50:36.013Z</time>
      </trkpt>
      <trkpt lat="43.65715" lon="6.20096">
        <ele>612.72829</ele>
        <time>2026-03-24T08:50:38.013Z</time>
      </trkpt>
      <trkpt lat="43.65717" lon="6.20095">
        <ele>612.925</ele>
        <time>2026-03-24T08:50:40.013Z</time>
      </trkpt>
      <trkpt lat="43.65718" lon="6.20092">
        <ele>613.11573</ele>
        <time>2026-03-24T08:50:42.013Z</time>
      </trkpt>
      <trkpt lat="43.65721" lon="6.20089">
        <ele>613.27934</ele>
        <time>2026-03-24T08:50:44.013Z</time>
      </trkpt>
      <trkpt lat="43.65723" lon="6.20087">
        <ele>613.51761</ele>
        <time>2026-03-24T08:50:47.013Z</time>
      </trkpt>
      <trkpt lat="43.65725" lon="6.20085">
        <ele>613.66114</ele>
        <time>2026-03-24T08:50:49.013Z</time>
      </trkpt>
      <trkpt lat="43.65727" lon="6.20083">
        <ele>613.81126</ele>
        <time>2026-03-24T08:50:51.013Z</time>
      </trkpt>
      <trkpt lat="43.65731" lon="6.20084">
        <ele>613.93509</ele>
        <time>2026-03-24T08:50:53.013Z</time>
      </trkpt>
      <trkpt lat="43.65734" lon="6.20085">
        <ele>614.17193</ele>
        <time>2026-03-24T08:50:56.013Z</time>
      </trkpt>
      <trkpt lat="43.65738" lon="6.20087">
        <ele>614.41747</ele>
        <time>2026-03-24T08:50:59.013Z</time>
      </trkpt>
      <trkpt lat="43.65741" lon="6.20089">
        <ele>614.67915</ele>
        <time>2026-03-24T08:51:02.013Z</time>
      </trkpt>
      <trkpt lat="43.65744" lon="6.20092">
        <ele>614.85976</ele>
        <time>2026-03-24T08:51:04.013Z</time>
      </trkpt>
      <trkpt lat="43.65746" lon="6.20095">
        <ele>615.29912</ele>
        <time>2026-03-24T08:51:08.013Z</time>
      </trkpt>
      <trkpt lat="43.65749" lon="6.20097">
        <ele>615.68313</ele>
        <time>2026-03-24T08:51:11.013Z</time>
      </trkpt>
      <trkpt lat="43.65751" lon="6.20097">
        <ele>615.94274</ele>
        <time>2026-03-24T08:51:13.013Z</time>
      </trkpt>
      <trkpt lat="43.65754" lon="6.20096">
        <ele>616.3504</ele>
        <time>2026-03-24T08:51:16.013Z</time>
      </trkpt>
      <trkpt lat="43.65757" lon="6.20096">
        <ele>616.59126</ele>
        <time>2026-03-24T08:51:18.013Z</time>
      </trkpt>
      <trkpt lat="43.65759" lon="6.20094">
        <ele>617.02239</ele>
        <time>2026-03-24T08:51:21.014Z</time>
      </trkpt>
      <trkpt lat="43.65762" lon="6.20094">
        <ele>617.28541</ele>
        <time>2026-03-24T08:51:23.014Z</time>
      </trkpt>
      <trkpt lat="43.65765" lon="6.20092">
        <ele>617.55189</ele>
        <time>2026-03-24T08:51:25.014Z</time>
      </trkpt>
      <trkpt lat="43.65768" lon="6.20091">
        <ele>617.8284</ele>
        <time>2026-03-24T08:51:27.014Z</time>
      </trkpt>
      <trkpt lat="43.65769" lon="6.20088">
        <ele>618.24527</ele>
        <time>2026-03-24T08:51:30.014Z</time>
      </trkpt>
      <trkpt lat="43.65771" lon="6.20085">
        <ele>618.58768</ele>
        <time>2026-03-24T08:51:33.014Z</time>
      </trkpt>
      <trkpt lat="43.65773" lon="6.20082">
        <ele>618.91724</ele>
        <time>2026-03-24T08:51:36.014Z</time>
      </trkpt>
      <trkpt lat="43.65775" lon="6.2008">
        <ele>619.13813</ele>
        <time>2026-03-24T08:51:38.014Z</time>
      </trkpt>
      <trkpt lat="43.65777" lon="6.20078">
        <ele>619.3446</ele>
        <time>2026-03-24T08:51:40.014Z</time>
      </trkpt>
      <trkpt lat="43.65779" lon="6.20076">
        <ele>619.52445</ele>
        <time>2026-03-24T08:51:42.014Z</time>
      </trkpt>
      <trkpt lat="43.65782" lon="6.20073">
        <ele>619.66536</ele>
        <time>2026-03-24T08:51:44.014Z</time>
      </trkpt>
      <trkpt lat="43.65784" lon="6.2007">
        <ele>619.87773</ele>
        <time>2026-03-24T08:51:47.014Z</time>
      </trkpt>
      <trkpt lat="43.65786" lon="6.20067">
        <ele>620.02999</ele>
        <time>2026-03-24T08:51:49.014Z</time>
      </trkpt>
      <trkpt lat="43.65788" lon="6.20064">
        <ele>620.2552</ele>
        <time>2026-03-24T08:51:52.014Z</time>
      </trkpt>
      <trkpt lat="43.65789" lon="6.2006">
        <ele>620.41241</ele>
        <time>2026-03-24T08:51:54.014Z</time>
      </trkpt>
      <trkpt lat="43.6579" lon="6.20056">
        <ele>620.5741</ele>
        <time>2026-03-24T08:51:56.014Z</time>
      </trkpt>
      <trkpt lat="43.65792" lon="6.20054">
        <ele>620.7063</ele>
        <time>2026-03-24T08:51:58.014Z</time>
      </trkpt>
      <trkpt lat="43.65793" lon="6.20051">
        <ele>620.89097</ele>
        <time>2026-03-24T08:52:01.014Z</time>
      </trkpt>
      <trkpt lat="43.65795" lon="6.20047">
        <ele>621.06621</ele>
        <time>2026-03-24T08:52:04.014Z</time>
      </trkpt>
      <trkpt lat="43.65796" lon="6.20045">
        <ele>621.20468</ele>
        <time>2026-03-24T08:52:06.014Z</time>
      </trkpt>
      <trkpt lat="43.65799" lon="6.20041">
        <ele>621.33973</ele>
        <time>2026-03-24T08:52:08.014Z</time>
      </trkpt>
      <trkpt lat="43.658" lon="6.20038">
        <ele>621.52653</ele>
        <time>2026-03-24T08:52:11.014Z</time>
      </trkpt>
      <trkpt lat="43.65802" lon="6.20036">
        <ele>621.67063</ele>
        <time>2026-03-24T08:52:13.014Z</time>
      </trkpt>
      <trkpt lat="43.65804" lon="6.20034">
        <ele>621.78825</ele>
        <time>2026-03-24T08:52:15.014Z</time>
      </trkpt>
      <trkpt lat="43.65807" lon="6.20032">
        <ele>621.91138</ele>
        <time>2026-03-24T08:52:17.014Z</time>
      </trkpt>
      <trkpt lat="43.65808" lon="6.20029">
        <ele>622.06788</ele>
        <time>2026-03-24T08:52:19.014Z</time>
      </trkpt>
      <trkpt lat="43.6581" lon="6.20027">
        <ele>622.18846</ele>
        <time>2026-03-24T08:52:21.014Z</time>
      </trkpt>
      <trkpt lat="43.65811" lon="6.20024">
        <ele>622.34197</ele>
        <time>2026-03-24T08:52:23.014Z</time>
      </trkpt>
      <trkpt lat="43.65813" lon="6.20022">
        <ele>622.49842</ele>
        <time>2026-03-24T08:52:25.014Z</time>
      </trkpt>
      <trkpt lat="43.65815" lon="6.20019">
        <ele>622.61444</ele>
        <time>2026-03-24T08:52:27.014Z</time>
      </trkpt>
      <trkpt lat="43.65817" lon="6.20017">
        <ele>622.77185</ele>
        <time>2026-03-24T08:52:29.014Z</time>
      </trkpt>
      <trkpt lat="43.6582" lon="6.20014">
        <ele>623.05131</ele>
        <time>2026-03-24T08:52:32.014Z</time>
      </trkpt>
      <trkpt lat="43.65823" lon="6.20011">
        <ele>623.20097</ele>
        <time>2026-03-24T08:52:34.014Z</time>
      </trkpt>
      <trkpt lat="43.65824" lon="6.20008">
        <ele>623.3459</ele>
        <time>2026-03-24T08:52:36.014Z</time>
      </trkpt>
      <trkpt lat="43.65825" lon="6.20005">
        <ele>623.50016</ele>
        <time>2026-03-24T08:52:38.014Z</time>
      </trkpt>
      <trkpt lat="43.65827" lon="6.20002">
        <ele>623.66681</ele>
        <time>2026-03-24T08:52:40.014Z</time>
      </trkpt>
      <trkpt lat="43.65829" lon="6.19999">
        <ele>623.87111</ele>
        <time>2026-03-24T08:52:42.014Z</time>
      </trkpt>
      <trkpt lat="43.6583" lon="6.19996">
        <ele>624.05784</ele>
        <time>2026-03-24T08:52:44.014Z</time>
      </trkpt>
      <trkpt lat="43.65831" lon="6.19992">
        <ele>624.30491</ele>
        <time>2026-03-24T08:52:47.014Z</time>
      </trkpt>
      <trkpt lat="43.65833" lon="6.19989">
        <ele>624.40143</ele>
        <time>2026-03-24T08:52:49.014Z</time>
      </trkpt>
      <trkpt lat="43.65835" lon="6.19985">
        <ele>624.61366</ele>
        <time>2026-03-24T08:52:52.014Z</time>
      </trkpt>
      <trkpt lat="43.65837" lon="6.19983">
        <ele>624.77151</ele>
        <time>2026-03-24T08:52:54.014Z</time>
      </trkpt>
      <trkpt lat="43.65839" lon="6.19981">
        <ele>625.01439</ele>
        <time>2026-03-24T08:52:57.014Z</time>
      </trkpt>
      <trkpt lat="43.65841" lon="6.19978">
        <ele>625.39278</ele>
        <time>2026-03-24T08:53:02.014Z</time>
      </trkpt>
      <trkpt lat="43.65844" lon="6.19976">
        <ele>625.61151</ele>
        <time>2026-03-24T08:53:05.014Z</time>
      </trkpt>
      <trkpt lat="43.65846" lon="6.19974">
        <ele>625.85874</ele>
        <time>2026-03-24T08:53:08.014Z</time>
      </trkpt>
      <trkpt lat="43.65847" lon="6.19971">
        <ele>626.09117</ele>
        <time>2026-03-24T08:53:11.014Z</time>
      </trkpt>
      <trkpt lat="43.65849" lon="6.19969">
        <ele>626.22275</ele>
        <time>2026-03-24T08:53:13.014Z</time>
      </trkpt>
      <trkpt lat="43.6585" lon="6.19966">
        <ele>626.35848</ele>
        <time>2026-03-24T08:53:15.014Z</time>
      </trkpt>
      <trkpt lat="43.65853" lon="6.19962">
        <ele>626.52972</ele>
        <time>2026-03-24T08:53:18.014Z</time>
      </trkpt>
      <trkpt lat="43.65854" lon="6.19958">
        <ele>626.68906</ele>
        <time>2026-03-24T08:53:21.013Z</time>
      </trkpt>
      <trkpt lat="43.65855" lon="6.19956">
        <ele>626.77236</ele>
        <time>2026-03-24T08:53:23.013Z</time>
      </trkpt>
      <trkpt lat="43.65857" lon="6.19952">
        <ele>626.88558</ele>
        <time>2026-03-24T08:53:26.013Z</time>
      </trkpt>
      <trkpt lat="43.6586" lon="6.19948">
        <ele>627.02633</ele>
        <time>2026-03-24T08:53:29.014Z</time>
      </trkpt>
      <trkpt lat="43.65861" lon="6.19946">
        <ele>627.09587</ele>
        <time>2026-03-24T08:53:31.014Z</time>
      </trkpt>
      <trkpt lat="43.65863" lon="6.19944">
        <ele>627.17388</ele>
        <time>2026-03-24T08:53:33.014Z</time>
      </trkpt>
      <trkpt lat="43.65865" lon="6.19942">
        <ele>627.28535</ele>
        <time>2026-03-24T08:53:36.014Z</time>
      </trkpt>
      <trkpt lat="43.65867" lon="6.1994">
        <ele>627.36844</ele>
        <time>2026-03-24T08:53:38.014Z</time>
      </trkpt>
      <trkpt lat="43.65869" lon="6.19937">
        <ele>627.46269</ele>
        <time>2026-03-24T08:53:40.014Z</time>
      </trkpt>
      <trkpt lat="43.65872" lon="6.19938">
        <ele>627.60558</ele>
        <time>2026-03-24T08:53:42.014Z</time>
      </trkpt>
      <trkpt lat="43.65874" lon="6.19937">
        <ele>627.74424</ele>
        <time>2026-03-24T08:53:44.014Z</time>
      </trkpt>
      <trkpt lat="43.65877" lon="6.19935">
        <ele>627.87797</ele>
        <time>2026-03-24T08:53:46.014Z</time>
      </trkpt>
      <trkpt lat="43.65878" lon="6.19933">
        <ele>628.02724</ele>
        <time>2026-03-24T08:53:48.014Z</time>
      </trkpt>
      <trkpt lat="43.65881" lon="6.19932">
        <ele>628.18951</ele>
        <time>2026-03-24T08:53:50.014Z</time>
      </trkpt>
      <trkpt lat="43.65883" lon="6.1993">
        <ele>628.33952</ele>
        <time>2026-03-24T08:53:52.014Z</time>
      </trkpt>
      <trkpt lat="43.65884" lon="6.19927">
        <ele>628.49965</ele>
        <time>2026-03-24T08:53:54.014Z</time>
      </trkpt>
      <trkpt lat="43.65886" lon="6.19924">
        <ele>628.665</ele>
        <time>2026-03-24T08:53:56.014Z</time>
      </trkpt>
      <trkpt lat="43.65887" lon="6.19922">
        <ele>628.85968</ele>
        <time>2026-03-24T08:53:58.014Z</time>
      </trkpt>
      <trkpt lat="43.65889" lon="6.1992">
        <ele>629.01232</ele>
        <time>2026-03-24T08:54:00.014Z</time>
      </trkpt>
      <trkpt lat="43.65891" lon="6.19917">
        <ele>629.29714</ele>
        <time>2026-03-24T08:54:03.014Z</time>
      </trkpt>
      <trkpt lat="43.65893" lon="6.19915">
        <ele>629.46412</ele>
        <time>2026-03-24T08:54:05.014Z</time>
      </trkpt>
      <trkpt lat="43.65895" lon="6.19912">
        <ele>629.65364</ele>
        <time>2026-03-24T08:54:07.014Z</time>
      </trkpt>
      <trkpt lat="43.65896" lon="6.19909">
        <ele>629.87058</ele>
        <time>2026-03-24T08:54:09.014Z</time>
      </trkpt>
      <trkpt lat="43.65898" lon="6.19906">
        <ele>630.18047</ele>
        <time>2026-03-24T08:54:12.014Z</time>
      </trkpt>
      <trkpt lat="43.65898" lon="6.19902">
        <ele>630.4025</ele>
        <time>2026-03-24T08:54:14.014Z</time>
      </trkpt>
      <trkpt lat="43.659" lon="6.199">
        <ele>630.57812</ele>
        <time>2026-03-24T08:54:16.014Z</time>
      </trkpt>
      <trkpt lat="43.65902" lon="6.19897">
        <ele>630.76252</ele>
        <time>2026-03-24T08:54:18.014Z</time>
      </trkpt>
      <trkpt lat="43.65905" lon="6.19895">
        <ele>630.91862</ele>
        <time>2026-03-24T08:54:20.014Z</time>
      </trkpt>
      <trkpt lat="43.65906" lon="6.19892">
        <ele>631.02939</ele>
        <time>2026-03-24T08:54:22.014Z</time>
      </trkpt>
      <trkpt lat="43.65908" lon="6.1989">
        <ele>631.11235</ele>
        <time>2026-03-24T08:54:24.014Z</time>
      </trkpt>
      <trkpt lat="43.6591" lon="6.19887">
        <ele>631.19283</ele>
        <time>2026-03-24T08:54:26.014Z</time>
      </trkpt>
      <trkpt lat="43.65911" lon="6.19884">
        <ele>631.27342</ele>
        <time>2026-03-24T08:54:28.014Z</time>
      </trkpt>
      <trkpt lat="43.65913" lon="6.19882">
        <ele>631.35342</ele>
        <time>2026-03-24T08:54:30.014Z</time>
      </trkpt>
      <trkpt lat="43.65916" lon="6.19878">
        <ele>631.44332</ele>
        <time>2026-03-24T08:54:33.014Z</time>
      </trkpt>
      <trkpt lat="43.65917" lon="6.19875">
        <ele>631.48596</ele>
        <time>2026-03-24T08:54:35.014Z</time>
      </trkpt>
      <trkpt lat="43.65919" lon="6.19872">
        <ele>631.51672</ele>
        <time>2026-03-24T08:54:37.014Z</time>
      </trkpt>
      <trkpt lat="43.65921" lon="6.19868">
        <ele>631.56345</ele>
        <time>2026-03-24T08:54:40.014Z</time>
      </trkpt>
      <trkpt lat="43.65922" lon="6.19866">
        <ele>631.60043</ele>
        <time>2026-03-24T08:54:42.014Z</time>
      </trkpt>
      <trkpt lat="43.65924" lon="6.19863">
        <ele>631.64408</ele>
        <time>2026-03-24T08:54:44.014Z</time>
      </trkpt>
      <trkpt lat="43.65926" lon="6.19858">
        <ele>631.69363</ele>
        <time>2026-03-24T08:54:47.014Z</time>
      </trkpt>
      <trkpt lat="43.65928" lon="6.19855">
        <ele>631.71568</ele>
        <time>2026-03-24T08:54:49.014Z</time>
      </trkpt>
      <trkpt lat="43.6593" lon="6.19852">
        <ele>631.75014</ele>
        <time>2026-03-24T08:54:52.013Z</time>
      </trkpt>
      <trkpt lat="43.65932" lon="6.1985">
        <ele>631.76216</ele>
        <time>2026-03-24T08:54:53.013Z</time>
      </trkpt>
      <trkpt lat="43.65935" lon="6.19847">
        <ele>631.8002</ele>
        <time>2026-03-24T08:54:56.013Z</time>
      </trkpt>
      <trkpt lat="43.65937" lon="6.19844">
        <ele>631.82726</ele>
        <time>2026-03-24T08:54:58.013Z</time>
      </trkpt>
      <trkpt lat="43.65938" lon="6.19841">
        <ele>631.85982</ele>
        <time>2026-03-24T08:55:00.013Z</time>
      </trkpt>
      <trkpt lat="43.6594" lon="6.19838">
        <ele>631.90373</ele>
        <time>2026-03-24T08:55:03.013Z</time>
      </trkpt>
      <trkpt lat="43.65943" lon="6.19836">
        <ele>631.93193</ele>
        <time>2026-03-24T08:55:06.013Z</time>
      </trkpt>
      <trkpt lat="43.65945" lon="6.19834">
        <ele>631.94791</ele>
        <time>2026-03-24T08:55:08.013Z</time>
      </trkpt>
      <trkpt lat="43.65947" lon="6.19831">
        <ele>631.96911</ele>
        <time>2026-03-24T08:55:10.013Z</time>
      </trkpt>
      <trkpt lat="43.65949" lon="6.19828">
        <ele>631.99106</ele>
        <time>2026-03-24T08:55:12.013Z</time>
      </trkpt>
      <trkpt lat="43.6595" lon="6.19824">
        <ele>632.03104</ele>
        <time>2026-03-24T08:55:15.013Z</time>
      </trkpt>
      <trkpt lat="43.65952" lon="6.19821">
        <ele>632.0646</ele>
        <time>2026-03-24T08:55:17.013Z</time>
      </trkpt>
      <trkpt lat="43.65953" lon="6.19818">
        <ele>632.12799</ele>
        <time>2026-03-24T08:55:20.013Z</time>
      </trkpt>
      <trkpt lat="43.65956" lon="6.19814">
        <ele>632.18223</ele>
        <time>2026-03-24T08:55:22.013Z</time>
      </trkpt>
      <trkpt lat="43.65958" lon="6.19812">
        <ele>632.24004</ele>
        <time>2026-03-24T08:55:24.013Z</time>
      </trkpt>
      <trkpt lat="43.65959" lon="6.19809">
        <ele>632.30905</ele>
        <time>2026-03-24T08:55:26.013Z</time>
      </trkpt>
      <trkpt lat="43.65961" lon="6.19806">
        <ele>632.42765</ele>
        <time>2026-03-24T08:55:29.013Z</time>
      </trkpt>
      <trkpt lat="43.65963" lon="6.19803">
        <ele>632.52042</ele>
        <time>2026-03-24T08:55:31.013Z</time>
      </trkpt>
      <trkpt lat="43.65966" lon="6.19801">
        <ele>632.6205</ele>
        <time>2026-03-24T08:55:33.015Z</time>
      </trkpt>
      <trkpt lat="43.65968" lon="6.19798">
        <ele>632.78034</ele>
        <time>2026-03-24T08:55:36.015Z</time>
      </trkpt>
      <trkpt lat="43.6597" lon="6.19796">
        <ele>632.90103</ele>
        <time>2026-03-24T08:55:38.015Z</time>
      </trkpt>
      <trkpt lat="43.65972" lon="6.19793">
        <ele>633.0519</ele>
        <time>2026-03-24T08:55:40.015Z</time>
      </trkpt>
      <trkpt lat="43.65974" lon="6.19791">
        <ele>633.20071</ele>
        <time>2026-03-24T08:55:42.015Z</time>
      </trkpt>
      <trkpt lat="43.65976" lon="6.1979">
        <ele>633.37348</ele>
        <time>2026-03-24T08:55:44.016Z</time>
      </trkpt>
      <trkpt lat="43.65979" lon="6.19787">
        <ele>633.68091</ele>
        <time>2026-03-24T08:55:47.015Z</time>
      </trkpt>
      <trkpt lat="43.65981" lon="6.19785">
        <ele>633.91665</ele>
        <time>2026-03-24T08:55:49.015Z</time>
      </trkpt>
      <trkpt lat="43.65983" lon="6.19782">
        <ele>634.12045</ele>
        <time>2026-03-24T08:55:51.015Z</time>
      </trkpt>
      <trkpt lat="43.65985" lon="6.19778">
        <ele>634.28925</ele>
        <time>2026-03-24T08:55:53.015Z</time>
      </trkpt>
      <trkpt lat="43.65987" lon="6.19774">
        <ele>634.43279</ele>
        <time>2026-03-24T08:55:55.015Z</time>
      </trkpt>
      <trkpt lat="43.65987" lon="6.19769">
        <ele>634.59995</ele>
        <time>2026-03-24T08:55:58.015Z</time>
      </trkpt>
      <trkpt lat="43.6599" lon="6.19766">
        <ele>634.76509</ele>
        <time>2026-03-24T08:56:01.015Z</time>
      </trkpt>
      <trkpt lat="43.65992" lon="6.19765">
        <ele>634.88658</ele>
        <time>2026-03-24T08:56:03.015Z</time>
      </trkpt>
      <trkpt lat="43.65994" lon="6.19762">
        <ele>635.11127</ele>
        <time>2026-03-24T08:56:06.015Z</time>
      </trkpt>
      <trkpt lat="43.65995" lon="6.19758">
        <ele>635.23159</ele>
        <time>2026-03-24T08:56:08.015Z</time>
      </trkpt>
      <trkpt lat="43.65998" lon="6.19757">
        <ele>635.76387</ele>
        <time>2026-03-24T08:56:15.015Z</time>
      </trkpt>
      <trkpt lat="43.66001" lon="6.19756">
        <ele>636.03418</ele>
        <time>2026-03-24T08:56:19.015Z</time>
      </trkpt>
      <trkpt lat="43.66003" lon="6.19753">
        <ele>636.16552</ele>
        <time>2026-03-24T08:56:21.015Z</time>
      </trkpt>
      <trkpt lat="43.66004" lon="6.1975">
        <ele>636.30973</ele>
        <time>2026-03-24T08:56:23.015Z</time>
      </trkpt>
      <trkpt lat="43.66005" lon="6.19747">
        <ele>636.46764</ele>
        <time>2026-03-24T08:56:25.015Z</time>
      </trkpt>
      <trkpt lat="43.66007" lon="6.19746">
        <ele>636.62336</ele>
        <time>2026-03-24T08:56:27.015Z</time>
      </trkpt>
      <trkpt lat="43.66009" lon="6.19743">
        <ele>636.75779</ele>
        <time>2026-03-24T08:56:29.015Z</time>
      </trkpt>
      <trkpt lat="43.66011" lon="6.1974">
        <ele>636.91832</ele>
        <time>2026-03-24T08:56:31.015Z</time>
      </trkpt>
      <trkpt lat="43.66013" lon="6.19736">
        <ele>637.2098</ele>
        <time>2026-03-24T08:56:34.015Z</time>
      </trkpt>
      <trkpt lat="43.66015" lon="6.19734">
        <ele>637.43541</ele>
        <time>2026-03-24T08:56:36.015Z</time>
      </trkpt>
      <trkpt lat="43.66017" lon="6.19731">
        <ele>637.8617</ele>
        <time>2026-03-24T08:56:39.015Z</time>
      </trkpt>
      <trkpt lat="43.66018" lon="6.19728">
        <ele>638.11365</ele>
        <time>2026-03-24T08:56:41.015Z</time>
      </trkpt>
      <trkpt lat="43.6602" lon="6.19725">
        <ele>638.36762</ele>
        <time>2026-03-24T08:56:43.015Z</time>
      </trkpt>
      <trkpt lat="43.66021" lon="6.19722">
        <ele>638.79571</ele>
        <time>2026-03-24T08:56:46.015Z</time>
      </trkpt>
      <trkpt lat="43.66022" lon="6.19719">
        <ele>639.07056</ele>
        <time>2026-03-24T08:56:48.015Z</time>
      </trkpt>
      <trkpt lat="43.66023" lon="6.19715">
        <ele>639.44566</ele>
        <time>2026-03-24T08:56:51.015Z</time>
      </trkpt>
      <trkpt lat="43.66025" lon="6.19712">
        <ele>639.74357</ele>
        <time>2026-03-24T08:56:53.015Z</time>
      </trkpt>
      <trkpt lat="43.66025" lon="6.19708">
        <ele>640.05215</ele>
        <time>2026-03-24T08:56:55.015Z</time>
      </trkpt>
      <trkpt lat="43.66026" lon="6.19704">
        <ele>640.45642</ele>
        <time>2026-03-24T08:56:58.015Z</time>
      </trkpt>
      <trkpt lat="43.66028" lon="6.19701">
        <ele>640.68771</ele>
        <time>2026-03-24T08:57:00.015Z</time>
      </trkpt>
      <trkpt lat="43.66029" lon="6.19699">
        <ele>640.93175</ele>
        <time>2026-03-24T08:57:02.015Z</time>
      </trkpt>
      <trkpt lat="43.66028" lon="6.19695">
        <ele>641.14639</ele>
        <time>2026-03-24T08:57:04.015Z</time>
      </trkpt>
      <trkpt lat="43.66028" lon="6.19692">
        <ele>641.33283</ele>
        <time>2026-03-24T08:57:06.015Z</time>
      </trkpt>
      <trkpt lat="43.66029" lon="6.19689">
        <ele>641.55</ele>
        <time>2026-03-24T08:57:08.015Z</time>
      </trkpt>
      <trkpt lat="43.6603" lon="6.19686">
        <ele>641.707</ele>
        <time>2026-03-24T08:57:10.015Z</time>
      </trkpt>
      <trkpt lat="43.66031" lon="6.19683">
        <ele>641.84894</ele>
        <time>2026-03-24T08:57:12.015Z</time>
      </trkpt>
      <trkpt lat="43.66031" lon="6.19679">
        <ele>641.99984</ele>
        <time>2026-03-24T08:57:14.015Z</time>
      </trkpt>
      <trkpt lat="43.66032" lon="6.19676">
        <ele>642.13532</ele>
        <time>2026-03-24T08:57:16.015Z</time>
      </trkpt>
      <trkpt lat="43.66033" lon="6.19672">
        <ele>642.22968</ele>
        <time>2026-03-24T08:57:18.015Z</time>
      </trkpt>
      <trkpt lat="43.66034" lon="6.19669">
        <ele>642.30877</ele>
        <time>2026-03-24T08:57:20.015Z</time>
      </trkpt>
      <trkpt lat="43.66034" lon="6.19664">
        <ele>642.36942</ele>
        <time>2026-03-24T08:57:23.015Z</time>
      </trkpt>
      <trkpt lat="43.66035" lon="6.1966">
        <ele>642.39495</ele>
        <time>2026-03-24T08:57:25.015Z</time>
      </trkpt>
      <trkpt lat="43.66035" lon="6.19657">
        <ele>642.41978</ele>
        <time>2026-03-24T08:57:27.015Z</time>
      </trkpt>
      <trkpt lat="43.66036" lon="6.19653">
        <ele>642.46455</ele>
        <time>2026-03-24T08:57:29.015Z</time>
      </trkpt>
      <trkpt lat="43.66037" lon="6.19649">
        <ele>642.53943</ele>
        <time>2026-03-24T08:57:32.015Z</time>
      </trkpt>
      <trkpt lat="43.66037" lon="6.19645">
        <ele>642.58712</ele>
        <time>2026-03-24T08:57:34.015Z</time>
      </trkpt>
      <trkpt lat="43.66037" lon="6.19642">
        <ele>642.60882</ele>
        <time>2026-03-24T08:57:36.015Z</time>
      </trkpt>
      <trkpt lat="43.66038" lon="6.19639">
        <ele>642.64186</ele>
        <time>2026-03-24T08:57:38.015Z</time>
      </trkpt>
      <trkpt lat="43.66039" lon="6.19635">
        <ele>642.66748</ele>
        <time>2026-03-24T08:57:41.016Z</time>
      </trkpt>
      <trkpt lat="43.6604" lon="6.19632">
        <ele>642.68258</ele>
        <time>2026-03-24T08:57:44.015Z</time>
      </trkpt>
      <trkpt lat="43.66041" lon="6.19628">
        <ele>642.70113</ele>
        <time>2026-03-24T08:57:46.015Z</time>
      </trkpt>
      <trkpt lat="43.66042" lon="6.19623">
        <ele>642.71549</ele>
        <time>2026-03-24T08:57:48.015Z</time>
      </trkpt>
      <trkpt lat="43.66043" lon="6.1962">
        <ele>642.73108</ele>
        <time>2026-03-24T08:57:50.016Z</time>
      </trkpt>
      <trkpt lat="43.66043" lon="6.19616">
        <ele>642.74514</ele>
        <time>2026-03-24T08:57:52.015Z</time>
      </trkpt>
      <trkpt lat="43.66045" lon="6.19612">
        <ele>642.75921</ele>
        <time>2026-03-24T08:57:55.015Z</time>
      </trkpt>
      <trkpt lat="43.66046" lon="6.19608">
        <ele>642.77057</ele>
        <time>2026-03-24T08:57:58.015Z</time>
      </trkpt>
      <trkpt lat="43.66047" lon="6.19605">
        <ele>642.77485</ele>
        <time>2026-03-24T08:58:00.015Z</time>
      </trkpt>
      <trkpt lat="43.66049" lon="6.19604">
        <ele>642.77436</ele>
        <time>2026-03-24T08:58:02.015Z</time>
      </trkpt>
      <trkpt lat="43.66051" lon="6.196">
        <ele>642.77621</ele>
        <time>2026-03-24T08:58:04.015Z</time>
      </trkpt>
      <trkpt lat="43.66053" lon="6.19596">
        <ele>642.78299</ele>
        <time>2026-03-24T08:58:07.015Z</time>
      </trkpt>
      <trkpt lat="43.66054" lon="6.19593">
        <ele>642.78737</ele>
        <time>2026-03-24T08:58:09.015Z</time>
      </trkpt>
      <trkpt lat="43.66053" lon="6.19589">
        <ele>642.82211</ele>
        <time>2026-03-24T08:58:19.015Z</time>
      </trkpt>
      <trkpt lat="43.66056" lon="6.19586">
        <ele>642.93837</ele>
        <time>2026-03-24T08:58:45.015Z</time>
      </trkpt>
      <trkpt lat="43.66057" lon="6.19583">
        <ele>642.95391</ele>
        <time>2026-03-24T08:58:48.015Z</time>
      </trkpt>
      <trkpt lat="43.6606" lon="6.19579">
        <ele>642.96392</ele>
        <time>2026-03-24T08:58:50.015Z</time>
      </trkpt>
      <trkpt lat="43.6606" lon="6.19576">
        <ele>642.97065</ele>
        <time>2026-03-24T08:58:52.015Z</time>
      </trkpt>
      <trkpt lat="43.66061" lon="6.19572">
        <ele>642.9814</ele>
        <time>2026-03-24T08:58:54.015Z</time>
      </trkpt>
      <trkpt lat="43.66062" lon="6.19568">
        <ele>642.99928</ele>
        <time>2026-03-24T08:58:57.015Z</time>
      </trkpt>
      <trkpt lat="43.66063" lon="6.19565">
        <ele>643.01276</ele>
        <time>2026-03-24T08:58:59.015Z</time>
      </trkpt>
      <trkpt lat="43.66063" lon="6.19561">
        <ele>643.02243</ele>
        <time>2026-03-24T08:59:01.015Z</time>
      </trkpt>
      <trkpt lat="43.66064" lon="6.19557">
        <ele>643.04428</ele>
        <time>2026-03-24T08:59:04.015Z</time>
      </trkpt>
      <trkpt lat="43.66064" lon="6.19554">
        <ele>643.0574</ele>
        <time>2026-03-24T08:59:06.015Z</time>
      </trkpt>
      <trkpt lat="43.66065" lon="6.1955">
        <ele>643.07344</ele>
        <time>2026-03-24T08:59:09.015Z</time>
      </trkpt>
      <trkpt lat="43.66067" lon="6.19546">
        <ele>643.09561</ele>
        <time>2026-03-24T08:59:12.015Z</time>
      </trkpt>
      <trkpt lat="43.66068" lon="6.19542">
        <ele>643.10831</ele>
        <time>2026-03-24T08:59:14.015Z</time>
      </trkpt>
      <trkpt lat="43.6607" lon="6.19539">
        <ele>643.121</ele>
        <time>2026-03-24T08:59:16.015Z</time>
      </trkpt>
      <trkpt lat="43.66071" lon="6.19535">
        <ele>643.13469</ele>
        <time>2026-03-24T08:59:19.015Z</time>
      </trkpt>
      <trkpt lat="43.66072" lon="6.1953">
        <ele>643.13201</ele>
        <time>2026-03-24T08:59:22.015Z</time>
      </trkpt>
      <trkpt lat="43.66075" lon="6.19526">
        <ele>643.1354</ele>
        <time>2026-03-24T08:59:25.015Z</time>
      </trkpt>
      <trkpt lat="43.66076" lon="6.19522">
        <ele>643.13732</ele>
        <time>2026-03-24T08:59:27.015Z</time>
      </trkpt>
      <trkpt lat="43.66078" lon="6.19519">
        <ele>643.14048</ele>
        <time>2026-03-24T08:59:29.015Z</time>
      </trkpt>
      <trkpt lat="43.6608" lon="6.19516">
        <ele>643.14336</ele>
        <time>2026-03-24T08:59:31.015Z</time>
      </trkpt>
      <trkpt lat="43.66082" lon="6.19513">
        <ele>643.1475</ele>
        <time>2026-03-24T08:59:34.015Z</time>
      </trkpt>
      <trkpt lat="43.66083" lon="6.1951">
        <ele>643.14959</ele>
        <time>2026-03-24T08:59:36.015Z</time>
      </trkpt>
      <trkpt lat="43.66084" lon="6.19507">
        <ele>643.15201</ele>
        <time>2026-03-24T08:59:38.015Z</time>
      </trkpt>
      <trkpt lat="43.66086" lon="6.19503">
        <ele>643.15872</ele>
        <time>2026-03-24T08:59:40.015Z</time>
      </trkpt>
      <trkpt lat="43.66088" lon="6.195">
        <ele>643.16421</ele>
        <time>2026-03-24T08:59:43.015Z</time>
      </trkpt>
      <trkpt lat="43.66089" lon="6.19497">
        <ele>643.16852</ele>
        <time>2026-03-24T08:59:45.016Z</time>
      </trkpt>
      <trkpt lat="43.66089" lon="6.19493">
        <ele>643.17461</ele>
        <time>2026-03-24T08:59:47.015Z</time>
      </trkpt>
      <trkpt lat="43.66092" lon="6.1949">
        <ele>643.18143</ele>
        <time>2026-03-24T08:59:49.015Z</time>
      </trkpt>
      <trkpt lat="43.66092" lon="6.19486">
        <ele>643.18782</ele>
        <time>2026-03-24T08:59:51.015Z</time>
      </trkpt>
      <trkpt lat="43.66093" lon="6.19483">
        <ele>643.18929</ele>
        <time>2026-03-24T08:59:53.015Z</time>
      </trkpt>
      <trkpt lat="43.66094" lon="6.1948">
        <ele>643.18887</ele>
        <time>2026-03-24T08:59:55.016Z</time>
      </trkpt>
      <trkpt lat="43.66095" lon="6.19476">
        <ele>643.18752</ele>
        <time>2026-03-24T08:59:58.015Z</time>
      </trkpt>
      <trkpt lat="43.66097" lon="6.19473">
        <ele>643.18646</ele>
        <time>2026-03-24T09:00:00.015Z</time>
      </trkpt>
      <trkpt lat="43.66098" lon="6.1947">
        <ele>643.18585</ele>
        <time>2026-03-24T09:00:02.015Z</time>
      </trkpt>
      <trkpt lat="43.66099" lon="6.19466">
        <ele>643.1864</ele>
        <time>2026-03-24T09:00:04.015Z</time>
      </trkpt>
      <trkpt lat="43.661" lon="6.19463">
        <ele>643.1835</ele>
        <time>2026-03-24T09:00:06.015Z</time>
      </trkpt>
      <trkpt lat="43.661" lon="6.19459">
        <ele>643.18187</ele>
        <time>2026-03-24T09:00:09.015Z</time>
      </trkpt>
      <trkpt lat="43.66102" lon="6.19456">
        <ele>643.1775</ele>
        <time>2026-03-24T09:00:11.015Z</time>
      </trkpt>
      <trkpt lat="43.66104" lon="6.19452">
        <ele>643.17054</ele>
        <time>2026-03-24T09:00:13.015Z</time>
      </trkpt>
      <trkpt lat="43.66105" lon="6.19449">
        <ele>643.14857</ele>
        <time>2026-03-24T09:00:16.015Z</time>
      </trkpt>
      <trkpt lat="43.66106" lon="6.19445">
        <ele>643.13767</ele>
        <time>2026-03-24T09:00:18.015Z</time>
      </trkpt>
      <trkpt lat="43.66108" lon="6.19442">
        <ele>643.11531</ele>
        <time>2026-03-24T09:00:20.015Z</time>
      </trkpt>
      <trkpt lat="43.66109" lon="6.19439">
        <ele>643.08521</ele>
        <time>2026-03-24T09:00:22.015Z</time>
      </trkpt>
      <trkpt lat="43.66111" lon="6.19434">
        <ele>643.06117</ele>
        <time>2026-03-24T09:00:24.015Z</time>
      </trkpt>
      <trkpt lat="43.66111" lon="6.1943">
        <ele>643.03975</ele>
        <time>2026-03-24T09:00:27.015Z</time>
      </trkpt>
      <trkpt lat="43.66111" lon="6.19425">
        <ele>643.02786</ele>
        <time>2026-03-24T09:00:29.015Z</time>
      </trkpt>
      <trkpt lat="43.66111" lon="6.19421">
        <ele>643.02375</ele>
        <time>2026-03-24T09:00:31.015Z</time>
      </trkpt>
      <trkpt lat="43.66112" lon="6.19418">
        <ele>643.00895</ele>
        <time>2026-03-24T09:00:33.015Z</time>
      </trkpt>
      <trkpt lat="43.66113" lon="6.19415">
        <ele>642.99667</ele>
        <time>2026-03-24T09:00:35.015Z</time>
      </trkpt>
      <trkpt lat="43.66113" lon="6.19411">
        <ele>642.98313</ele>
        <time>2026-03-24T09:00:37.015Z</time>
      </trkpt>
      <trkpt lat="43.66113" lon="6.19408">
        <ele>642.97567</ele>
        <time>2026-03-24T09:00:38.015Z</time>
      </trkpt>
      <trkpt lat="43.66115" lon="6.19404">
        <ele>642.95441</ele>
        <time>2026-03-24T09:00:41.015Z</time>
      </trkpt>
      <trkpt lat="43.66116" lon="6.194">
        <ele>642.92959</ele>
        <time>2026-03-24T09:00:43.015Z</time>
      </trkpt>
      <trkpt lat="43.66116" lon="6.19394">
        <ele>642.89001</ele>
        <time>2026-03-24T09:00:46.015Z</time>
      </trkpt>
      <trkpt lat="43.66116" lon="6.19389">
        <ele>642.84774</ele>
        <time>2026-03-24T09:00:49.015Z</time>
      </trkpt>
      <trkpt lat="43.66117" lon="6.19386">
        <ele>642.82278</ele>
        <time>2026-03-24T09:00:51.015Z</time>
      </trkpt>
      <trkpt lat="43.66119" lon="6.19382">
        <ele>642.7931</ele>
        <time>2026-03-24T09:00:53.015Z</time>
      </trkpt>
      <trkpt lat="43.66121" lon="6.1938">
        <ele>642.74898</ele>
        <time>2026-03-24T09:00:55.015Z</time>
      </trkpt>
      <trkpt lat="43.66123" lon="6.19377">
        <ele>642.70082</ele>
        <time>2026-03-24T09:00:57.015Z</time>
      </trkpt>
      <trkpt lat="43.66124" lon="6.19374">
        <ele>642.6555</ele>
        <time>2026-03-24T09:00:59.015Z</time>
      </trkpt>
      <trkpt lat="43.66126" lon="6.19371">
        <ele>642.60115</ele>
        <time>2026-03-24T09:01:01.015Z</time>
      </trkpt>
      <trkpt lat="43.66128" lon="6.19368">
        <ele>642.53767</ele>
        <time>2026-03-24T09:01:03.015Z</time>
      </trkpt>
      <trkpt lat="43.66129" lon="6.19364">
        <ele>642.48274</ele>
        <time>2026-03-24T09:01:05.015Z</time>
      </trkpt>
      <trkpt lat="43.66129" lon="6.1936">
        <ele>642.44649</ele>
        <time>2026-03-24T09:01:07.015Z</time>
      </trkpt>
      <trkpt lat="43.66131" lon="6.19356">
        <ele>642.41883</ele>
        <time>2026-03-24T09:01:09.015Z</time>
      </trkpt>
      <trkpt lat="43.66131" lon="6.19352">
        <ele>642.39438</ele>
        <time>2026-03-24T09:01:11.015Z</time>
      </trkpt>
      <trkpt lat="43.6613" lon="6.19348">
        <ele>642.37714</ele>
        <time>2026-03-24T09:01:13.015Z</time>
      </trkpt>
      <trkpt lat="43.6613" lon="6.19344">
        <ele>642.36575</ele>
        <time>2026-03-24T09:01:15.015Z</time>
      </trkpt>
      <trkpt lat="43.6613" lon="6.1934">
        <ele>642.35601</ele>
        <time>2026-03-24T09:01:17.015Z</time>
      </trkpt>
      <trkpt lat="43.66129" lon="6.19336">
        <ele>642.34635</ele>
        <time>2026-03-24T09:01:19.015Z</time>
      </trkpt>
      <trkpt lat="43.6613" lon="6.19332">
        <ele>642.35532</ele>
        <time>2026-03-24T09:01:22.015Z</time>
      </trkpt>
      <trkpt lat="43.66131" lon="6.19328">
        <ele>642.34913</ele>
        <time>2026-03-24T09:01:25.015Z</time>
      </trkpt>
      <trkpt lat="43.66132" lon="6.19324">
        <ele>642.35324</ele>
        <time>2026-03-24T09:01:27.015Z</time>
      </trkpt>
      <trkpt lat="43.66133" lon="6.19321">
        <ele>642.35457</ele>
        <time>2026-03-24T09:01:29.015Z</time>
      </trkpt>
      <trkpt lat="43.66134" lon="6.19317">
        <ele>642.35472</ele>
        <time>2026-03-24T09:01:31.015Z</time>
      </trkpt>
      <trkpt lat="43.66134" lon="6.19313">
        <ele>642.35424</ele>
        <time>2026-03-24T09:01:33.015Z</time>
      </trkpt>
      <trkpt lat="43.66134" lon="6.1931">
        <ele>642.35963</ele>
        <time>2026-03-24T09:01:39.015Z</time>
      </trkpt>
      <trkpt lat="43.66136" lon="6.19306">
        <ele>642.36508</ele>
        <time>2026-03-24T09:01:41.015Z</time>
      </trkpt>
      <trkpt lat="43.66138" lon="6.19305">
        <ele>642.37009</ele>
        <time>2026-03-24T09:01:43.015Z</time>
      </trkpt>
      <trkpt lat="43.6614" lon="6.19302">
        <ele>642.37421</ele>
        <time>2026-03-24T09:01:46.015Z</time>
      </trkpt>
      <trkpt lat="43.66142" lon="6.19299">
        <ele>642.37719</ele>
        <time>2026-03-24T09:01:48.015Z</time>
      </trkpt>
      <trkpt lat="43.66144" lon="6.19297">
        <ele>642.37819</ele>
        <time>2026-03-24T09:01:50.017Z</time>
      </trkpt>
      <trkpt lat="43.66147" lon="6.19295">
        <ele>642.3807</ele>
        <time>2026-03-24T09:01:52.016Z</time>
      </trkpt>
      <trkpt lat="43.66149" lon="6.19292">
        <ele>642.38437</ele>
        <time>2026-03-24T09:01:54.017Z</time>
      </trkpt>
      <trkpt lat="43.66151" lon="6.1929">
        <ele>642.3987</ele>
        <time>2026-03-24T09:01:59.016Z</time>
      </trkpt>
      <trkpt lat="43.66149" lon="6.19286">
        <ele>642.48909</ele>
        <time>2026-03-24T09:02:14.016Z</time>
      </trkpt>
      <trkpt lat="43.66151" lon="6.19284">
        <ele>642.50928</ele>
        <time>2026-03-24T09:02:17.016Z</time>
      </trkpt>
      <trkpt lat="43.66153" lon="6.1928">
        <ele>642.53155</ele>
        <time>2026-03-24T09:02:21.016Z</time>
      </trkpt>
      <trkpt lat="43.66155" lon="6.19279">
        <ele>642.54818</ele>
        <time>2026-03-24T09:02:24.016Z</time>
      </trkpt>
      <trkpt lat="43.66157" lon="6.19277">
        <ele>642.56456</ele>
        <time>2026-03-24T09:02:27.016Z</time>
      </trkpt>
      <trkpt lat="43.66158" lon="6.19274">
        <ele>642.58363</ele>
        <time>2026-03-24T09:02:30.016Z</time>
      </trkpt>
      <trkpt lat="43.66156" lon="6.1927">
        <ele>642.5925</ele>
        <time>2026-03-24T09:02:33.016Z</time>
      </trkpt>
      <trkpt lat="43.66157" lon="6.19268">
        <ele>642.59611</ele>
        <time>2026-03-24T09:02:36.016Z</time>
      </trkpt>
      <trkpt lat="43.6616" lon="6.19264">
        <ele>642.59723</ele>
        <time>2026-03-24T09:02:40.016Z</time>
      </trkpt>
      <trkpt lat="43.6616" lon="6.19259">
        <ele>642.59768</ele>
        <time>2026-03-24T09:02:43.016Z</time>
      </trkpt>
      <trkpt lat="43.66161" lon="6.19256">
        <ele>642.59655</ele>
        <time>2026-03-24T09:02:46.016Z</time>
      </trkpt>
      <trkpt lat="43.66164" lon="6.19253">
        <ele>642.59616</ele>
        <time>2026-03-24T09:02:49.016Z</time>
      </trkpt>
      <trkpt lat="43.66165" lon="6.1925">
        <ele>642.5965</ele>
        <time>2026-03-24T09:02:51.016Z</time>
      </trkpt>
      <trkpt lat="43.66167" lon="6.19247">
        <ele>642.5959</ele>
        <time>2026-03-24T09:02:53.016Z</time>
      </trkpt>
      <trkpt lat="43.6617" lon="6.19245">
        <ele>642.59549</ele>
        <time>2026-03-24T09:02:56.016Z</time>
      </trkpt>
      <trkpt lat="43.66172" lon="6.19243">
        <ele>642.59372</ele>
        <time>2026-03-24T09:02:59.016Z</time>
      </trkpt>
      <trkpt lat="43.66174" lon="6.1924">
        <ele>642.59387</ele>
        <time>2026-03-24T09:03:01.016Z</time>
      </trkpt>
      <trkpt lat="43.66176" lon="6.19237">
        <ele>642.59429</ele>
        <time>2026-03-24T09:03:03.016Z</time>
      </trkpt>
      <trkpt lat="43.66178" lon="6.19234">
        <ele>642.59359</ele>
        <time>2026-03-24T09:03:05.016Z</time>
      </trkpt>
      <trkpt lat="43.66179" lon="6.19231">
        <ele>642.59355</ele>
        <time>2026-03-24T09:03:07.016Z</time>
      </trkpt>
      <trkpt lat="43.66179" lon="6.19227">
        <ele>642.59365</ele>
        <time>2026-03-24T09:03:10.015Z</time>
      </trkpt>
      <trkpt lat="43.6618" lon="6.19223">
        <ele>642.59382</ele>
        <time>2026-03-24T09:03:12.015Z</time>
      </trkpt>
      <trkpt lat="43.6618" lon="6.19219">
        <ele>642.59408</ele>
        <time>2026-03-24T09:03:14.015Z</time>
      </trkpt>
      <trkpt lat="43.66181" lon="6.19216">
        <ele>642.5946</ele>
        <time>2026-03-24T09:03:17.015Z</time>
      </trkpt>
      <trkpt lat="43.66182" lon="6.19213">
        <ele>642.59426</ele>
        <time>2026-03-24T09:03:19.015Z</time>
      </trkpt>
      <trkpt lat="43.66184" lon="6.1921">
        <ele>642.59324</ele>
        <time>2026-03-24T09:03:22.015Z</time>
      </trkpt>
      <trkpt lat="43.66185" lon="6.19206">
        <ele>642.59247</ele>
        <time>2026-03-24T09:03:24.015Z</time>
      </trkpt>
      <trkpt lat="43.66186" lon="6.19202">
        <ele>642.59048</ele>
        <time>2026-03-24T09:03:27.015Z</time>
      </trkpt>
      <trkpt lat="43.66188" lon="6.19198">
        <ele>642.58723</ele>
        <time>2026-03-24T09:03:30.015Z</time>
      </trkpt>
      <trkpt lat="43.66189" lon="6.19194">
        <ele>642.58107</ele>
        <time>2026-03-24T09:03:33.015Z</time>
      </trkpt>
      <trkpt lat="43.6619" lon="6.19191">
        <ele>642.5731</ele>
        <time>2026-03-24T09:03:35.015Z</time>
      </trkpt>
      <trkpt lat="43.66191" lon="6.19187">
        <ele>642.56559</ele>
        <time>2026-03-24T09:03:37.015Z</time>
      </trkpt>
      <trkpt lat="43.66192" lon="6.19184">
        <ele>642.55</ele>
        <time>2026-03-24T09:03:40.015Z</time>
      </trkpt>
      <trkpt lat="43.66193" lon="6.1918">
        <ele>642.53893</ele>
        <time>2026-03-24T09:03:42.015Z</time>
      </trkpt>
      <trkpt lat="43.66194" lon="6.19176">
        <ele>642.52054</ele>
        <time>2026-03-24T09:03:45.015Z</time>
      </trkpt>
      <trkpt lat="43.66195" lon="6.19172">
        <ele>642.49234</ele>
        <time>2026-03-24T09:03:48.015Z</time>
      </trkpt>
      <trkpt lat="43.66196" lon="6.19169">
        <ele>642.46666</ele>
        <time>2026-03-24T09:03:50.015Z</time>
      </trkpt>
      <trkpt lat="43.66197" lon="6.19165">
        <ele>642.42662</ele>
        <time>2026-03-24T09:03:53.015Z</time>
      </trkpt>
      <trkpt lat="43.66197" lon="6.19161">
        <ele>642.3948</ele>
        <time>2026-03-24T09:03:55.015Z</time>
      </trkpt>
      <trkpt lat="43.66198" lon="6.19158">
        <ele>642.33039</ele>
        <time>2026-03-24T09:03:57.017Z</time>
      </trkpt>
      <trkpt lat="43.662" lon="6.19154">
        <ele>642.24747</ele>
        <time>2026-03-24T09:04:00.016Z</time>
      </trkpt>
      <trkpt lat="43.66201" lon="6.19151">
        <ele>642.17079</ele>
        <time>2026-03-24T09:04:03.017Z</time>
      </trkpt>
      <trkpt lat="43.66203" lon="6.19148">
        <ele>642.10576</ele>
        <time>2026-03-24T09:04:05.017Z</time>
      </trkpt>
      <trkpt lat="43.66203" lon="6.19144">
        <ele>642.03465</ele>
        <time>2026-03-24T09:04:08.016Z</time>
      </trkpt>
      <trkpt lat="43.66204" lon="6.19141">
        <ele>642.00238</ele>
        <time>2026-03-24T09:04:10.017Z</time>
      </trkpt>
      <trkpt lat="43.66206" lon="6.19138">
        <ele>641.96315</ele>
        <time>2026-03-24T09:04:12.017Z</time>
      </trkpt>
      <trkpt lat="43.66208" lon="6.19135">
        <ele>641.93277</ele>
        <time>2026-03-24T09:04:15.017Z</time>
      </trkpt>
      <trkpt lat="43.6621" lon="6.19132">
        <ele>641.91747</ele>
        <time>2026-03-24T09:04:18.017Z</time>
      </trkpt>
      <trkpt lat="43.66212" lon="6.19129">
        <ele>641.89383</ele>
        <time>2026-03-24T09:04:20.017Z</time>
      </trkpt>
      <trkpt lat="43.66213" lon="6.19126">
        <ele>641.87945</ele>
        <time>2026-03-24T09:04:22.017Z</time>
      </trkpt>
      <trkpt lat="43.66214" lon="6.19123">
        <ele>641.85502</ele>
        <time>2026-03-24T09:04:24.017Z</time>
      </trkpt>
      <trkpt lat="43.66215" lon="6.1912">
        <ele>641.82895</ele>
        <time>2026-03-24T09:04:27.017Z</time>
      </trkpt>
      <trkpt lat="43.66215" lon="6.19116">
        <ele>641.81676</ele>
        <time>2026-03-24T09:04:29.017Z</time>
      </trkpt>
      <trkpt lat="43.66216" lon="6.19113">
        <ele>641.80207</ele>
        <time>2026-03-24T09:04:31.017Z</time>
      </trkpt>
      <trkpt lat="43.66217" lon="6.1911">
        <ele>641.78778</ele>
        <time>2026-03-24T09:04:33.017Z</time>
      </trkpt>
      <trkpt lat="43.66218" lon="6.19107">
        <ele>641.77522</ele>
        <time>2026-03-24T09:04:35.017Z</time>
      </trkpt>
      <trkpt lat="43.66219" lon="6.19103">
        <ele>641.75915</ele>
        <time>2026-03-24T09:04:38.017Z</time>
      </trkpt>
      <trkpt lat="43.6622" lon="6.191">
        <ele>641.74744</ele>
        <time>2026-03-24T09:04:40.017Z</time>
      </trkpt>
      <trkpt lat="43.66221" lon="6.19097">
        <ele>641.73895</ele>
        <time>2026-03-24T09:04:42.017Z</time>
      </trkpt>
      <trkpt lat="43.66223" lon="6.19093">
        <ele>641.7242</ele>
        <time>2026-03-24T09:04:44.017Z</time>
      </trkpt>
      <trkpt lat="43.66224" lon="6.1909">
        <ele>641.71687</ele>
        <time>2026-03-24T09:04:46.017Z</time>
      </trkpt>
      <trkpt lat="43.66227" lon="6.19088">
        <ele>641.70063</ele>
        <time>2026-03-24T09:04:52.017Z</time>
      </trkpt>
      <trkpt lat="43.66229" lon="6.19087">
        <ele>641.69746</ele>
        <time>2026-03-24T09:04:54.017Z</time>
      </trkpt>
      <trkpt lat="43.66231" lon="6.19085">
        <ele>641.69143</ele>
        <time>2026-03-24T09:04:57.017Z</time>
      </trkpt>
      <trkpt lat="43.66235" lon="6.19083">
        <ele>641.67044</ele>
        <time>2026-03-24T09:04:59.017Z</time>
      </trkpt>
      <trkpt lat="43.66237" lon="6.1908">
        <ele>641.64794</ele>
        <time>2026-03-24T09:05:02.017Z</time>
      </trkpt>
      <trkpt lat="43.6624" lon="6.19079">
        <ele>641.62911</ele>
        <time>2026-03-24T09:05:05.016Z</time>
      </trkpt>
      <trkpt lat="43.66242" lon="6.19077">
        <ele>641.62056</ele>
        <time>2026-03-24T09:05:07.016Z</time>
      </trkpt>
      <trkpt lat="43.66245" lon="6.19074">
        <ele>641.61221</ele>
        <time>2026-03-24T09:05:10.016Z</time>
      </trkpt>
      <trkpt lat="43.66247" lon="6.1907">
        <ele>641.60947</ele>
        <time>2026-03-24T09:05:12.016Z</time>
      </trkpt>
      <trkpt lat="43.66248" lon="6.19067">
        <ele>641.61116</ele>
        <time>2026-03-24T09:05:15.016Z</time>
      </trkpt>
      <trkpt lat="43.66249" lon="6.19064">
        <ele>641.61166</ele>
        <time>2026-03-24T09:05:17.016Z</time>
      </trkpt>
      <trkpt lat="43.6625" lon="6.1906">
        <ele>641.61203</ele>
        <time>2026-03-24T09:05:19.016Z</time>
      </trkpt>
      <trkpt lat="43.6625" lon="6.19055">
        <ele>641.60962</ele>
        <time>2026-03-24T09:05:22.016Z</time>
      </trkpt>
      <trkpt lat="43.66251" lon="6.19052">
        <ele>641.60594</ele>
        <time>2026-03-24T09:05:24.016Z</time>
      </trkpt>
      <trkpt lat="43.66251" lon="6.19049">
        <ele>641.60265</ele>
        <time>2026-03-24T09:05:26.016Z</time>
      </trkpt>
      <trkpt lat="43.6625" lon="6.19044">
        <ele>641.59688</ele>
        <time>2026-03-24T09:05:29.016Z</time>
      </trkpt>
      <trkpt lat="43.66251" lon="6.1904">
        <ele>641.59329</ele>
        <time>2026-03-24T09:05:31.016Z</time>
      </trkpt>
      <trkpt lat="43.66252" lon="6.19036">
        <ele>641.5913</ele>
        <time>2026-03-24T09:05:33.016Z</time>
      </trkpt>
      <trkpt lat="43.66251" lon="6.19032">
        <ele>641.58872</ele>
        <time>2026-03-24T09:05:36.016Z</time>
      </trkpt>
      <trkpt lat="43.66251" lon="6.19029">
        <ele>641.58557</ele>
        <time>2026-03-24T09:05:38.016Z</time>
      </trkpt>
      <trkpt lat="43.66251" lon="6.19025">
        <ele>641.58403</ele>
        <time>2026-03-24T09:05:40.016Z</time>
      </trkpt>
      <trkpt lat="43.66251" lon="6.19021">
        <ele>641.58375</ele>
        <time>2026-03-24T09:05:42.016Z</time>
      </trkpt>
      <trkpt lat="43.66251" lon="6.19016">
        <ele>641.58104</ele>
        <time>2026-03-24T09:05:45.016Z</time>
      </trkpt>
      <trkpt lat="43.66251" lon="6.19011">
        <ele>641.57641</ele>
        <time>2026-03-24T09:05:48.016Z</time>
      </trkpt>
      <trkpt lat="43.66251" lon="6.19007">
        <ele>641.57382</ele>
        <time>2026-03-24T09:05:50.016Z</time>
      </trkpt>
      <trkpt lat="43.66251" lon="6.19003">
        <ele>641.57211</ele>
        <time>2026-03-24T09:05:52.016Z</time>
      </trkpt>
      <trkpt lat="43.66251" lon="6.18999">
        <ele>641.56519</ele>
        <time>2026-03-24T09:05:55.016Z</time>
      </trkpt>
      <trkpt lat="43.66252" lon="6.18995">
        <ele>641.55897</ele>
        <time>2026-03-24T09:05:57.016Z</time>
      </trkpt>
      <trkpt lat="43.66249" lon="6.18994">
        <ele>641.51458</ele>
        <time>2026-03-24T09:06:11.017Z</time>
      </trkpt>
      <trkpt lat="43.66253" lon="6.18994">
        <ele>641.48333</ele>
        <time>2026-03-24T09:06:20.017Z</time>
      </trkpt>
      <trkpt lat="43.66256" lon="6.18994">
        <ele>641.47081</ele>
        <time>2026-03-24T09:06:25.017Z</time>
      </trkpt>
      <trkpt lat="43.66259" lon="6.18993">
        <ele>641.46714</ele>
        <time>2026-03-24T09:06:27.017Z</time>
      </trkpt>
      <trkpt lat="43.6626" lon="6.1899">
        <ele>641.46436</ele>
        <time>2026-03-24T09:06:30.017Z</time>
      </trkpt>
      <trkpt lat="43.66263" lon="6.18988">
        <ele>641.45896</ele>
        <time>2026-03-24T09:06:33.017Z</time>
      </trkpt>
      <trkpt lat="43.66265" lon="6.18984">
        <ele>641.4529</ele>
        <time>2026-03-24T09:06:35.017Z</time>
      </trkpt>
      <trkpt lat="43.66266" lon="6.18982">
        <ele>641.44745</ele>
        <time>2026-03-24T09:06:37.017Z</time>
      </trkpt>
      <trkpt lat="43.66267" lon="6.18979">
        <ele>641.44033</ele>
        <time>2026-03-24T09:06:39.017Z</time>
      </trkpt>
      <trkpt lat="43.66268" lon="6.18976">
        <ele>641.4307</ele>
        <time>2026-03-24T09:06:41.017Z</time>
      </trkpt>
      <trkpt lat="43.66269" lon="6.18971">
        <ele>641.41377</ele>
        <time>2026-03-24T09:06:44.017Z</time>
      </trkpt>
      <trkpt lat="43.6627" lon="6.18966">
        <ele>641.3928</ele>
        <time>2026-03-24T09:06:47.017Z</time>
      </trkpt>
      <trkpt lat="43.6627" lon="6.18963">
        <ele>641.37439</ele>
        <time>2026-03-24T09:06:49.017Z</time>
      </trkpt>
      <trkpt lat="43.66272" lon="6.18959">
        <ele>641.32997</ele>
        <time>2026-03-24T09:06:52.017Z</time>
      </trkpt>
      <trkpt lat="43.66272" lon="6.18955">
        <ele>641.27322</ele>
        <time>2026-03-24T09:06:55.017Z</time>
      </trkpt>
      <trkpt lat="43.66272" lon="6.18951">
        <ele>641.20406</ele>
        <time>2026-03-24T09:06:58.018Z</time>
      </trkpt>
      <trkpt lat="43.66273" lon="6.18945">
        <ele>641.13071</ele>
        <time>2026-03-24T09:07:01.018Z</time>
      </trkpt>
      <trkpt lat="43.66273" lon="6.18942">
        <ele>641.03496</ele>
        <time>2026-03-24T09:07:03.018Z</time>
      </trkpt>
      <trkpt lat="43.66273" lon="6.18937">
        <ele>640.85812</ele>
        <time>2026-03-24T09:07:06.018Z</time>
      </trkpt>
      <trkpt lat="43.66273" lon="6.18934">
        <ele>640.72895</ele>
        <time>2026-03-24T09:07:08.018Z</time>
      </trkpt>
      <trkpt lat="43.66273" lon="6.1893">
        <ele>640.61366</ele>
        <time>2026-03-24T09:07:10.018Z</time>
      </trkpt>
      <trkpt lat="43.66274" lon="6.18926">
        <ele>640.49695</ele>
        <time>2026-03-24T09:07:12.018Z</time>
      </trkpt>
      <trkpt lat="43.66274" lon="6.18922">
        <ele>640.29043</ele>
        <time>2026-03-24T09:07:15.018Z</time>
      </trkpt>
      <trkpt lat="43.66276" lon="6.18918">
        <ele>640.14535</ele>
        <time>2026-03-24T09:07:17.018Z</time>
      </trkpt>
      <trkpt lat="43.66278" lon="6.18915">
        <ele>639.99486</ele>
        <time>2026-03-24T09:07:19.018Z</time>
      </trkpt>
      <trkpt lat="43.66278" lon="6.18912">
        <ele>639.87038</ele>
        <time>2026-03-24T09:07:21.018Z</time>
      </trkpt>
      <trkpt lat="43.66279" lon="6.18908">
        <ele>639.73882</ele>
        <time>2026-03-24T09:07:24.018Z</time>
      </trkpt>
      <trkpt lat="43.66281" lon="6.18905">
        <ele>639.64684</ele>
        <time>2026-03-24T09:07:27.018Z</time>
      </trkpt>
      <trkpt lat="43.66281" lon="6.18901">
        <ele>639.60683</ele>
        <time>2026-03-24T09:07:29.018Z</time>
      </trkpt>
      <trkpt lat="43.66282" lon="6.18897">
        <ele>639.5423</ele>
        <time>2026-03-24T09:07:32.018Z</time>
      </trkpt>
      <trkpt lat="43.66283" lon="6.18892">
        <ele>639.45921</ele>
        <time>2026-03-24T09:07:35.018Z</time>
      </trkpt>
      <trkpt lat="43.66283" lon="6.18888">
        <ele>639.38661</ele>
        <time>2026-03-24T09:07:38.018Z</time>
      </trkpt>
      <trkpt lat="43.66285" lon="6.18884">
        <ele>639.34068</ele>
        <time>2026-03-24T09:07:40.018Z</time>
      </trkpt>
      <trkpt lat="43.66285" lon="6.1888">
        <ele>639.29551</ele>
        <time>2026-03-24T09:07:43.018Z</time>
      </trkpt>
      <trkpt lat="43.66286" lon="6.18877">
        <ele>639.26915</ele>
        <time>2026-03-24T09:07:45.018Z</time>
      </trkpt>
      <trkpt lat="43.66285" lon="6.18873">
        <ele>639.26062</ele>
        <time>2026-03-24T09:07:47.018Z</time>
      </trkpt>
      <trkpt lat="43.66286" lon="6.18869">
        <ele>639.25258</ele>
        <time>2026-03-24T09:07:50.018Z</time>
      </trkpt>
      <trkpt lat="43.66287" lon="6.18865">
        <ele>639.23614</ele>
        <time>2026-03-24T09:07:53.018Z</time>
      </trkpt>
      <trkpt lat="43.66288" lon="6.18861">
        <ele>639.2276</ele>
        <time>2026-03-24T09:07:55.018Z</time>
      </trkpt>
      <trkpt lat="43.66288" lon="6.18857">
        <ele>639.21741</ele>
        <time>2026-03-24T09:07:58.018Z</time>
      </trkpt>
      <trkpt lat="43.66289" lon="6.18853">
        <ele>639.20846</ele>
        <time>2026-03-24T09:08:00.018Z</time>
      </trkpt>
      <trkpt lat="43.66289" lon="6.18848">
        <ele>639.19202</ele>
        <time>2026-03-24T09:08:03.018Z</time>
      </trkpt>
      <trkpt lat="43.66288" lon="6.18844">
        <ele>639.18439</ele>
        <time>2026-03-24T09:08:05.018Z</time>
      </trkpt>
      <trkpt lat="43.66288" lon="6.1884">
        <ele>639.1766</ele>
        <time>2026-03-24T09:08:07.019Z</time>
      </trkpt>
      <trkpt lat="43.66288" lon="6.18836">
        <ele>639.16183</ele>
        <time>2026-03-24T09:08:09.018Z</time>
      </trkpt>
      <trkpt lat="43.66288" lon="6.18833">
        <ele>639.15042</ele>
        <time>2026-03-24T09:08:11.019Z</time>
      </trkpt>
      <trkpt lat="43.66289" lon="6.18829">
        <ele>639.13815</ele>
        <time>2026-03-24T09:08:13.019Z</time>
      </trkpt>
      <trkpt lat="43.66289" lon="6.18826">
        <ele>639.13924</ele>
        <time>2026-03-24T09:08:15.019Z</time>
      </trkpt>
      <trkpt lat="43.6629" lon="6.18823">
        <ele>639.13637</ele>
        <time>2026-03-24T09:08:17.019Z</time>
      </trkpt>
      <trkpt lat="43.66292" lon="6.18818">
        <ele>639.12577</ele>
        <time>2026-03-24T09:08:20.018Z</time>
      </trkpt>
      <trkpt lat="43.66293" lon="6.18814">
        <ele>639.10922</ele>
        <time>2026-03-24T09:08:23.018Z</time>
      </trkpt>
      <trkpt lat="43.66294" lon="6.18811">
        <ele>639.09554</ele>
        <time>2026-03-24T09:08:25.018Z</time>
      </trkpt>
      <trkpt lat="43.66294" lon="6.18807">
        <ele>639.08185</ele>
        <time>2026-03-24T09:08:27.018Z</time>
      </trkpt>
      <trkpt lat="43.66293" lon="6.18804">
        <ele>639.07016</ele>
        <time>2026-03-24T09:08:29.018Z</time>
      </trkpt>
      <trkpt lat="43.66294" lon="6.18799">
        <ele>639.04826</ele>
        <time>2026-03-24T09:08:32.018Z</time>
      </trkpt>
      <trkpt lat="43.66293" lon="6.18795">
        <ele>639.02307</ele>
        <time>2026-03-24T09:08:35.018Z</time>
      </trkpt>
      <trkpt lat="43.6629" lon="6.1879">
        <ele>638.83813</ele>
        <time>2026-03-24T09:09:13.018Z</time>
      </trkpt>
      <trkpt lat="43.66291" lon="6.18786">
        <ele>638.73073</ele>
        <time>2026-03-24T09:09:42.018Z</time>
      </trkpt>
      <trkpt lat="43.66293" lon="6.18784">
        <ele>638.71484</ele>
        <time>2026-03-24T09:09:45.018Z</time>
      </trkpt>
      <trkpt lat="43.66296" lon="6.18781">
        <ele>638.70597</ele>
        <time>2026-03-24T09:09:48.018Z</time>
      </trkpt>
      <trkpt lat="43.66297" lon="6.18778">
        <ele>638.69274</ele>
        <time>2026-03-24T09:09:51.018Z</time>
      </trkpt>
      <trkpt lat="43.66298" lon="6.18774">
        <ele>638.68313</ele>
        <time>2026-03-24T09:09:54.018Z</time>
      </trkpt>
      <trkpt lat="43.663" lon="6.1877">
        <ele>638.6728</ele>
        <time>2026-03-24T09:09:57.018Z</time>
      </trkpt>
      <trkpt lat="43.66302" lon="6.18768">
        <ele>638.6568</ele>
        <time>2026-03-24T09:09:59.018Z</time>
      </trkpt>
      <trkpt lat="43.66302" lon="6.18763">
        <ele>638.64137</ele>
        <time>2026-03-24T09:10:02.018Z</time>
      </trkpt>
      <trkpt lat="43.66303" lon="6.1876">
        <ele>638.62023</ele>
        <time>2026-03-24T09:10:04.018Z</time>
      </trkpt>
      <trkpt lat="43.66303" lon="6.18756">
        <ele>638.59817</ele>
        <time>2026-03-24T09:10:06.018Z</time>
      </trkpt>
      <trkpt lat="43.66304" lon="6.18752">
        <ele>638.54</ele>
        <time>2026-03-24T09:10:09.018Z</time>
      </trkpt>
      <trkpt lat="43.66304" lon="6.18748">
        <ele>638.48851</ele>
        <time>2026-03-24T09:10:11.018Z</time>
      </trkpt>
      <trkpt lat="43.66305" lon="6.18744">
        <ele>638.39068</ele>
        <time>2026-03-24T09:10:14.019Z</time>
      </trkpt>
      <trkpt lat="43.66305" lon="6.18741">
        <ele>638.2876</ele>
        <time>2026-03-24T09:10:17.020Z</time>
      </trkpt>
      <trkpt lat="43.66307" lon="6.18738">
        <ele>638.19707</ele>
        <time>2026-03-24T09:10:20.020Z</time>
      </trkpt>
      <trkpt lat="43.66306" lon="6.18734">
        <ele>638.102</ele>
        <time>2026-03-24T09:10:23.020Z</time>
      </trkpt>
      <trkpt lat="43.66307" lon="6.1873">
        <ele>638.02722</ele>
        <time>2026-03-24T09:10:25.020Z</time>
      </trkpt>
      <trkpt lat="43.66308" lon="6.18727">
        <ele>637.93346</ele>
        <time>2026-03-24T09:10:27.020Z</time>
      </trkpt>
      <trkpt lat="43.66309" lon="6.18724">
        <ele>637.86135</ele>
        <time>2026-03-24T09:10:29.020Z</time>
      </trkpt>
      <trkpt lat="43.6631" lon="6.1872">
        <ele>637.77479</ele>
        <time>2026-03-24T09:10:31.020Z</time>
      </trkpt>
      <trkpt lat="43.66311" lon="6.18717">
        <ele>637.67855</ele>
        <time>2026-03-24T09:10:33.020Z</time>
      </trkpt>
      <trkpt lat="43.66313" lon="6.18714">
        <ele>637.59217</ele>
        <time>2026-03-24T09:10:35.019Z</time>
      </trkpt>
      <trkpt lat="43.66314" lon="6.1871">
        <ele>637.52236</ele>
        <time>2026-03-24T09:10:37.019Z</time>
      </trkpt>
      <trkpt lat="43.66314" lon="6.18707">
        <ele>637.45633</ele>
        <time>2026-03-24T09:10:39.019Z</time>
      </trkpt>
      <trkpt lat="43.66315" lon="6.18704">
        <ele>637.40092</ele>
        <time>2026-03-24T09:10:41.019Z</time>
      </trkpt>
      <trkpt lat="43.66316" lon="6.187">
        <ele>637.34993</ele>
        <time>2026-03-24T09:10:43.019Z</time>
      </trkpt>
      <trkpt lat="43.66317" lon="6.18695">
        <ele>637.26805</ele>
        <time>2026-03-24T09:10:46.019Z</time>
      </trkpt>
      <trkpt lat="43.66318" lon="6.18691">
        <ele>637.22046</ele>
        <time>2026-03-24T09:10:48.019Z</time>
      </trkpt>
      <trkpt lat="43.66319" lon="6.18688">
        <ele>637.14687</ele>
        <time>2026-03-24T09:10:51.019Z</time>
      </trkpt>
      <trkpt lat="43.66319" lon="6.18685">
        <ele>637.09821</ele>
        <time>2026-03-24T09:10:53.019Z</time>
      </trkpt>
      <trkpt lat="43.66319" lon="6.1868">
        <ele>637.0475</ele>
        <time>2026-03-24T09:10:55.019Z</time>
      </trkpt>
      <trkpt lat="43.66319" lon="6.18676">
        <ele>636.97951</ele>
        <time>2026-03-24T09:10:58.019Z</time>
      </trkpt>
      <trkpt lat="43.66319" lon="6.18672">
        <ele>636.93025</ele>
        <time>2026-03-24T09:11:00.019Z</time>
      </trkpt>
      <trkpt lat="43.66318" lon="6.18668">
        <ele>636.88013</ele>
        <time>2026-03-24T09:11:02.019Z</time>
      </trkpt>
      <trkpt lat="43.66318" lon="6.18665">
        <ele>636.8158</ele>
        <time>2026-03-24T09:11:04.019Z</time>
      </trkpt>
      <trkpt lat="43.66317" lon="6.18661">
        <ele>636.77893</ele>
        <time>2026-03-24T09:11:05.019Z</time>
      </trkpt>
      <trkpt lat="43.66318" lon="6.18657">
        <ele>636.70471</ele>
        <time>2026-03-24T09:11:07.019Z</time>
      </trkpt>
      <trkpt lat="43.66317" lon="6.18653">
        <ele>636.59034</ele>
        <time>2026-03-24T09:11:10.019Z</time>
      </trkpt>
      <trkpt lat="43.66317" lon="6.18649">
        <ele>636.5262</ele>
        <time>2026-03-24T09:11:12.019Z</time>
      </trkpt>
      <trkpt lat="43.66317" lon="6.18646">
        <ele>636.44653</ele>
        <time>2026-03-24T09:11:15.019Z</time>
      </trkpt>
      <trkpt lat="43.66316" lon="6.18642">
        <ele>636.34249</ele>
        <time>2026-03-24T09:11:19.019Z</time>
      </trkpt>
      <trkpt lat="43.66315" lon="6.18638">
        <ele>636.24343</ele>
        <time>2026-03-24T09:11:22.019Z</time>
      </trkpt>
      <trkpt lat="43.66315" lon="6.18635">
        <ele>636.14556</ele>
        <time>2026-03-24T09:11:25.019Z</time>
      </trkpt>
      <trkpt lat="43.66313" lon="6.18631">
        <ele>636.05626</ele>
        <time>2026-03-24T09:11:28.019Z</time>
      </trkpt>
      <trkpt lat="43.66312" lon="6.18627">
        <ele>635.98796</ele>
        <time>2026-03-24T09:11:31.019Z</time>
      </trkpt>
      <trkpt lat="43.66311" lon="6.18623">
        <ele>635.9501</ele>
        <time>2026-03-24T09:11:33.019Z</time>
      </trkpt>
      <trkpt lat="43.6631" lon="6.18621">
        <ele>635.91156</ele>
        <time>2026-03-24T09:11:35.019Z</time>
      </trkpt>
      <trkpt lat="43.66309" lon="6.18617">
        <ele>635.86336</ele>
        <time>2026-03-24T09:11:38.019Z</time>
      </trkpt>
      <trkpt lat="43.66309" lon="6.18614">
        <ele>635.82607</ele>
        <time>2026-03-24T09:11:41.019Z</time>
      </trkpt>
      <trkpt lat="43.66308" lon="6.18609">
        <ele>635.78695</ele>
        <time>2026-03-24T09:11:44.019Z</time>
      </trkpt>
      <trkpt lat="43.66307" lon="6.18606">
        <ele>635.75567</ele>
        <time>2026-03-24T09:11:46.019Z</time>
      </trkpt>
      <trkpt lat="43.66306" lon="6.18602">
        <ele>635.70499</ele>
        <time>2026-03-24T09:11:48.019Z</time>
      </trkpt>
      <trkpt lat="43.66306" lon="6.18598">
        <ele>635.67237</ele>
        <time>2026-03-24T09:11:50.019Z</time>
      </trkpt>
      <trkpt lat="43.66305" lon="6.18594">
        <ele>635.62573</ele>
        <time>2026-03-24T09:11:52.019Z</time>
      </trkpt>
      <trkpt lat="43.66304" lon="6.1859">
        <ele>635.57666</ele>
        <time>2026-03-24T09:11:54.019Z</time>
      </trkpt>
      <trkpt lat="43.66303" lon="6.18586">
        <ele>635.52414</ele>
        <time>2026-03-24T09:11:56.019Z</time>
      </trkpt>
      <trkpt lat="43.66303" lon="6.18581">
        <ele>635.44082</ele>
        <time>2026-03-24T09:11:59.019Z</time>
      </trkpt>
      <trkpt lat="43.66303" lon="6.18577">
        <ele>635.35855</ele>
        <time>2026-03-24T09:12:02.019Z</time>
      </trkpt>
      <trkpt lat="43.66303" lon="6.18573">
        <ele>635.29379</ele>
        <time>2026-03-24T09:12:04.019Z</time>
      </trkpt>
      <trkpt lat="43.66303" lon="6.1857">
        <ele>635.2398</ele>
        <time>2026-03-24T09:12:06.019Z</time>
      </trkpt>
      <trkpt lat="43.66303" lon="6.18565">
        <ele>635.14498</ele>
        <time>2026-03-24T09:12:09.019Z</time>
      </trkpt>
      <trkpt lat="43.66304" lon="6.1856">
        <ele>635.07906</ele>
        <time>2026-03-24T09:12:12.019Z</time>
      </trkpt>
      <trkpt lat="43.66304" lon="6.18556">
        <ele>635.02831</ele>
        <time>2026-03-24T09:12:14.019Z</time>
      </trkpt>
      <trkpt lat="43.66305" lon="6.18553">
        <ele>634.96804</ele>
        <time>2026-03-24T09:12:17.019Z</time>
      </trkpt>
      <trkpt lat="43.66306" lon="6.18549">
        <ele>634.91552</ele>
        <time>2026-03-24T09:12:20.020Z</time>
      </trkpt>
      <trkpt lat="43.66305" lon="6.18546">
        <ele>634.87907</ele>
        <time>2026-03-24T09:12:22.021Z</time>
      </trkpt>
      <trkpt lat="43.66305" lon="6.18542">
        <ele>634.84436</ele>
        <time>2026-03-24T09:12:24.020Z</time>
      </trkpt>
      <trkpt lat="43.66304" lon="6.18538">
        <ele>634.82535</ele>
        <time>2026-03-24T09:12:26.020Z</time>
      </trkpt>
      <trkpt lat="43.66303" lon="6.18534">
        <ele>634.81843</ele>
        <time>2026-03-24T09:12:28.021Z</time>
      </trkpt>
      <trkpt lat="43.66301" lon="6.1853">
        <ele>634.79136</ele>
        <time>2026-03-24T09:12:31.020Z</time>
      </trkpt>
      <trkpt lat="43.66299" lon="6.18527">
        <ele>634.77195</ele>
        <time>2026-03-24T09:12:33.020Z</time>
      </trkpt>
      <trkpt lat="43.66299" lon="6.18522">
        <ele>634.74731</ele>
        <time>2026-03-24T09:12:36.020Z</time>
      </trkpt>
      <trkpt lat="43.66299" lon="6.18518">
        <ele>634.73481</ele>
        <time>2026-03-24T09:12:39.020Z</time>
      </trkpt>
      <trkpt lat="43.66299" lon="6.18514">
        <ele>634.72701</ele>
        <time>2026-03-24T09:12:41.020Z</time>
      </trkpt>
      <trkpt lat="43.66298" lon="6.18511">
        <ele>634.71455</ele>
        <time>2026-03-24T09:12:43.020Z</time>
      </trkpt>
      <trkpt lat="43.66296" lon="6.18508">
        <ele>634.69759</ele>
        <time>2026-03-24T09:12:45.020Z</time>
      </trkpt>
      <trkpt lat="43.66296" lon="6.18504">
        <ele>634.68242</ele>
        <time>2026-03-24T09:12:47.020Z</time>
      </trkpt>
      <trkpt lat="43.66297" lon="6.18501">
        <ele>634.66154</ele>
        <time>2026-03-24T09:12:49.020Z</time>
      </trkpt>
      <trkpt lat="43.66297" lon="6.18496">
        <ele>634.63555</ele>
        <time>2026-03-24T09:12:51.020Z</time>
      </trkpt>
      <trkpt lat="43.66297" lon="6.18492">
        <ele>634.60281</ele>
        <time>2026-03-24T09:12:53.020Z</time>
      </trkpt>
      <trkpt lat="43.66298" lon="6.18487">
        <ele>634.57638</ele>
        <time>2026-03-24T09:12:56.020Z</time>
      </trkpt>
      <trkpt lat="43.66298" lon="6.18482">
        <ele>634.55387</ele>
        <time>2026-03-24T09:12:59.020Z</time>
      </trkpt>
      <trkpt lat="43.66298" lon="6.18478">
        <ele>634.53868</ele>
        <time>2026-03-24T09:13:01.020Z</time>
      </trkpt>
      <trkpt lat="43.66297" lon="6.18474">
        <ele>634.52172</ele>
        <time>2026-03-24T09:13:04.020Z</time>
      </trkpt>
      <trkpt lat="43.66297" lon="6.1847">
        <ele>634.50814</ele>
        <time>2026-03-24T09:13:06.020Z</time>
      </trkpt>
      <trkpt lat="43.66297" lon="6.18467">
        <ele>634.48572</ele>
        <time>2026-03-24T09:13:08.020Z</time>
      </trkpt>
      <trkpt lat="43.66297" lon="6.18463">
        <ele>634.44376</ele>
        <time>2026-03-24T09:13:12.020Z</time>
      </trkpt>
      <trkpt lat="43.66293" lon="6.18461">
        <ele>634.20653</ele>
        <time>2026-03-24T09:13:43.019Z</time>
      </trkpt>
      <trkpt lat="43.66294" lon="6.18457">
        <ele>634.23554</ele>
        <time>2026-03-24T09:14:25.021Z</time>
      </trkpt>
      <trkpt lat="43.66297" lon="6.18456">
        <ele>634.23615</ele>
        <time>2026-03-24T09:14:30.021Z</time>
      </trkpt>
      <trkpt lat="43.66298" lon="6.18453">
        <ele>634.23631</ele>
        <time>2026-03-24T09:14:33.021Z</time>
      </trkpt>
      <trkpt lat="43.66299" lon="6.18449">
        <ele>634.23603</ele>
        <time>2026-03-24T09:14:36.021Z</time>
      </trkpt>
      <trkpt lat="43.663" lon="6.18446">
        <ele>634.23588</ele>
        <time>2026-03-24T09:14:39.021Z</time>
      </trkpt>
      <trkpt lat="43.663" lon="6.18443">
        <ele>634.23543</ele>
        <time>2026-03-24T09:14:41.021Z</time>
      </trkpt>
      <trkpt lat="43.663" lon="6.1844">
        <ele>634.23525</ele>
        <time>2026-03-24T09:14:43.020Z</time>
      </trkpt>
      <trkpt lat="43.663" lon="6.18435">
        <ele>634.23481</ele>
        <time>2026-03-24T09:14:45.020Z</time>
      </trkpt>
      <trkpt lat="43.66302" lon="6.18431">
        <ele>634.23208</ele>
        <time>2026-03-24T09:14:48.020Z</time>
      </trkpt>
      <trkpt lat="43.66304" lon="6.18429">
        <ele>634.22679</ele>
        <time>2026-03-24T09:14:51.020Z</time>
      </trkpt>
      <trkpt lat="43.66303" lon="6.18425">
        <ele>634.21998</ele>
        <time>2026-03-24T09:14:53.020Z</time>
      </trkpt>
      <trkpt lat="43.66303" lon="6.18422">
        <ele>634.21238</ele>
        <time>2026-03-24T09:14:55.020Z</time>
      </trkpt>
      <trkpt lat="43.66302" lon="6.18418">
        <ele>634.20296</ele>
        <time>2026-03-24T09:14:57.020Z</time>
      </trkpt>
      <trkpt lat="43.66301" lon="6.18415">
        <ele>634.19116</ele>
        <time>2026-03-24T09:14:59.020Z</time>
      </trkpt>
      <trkpt lat="43.66301" lon="6.18411">
        <ele>634.17236</ele>
        <time>2026-03-24T09:15:01.020Z</time>
      </trkpt>
      <trkpt lat="43.66301" lon="6.18408">
        <ele>634.15311</ele>
        <time>2026-03-24T09:15:03.020Z</time>
      </trkpt>
      <trkpt lat="43.66302" lon="6.18404">
        <ele>634.10784</ele>
        <time>2026-03-24T09:15:06.020Z</time>
      </trkpt>
      <trkpt lat="43.66301" lon="6.184">
        <ele>634.08538</ele>
        <time>2026-03-24T09:15:08.020Z</time>
      </trkpt>
      <trkpt lat="43.663" lon="6.18397">
        <ele>634.06149</ele>
        <time>2026-03-24T09:15:10.020Z</time>
      </trkpt>
      <trkpt lat="43.66299" lon="6.18393">
        <ele>634.03467</ele>
        <time>2026-03-24T09:15:12.020Z</time>
      </trkpt>
      <trkpt lat="43.663" lon="6.18389">
        <ele>633.99108</ele>
        <time>2026-03-24T09:15:15.020Z</time>
      </trkpt>
      <trkpt lat="43.66299" lon="6.18385">
        <ele>633.94961</ele>
        <time>2026-03-24T09:15:17.020Z</time>
      </trkpt>
      <trkpt lat="43.66298" lon="6.18382">
        <ele>633.90999</ele>
        <time>2026-03-24T09:15:19.020Z</time>
      </trkpt>
      <trkpt lat="43.66298" lon="6.18378">
        <ele>633.86706</ele>
        <time>2026-03-24T09:15:21.020Z</time>
      </trkpt>
      <trkpt lat="43.66297" lon="6.18375">
        <ele>633.79758</ele>
        <time>2026-03-24T09:15:23.020Z</time>
      </trkpt>
      <trkpt lat="43.66296" lon="6.18372">
        <ele>633.70255</ele>
        <time>2026-03-24T09:15:25.020Z</time>
      </trkpt>
      <trkpt lat="43.66294" lon="6.18369">
        <ele>633.60936</ele>
        <time>2026-03-24T09:15:27.020Z</time>
      </trkpt>
      <trkpt lat="43.66294" lon="6.18365">
        <ele>633.48921</ele>
        <time>2026-03-24T09:15:29.020Z</time>
      </trkpt>
      <trkpt lat="43.66292" lon="6.18362">
        <ele>633.26913</ele>
        <time>2026-03-24T09:15:32.020Z</time>
      </trkpt>
      <trkpt lat="43.66292" lon="6.18358">
        <ele>633.13301</ele>
        <time>2026-03-24T09:15:34.020Z</time>
      </trkpt>
      <trkpt lat="43.66291" lon="6.18354">
        <ele>632.95641</ele>
        <time>2026-03-24T09:15:37.020Z</time>
      </trkpt>
      <trkpt lat="43.66289" lon="6.1835">
        <ele>632.85498</ele>
        <time>2026-03-24T09:15:39.020Z</time>
      </trkpt>
      <trkpt lat="43.66288" lon="6.18348">
        <ele>632.73124</ele>
        <time>2026-03-24T09:15:41.020Z</time>
      </trkpt>
      <trkpt lat="43.66287" lon="6.18344">
        <ele>632.53135</ele>
        <time>2026-03-24T09:15:44.020Z</time>
      </trkpt>
      <trkpt lat="43.66285" lon="6.1834">
        <ele>632.40611</ele>
        <time>2026-03-24T09:15:46.020Z</time>
      </trkpt>
      <trkpt lat="43.66285" lon="6.18337">
        <ele>632.28625</ele>
        <time>2026-03-24T09:15:48.020Z</time>
      </trkpt>
      <trkpt lat="43.66284" lon="6.18333">
        <ele>632.18793</ele>
        <time>2026-03-24T09:15:50.020Z</time>
      </trkpt>
      <trkpt lat="43.66282" lon="6.1833">
        <ele>632.09325</ele>
        <time>2026-03-24T09:15:52.020Z</time>
      </trkpt>
      <trkpt lat="43.66281" lon="6.18327">
        <ele>631.96527</ele>
        <time>2026-03-24T09:15:54.020Z</time>
      </trkpt>
      <trkpt lat="43.66281" lon="6.18322">
        <ele>631.8689</ele>
        <time>2026-03-24T09:15:57.020Z</time>
      </trkpt>
      <trkpt lat="43.6628" lon="6.18319">
        <ele>631.77846</ele>
        <time>2026-03-24T09:15:59.020Z</time>
      </trkpt>
      <trkpt lat="43.6628" lon="6.18315">
        <ele>631.65609</ele>
        <time>2026-03-24T09:16:01.020Z</time>
      </trkpt>
      <trkpt lat="43.66279" lon="6.18311">
        <ele>631.51689</ele>
        <time>2026-03-24T09:16:03.020Z</time>
      </trkpt>
      <trkpt lat="43.66278" lon="6.18308">
        <ele>631.3556</ele>
        <time>2026-03-24T09:16:05.020Z</time>
      </trkpt>
      <trkpt lat="43.66278" lon="6.18304">
        <ele>631.1837</ele>
        <time>2026-03-24T09:16:07.020Z</time>
      </trkpt>
      <trkpt lat="43.66278" lon="6.18299">
        <ele>631.02286</ele>
        <time>2026-03-24T09:16:09.020Z</time>
      </trkpt>
      <trkpt lat="43.66278" lon="6.18296">
        <ele>630.90779</ele>
        <time>2026-03-24T09:16:11.020Z</time>
      </trkpt>
      <trkpt lat="43.66277" lon="6.18292">
        <ele>630.78877</ele>
        <time>2026-03-24T09:16:13.020Z</time>
      </trkpt>
      <trkpt lat="43.66276" lon="6.18288">
        <ele>630.67963</ele>
        <time>2026-03-24T09:16:15.020Z</time>
      </trkpt>
      <trkpt lat="43.66276" lon="6.18284">
        <ele>630.5718</ele>
        <time>2026-03-24T09:16:17.020Z</time>
      </trkpt>
      <trkpt lat="43.66276" lon="6.18281">
        <ele>630.49731</ele>
        <time>2026-03-24T09:16:19.020Z</time>
      </trkpt>
      <trkpt lat="43.66276" lon="6.18276">
        <ele>630.37665</ele>
        <time>2026-03-24T09:16:21.020Z</time>
      </trkpt>
      <trkpt lat="43.66278" lon="6.18272">
        <ele>630.24755</ele>
        <time>2026-03-24T09:16:23.020Z</time>
      </trkpt>
      <trkpt lat="43.66277" lon="6.18269">
        <ele>630.14526</ele>
        <time>2026-03-24T09:16:25.020Z</time>
      </trkpt>
      <trkpt lat="43.66278" lon="6.18265">
        <ele>630.05247</ele>
        <time>2026-03-24T09:16:27.020Z</time>
      </trkpt>
      <trkpt lat="43.66278" lon="6.18262">
        <ele>629.99629</ele>
        <time>2026-03-24T09:16:29.020Z</time>
      </trkpt>
      <trkpt lat="43.66278" lon="6.18258">
        <ele>629.93794</ele>
        <time>2026-03-24T09:16:31.022Z</time>
      </trkpt>
      <trkpt lat="43.66279" lon="6.18255">
        <ele>629.88388</ele>
        <time>2026-03-24T09:16:33.022Z</time>
      </trkpt>
      <trkpt lat="43.6628" lon="6.18251">
        <ele>629.82905</ele>
        <time>2026-03-24T09:16:36.021Z</time>
      </trkpt>
      <trkpt lat="43.66281" lon="6.18247">
        <ele>629.78478</ele>
        <time>2026-03-24T09:16:39.021Z</time>
      </trkpt>
      <trkpt lat="43.6628" lon="6.18243">
        <ele>629.76864</ele>
        <time>2026-03-24T09:16:41.022Z</time>
      </trkpt>
      <trkpt lat="43.66281" lon="6.18239">
        <ele>629.7677</ele>
        <time>2026-03-24T09:16:43.022Z</time>
      </trkpt>
      <trkpt lat="43.66282" lon="6.18235">
        <ele>629.77036</ele>
        <time>2026-03-24T09:16:46.021Z</time>
      </trkpt>
      <trkpt lat="43.66283" lon="6.18231">
        <ele>629.76605</ele>
        <time>2026-03-24T09:16:48.021Z</time>
      </trkpt>
      <trkpt lat="43.66283" lon="6.18228">
        <ele>629.75679</ele>
        <time>2026-03-24T09:16:50.021Z</time>
      </trkpt>
      <trkpt lat="43.66283" lon="6.18224">
        <ele>629.75084</ele>
        <time>2026-03-24T09:16:52.021Z</time>
      </trkpt>
      <trkpt lat="43.66284" lon="6.1822">
        <ele>629.74878</ele>
        <time>2026-03-24T09:16:54.021Z</time>
      </trkpt>
      <trkpt lat="43.66283" lon="6.18216">
        <ele>629.73464</ele>
        <time>2026-03-24T09:16:57.021Z</time>
      </trkpt>
      <trkpt lat="43.66283" lon="6.18213">
        <ele>629.72926</ele>
        <time>2026-03-24T09:16:59.021Z</time>
      </trkpt>
      <trkpt lat="43.66283" lon="6.18208">
        <ele>629.72424</ele>
        <time>2026-03-24T09:17:01.021Z</time>
      </trkpt>
      <trkpt lat="43.66284" lon="6.18204">
        <ele>629.72613</ele>
        <time>2026-03-24T09:17:04.021Z</time>
      </trkpt>
      <trkpt lat="43.66284" lon="6.182">
        <ele>629.71971</ele>
        <time>2026-03-24T09:17:07.021Z</time>
      </trkpt>
      <trkpt lat="43.66282" lon="6.18196">
        <ele>629.71828</ele>
        <time>2026-03-24T09:17:09.021Z</time>
      </trkpt>
      <trkpt lat="43.66282" lon="6.18192">
        <ele>629.70953</ele>
        <time>2026-03-24T09:17:11.021Z</time>
      </trkpt>
      <trkpt lat="43.66282" lon="6.18188">
        <ele>629.69886</ele>
        <time>2026-03-24T09:17:13.021Z</time>
      </trkpt>
      <trkpt lat="43.66281" lon="6.18184">
        <ele>629.69579</ele>
        <time>2026-03-24T09:17:15.021Z</time>
      </trkpt>
      <trkpt lat="43.66281" lon="6.1818">
        <ele>629.68998</ele>
        <time>2026-03-24T09:17:18.021Z</time>
      </trkpt>
      <trkpt lat="43.66282" lon="6.18176">
        <ele>629.68449</ele>
        <time>2026-03-24T09:17:22.021Z</time>
      </trkpt>
      <trkpt lat="43.66281" lon="6.18173">
        <ele>629.67832</ele>
        <time>2026-03-24T09:17:31.021Z</time>
      </trkpt>
      <trkpt lat="43.66278" lon="6.18174">
        <ele>629.62874</ele>
        <time>2026-03-24T09:17:44.021Z</time>
      </trkpt>
      <trkpt lat="43.66276" lon="6.18176">
        <ele>629.51612</ele>
        <time>2026-03-24T09:17:55.021Z</time>
      </trkpt>
      <trkpt lat="43.66276" lon="6.18172">
        <ele>629.17262</ele>
        <time>2026-03-24T09:18:54.023Z</time>
      </trkpt>
      <trkpt lat="43.66273" lon="6.18173">
        <ele>629.16885</ele>
        <time>2026-03-24T09:19:17.022Z</time>
      </trkpt>
      <trkpt lat="43.6627" lon="6.18172">
        <ele>629.16724</ele>
        <time>2026-03-24T09:19:34.022Z</time>
      </trkpt>
      <trkpt lat="43.66274" lon="6.18166">
        <ele>629.1671</ele>
        <time>2026-03-24T09:19:51.022Z</time>
      </trkpt>
      <trkpt lat="43.66277" lon="6.18164">
        <ele>629.16735</ele>
        <time>2026-03-24T09:19:54.022Z</time>
      </trkpt>
      <trkpt lat="43.66276" lon="6.18159">
        <ele>629.1689</ele>
        <time>2026-03-24T09:19:58.022Z</time>
      </trkpt>
      <trkpt lat="43.66276" lon="6.18155">
        <ele>629.17004</ele>
        <time>2026-03-24T09:20:01.022Z</time>
      </trkpt>
      <trkpt lat="43.66275" lon="6.18153">
        <ele>629.17033</ele>
        <time>2026-03-24T09:20:03.022Z</time>
      </trkpt>
      <trkpt lat="43.66275" lon="6.18149">
        <ele>629.17105</ele>
        <time>2026-03-24T09:20:05.022Z</time>
      </trkpt>
      <trkpt lat="43.66273" lon="6.18145">
        <ele>629.17191</ele>
        <time>2026-03-24T09:20:08.022Z</time>
      </trkpt>
      <trkpt lat="43.66272" lon="6.18142">
        <ele>629.17299</ele>
        <time>2026-03-24T09:20:10.022Z</time>
      </trkpt>
      <trkpt lat="43.66271" lon="6.18139">
        <ele>629.17522</ele>
        <time>2026-03-24T09:20:12.022Z</time>
      </trkpt>
      <trkpt lat="43.66269" lon="6.18136">
        <ele>629.17746</ele>
        <time>2026-03-24T09:20:14.022Z</time>
      </trkpt>
      <trkpt lat="43.66268" lon="6.18134">
        <ele>629.17992</ele>
        <time>2026-03-24T09:20:16.022Z</time>
      </trkpt>
      <trkpt lat="43.66267" lon="6.1813">
        <ele>629.18138</ele>
        <time>2026-03-24T09:20:18.022Z</time>
      </trkpt>
      <trkpt lat="43.66265" lon="6.18124">
        <ele>629.18108</ele>
        <time>2026-03-24T09:20:21.022Z</time>
      </trkpt>
      <trkpt lat="43.66264" lon="6.18121">
        <ele>629.17854</ele>
        <time>2026-03-24T09:20:24.022Z</time>
      </trkpt>
      <trkpt lat="43.66261" lon="6.18116">
        <ele>629.17326</ele>
        <time>2026-03-24T09:20:27.022Z</time>
      </trkpt>
      <trkpt lat="43.66259" lon="6.18113">
        <ele>629.16831</ele>
        <time>2026-03-24T09:20:30.022Z</time>
      </trkpt>
      <trkpt lat="43.66258" lon="6.1811">
        <ele>629.16048</ele>
        <time>2026-03-24T09:20:33.022Z</time>
      </trkpt>
      <trkpt lat="43.66255" lon="6.18106">
        <ele>629.15121</ele>
        <time>2026-03-24T09:20:36.022Z</time>
      </trkpt>
      <trkpt lat="43.66254" lon="6.18103">
        <ele>629.14622</ele>
        <time>2026-03-24T09:20:38.022Z</time>
      </trkpt>
      <trkpt lat="43.66253" lon="6.181">
        <ele>629.14068</ele>
        <time>2026-03-24T09:20:40.022Z</time>
      </trkpt>
      <trkpt lat="43.66251" lon="6.18098">
        <ele>629.1327</ele>
        <time>2026-03-24T09:20:42.022Z</time>
      </trkpt>
      <trkpt lat="43.6625" lon="6.18094">
        <ele>629.1277</ele>
        <time>2026-03-24T09:20:44.023Z</time>
      </trkpt>
      <trkpt lat="43.66249" lon="6.18089">
        <ele>629.11678</ele>
        <time>2026-03-24T09:20:47.023Z</time>
      </trkpt>
      <trkpt lat="43.66247" lon="6.18085">
        <ele>629.09438</ele>
        <time>2026-03-24T09:20:50.022Z</time>
      </trkpt>
      <trkpt lat="43.66245" lon="6.18082">
        <ele>629.07477</ele>
        <time>2026-03-24T09:20:52.022Z</time>
      </trkpt>
      <trkpt lat="43.66244" lon="6.18079">
        <ele>629.04873</ele>
        <time>2026-03-24T09:20:54.022Z</time>
      </trkpt>
      <trkpt lat="43.66243" lon="6.18076">
        <ele>629.01917</ele>
        <time>2026-03-24T09:20:56.022Z</time>
      </trkpt>
      <trkpt lat="43.66242" lon="6.18072">
        <ele>628.50511</ele>
        <time>2026-03-24T09:21:46.022Z</time>
      </trkpt>
      <trkpt lat="43.66242" lon="6.18068">
        <ele>628.46733</ele>
        <time>2026-03-24T09:21:49.022Z</time>
      </trkpt>
      <trkpt lat="43.6624" lon="6.18065">
        <ele>628.41718</ele>
        <time>2026-03-24T09:21:53.022Z</time>
      </trkpt>
      <trkpt lat="43.66239" lon="6.18061">
        <ele>628.37125</ele>
        <time>2026-03-24T09:21:56.022Z</time>
      </trkpt>
      <trkpt lat="43.66238" lon="6.18057">
        <ele>628.31794</ele>
        <time>2026-03-24T09:21:59.022Z</time>
      </trkpt>
      <trkpt lat="43.66235" lon="6.18053">
        <ele>628.12514</ele>
        <time>2026-03-24T09:22:15.022Z</time>
      </trkpt>
      <trkpt lat="43.66233" lon="6.18049">
        <ele>628.10189</ele>
        <time>2026-03-24T09:22:17.022Z</time>
      </trkpt>
      <trkpt lat="43.66231" lon="6.18045">
        <ele>628.08125</ele>
        <time>2026-03-24T09:22:19.022Z</time>
      </trkpt>
      <trkpt lat="43.66228" lon="6.18043">
        <ele>628.05126</ele>
        <time>2026-03-24T09:22:21.022Z</time>
      </trkpt>
      <trkpt lat="43.66229" lon="6.1804">
        <ele>628.00594</ele>
        <time>2026-03-24T09:22:24.022Z</time>
      </trkpt>
      <trkpt lat="43.66229" lon="6.18037">
        <ele>627.95673</ele>
        <time>2026-03-24T09:22:26.022Z</time>
      </trkpt>
      <trkpt lat="43.66229" lon="6.18034">
        <ele>627.8935</ele>
        <time>2026-03-24T09:22:28.022Z</time>
      </trkpt>
      <trkpt lat="43.66227" lon="6.18032">
        <ele>627.82321</ele>
        <time>2026-03-24T09:22:30.022Z</time>
      </trkpt>
      <trkpt lat="43.66225" lon="6.18028">
        <ele>627.73288</ele>
        <time>2026-03-24T09:22:32.022Z</time>
      </trkpt>
      <trkpt lat="43.66223" lon="6.18025">
        <ele>627.51877</ele>
        <time>2026-03-24T09:22:36.022Z</time>
      </trkpt>
      <trkpt lat="43.66222" lon="6.18022">
        <ele>627.39976</ele>
        <time>2026-03-24T09:22:38.022Z</time>
      </trkpt>
      <trkpt lat="43.6622" lon="6.18018">
        <ele>627.18158</ele>
        <time>2026-03-24T09:22:41.022Z</time>
      </trkpt>
      <trkpt lat="43.66218" lon="6.18015">
        <ele>626.95968</ele>
        <time>2026-03-24T09:22:44.022Z</time>
      </trkpt>
      <trkpt lat="43.66216" lon="6.1801">
        <ele>626.66495</ele>
        <time>2026-03-24T09:22:48.022Z</time>
      </trkpt>
      <trkpt lat="43.66214" lon="6.18008">
        <ele>626.53794</ele>
        <time>2026-03-24T09:22:50.022Z</time>
      </trkpt>
      <trkpt lat="43.66212" lon="6.18004">
        <ele>626.43249</ele>
        <time>2026-03-24T09:22:52.022Z</time>
      </trkpt>
      <trkpt lat="43.6621" lon="6.18002">
        <ele>626.36351</ele>
        <time>2026-03-24T09:22:54.022Z</time>
      </trkpt>
      <trkpt lat="43.66209" lon="6.17998">
        <ele>626.29455</ele>
        <time>2026-03-24T09:22:56.022Z</time>
      </trkpt>
      <trkpt lat="43.66208" lon="6.17996">
        <ele>626.20506</ele>
        <time>2026-03-24T09:22:58.021Z</time>
      </trkpt>
      <trkpt lat="43.66206" lon="6.17993">
        <ele>626.10019</ele>
        <time>2026-03-24T09:23:00.022Z</time>
      </trkpt>
      <trkpt lat="43.66204" lon="6.1799">
        <ele>625.92815</ele>
        <time>2026-03-24T09:23:03.022Z</time>
      </trkpt>
      <trkpt lat="43.66202" lon="6.17987">
        <ele>625.8351</ele>
        <time>2026-03-24T09:23:05.022Z</time>
      </trkpt>
      <trkpt lat="43.66202" lon="6.17984">
        <ele>625.73648</ele>
        <time>2026-03-24T09:23:07.022Z</time>
      </trkpt>
      <trkpt lat="43.662" lon="6.17982">
        <ele>625.6059</ele>
        <time>2026-03-24T09:23:09.022Z</time>
      </trkpt>
      <trkpt lat="43.66199" lon="6.17978">
        <ele>625.48923</ele>
        <time>2026-03-24T09:23:11.022Z</time>
      </trkpt>
      <trkpt lat="43.662" lon="6.17975">
        <ele>625.38554</ele>
        <time>2026-03-24T09:23:13.022Z</time>
      </trkpt>
      <trkpt lat="43.662" lon="6.17972">
        <ele>625.28485</ele>
        <time>2026-03-24T09:23:15.022Z</time>
      </trkpt>
      <trkpt lat="43.662" lon="6.17968">
        <ele>625.11127</ele>
        <time>2026-03-24T09:23:18.022Z</time>
      </trkpt>
      <trkpt lat="43.66199" lon="6.17964">
        <ele>624.95779</ele>
        <time>2026-03-24T09:23:21.022Z</time>
      </trkpt>
      <trkpt lat="43.662" lon="6.1796">
        <ele>624.8756</ele>
        <time>2026-03-24T09:23:23.022Z</time>
      </trkpt>
      <trkpt lat="43.662" lon="6.17956">
        <ele>624.80853</ele>
        <time>2026-03-24T09:23:25.022Z</time>
      </trkpt>
      <trkpt lat="43.66199" lon="6.17953">
        <ele>624.74365</ele>
        <time>2026-03-24T09:23:27.022Z</time>
      </trkpt>
      <trkpt lat="43.662" lon="6.17949">
        <ele>624.6897</ele>
        <time>2026-03-24T09:23:29.022Z</time>
      </trkpt>
      <trkpt lat="43.66198" lon="6.17945">
        <ele>624.64443</ele>
        <time>2026-03-24T09:23:31.022Z</time>
      </trkpt>
      <trkpt lat="43.66196" lon="6.17941">
        <ele>624.58876</ele>
        <time>2026-03-24T09:23:33.022Z</time>
      </trkpt>
      <trkpt lat="43.66195" lon="6.17936">
        <ele>624.48087</ele>
        <time>2026-03-24T09:23:36.022Z</time>
      </trkpt>
      <trkpt lat="43.66195" lon="6.17933">
        <ele>624.39736</ele>
        <time>2026-03-24T09:23:38.022Z</time>
      </trkpt>
      <trkpt lat="43.66193" lon="6.1793">
        <ele>624.32921</ele>
        <time>2026-03-24T09:23:40.022Z</time>
      </trkpt>
      <trkpt lat="43.66193" lon="6.17926">
        <ele>624.26756</ele>
        <time>2026-03-24T09:23:42.022Z</time>
      </trkpt>
      <trkpt lat="43.6619" lon="6.17923">
        <ele>624.20367</ele>
        <time>2026-03-24T09:23:44.022Z</time>
      </trkpt>
      <trkpt lat="43.66188" lon="6.17921">
        <ele>624.14231</ele>
        <time>2026-03-24T09:23:46.022Z</time>
      </trkpt>
      <trkpt lat="43.66186" lon="6.17917">
        <ele>624.09241</ele>
        <time>2026-03-24T09:23:48.022Z</time>
      </trkpt>
      <trkpt lat="43.66185" lon="6.17913">
        <ele>624.02723</ele>
        <time>2026-03-24T09:23:51.022Z</time>
      </trkpt>
      <trkpt lat="43.66185" lon="6.1791">
        <ele>623.98886</ele>
        <time>2026-03-24T09:23:53.022Z</time>
      </trkpt>
      <trkpt lat="43.66183" lon="6.17906">
        <ele>623.8249</ele>
        <time>2026-03-24T09:23:57.022Z</time>
      </trkpt>
      <trkpt lat="43.66181" lon="6.17903">
        <ele>623.68345</ele>
        <time>2026-03-24T09:24:00.022Z</time>
      </trkpt>
      <trkpt lat="43.6618" lon="6.17901">
        <ele>623.59894</ele>
        <time>2026-03-24T09:24:02.022Z</time>
      </trkpt>
      <trkpt lat="43.66178" lon="6.17898">
        <ele>623.52574</ele>
        <time>2026-03-24T09:24:04.022Z</time>
      </trkpt>
      <trkpt lat="43.66176" lon="6.17896">
        <ele>623.46277</ele>
        <time>2026-03-24T09:24:06.022Z</time>
      </trkpt>
      <trkpt lat="43.66174" lon="6.17892">
        <ele>623.33692</ele>
        <time>2026-03-24T09:24:09.022Z</time>
      </trkpt>
      <trkpt lat="43.66172" lon="6.17889">
        <ele>623.19522</ele>
        <time>2026-03-24T09:24:11.022Z</time>
      </trkpt>
      <trkpt lat="43.6617" lon="6.17884">
        <ele>623.08034</ele>
        <time>2026-03-24T09:24:13.022Z</time>
      </trkpt>
      <trkpt lat="43.66168" lon="6.1788">
        <ele>622.92477</ele>
        <time>2026-03-24T09:24:16.022Z</time>
      </trkpt>
      <trkpt lat="43.66166" lon="6.17877">
        <ele>622.84419</ele>
        <time>2026-03-24T09:24:18.022Z</time>
      </trkpt>
      <trkpt lat="43.66164" lon="6.17874">
        <ele>622.71953</ele>
        <time>2026-03-24T09:24:21.022Z</time>
      </trkpt>
      <trkpt lat="43.66161" lon="6.17872">
        <ele>622.62913</ele>
        <time>2026-03-24T09:24:23.022Z</time>
      </trkpt>
      <trkpt lat="43.66159" lon="6.17869">
        <ele>622.5555</ele>
        <time>2026-03-24T09:24:25.022Z</time>
      </trkpt>
      <trkpt lat="43.66156" lon="6.17865">
        <ele>622.46681</ele>
        <time>2026-03-24T09:24:28.022Z</time>
      </trkpt>
      <trkpt lat="43.66154" lon="6.17863">
        <ele>622.43679</ele>
        <time>2026-03-24T09:24:30.022Z</time>
      </trkpt>
      <trkpt lat="43.66152" lon="6.1786">
        <ele>622.40905</ele>
        <time>2026-03-24T09:24:33.022Z</time>
      </trkpt>
      <trkpt lat="43.66149" lon="6.17858">
        <ele>622.36064</ele>
        <time>2026-03-24T09:24:35.022Z</time>
      </trkpt>
      <trkpt lat="43.66146" lon="6.17855">
        <ele>622.31183</ele>
        <time>2026-03-24T09:24:37.022Z</time>
      </trkpt>
      <trkpt lat="43.66144" lon="6.17853">
        <ele>622.2594</ele>
        <time>2026-03-24T09:24:39.022Z</time>
      </trkpt>
      <trkpt lat="43.66142" lon="6.1785">
        <ele>622.20367</ele>
        <time>2026-03-24T09:24:41.022Z</time>
      </trkpt>
      <trkpt lat="43.6614" lon="6.17847">
        <ele>622.14561</ele>
        <time>2026-03-24T09:24:43.022Z</time>
      </trkpt>
      <trkpt lat="43.66137" lon="6.17844">
        <ele>622.07494</ele>
        <time>2026-03-24T09:24:45.022Z</time>
      </trkpt>
      <trkpt lat="43.66136" lon="6.17841">
        <ele>621.9962</ele>
        <time>2026-03-24T09:24:48.022Z</time>
      </trkpt>
      <trkpt lat="43.66134" lon="6.17838">
        <ele>621.93842</ele>
        <time>2026-03-24T09:24:51.022Z</time>
      </trkpt>
      <trkpt lat="43.66132" lon="6.17835">
        <ele>621.90063</ele>
        <time>2026-03-24T09:24:53.022Z</time>
      </trkpt>
      <trkpt lat="43.66131" lon="6.1783">
        <ele>621.80923</ele>
        <time>2026-03-24T09:24:56.022Z</time>
      </trkpt>
      <trkpt lat="43.66129" lon="6.17827">
        <ele>621.75372</ele>
        <time>2026-03-24T09:24:58.022Z</time>
      </trkpt>
      <trkpt lat="43.66129" lon="6.17823">
        <ele>621.695</ele>
        <time>2026-03-24T09:25:00.022Z</time>
      </trkpt>
      <trkpt lat="43.66127" lon="6.17819">
        <ele>621.64678</ele>
        <time>2026-03-24T09:25:02.022Z</time>
      </trkpt>
      <trkpt lat="43.66127" lon="6.17815">
        <ele>621.61638</ele>
        <time>2026-03-24T09:25:04.022Z</time>
      </trkpt>
      <trkpt lat="43.66125" lon="6.17812">
        <ele>621.56581</ele>
        <time>2026-03-24T09:25:06.022Z</time>
      </trkpt>
      <trkpt lat="43.66123" lon="6.17807">
        <ele>621.49056</ele>
        <time>2026-03-24T09:25:09.021Z</time>
      </trkpt>
      <trkpt lat="43.66122" lon="6.17804">
        <ele>621.45087</ele>
        <time>2026-03-24T09:25:11.021Z</time>
      </trkpt>
      <trkpt lat="43.66121" lon="6.178">
        <ele>621.42063</ele>
        <time>2026-03-24T09:25:13.021Z</time>
      </trkpt>
      <trkpt lat="43.6612" lon="6.17797">
        <ele>621.37464</ele>
        <time>2026-03-24T09:25:15.021Z</time>
      </trkpt>
      <trkpt lat="43.66119" lon="6.17793">
        <ele>621.33978</ele>
        <time>2026-03-24T09:25:18.021Z</time>
      </trkpt>
      <trkpt lat="43.66119" lon="6.17789">
        <ele>621.31772</ele>
        <time>2026-03-24T09:25:20.021Z</time>
      </trkpt>
      <trkpt lat="43.66119" lon="6.17786">
        <ele>621.28203</ele>
        <time>2026-03-24T09:25:22.021Z</time>
      </trkpt>
      <trkpt lat="43.66118" lon="6.17782">
        <ele>621.24728</ele>
        <time>2026-03-24T09:25:24.021Z</time>
      </trkpt>
      <trkpt lat="43.66117" lon="6.17777">
        <ele>621.20125</ele>
        <time>2026-03-24T09:25:27.021Z</time>
      </trkpt>
      <trkpt lat="43.66116" lon="6.17774">
        <ele>621.1686</ele>
        <time>2026-03-24T09:25:29.021Z</time>
      </trkpt>
      <trkpt lat="43.66116" lon="6.17771">
        <ele>621.14515</ele>
        <time>2026-03-24T09:25:31.021Z</time>
      </trkpt>
      <trkpt lat="43.66115" lon="6.17768">
        <ele>621.12311</ele>
        <time>2026-03-24T09:25:33.021Z</time>
      </trkpt>
      <trkpt lat="43.66114" lon="6.17764">
        <ele>621.05053</ele>
        <time>2026-03-24T09:25:38.021Z</time>
      </trkpt>
      <trkpt lat="43.66114" lon="6.1776">
        <ele>621.02751</ele>
        <time>2026-03-24T09:25:40.021Z</time>
      </trkpt>
      <trkpt lat="43.66113" lon="6.17757">
        <ele>621.00196</ele>
        <time>2026-03-24T09:25:42.021Z</time>
      </trkpt>
      <trkpt lat="43.66113" lon="6.17754">
        <ele>620.96359</ele>
        <time>2026-03-24T09:25:45.021Z</time>
      </trkpt>
      <trkpt lat="43.66116" lon="6.17757">
        <ele>620.89975</ele>
        <time>2026-03-24T09:25:51.021Z</time>
      </trkpt>
      <trkpt lat="43.66116" lon="6.1776">
        <ele>620.88247</ele>
        <time>2026-03-24T09:25:53.021Z</time>
      </trkpt>
      <trkpt lat="43.66115" lon="6.17764">
        <ele>620.8631</ele>
        <time>2026-03-24T09:25:55.021Z</time>
      </trkpt>
      <trkpt lat="43.66116" lon="6.17768">
        <ele>620.84401</ele>
        <time>2026-03-24T09:25:57.021Z</time>
      </trkpt>
      <trkpt lat="43.66116" lon="6.17771">
        <ele>620.83532</ele>
        <time>2026-03-24T09:25:59.021Z</time>
      </trkpt>
      <trkpt lat="43.66117" lon="6.17775">
        <ele>620.82522</ele>
        <time>2026-03-24T09:26:01.021Z</time>
      </trkpt>
      <trkpt lat="43.66118" lon="6.17778">
        <ele>620.8097</ele>
        <time>2026-03-24T09:26:03.021Z</time>
      </trkpt>
      <trkpt lat="43.66119" lon="6.17782">
        <ele>620.79196</ele>
        <time>2026-03-24T09:26:05.021Z</time>
      </trkpt>
      <trkpt lat="43.66119" lon="6.17786">
        <ele>620.78183</ele>
        <time>2026-03-24T09:26:07.021Z</time>
      </trkpt>
      <trkpt lat="43.66119" lon="6.17789">
        <ele>620.78089</ele>
        <time>2026-03-24T09:26:09.021Z</time>
      </trkpt>
      <trkpt lat="43.6612" lon="6.17793">
        <ele>620.76936</ele>
        <time>2026-03-24T09:26:11.021Z</time>
      </trkpt>
      <trkpt lat="43.66121" lon="6.17798">
        <ele>620.76006</ele>
        <time>2026-03-24T09:26:13.021Z</time>
      </trkpt>
      <trkpt lat="43.66121" lon="6.17801">
        <ele>620.74871</ele>
        <time>2026-03-24T09:26:16.021Z</time>
      </trkpt>
      <trkpt lat="43.66122" lon="6.17805">
        <ele>620.74103</ele>
        <time>2026-03-24T09:26:18.021Z</time>
      </trkpt>
      <trkpt lat="43.66124" lon="6.17808">
        <ele>620.71222</ele>
        <time>2026-03-24T09:26:26.021Z</time>
      </trkpt>
      <trkpt lat="43.66122" lon="6.17809">
        <ele>620.70241</ele>
        <time>2026-03-24T09:26:31.021Z</time>
      </trkpt>
      <trkpt lat="43.66121" lon="6.17814">
        <ele>620.69256</ele>
        <time>2026-03-24T09:26:58.021Z</time>
      </trkpt>
      <trkpt lat="43.66119" lon="6.17814">
        <ele>620.6919</ele>
        <time>2026-03-24T09:27:01.022Z</time>
      </trkpt>
      <trkpt lat="43.66116" lon="6.17814">
        <ele>620.69121</ele>
        <time>2026-03-24T09:27:04.023Z</time>
      </trkpt>
      <trkpt lat="43.66113" lon="6.17814">
        <ele>620.68946</ele>
        <time>2026-03-24T09:27:08.022Z</time>
      </trkpt>
      <trkpt lat="43.66111" lon="6.17818">
        <ele>620.67961</ele>
        <time>2026-03-24T09:27:15.022Z</time>
      </trkpt>
      <trkpt lat="43.6612" lon="6.17809">
        <ele>620.53037</ele>
        <time>2026-03-24T09:28:22.022Z</time>
      </trkpt>
      <trkpt lat="43.6612" lon="6.17806">
        <ele>620.52118</ele>
        <time>2026-03-24T09:28:26.022Z</time>
      </trkpt>
      <trkpt lat="43.66119" lon="6.17802">
        <ele>620.51433</ele>
        <time>2026-03-24T09:28:31.021Z</time>
      </trkpt>
      <trkpt lat="43.66117" lon="6.17798">
        <ele>620.51056</ele>
        <time>2026-03-24T09:28:34.021Z</time>
      </trkpt>
      <trkpt lat="43.66118" lon="6.17795">
        <ele>620.50535</ele>
        <time>2026-03-24T09:28:37.021Z</time>
      </trkpt>
      <trkpt lat="43.66119" lon="6.17792">
        <ele>620.49369</ele>
        <time>2026-03-24T09:28:46.021Z</time>
      </trkpt>
      <trkpt lat="43.66118" lon="6.17788">
        <ele>620.48827</ele>
        <time>2026-03-24T09:28:49.021Z</time>
      </trkpt>
      <trkpt lat="43.66117" lon="6.17784">
        <ele>620.48427</ele>
        <time>2026-03-24T09:28:52.021Z</time>
      </trkpt>
      <trkpt lat="43.66117" lon="6.1778">
        <ele>620.47673</ele>
        <time>2026-03-24T09:28:57.021Z</time>
      </trkpt>
      <trkpt lat="43.66117" lon="6.17777">
        <ele>620.47544</ele>
        <time>2026-03-24T09:28:58.021Z</time>
      </trkpt>
      <trkpt lat="43.6612" lon="6.17774">
        <ele>620.47366</ele>
        <time>2026-03-24T09:28:59.021Z</time>
      </trkpt>
      <trkpt lat="43.66119" lon="6.17771">
        <ele>620.47194</ele>
        <time>2026-03-24T09:29:00.021Z</time>
      </trkpt>
      <trkpt lat="43.66118" lon="6.17768">
        <ele>620.47002</ele>
        <time>2026-03-24T09:29:01.021Z</time>
      </trkpt>
      <trkpt lat="43.66117" lon="6.17765">
        <ele>620.46824</ele>
        <time>2026-03-24T09:29:02.021Z</time>
      </trkpt>
      <trkpt lat="43.66114" lon="6.17762">
        <ele>620.46544</ele>
        <time>2026-03-24T09:29:04.021Z</time>
      </trkpt>
      <trkpt lat="43.66112" lon="6.17759">
        <ele>620.46282</ele>
        <time>2026-03-24T09:29:06.022Z</time>
      </trkpt>
      <trkpt lat="43.66112" lon="6.17754">
        <ele>620.4583</ele>
        <time>2026-03-24T09:29:09.022Z</time>
      </trkpt>
      <trkpt lat="43.66112" lon="6.17751">
        <ele>620.4551</ele>
        <time>2026-03-24T09:29:11.022Z</time>
      </trkpt>
      <trkpt lat="43.66112" lon="6.17748">
        <ele>620.45112</ele>
        <time>2026-03-24T09:29:13.022Z</time>
      </trkpt>
      <trkpt lat="43.66111" lon="6.17744">
        <ele>620.44676</ele>
        <time>2026-03-24T09:29:15.022Z</time>
      </trkpt>
      <trkpt lat="43.66112" lon="6.1774">
        <ele>620.43946</ele>
        <time>2026-03-24T09:29:18.021Z</time>
      </trkpt>
      <trkpt lat="43.66111" lon="6.17737">
        <ele>620.43357</ele>
        <time>2026-03-24T09:29:20.022Z</time>
      </trkpt>
      <trkpt lat="43.66111" lon="6.17733">
        <ele>620.42963</ele>
        <time>2026-03-24T09:29:22.022Z</time>
      </trkpt>
      <trkpt lat="43.66109" lon="6.17731">
        <ele>620.42616</ele>
        <time>2026-03-24T09:29:24.022Z</time>
      </trkpt>
      <trkpt lat="43.66109" lon="6.17726">
        <ele>620.42309</ele>
        <time>2026-03-24T09:29:27.022Z</time>
      </trkpt>
      <trkpt lat="43.66107" lon="6.17722">
        <ele>620.42096</ele>
        <time>2026-03-24T09:29:30.022Z</time>
      </trkpt>
      <trkpt lat="43.66106" lon="6.1772">
        <ele>620.41972</ele>
        <time>2026-03-24T09:29:32.022Z</time>
      </trkpt>
      <trkpt lat="43.66106" lon="6.17715">
        <ele>620.41717</ele>
        <time>2026-03-24T09:29:35.022Z</time>
      </trkpt>
      <trkpt lat="43.66104" lon="6.17711">
        <ele>620.41558</ele>
        <time>2026-03-24T09:29:37.022Z</time>
      </trkpt>
      <trkpt lat="43.66104" lon="6.17707">
        <ele>620.41273</ele>
        <time>2026-03-24T09:29:40.022Z</time>
      </trkpt>
      <trkpt lat="43.66103" lon="6.17702">
        <ele>620.41052</ele>
        <time>2026-03-24T09:29:43.022Z</time>
      </trkpt>
      <trkpt lat="43.66102" lon="6.177">
        <ele>620.40847</ele>
        <time>2026-03-24T09:29:45.022Z</time>
      </trkpt>
      <trkpt lat="43.66101" lon="6.17696">
        <ele>620.40696</ele>
        <time>2026-03-24T09:29:47.022Z</time>
      </trkpt>
      <trkpt lat="43.66099" lon="6.17694">
        <ele>620.40478</ele>
        <time>2026-03-24T09:29:49.022Z</time>
      </trkpt>
      <trkpt lat="43.66096" lon="6.17693">
        <ele>620.39475</ele>
        <time>2026-03-24T09:29:54.022Z</time>
      </trkpt>
      <trkpt lat="43.66094" lon="6.17691">
        <ele>620.38729</ele>
        <time>2026-03-24T09:29:57.022Z</time>
      </trkpt>
      <trkpt lat="43.66094" lon="6.17687">
        <ele>620.38012</ele>
        <time>2026-03-24T09:30:01.022Z</time>
      </trkpt>
      <trkpt lat="43.66093" lon="6.17684">
        <ele>620.37616</ele>
        <time>2026-03-24T09:30:04.022Z</time>
      </trkpt>
      <trkpt lat="43.66093" lon="6.1768">
        <ele>620.37145</ele>
        <time>2026-03-24T09:30:07.022Z</time>
      </trkpt>
      <trkpt lat="43.66092" lon="6.17677">
        <ele>620.36381</ele>
        <time>2026-03-24T09:30:10.022Z</time>
      </trkpt>
      <trkpt lat="43.66093" lon="6.17672">
        <ele>620.35334</ele>
        <time>2026-03-24T09:30:13.022Z</time>
      </trkpt>
      <trkpt lat="43.66094" lon="6.17669">
        <ele>620.34587</ele>
        <time>2026-03-24T09:30:15.022Z</time>
      </trkpt>
      <trkpt lat="43.66094" lon="6.17665">
        <ele>620.34142</ele>
        <time>2026-03-24T09:30:17.022Z</time>
      </trkpt>
      <trkpt lat="43.66094" lon="6.17661">
        <ele>620.33601</ele>
        <time>2026-03-24T09:30:20.022Z</time>
      </trkpt>
      <trkpt lat="43.66094" lon="6.17658">
        <ele>620.33273</ele>
        <time>2026-03-24T09:30:22.022Z</time>
      </trkpt>
      <trkpt lat="43.66094" lon="6.17655">
        <ele>620.32975</ele>
        <time>2026-03-24T09:30:24.022Z</time>
      </trkpt>
      <trkpt lat="43.66095" lon="6.17651">
        <ele>620.32604</ele>
        <time>2026-03-24T09:30:27.022Z</time>
      </trkpt>
      <trkpt lat="43.66095" lon="6.17648">
        <ele>620.32382</ele>
        <time>2026-03-24T09:30:30.022Z</time>
      </trkpt>
      <trkpt lat="43.66095" lon="6.17644">
        <ele>620.32381</ele>
        <time>2026-03-24T09:30:33.022Z</time>
      </trkpt>
      <trkpt lat="43.66095" lon="6.1764">
        <ele>620.32377</ele>
        <time>2026-03-24T09:30:36.022Z</time>
      </trkpt>
      <trkpt lat="43.66095" lon="6.17637">
        <ele>620.32461</ele>
        <time>2026-03-24T09:30:38.022Z</time>
      </trkpt>
      <trkpt lat="43.66095" lon="6.17633">
        <ele>620.32651</ele>
        <time>2026-03-24T09:30:41.022Z</time>
      </trkpt>
      <trkpt lat="43.66095" lon="6.17629">
        <ele>620.32693</ele>
        <time>2026-03-24T09:30:44.022Z</time>
      </trkpt>
      <trkpt lat="43.66095" lon="6.17625">
        <ele>620.32717</ele>
        <time>2026-03-24T09:30:47.022Z</time>
      </trkpt>
      <trkpt lat="43.66095" lon="6.17621">
        <ele>620.3271</ele>
        <time>2026-03-24T09:30:49.022Z</time>
      </trkpt>
      <trkpt lat="43.66095" lon="6.17617">
        <ele>620.32758</ele>
        <time>2026-03-24T09:30:52.022Z</time>
      </trkpt>
      <trkpt lat="43.66095" lon="6.17612">
        <ele>620.32752</ele>
        <time>2026-03-24T09:30:55.022Z</time>
      </trkpt>
      <trkpt lat="43.66095" lon="6.17608">
        <ele>620.32685</ele>
        <time>2026-03-24T09:30:57.022Z</time>
      </trkpt>
      <trkpt lat="43.66093" lon="6.17606">
        <ele>620.32581</ele>
        <time>2026-03-24T09:31:01.022Z</time>
      </trkpt>
      <trkpt lat="43.66094" lon="6.17603">
        <ele>620.32355</ele>
        <time>2026-03-24T09:31:03.022Z</time>
      </trkpt>
      <trkpt lat="43.66094" lon="6.17598">
        <ele>620.31987</ele>
        <time>2026-03-24T09:31:05.022Z</time>
      </trkpt>
      <trkpt lat="43.66094" lon="6.17595">
        <ele>620.3144</ele>
        <time>2026-03-24T09:31:07.022Z</time>
      </trkpt>
      <trkpt lat="43.66093" lon="6.17591">
        <ele>620.30812</ele>
        <time>2026-03-24T09:31:09.022Z</time>
      </trkpt>
      <trkpt lat="43.66094" lon="6.17587">
        <ele>620.30167</ele>
        <time>2026-03-24T09:31:11.022Z</time>
      </trkpt>
      <trkpt lat="43.66094" lon="6.17584">
        <ele>620.29914</ele>
        <time>2026-03-24T09:31:13.022Z</time>
      </trkpt>
      <trkpt lat="43.66094" lon="6.17579">
        <ele>620.28681</ele>
        <time>2026-03-24T09:31:15.021Z</time>
      </trkpt>
      <trkpt lat="43.66093" lon="6.17576">
        <ele>620.27944</ele>
        <time>2026-03-24T09:31:17.022Z</time>
      </trkpt>
      <trkpt lat="43.66092" lon="6.17572">
        <ele>620.26608</ele>
        <time>2026-03-24T09:31:20.021Z</time>
      </trkpt>
      <trkpt lat="43.66092" lon="6.17568">
        <ele>620.24806</ele>
        <time>2026-03-24T09:31:23.022Z</time>
      </trkpt>
      <trkpt lat="43.66092" lon="6.17563">
        <ele>620.23078</ele>
        <time>2026-03-24T09:31:26.021Z</time>
      </trkpt>
      <trkpt lat="43.66091" lon="6.1756">
        <ele>620.21578</ele>
        <time>2026-03-24T09:31:29.021Z</time>
      </trkpt>
      <trkpt lat="43.6609" lon="6.17556">
        <ele>620.19744</ele>
        <time>2026-03-24T09:31:32.021Z</time>
      </trkpt>
      <trkpt lat="43.66089" lon="6.17553">
        <ele>620.18442</ele>
        <time>2026-03-24T09:31:34.021Z</time>
      </trkpt>
      <trkpt lat="43.66089" lon="6.17549">
        <ele>620.15793</ele>
        <time>2026-03-24T09:31:38.021Z</time>
      </trkpt>
      <trkpt lat="43.66087" lon="6.17545">
        <ele>620.1424</ele>
        <time>2026-03-24T09:31:41.021Z</time>
      </trkpt>
      <trkpt lat="43.66087" lon="6.1754">
        <ele>620.12188</ele>
        <time>2026-03-24T09:31:44.021Z</time>
      </trkpt>
      <trkpt lat="43.66086" lon="6.17537">
        <ele>620.08777</ele>
        <time>2026-03-24T09:31:47.021Z</time>
      </trkpt>
      <trkpt lat="43.66086" lon="6.17534">
        <ele>620.05618</ele>
        <time>2026-03-24T09:31:49.021Z</time>
      </trkpt>
      <trkpt lat="43.66085" lon="6.17529">
        <ele>620.01978</ele>
        <time>2026-03-24T09:31:51.021Z</time>
      </trkpt>
      <trkpt lat="43.66084" lon="6.17526">
        <ele>619.93678</ele>
        <time>2026-03-24T09:31:54.021Z</time>
      </trkpt>
      <trkpt lat="43.66081" lon="6.17524">
        <ele>619.89484</ele>
        <time>2026-03-24T09:31:56.021Z</time>
      </trkpt>
      <trkpt lat="43.6608" lon="6.17521">
        <ele>619.82821</ele>
        <time>2026-03-24T09:31:59.021Z</time>
      </trkpt>
      <trkpt lat="43.6608" lon="6.17517">
        <ele>619.7807</ele>
        <time>2026-03-24T09:32:01.021Z</time>
      </trkpt>
      <trkpt lat="43.66079" lon="6.17512">
        <ele>619.73177</ele>
        <time>2026-03-24T09:32:03.021Z</time>
      </trkpt>
      <trkpt lat="43.66079" lon="6.17509">
        <ele>619.69633</ele>
        <time>2026-03-24T09:32:05.021Z</time>
      </trkpt>
      <trkpt lat="43.66079" lon="6.17505">
        <ele>619.63851</ele>
        <time>2026-03-24T09:32:07.021Z</time>
      </trkpt>
      <trkpt lat="43.66079" lon="6.17502">
        <ele>619.57552</ele>
        <time>2026-03-24T09:32:09.021Z</time>
      </trkpt>
      <trkpt lat="43.66078" lon="6.17498">
        <ele>619.52056</ele>
        <time>2026-03-24T09:32:11.021Z</time>
      </trkpt>
      <trkpt lat="43.66077" lon="6.17494">
        <ele>619.45696</ele>
        <time>2026-03-24T09:32:13.021Z</time>
      </trkpt>
      <trkpt lat="43.66076" lon="6.1749">
        <ele>619.39731</ele>
        <time>2026-03-24T09:32:15.021Z</time>
      </trkpt>
      <trkpt lat="43.66076" lon="6.17487">
        <ele>619.34344</ele>
        <time>2026-03-24T09:32:17.021Z</time>
      </trkpt>
      <trkpt lat="43.66075" lon="6.17483">
        <ele>619.28437</ele>
        <time>2026-03-24T09:32:19.021Z</time>
      </trkpt>
      <trkpt lat="43.66074" lon="6.1748">
        <ele>619.23797</ele>
        <time>2026-03-24T09:32:21.021Z</time>
      </trkpt>
      <trkpt lat="43.66073" lon="6.17477">
        <ele>619.19072</ele>
        <time>2026-03-24T09:32:23.021Z</time>
      </trkpt>
      <trkpt lat="43.66073" lon="6.17472">
        <ele>619.12422</ele>
        <time>2026-03-24T09:32:26.021Z</time>
      </trkpt>
      <trkpt lat="43.66074" lon="6.17469">
        <ele>619.0799</ele>
        <time>2026-03-24T09:32:28.020Z</time>
      </trkpt>
      <trkpt lat="43.66073" lon="6.17466">
        <ele>619.0364</ele>
        <time>2026-03-24T09:32:30.020Z</time>
      </trkpt>
      <trkpt lat="43.66072" lon="6.17463">
        <ele>618.99394</ele>
        <time>2026-03-24T09:32:32.020Z</time>
      </trkpt>
      <trkpt lat="43.66072" lon="6.17459">
        <ele>618.96118</ele>
        <time>2026-03-24T09:32:34.020Z</time>
      </trkpt>
      <trkpt lat="43.66071" lon="6.17455">
        <ele>618.90504</ele>
        <time>2026-03-24T09:32:37.020Z</time>
      </trkpt>
      <trkpt lat="43.6607" lon="6.17451">
        <ele>618.85415</ele>
        <time>2026-03-24T09:32:40.020Z</time>
      </trkpt>
      <trkpt lat="43.66069" lon="6.17448">
        <ele>618.8212</ele>
        <time>2026-03-24T09:32:42.020Z</time>
      </trkpt>
      <trkpt lat="43.66068" lon="6.17445">
        <ele>618.78856</ele>
        <time>2026-03-24T09:32:44.020Z</time>
      </trkpt>
      <trkpt lat="43.66067" lon="6.17441">
        <ele>618.76487</ele>
        <time>2026-03-24T09:32:46.020Z</time>
      </trkpt>
      <trkpt lat="43.66067" lon="6.17437">
        <ele>618.7447</ele>
        <time>2026-03-24T09:32:48.020Z</time>
      </trkpt>
      <trkpt lat="43.66066" lon="6.17432">
        <ele>618.72466</ele>
        <time>2026-03-24T09:32:50.020Z</time>
      </trkpt>
      <trkpt lat="43.66067" lon="6.17429">
        <ele>618.70414</ele>
        <time>2026-03-24T09:32:52.020Z</time>
      </trkpt>
      <trkpt lat="43.66064" lon="6.17429">
        <ele>618.66806</ele>
        <time>2026-03-24T09:32:59.020Z</time>
      </trkpt>
      <trkpt lat="43.66065" lon="6.17432">
        <ele>618.64839</ele>
        <time>2026-03-24T09:33:04.020Z</time>
      </trkpt>
      <trkpt lat="43.66064" lon="6.17434">
        <ele>618.61675</ele>
        <time>2026-03-24T09:33:24.022Z</time>
      </trkpt>
      <trkpt lat="43.66062" lon="6.17437">
        <ele>618.61203</ele>
        <time>2026-03-24T09:33:28.022Z</time>
      </trkpt>
      <trkpt lat="43.66062" lon="6.17441">
        <ele>618.60282</ele>
        <time>2026-03-24T09:33:34.021Z</time>
      </trkpt>
      <trkpt lat="43.6606" lon="6.17443">
        <ele>618.59442</ele>
        <time>2026-03-24T09:33:38.021Z</time>
      </trkpt>
      <trkpt lat="43.66058" lon="6.17446">
        <ele>618.5798</ele>
        <time>2026-03-24T09:33:42.021Z</time>
      </trkpt>
      <trkpt lat="43.66055" lon="6.17447">
        <ele>618.57186</ele>
        <time>2026-03-24T09:33:44.021Z</time>
      </trkpt>
      <trkpt lat="43.66053" lon="6.17448">
        <ele>618.56493</ele>
        <time>2026-03-24T09:33:46.021Z</time>
      </trkpt>
      <trkpt lat="43.66053" lon="6.17452">
        <ele>618.55686</ele>
        <time>2026-03-24T09:33:50.021Z</time>
      </trkpt>
      <trkpt lat="43.66051" lon="6.17455">
        <ele>618.55015</ele>
        <time>2026-03-24T09:33:54.021Z</time>
      </trkpt>
      <trkpt lat="43.66049" lon="6.17457">
        <ele>618.54684</ele>
        <time>2026-03-24T09:33:56.020Z</time>
      </trkpt>
      <trkpt lat="43.66047" lon="6.17461">
        <ele>618.5426</ele>
        <time>2026-03-24T09:33:59.018Z</time>
      </trkpt>
      <trkpt lat="43.66045" lon="6.17464">
        <ele>618.54069</ele>
        <time>2026-03-24T09:34:02.016Z</time>
      </trkpt>
      <trkpt lat="43.66043" lon="6.17467">
        <ele>618.53929</ele>
        <time>2026-03-24T09:34:04.015Z</time>
      </trkpt>
      <trkpt lat="43.6604" lon="6.17469">
        <ele>618.53809</ele>
        <time>2026-03-24T09:34:06.014Z</time>
      </trkpt>
      <trkpt lat="43.66038" lon="6.17471">
        <ele>618.5314</ele>
        <time>2026-03-24T09:34:09.013Z</time>
      </trkpt>
      <trkpt lat="43.66036" lon="6.17474">
        <ele>618.52481</ele>
        <time>2026-03-24T09:34:12.012Z</time>
      </trkpt>
      <trkpt lat="43.66034" lon="6.17477">
        <ele>618.52069</ele>
        <time>2026-03-24T09:34:14.012Z</time>
      </trkpt>
      <trkpt lat="43.66033" lon="6.1748">
        <ele>618.51751</ele>
        <time>2026-03-24T09:34:16.011Z</time>
      </trkpt>
      <trkpt lat="43.66031" lon="6.17484">
        <ele>618.51268</ele>
        <time>2026-03-24T09:34:19.011Z</time>
      </trkpt>
      <trkpt lat="43.6603" lon="6.17486">
        <ele>618.5087</ele>
        <time>2026-03-24T09:34:21.010Z</time>
      </trkpt>
      <trkpt lat="43.66027" lon="6.1749">
        <ele>618.50226</ele>
        <time>2026-03-24T09:34:24.010Z</time>
      </trkpt>
      <trkpt lat="43.66027" lon="6.17493">
        <ele>618.49418</ele>
        <time>2026-03-24T09:34:27.009Z</time>
      </trkpt>
      <trkpt lat="43.66025" lon="6.17498">
        <ele>618.48428</ele>
        <time>2026-03-24T09:34:30.009Z</time>
      </trkpt>
      <trkpt lat="43.66023" lon="6.175">
        <ele>618.47671</ele>
        <time>2026-03-24T09:34:32.009Z</time>
      </trkpt>
      <trkpt lat="43.66021" lon="6.17501">
        <ele>618.47033</ele>
        <time>2026-03-24T09:34:34.009Z</time>
      </trkpt>
      <trkpt lat="43.66019" lon="6.17503">
        <ele>618.4549</ele>
        <time>2026-03-24T09:34:41.008Z</time>
      </trkpt>
      <trkpt lat="43.66017" lon="6.17505">
        <ele>618.44858</ele>
        <time>2026-03-24T09:34:43.008Z</time>
      </trkpt>
      <trkpt lat="43.66015" lon="6.17508">
        <ele>618.44127</ele>
        <time>2026-03-24T09:34:45.008Z</time>
      </trkpt>
      <trkpt lat="43.66013" lon="6.17509">
        <ele>618.43098</ele>
        <time>2026-03-24T09:34:47.008Z</time>
      </trkpt>
      <trkpt lat="43.66011" lon="6.17512">
        <ele>618.41118</ele>
        <time>2026-03-24T09:34:50.008Z</time>
      </trkpt>
      <trkpt lat="43.66009" lon="6.17513">
        <ele>618.39184</ele>
        <time>2026-03-24T09:34:52.008Z</time>
      </trkpt>
      <trkpt lat="43.66007" lon="6.17516">
        <ele>618.35302</ele>
        <time>2026-03-24T09:34:55.008Z</time>
      </trkpt>
      <trkpt lat="43.66005" lon="6.17519">
        <ele>618.3167</ele>
        <time>2026-03-24T09:34:57.008Z</time>
      </trkpt>
      <trkpt lat="43.66003" lon="6.17521">
        <ele>618.27806</ele>
        <time>2026-03-24T09:34:59.008Z</time>
      </trkpt>
      <trkpt lat="43.66001" lon="6.17524">
        <ele>618.21007</ele>
        <time>2026-03-24T09:35:02.008Z</time>
      </trkpt>
      <trkpt lat="43.66" lon="6.17526">
        <ele>618.15949</ele>
        <time>2026-03-24T09:35:04.008Z</time>
      </trkpt>
      <trkpt lat="43.65998" lon="6.17529">
        <ele>618.08529</ele>
        <time>2026-03-24T09:35:06.008Z</time>
      </trkpt>
      <trkpt lat="43.65996" lon="6.17532">
        <ele>617.99654</ele>
        <time>2026-03-24T09:35:08.007Z</time>
      </trkpt>
      <trkpt lat="43.65994" lon="6.17537">
        <ele>617.9281</ele>
        <time>2026-03-24T09:35:10.007Z</time>
      </trkpt>
      <trkpt lat="43.65992" lon="6.1754">
        <ele>617.82425</ele>
        <time>2026-03-24T09:35:13.007Z</time>
      </trkpt>
      <trkpt lat="43.6599" lon="6.17542">
        <ele>617.77675</ele>
        <time>2026-03-24T09:35:15.007Z</time>
      </trkpt>
      <trkpt lat="43.65989" lon="6.17545">
        <ele>617.74179</ele>
        <time>2026-03-24T09:35:17.007Z</time>
      </trkpt>
      <trkpt lat="43.65987" lon="6.17549">
        <ele>617.65475</ele>
        <time>2026-03-24T09:35:20.007Z</time>
      </trkpt>
      <trkpt lat="43.65986" lon="6.17552">
        <ele>617.56643</ele>
        <time>2026-03-24T09:35:22.007Z</time>
      </trkpt>
      <trkpt lat="43.65983" lon="6.17555">
        <ele>617.48493</ele>
        <time>2026-03-24T09:35:24.009Z</time>
      </trkpt>
      <trkpt lat="43.65981" lon="6.17559">
        <ele>617.37618</ele>
        <time>2026-03-24T09:35:27.008Z</time>
      </trkpt>
      <trkpt lat="43.6598" lon="6.17562">
        <ele>617.30654</ele>
        <time>2026-03-24T09:35:29.008Z</time>
      </trkpt>
      <trkpt lat="43.65978" lon="6.17564">
        <ele>617.23377</ele>
        <time>2026-03-24T09:35:31.008Z</time>
      </trkpt>
      <trkpt lat="43.65976" lon="6.17567">
        <ele>617.11307</ele>
        <time>2026-03-24T09:35:34.008Z</time>
      </trkpt>
      <trkpt lat="43.65974" lon="6.1757">
        <ele>617.02165</ele>
        <time>2026-03-24T09:35:36.008Z</time>
      </trkpt>
      <trkpt lat="43.65973" lon="6.17572">
        <ele>616.89523</ele>
        <time>2026-03-24T09:35:38.008Z</time>
      </trkpt>
      <trkpt lat="43.65971" lon="6.17576">
        <ele>616.78338</ele>
        <time>2026-03-24T09:35:40.008Z</time>
      </trkpt>
      <trkpt lat="43.6597" lon="6.17579">
        <ele>616.65521</ele>
        <time>2026-03-24T09:35:42.008Z</time>
      </trkpt>
      <trkpt lat="43.65969" lon="6.17583">
        <ele>616.50865</ele>
        <time>2026-03-24T09:35:44.008Z</time>
      </trkpt>
      <trkpt lat="43.65968" lon="6.17586">
        <ele>616.35846</ele>
        <time>2026-03-24T09:35:46.008Z</time>
      </trkpt>
      <trkpt lat="43.65966" lon="6.17591">
        <ele>616.21114</ele>
        <time>2026-03-24T09:35:48.152Z</time>
      </trkpt>
      <trkpt lat="43.65964" lon="6.17594">
        <ele>616.12415</ele>
        <time>2026-03-24T09:35:50.008Z</time>
      </trkpt>
      <trkpt lat="43.65962" lon="6.17599">
        <ele>615.93158</ele>
        <time>2026-03-24T09:35:52.008Z</time>
      </trkpt>
      <trkpt lat="43.65959" lon="6.17598">
        <ele>615.67212</ele>
        <time>2026-03-24T09:35:55.008Z</time>
      </trkpt>
      <trkpt lat="43.65957" lon="6.17601">
        <ele>615.48266</ele>
        <time>2026-03-24T09:35:57.008Z</time>
      </trkpt>
      <trkpt lat="43.65955" lon="6.17603">
        <ele>615.12813</ele>
        <time>2026-03-24T09:36:00.008Z</time>
      </trkpt>
      <trkpt lat="43.65954" lon="6.17606">
        <ele>614.94695</ele>
        <time>2026-03-24T09:36:02.008Z</time>
      </trkpt>
      <trkpt lat="43.65952" lon="6.1761">
        <ele>614.82108</ele>
        <time>2026-03-24T09:36:04.007Z</time>
      </trkpt>
      <trkpt lat="43.65949" lon="6.17613">
        <ele>614.70975</ele>
        <time>2026-03-24T09:36:06.007Z</time>
      </trkpt>
      <trkpt lat="43.65949" lon="6.17617">
        <ele>614.53324</ele>
        <time>2026-03-24T09:36:09.007Z</time>
      </trkpt>
      <trkpt lat="43.65946" lon="6.17618">
        <ele>614.40184</ele>
        <time>2026-03-24T09:36:11.007Z</time>
      </trkpt>
      <trkpt lat="43.65945" lon="6.17621">
        <ele>614.24256</ele>
        <time>2026-03-24T09:36:13.007Z</time>
      </trkpt>
      <trkpt lat="43.65943" lon="6.17624">
        <ele>614.13294</ele>
        <time>2026-03-24T09:36:15.007Z</time>
      </trkpt>
      <trkpt lat="43.65942" lon="6.17627">
        <ele>614.02966</ele>
        <time>2026-03-24T09:36:17.007Z</time>
      </trkpt>
      <trkpt lat="43.6594" lon="6.17631">
        <ele>613.94636</ele>
        <time>2026-03-24T09:36:19.007Z</time>
      </trkpt>
      <trkpt lat="43.65938" lon="6.17634">
        <ele>613.86717</ele>
        <time>2026-03-24T09:36:21.007Z</time>
      </trkpt>
      <trkpt lat="43.65937" lon="6.17638">
        <ele>613.7234</ele>
        <time>2026-03-24T09:36:24.007Z</time>
      </trkpt>
      <trkpt lat="43.65936" lon="6.1764">
        <ele>613.64137</ele>
        <time>2026-03-24T09:36:26.007Z</time>
      </trkpt>
      <trkpt lat="43.65934" lon="6.17644">
        <ele>613.5857</ele>
        <time>2026-03-24T09:36:28.007Z</time>
      </trkpt>
      <trkpt lat="43.65932" lon="6.17647">
        <ele>613.51888</ele>
        <time>2026-03-24T09:36:30.007Z</time>
      </trkpt>
      <trkpt lat="43.65931" lon="6.1765">
        <ele>613.45309</ele>
        <time>2026-03-24T09:36:32.007Z</time>
      </trkpt>
      <trkpt lat="43.6593" lon="6.17653">
        <ele>613.40482</ele>
        <time>2026-03-24T09:36:34.007Z</time>
      </trkpt>
      <trkpt lat="43.65927" lon="6.17656">
        <ele>613.33321</ele>
        <time>2026-03-24T09:36:37.007Z</time>
      </trkpt>
      <trkpt lat="43.65926" lon="6.17658">
        <ele>613.30962</ele>
        <time>2026-03-24T09:36:39.007Z</time>
      </trkpt>
      <trkpt lat="43.65924" lon="6.17661">
        <ele>613.2818</ele>
        <time>2026-03-24T09:36:41.007Z</time>
      </trkpt>
      <trkpt lat="43.65922" lon="6.17664">
        <ele>613.24569</ele>
        <time>2026-03-24T09:36:43.007Z</time>
      </trkpt>
      <trkpt lat="43.6592" lon="6.17667">
        <ele>613.21509</ele>
        <time>2026-03-24T09:36:45.007Z</time>
      </trkpt>
      <trkpt lat="43.65919" lon="6.17671">
        <ele>613.16661</ele>
        <time>2026-03-24T09:36:47.007Z</time>
      </trkpt>
      <trkpt lat="43.65918" lon="6.17674">
        <ele>613.11837</ele>
        <time>2026-03-24T09:36:49.007Z</time>
      </trkpt>
      <trkpt lat="43.65916" lon="6.17677">
        <ele>613.05268</ele>
        <time>2026-03-24T09:36:51.007Z</time>
      </trkpt>
      <trkpt lat="43.65915" lon="6.1768">
        <ele>612.99192</ele>
        <time>2026-03-24T09:36:53.007Z</time>
      </trkpt>
      <trkpt lat="43.65914" lon="6.17683">
        <ele>612.9332</ele>
        <time>2026-03-24T09:36:55.007Z</time>
      </trkpt>
      <trkpt lat="43.65912" lon="6.17687">
        <ele>612.86969</ele>
        <time>2026-03-24T09:36:57.007Z</time>
      </trkpt>
      <trkpt lat="43.65911" lon="6.1769">
        <ele>612.78501</ele>
        <time>2026-03-24T09:36:59.007Z</time>
      </trkpt>
      <trkpt lat="43.65909" lon="6.17692">
        <ele>612.70107</ele>
        <time>2026-03-24T09:37:01.007Z</time>
      </trkpt>
      <trkpt lat="43.65906" lon="6.17695">
        <ele>612.58699</ele>
        <time>2026-03-24T09:37:04.007Z</time>
      </trkpt>
      <trkpt lat="43.65904" lon="6.17697">
        <ele>612.50778</ele>
        <time>2026-03-24T09:37:06.007Z</time>
      </trkpt>
      <trkpt lat="43.65902" lon="6.17701">
        <ele>612.42746</ele>
        <time>2026-03-24T09:37:09.007Z</time>
      </trkpt>
      <trkpt lat="43.65901" lon="6.17704">
        <ele>612.39823</ele>
        <time>2026-03-24T09:37:11.007Z</time>
      </trkpt>
      <trkpt lat="43.65898" lon="6.17706">
        <ele>612.36295</ele>
        <time>2026-03-24T09:37:13.007Z</time>
      </trkpt>
      <trkpt lat="43.65896" lon="6.17709">
        <ele>612.27837</ele>
        <time>2026-03-24T09:37:16.007Z</time>
      </trkpt>
      <trkpt lat="43.65894" lon="6.17713">
        <ele>612.2271</ele>
        <time>2026-03-24T09:37:18.007Z</time>
      </trkpt>
      <trkpt lat="43.65893" lon="6.17716">
        <ele>612.19547</ele>
        <time>2026-03-24T09:37:20.007Z</time>
      </trkpt>
      <trkpt lat="43.65891" lon="6.1772">
        <ele>612.12566</ele>
        <time>2026-03-24T09:37:23.007Z</time>
      </trkpt>
      <trkpt lat="43.65889" lon="6.17723">
        <ele>612.10372</ele>
        <time>2026-03-24T09:37:25.007Z</time>
      </trkpt>
      <trkpt lat="43.65888" lon="6.17726">
        <ele>612.08248</ele>
        <time>2026-03-24T09:37:27.007Z</time>
      </trkpt>
      <trkpt lat="43.65886" lon="6.17729">
        <ele>612.05517</ele>
        <time>2026-03-24T09:37:29.009Z</time>
      </trkpt>
      <trkpt lat="43.65884" lon="6.17733">
        <ele>612.01304</ele>
        <time>2026-03-24T09:37:32.008Z</time>
      </trkpt>
      <trkpt lat="43.65882" lon="6.17735">
        <ele>611.98813</ele>
        <time>2026-03-24T09:37:35.008Z</time>
      </trkpt>
      <trkpt lat="43.6588" lon="6.17739">
        <ele>611.97335</ele>
        <time>2026-03-24T09:37:37.009Z</time>
      </trkpt>
      <trkpt lat="43.65879" lon="6.17742">
        <ele>611.95905</ele>
        <time>2026-03-24T09:37:39.008Z</time>
      </trkpt>
      <trkpt lat="43.65877" lon="6.17745">
        <ele>611.95301</ele>
        <time>2026-03-24T09:37:41.008Z</time>
      </trkpt>
      <trkpt lat="43.65876" lon="6.17748">
        <ele>611.94603</ele>
        <time>2026-03-24T09:37:43.008Z</time>
      </trkpt>
      <trkpt lat="43.65874" lon="6.17752">
        <ele>611.93547</ele>
        <time>2026-03-24T09:37:45.008Z</time>
      </trkpt>
      <trkpt lat="43.65874" lon="6.17755">
        <ele>611.9128</ele>
        <time>2026-03-24T09:37:47.008Z</time>
      </trkpt>
      <trkpt lat="43.65872" lon="6.17758">
        <ele>611.89196</ele>
        <time>2026-03-24T09:37:49.008Z</time>
      </trkpt>
      <trkpt lat="43.6587" lon="6.17761">
        <ele>611.87155</ele>
        <time>2026-03-24T09:37:51.008Z</time>
      </trkpt>
      <trkpt lat="43.65868" lon="6.17763">
        <ele>611.80037</ele>
        <time>2026-03-24T09:38:00.008Z</time>
      </trkpt>
      <trkpt lat="43.65866" lon="6.17767">
        <ele>611.78583</ele>
        <time>2026-03-24T09:38:02.008Z</time>
      </trkpt>
      <trkpt lat="43.65864" lon="6.17771">
        <ele>611.75336</ele>
        <time>2026-03-24T09:38:05.008Z</time>
      </trkpt>
      <trkpt lat="43.65864" lon="6.17775">
        <ele>611.74258</ele>
        <time>2026-03-24T09:38:07.008Z</time>
      </trkpt>
      <trkpt lat="43.65863" lon="6.17778">
        <ele>611.73176</ele>
        <time>2026-03-24T09:38:09.008Z</time>
      </trkpt>
      <trkpt lat="43.65861" lon="6.17782">
        <ele>611.71994</ele>
        <time>2026-03-24T09:38:12.008Z</time>
      </trkpt>
      <trkpt lat="43.6586" lon="6.17785">
        <ele>611.70975</ele>
        <time>2026-03-24T09:38:14.008Z</time>
      </trkpt>
      <trkpt lat="43.65859" lon="6.17787">
        <ele>611.69972</ele>
        <time>2026-03-24T09:38:16.008Z</time>
      </trkpt>
      <trkpt lat="43.65857" lon="6.1779">
        <ele>611.68916</ele>
        <time>2026-03-24T09:38:18.008Z</time>
      </trkpt>
      <trkpt lat="43.65855" lon="6.17794">
        <ele>611.6592</ele>
        <time>2026-03-24T09:38:21.008Z</time>
      </trkpt>
      <trkpt lat="43.65855" lon="6.17798">
        <ele>611.63937</ele>
        <time>2026-03-24T09:38:23.008Z</time>
      </trkpt>
      <trkpt lat="43.65854" lon="6.17802">
        <ele>611.6162</ele>
        <time>2026-03-24T09:38:25.008Z</time>
      </trkpt>
      <trkpt lat="43.65853" lon="6.17805">
        <ele>611.59576</ele>
        <time>2026-03-24T09:38:27.008Z</time>
      </trkpt>
      <trkpt lat="43.65851" lon="6.17809">
        <ele>611.5744</ele>
        <time>2026-03-24T09:38:29.008Z</time>
      </trkpt>
      <trkpt lat="43.6585" lon="6.17812">
        <ele>611.53396</ele>
        <time>2026-03-24T09:38:32.008Z</time>
      </trkpt>
      <trkpt lat="43.65848" lon="6.17815">
        <ele>611.46802</ele>
        <time>2026-03-24T09:38:35.007Z</time>
      </trkpt>
      <trkpt lat="43.65846" lon="6.17817">
        <ele>611.43191</ele>
        <time>2026-03-24T09:38:37.007Z</time>
      </trkpt>
      <trkpt lat="43.65844" lon="6.1782">
        <ele>611.3638</ele>
        <time>2026-03-24T09:38:40.007Z</time>
      </trkpt>
      <trkpt lat="43.65843" lon="6.17825">
        <ele>611.14712</ele>
        <time>2026-03-24T09:38:52.007Z</time>
      </trkpt>
      <trkpt lat="43.65843" lon="6.17829">
        <ele>611.10766</ele>
        <time>2026-03-24T09:38:55.007Z</time>
      </trkpt>
      <trkpt lat="43.65841" lon="6.17832">
        <ele>611.07206</ele>
        <time>2026-03-24T09:38:58.007Z</time>
      </trkpt>
      <trkpt lat="43.6584" lon="6.17835">
        <ele>611.03686</ele>
        <time>2026-03-24T09:39:01.007Z</time>
      </trkpt>
      <trkpt lat="43.65838" lon="6.17838">
        <ele>610.99444</ele>
        <time>2026-03-24T09:39:04.007Z</time>
      </trkpt>
      <trkpt lat="43.65837" lon="6.17841">
        <ele>610.95413</ele>
        <time>2026-03-24T09:39:07.007Z</time>
      </trkpt>
      <trkpt lat="43.65836" lon="6.17845">
        <ele>610.91353</ele>
        <time>2026-03-24T09:39:10.007Z</time>
      </trkpt>
      <trkpt lat="43.65833" lon="6.17849">
        <ele>610.8585</ele>
        <time>2026-03-24T09:39:14.007Z</time>
      </trkpt>
      <trkpt lat="43.65831" lon="6.1785">
        <ele>610.8246</ele>
        <time>2026-03-24T09:39:16.007Z</time>
      </trkpt>
      <trkpt lat="43.65829" lon="6.17851">
        <ele>610.77834</ele>
        <time>2026-03-24T09:39:19.007Z</time>
      </trkpt>
      <trkpt lat="43.65827" lon="6.17854">
        <ele>610.70468</ele>
        <time>2026-03-24T09:39:23.007Z</time>
      </trkpt>
      <trkpt lat="43.65825" lon="6.17855">
        <ele>610.62883</ele>
        <time>2026-03-24T09:39:27.007Z</time>
      </trkpt>
      <trkpt lat="43.65824" lon="6.17859">
        <ele>610.57668</ele>
        <time>2026-03-24T09:39:30.007Z</time>
      </trkpt>
      <trkpt lat="43.65822" lon="6.17861">
        <ele>610.55239</ele>
        <time>2026-03-24T09:39:33.007Z</time>
      </trkpt>
      <trkpt lat="43.65821" lon="6.17866">
        <ele>610.52678</ele>
        <time>2026-03-24T09:39:35.008Z</time>
      </trkpt>
      <trkpt lat="43.65819" lon="6.1787">
        <ele>610.47463</ele>
        <time>2026-03-24T09:39:38.007Z</time>
      </trkpt>
      <trkpt lat="43.65817" lon="6.17873">
        <ele>610.41227</ele>
        <time>2026-03-24T09:39:42.008Z</time>
      </trkpt>
      <trkpt lat="43.65816" lon="6.17879">
        <ele>610.37398</ele>
        <time>2026-03-24T09:39:44.008Z</time>
      </trkpt>
      <trkpt lat="43.65816" lon="6.17883">
        <ele>610.35799</ele>
        <time>2026-03-24T09:39:45.007Z</time>
      </trkpt>
      <trkpt lat="43.65815" lon="6.17887">
        <ele>610.33083</ele>
        <time>2026-03-24T09:39:47.007Z</time>
      </trkpt>
      <trkpt lat="43.65814" lon="6.1789">
        <ele>610.29223</ele>
        <time>2026-03-24T09:39:49.008Z</time>
      </trkpt>
      <trkpt lat="43.65812" lon="6.17892">
        <ele>610.20182</ele>
        <time>2026-03-24T09:39:55.008Z</time>
      </trkpt>
      <trkpt lat="43.65811" lon="6.17895">
        <ele>610.18524</ele>
        <time>2026-03-24T09:39:56.008Z</time>
      </trkpt>
      <trkpt lat="43.6581" lon="6.179">
        <ele>610.15796</ele>
        <time>2026-03-24T09:39:58.008Z</time>
      </trkpt>
      <trkpt lat="43.65806" lon="6.17902">
        <ele>610.12143</ele>
        <time>2026-03-24T09:40:03.008Z</time>
      </trkpt>
      <trkpt lat="43.65805" lon="6.17905">
        <ele>610.05023</ele>
        <time>2026-03-24T09:40:08.008Z</time>
      </trkpt>
      <trkpt lat="43.65803" lon="6.17907">
        <ele>610.01891</ele>
        <time>2026-03-24T09:40:13.008Z</time>
      </trkpt>
      <trkpt lat="43.65802" lon="6.17911">
        <ele>609.96106</ele>
        <time>2026-03-24T09:40:16.008Z</time>
      </trkpt>
      <trkpt lat="43.65801" lon="6.17914">
        <ele>609.90954</ele>
        <time>2026-03-24T09:40:19.008Z</time>
      </trkpt>
      <trkpt lat="43.65797" lon="6.17917">
        <ele>609.87954</ele>
        <time>2026-03-24T09:40:23.008Z</time>
      </trkpt>
      <trkpt lat="43.65797" lon="6.1792">
        <ele>609.83202</ele>
        <time>2026-03-24T09:40:26.007Z</time>
      </trkpt>
      <trkpt lat="43.65795" lon="6.17923">
        <ele>609.8043</ele>
        <time>2026-03-24T09:40:28.007Z</time>
      </trkpt>
      <trkpt lat="43.65791" lon="6.17926">
        <ele>609.77529</ele>
        <time>2026-03-24T09:40:30.007Z</time>
      </trkpt>
      <trkpt lat="43.65787" lon="6.17928">
        <ele>609.71658</ele>
        <time>2026-03-24T09:40:34.007Z</time>
      </trkpt>
      <trkpt lat="43.65784" lon="6.1793">
        <ele>609.67616</ele>
        <time>2026-03-24T09:40:37.007Z</time>
      </trkpt>
      <trkpt lat="43.65782" lon="6.17933">
        <ele>609.6512</ele>
        <time>2026-03-24T09:40:39.007Z</time>
      </trkpt>
      <trkpt lat="43.65779" lon="6.17935">
        <ele>609.63287</ele>
        <time>2026-03-24T09:40:41.007Z</time>
      </trkpt>
      <trkpt lat="43.65778" lon="6.17939">
        <ele>609.59926</ele>
        <time>2026-03-24T09:40:44.007Z</time>
      </trkpt>
      <trkpt lat="43.65775" lon="6.17942">
        <ele>609.56036</ele>
        <time>2026-03-24T09:40:47.007Z</time>
      </trkpt>
      <trkpt lat="43.65773" lon="6.17945">
        <ele>609.53939</ele>
        <time>2026-03-24T09:40:49.007Z</time>
      </trkpt>
      <trkpt lat="43.65772" lon="6.17948">
        <ele>609.52306</ele>
        <time>2026-03-24T09:40:51.007Z</time>
      </trkpt>
      <trkpt lat="43.65772" lon="6.17952">
        <ele>609.50543</ele>
        <time>2026-03-24T09:40:54.007Z</time>
      </trkpt>
      <trkpt lat="43.65771" lon="6.17955">
        <ele>609.48831</ele>
        <time>2026-03-24T09:40:57.007Z</time>
      </trkpt>
      <trkpt lat="43.65774" lon="6.17955">
        <ele>609.43941</ele>
        <time>2026-03-24T09:41:08.007Z</time>
      </trkpt>
      <trkpt lat="43.65773" lon="6.17958">
        <ele>609.42591</ele>
        <time>2026-03-24T09:41:12.007Z</time>
      </trkpt>
      <trkpt lat="43.6577" lon="6.1796">
        <ele>609.42199</ele>
        <time>2026-03-24T09:41:14.007Z</time>
      </trkpt>
      <trkpt lat="43.6577" lon="6.17964">
        <ele>609.41623</ele>
        <time>2026-03-24T09:41:16.007Z</time>
      </trkpt>
      <trkpt lat="43.65768" lon="6.17966">
        <ele>609.40623</ele>
        <time>2026-03-24T09:41:19.007Z</time>
      </trkpt>
      <trkpt lat="43.65766" lon="6.17967">
        <ele>609.3892</ele>
        <time>2026-03-24T09:41:23.007Z</time>
      </trkpt>
      <trkpt lat="43.65763" lon="6.17971">
        <ele>609.37534</ele>
        <time>2026-03-24T09:41:26.007Z</time>
      </trkpt>
      <trkpt lat="43.65763" lon="6.17975">
        <ele>609.36631</ele>
        <time>2026-03-24T09:41:28.007Z</time>
      </trkpt>
      <trkpt lat="43.65762" lon="6.17978">
        <ele>609.36123</ele>
        <time>2026-03-24T09:41:29.007Z</time>
      </trkpt>
      <trkpt lat="43.6576" lon="6.17982">
        <ele>609.34675</ele>
        <time>2026-03-24T09:41:31.007Z</time>
      </trkpt>
      <trkpt lat="43.65758" lon="6.17985">
        <ele>609.32671</ele>
        <time>2026-03-24T09:41:33.007Z</time>
      </trkpt>
      <trkpt lat="43.65756" lon="6.17987">
        <ele>609.30161</ele>
        <time>2026-03-24T09:41:35.007Z</time>
      </trkpt>
      <trkpt lat="43.65754" lon="6.1799">
        <ele>609.27493</ele>
        <time>2026-03-24T09:41:37.007Z</time>
      </trkpt>
      <trkpt lat="43.65753" lon="6.17992">
        <ele>609.25227</ele>
        <time>2026-03-24T09:41:39.007Z</time>
      </trkpt>
      <trkpt lat="43.65751" lon="6.17995">
        <ele>609.22536</ele>
        <time>2026-03-24T09:41:41.006Z</time>
      </trkpt>
      <trkpt lat="43.6575" lon="6.17999">
        <ele>609.19221</ele>
        <time>2026-03-24T09:41:44.006Z</time>
      </trkpt>
      <trkpt lat="43.65748" lon="6.18002">
        <ele>609.17864</ele>
        <time>2026-03-24T09:41:46.005Z</time>
      </trkpt>
      <trkpt lat="43.65746" lon="6.18007">
        <ele>609.16392</ele>
        <time>2026-03-24T09:41:49.006Z</time>
      </trkpt>
      <trkpt lat="43.65744" lon="6.1801">
        <ele>609.15325</ele>
        <time>2026-03-24T09:41:52.006Z</time>
      </trkpt>
      <trkpt lat="43.65743" lon="6.18012">
        <ele>609.14383</ele>
        <time>2026-03-24T09:41:54.006Z</time>
      </trkpt>
      <trkpt lat="43.65741" lon="6.18016">
        <ele>609.13133</ele>
        <time>2026-03-24T09:41:56.006Z</time>
      </trkpt>
      <trkpt lat="43.65739" lon="6.18019">
        <ele>609.12522</ele>
        <time>2026-03-24T09:41:58.006Z</time>
      </trkpt>
      <trkpt lat="43.65737" lon="6.18023">
        <ele>609.10256</ele>
        <time>2026-03-24T09:42:01.006Z</time>
      </trkpt>
      <trkpt lat="43.65735" lon="6.18026">
        <ele>609.08832</ele>
        <time>2026-03-24T09:42:03.006Z</time>
      </trkpt>
      <trkpt lat="43.65734" lon="6.18029">
        <ele>609.07414</ele>
        <time>2026-03-24T09:42:05.005Z</time>
      </trkpt>
      <trkpt lat="43.65733" lon="6.18033">
        <ele>609.06086</ele>
        <time>2026-03-24T09:42:08.005Z</time>
      </trkpt>
      <trkpt lat="43.65732" lon="6.18037">
        <ele>609.04733</ele>
        <time>2026-03-24T09:42:10.005Z</time>
      </trkpt>
      <trkpt lat="43.6573" lon="6.1804">
        <ele>609.0303</ele>
        <time>2026-03-24T09:42:12.005Z</time>
      </trkpt>
      <trkpt lat="43.65729" lon="6.18045">
        <ele>609.0095</ele>
        <time>2026-03-24T09:42:15.005Z</time>
      </trkpt>
      <trkpt lat="43.65728" lon="6.18049">
        <ele>609.00028</ele>
        <time>2026-03-24T09:42:17.005Z</time>
      </trkpt>
      <trkpt lat="43.65726" lon="6.18051">
        <ele>608.99964</ele>
        <time>2026-03-24T09:42:19.005Z</time>
      </trkpt>
      <trkpt lat="43.65725" lon="6.18056">
        <ele>608.99961</ele>
        <time>2026-03-24T09:42:21.005Z</time>
      </trkpt>
      <trkpt lat="43.65723" lon="6.18059">
        <ele>608.98794</ele>
        <time>2026-03-24T09:42:24.005Z</time>
      </trkpt>
      <trkpt lat="43.65721" lon="6.18063">
        <ele>608.97863</ele>
        <time>2026-03-24T09:42:26.005Z</time>
      </trkpt>
      <trkpt lat="43.65718" lon="6.18066">
        <ele>608.9633</ele>
        <time>2026-03-24T09:42:29.005Z</time>
      </trkpt>
      <trkpt lat="43.65715" lon="6.1807">
        <ele>608.95283</ele>
        <time>2026-03-24T09:42:31.005Z</time>
      </trkpt>
      <trkpt lat="43.65713" lon="6.18073">
        <ele>608.94095</ele>
        <time>2026-03-24T09:42:34.005Z</time>
      </trkpt>
      <trkpt lat="43.65712" lon="6.18076">
        <ele>608.93075</ele>
        <time>2026-03-24T09:42:36.005Z</time>
      </trkpt>
      <trkpt lat="43.65711" lon="6.18079">
        <ele>608.91432</ele>
        <time>2026-03-24T09:42:38.005Z</time>
      </trkpt>
      <trkpt lat="43.65709" lon="6.18082">
        <ele>608.88767</ele>
        <time>2026-03-24T09:42:40.005Z</time>
      </trkpt>
      <trkpt lat="43.65708" lon="6.18085">
        <ele>608.86002</ele>
        <time>2026-03-24T09:42:42.005Z</time>
      </trkpt>
      <trkpt lat="43.65708" lon="6.18089">
        <ele>608.82766</ele>
        <time>2026-03-24T09:42:44.005Z</time>
      </trkpt>
      <trkpt lat="43.65706" lon="6.18092">
        <ele>608.78586</ele>
        <time>2026-03-24T09:42:46.005Z</time>
      </trkpt>
      <trkpt lat="43.65708" lon="6.18094">
        <ele>608.64433</ele>
        <time>2026-03-24T09:42:54.005Z</time>
      </trkpt>
      <trkpt lat="43.65705" lon="6.18094">
        <ele>608.4453</ele>
        <time>2026-03-24T09:43:22.005Z</time>
      </trkpt>
      <trkpt lat="43.65706" lon="6.18097">
        <ele>608.41555</ele>
        <time>2026-03-24T09:43:35.004Z</time>
      </trkpt>
      <trkpt lat="43.65708" lon="6.181">
        <ele>608.40779</ele>
        <time>2026-03-24T09:43:38.004Z</time>
      </trkpt>
      <trkpt lat="43.65709" lon="6.18103">
        <ele>608.39882</ele>
        <time>2026-03-24T09:43:41.004Z</time>
      </trkpt>
      <trkpt lat="43.6571" lon="6.18106">
        <ele>608.38707</ele>
        <time>2026-03-24T09:43:44.004Z</time>
      </trkpt>
      <trkpt lat="43.65713" lon="6.18107">
        <ele>608.37177</ele>
        <time>2026-03-24T09:43:46.004Z</time>
      </trkpt>
      <trkpt lat="43.65715" lon="6.1811">
        <ele>608.35101</ele>
        <time>2026-03-24T09:43:48.004Z</time>
      </trkpt>
      <trkpt lat="43.65717" lon="6.18113">
        <ele>608.31836</ele>
        <time>2026-03-24T09:43:50.005Z</time>
      </trkpt>
      <trkpt lat="43.65718" lon="6.18116">
        <ele>608.24408</ele>
        <time>2026-03-24T09:43:53.004Z</time>
      </trkpt>
      <trkpt lat="43.65719" lon="6.18119">
        <ele>608.11394</ele>
        <time>2026-03-24T09:43:56.004Z</time>
      </trkpt>
      <trkpt lat="43.6572" lon="6.18122">
        <ele>607.994</ele>
        <time>2026-03-24T09:43:58.004Z</time>
      </trkpt>
      <trkpt lat="43.65721" lon="6.18126">
        <ele>607.83503</ele>
        <time>2026-03-24T09:44:01.005Z</time>
      </trkpt>
      <trkpt lat="43.65724" lon="6.1813">
        <ele>607.65874</ele>
        <time>2026-03-24T09:44:04.005Z</time>
      </trkpt>
      <trkpt lat="43.65726" lon="6.18133">
        <ele>607.55432</ele>
        <time>2026-03-24T09:44:06.005Z</time>
      </trkpt>
      <trkpt lat="43.65726" lon="6.18136">
        <ele>607.41548</ele>
        <time>2026-03-24T09:44:08.004Z</time>
      </trkpt>
      <trkpt lat="43.65726" lon="6.18139">
        <ele>607.26266</ele>
        <time>2026-03-24T09:44:10.004Z</time>
      </trkpt>
      <trkpt lat="43.65727" lon="6.18143">
        <ele>606.95723</ele>
        <time>2026-03-24T09:44:13.004Z</time>
      </trkpt>
      <trkpt lat="43.65728" lon="6.18146">
        <ele>606.76688</ele>
        <time>2026-03-24T09:44:15.004Z</time>
      </trkpt>
      <trkpt lat="43.65728" lon="6.18151">
        <ele>606.50016</ele>
        <time>2026-03-24T09:44:18.004Z</time>
      </trkpt>
      <trkpt lat="43.65728" lon="6.18154">
        <ele>606.34616</ele>
        <time>2026-03-24T09:44:20.004Z</time>
      </trkpt>
      <trkpt lat="43.65727" lon="6.18157">
        <ele>606.11475</ele>
        <time>2026-03-24T09:44:23.004Z</time>
      </trkpt>
      <trkpt lat="43.65725" lon="6.1816">
        <ele>605.94951</ele>
        <time>2026-03-24T09:44:26.004Z</time>
      </trkpt>
      <trkpt lat="43.65725" lon="6.18164">
        <ele>605.86228</ele>
        <time>2026-03-24T09:44:28.004Z</time>
      </trkpt>
      <trkpt lat="43.65725" lon="6.18168">
        <ele>605.73486</ele>
        <time>2026-03-24T09:44:30.004Z</time>
      </trkpt>
      <trkpt lat="43.65725" lon="6.18171">
        <ele>605.62753</ele>
        <time>2026-03-24T09:44:32.004Z</time>
      </trkpt>
      <trkpt lat="43.65724" lon="6.18174">
        <ele>605.52369</ele>
        <time>2026-03-24T09:44:34.004Z</time>
      </trkpt>
      <trkpt lat="43.65722" lon="6.18177">
        <ele>605.46172</ele>
        <time>2026-03-24T09:44:36.004Z</time>
      </trkpt>
      <trkpt lat="43.65721" lon="6.1818">
        <ele>605.39863</ele>
        <time>2026-03-24T09:44:38.004Z</time>
      </trkpt>
      <trkpt lat="43.6572" lon="6.18184">
        <ele>605.36642</ele>
        <time>2026-03-24T09:44:40.004Z</time>
      </trkpt>
      <trkpt lat="43.65718" lon="6.18188">
        <ele>605.27742</ele>
        <time>2026-03-24T09:44:43.004Z</time>
      </trkpt>
      <trkpt lat="43.65717" lon="6.18192">
        <ele>605.22807</ele>
        <time>2026-03-24T09:44:46.004Z</time>
      </trkpt>
      <trkpt lat="43.65717" lon="6.18195">
        <ele>605.18913</ele>
        <time>2026-03-24T09:44:48.004Z</time>
      </trkpt>
      <trkpt lat="43.65716" lon="6.182">
        <ele>605.11949</ele>
        <time>2026-03-24T09:44:51.004Z</time>
      </trkpt>
      <trkpt lat="43.65715" lon="6.18203">
        <ele>605.07532</ele>
        <time>2026-03-24T09:44:53.004Z</time>
      </trkpt>
      <trkpt lat="43.65714" lon="6.18206">
        <ele>605.02632</ele>
        <time>2026-03-24T09:44:55.004Z</time>
      </trkpt>
      <trkpt lat="43.65714" lon="6.18209">
        <ele>604.97106</ele>
        <time>2026-03-24T09:44:57.004Z</time>
      </trkpt>
      <trkpt lat="43.65713" lon="6.18213">
        <ele>604.92183</ele>
        <time>2026-03-24T09:44:59.004Z</time>
      </trkpt>
      <trkpt lat="43.65712" lon="6.18216">
        <ele>604.84017</ele>
        <time>2026-03-24T09:45:02.004Z</time>
      </trkpt>
      <trkpt lat="43.65711" lon="6.18219">
        <ele>604.79184</ele>
        <time>2026-03-24T09:45:04.004Z</time>
      </trkpt>
      <trkpt lat="43.6571" lon="6.18222">
        <ele>604.7416</ele>
        <time>2026-03-24T09:45:06.004Z</time>
      </trkpt>
      <trkpt lat="43.6571" lon="6.18226">
        <ele>604.69206</ele>
        <time>2026-03-24T09:45:08.004Z</time>
      </trkpt>
      <trkpt lat="43.65709" lon="6.18229">
        <ele>604.65281</ele>
        <time>2026-03-24T09:45:10.004Z</time>
      </trkpt>
      <trkpt lat="43.65708" lon="6.18231">
        <ele>604.6016</ele>
        <time>2026-03-24T09:45:12.004Z</time>
      </trkpt>
      <trkpt lat="43.65706" lon="6.18234">
        <ele>604.53855</ele>
        <time>2026-03-24T09:45:14.004Z</time>
      </trkpt>
      <trkpt lat="43.65704" lon="6.18238">
        <ele>604.43196</ele>
        <time>2026-03-24T09:45:17.004Z</time>
      </trkpt>
      <trkpt lat="43.65702" lon="6.1824">
        <ele>604.37021</ele>
        <time>2026-03-24T09:45:19.004Z</time>
      </trkpt>
      <trkpt lat="43.657" lon="6.18243">
        <ele>604.29741</ele>
        <time>2026-03-24T09:45:21.004Z</time>
      </trkpt>
      <trkpt lat="43.65698" lon="6.18245">
        <ele>604.24121</ele>
        <time>2026-03-24T09:45:23.004Z</time>
      </trkpt>
      <trkpt lat="43.65697" lon="6.18248">
        <ele>604.21071</ele>
        <time>2026-03-24T09:45:25.004Z</time>
      </trkpt>
      <trkpt lat="43.65696" lon="6.18251">
        <ele>604.16805</ele>
        <time>2026-03-24T09:45:27.004Z</time>
      </trkpt>
      <trkpt lat="43.65694" lon="6.18253">
        <ele>604.10763</ele>
        <time>2026-03-24T09:45:29.004Z</time>
      </trkpt>
      <trkpt lat="43.65692" lon="6.18258">
        <ele>604.01878</ele>
        <time>2026-03-24T09:45:32.004Z</time>
      </trkpt>
      <trkpt lat="43.65691" lon="6.18261">
        <ele>603.96591</ele>
        <time>2026-03-24T09:45:34.004Z</time>
      </trkpt>
      <trkpt lat="43.65689" lon="6.18264">
        <ele>603.91621</ele>
        <time>2026-03-24T09:45:36.004Z</time>
      </trkpt>
      <trkpt lat="43.65688" lon="6.18268">
        <ele>603.8483</ele>
        <time>2026-03-24T09:45:39.004Z</time>
      </trkpt>
      <trkpt lat="43.65687" lon="6.18271">
        <ele>603.81121</ele>
        <time>2026-03-24T09:45:41.004Z</time>
      </trkpt>
      <trkpt lat="43.65686" lon="6.18274">
        <ele>603.78214</ele>
        <time>2026-03-24T09:45:43.003Z</time>
      </trkpt>
      <trkpt lat="43.65684" lon="6.18277">
        <ele>603.74455</ele>
        <time>2026-03-24T09:45:45.003Z</time>
      </trkpt>
      <trkpt lat="43.65683" lon="6.18281">
        <ele>603.70649</ele>
        <time>2026-03-24T09:45:48.003Z</time>
      </trkpt>
      <trkpt lat="43.65684" lon="6.18285">
        <ele>603.68367</ele>
        <time>2026-03-24T09:45:50.003Z</time>
      </trkpt>
      <trkpt lat="43.65682" lon="6.18289">
        <ele>603.63793</ele>
        <time>2026-03-24T09:45:53.003Z</time>
      </trkpt>
      <trkpt lat="43.65682" lon="6.18292">
        <ele>603.61273</ele>
        <time>2026-03-24T09:45:55.003Z</time>
      </trkpt>
      <trkpt lat="43.65679" lon="6.18295">
        <ele>603.55176</ele>
        <time>2026-03-24T09:45:58.003Z</time>
      </trkpt>
      <trkpt lat="43.65678" lon="6.18297">
        <ele>603.5229</ele>
        <time>2026-03-24T09:46:00.004Z</time>
      </trkpt>
      <trkpt lat="43.65677" lon="6.183">
        <ele>603.48564</ele>
        <time>2026-03-24T09:46:02.004Z</time>
      </trkpt>
      <trkpt lat="43.65675" lon="6.18302">
        <ele>603.44489</ele>
        <time>2026-03-24T09:46:04.003Z</time>
      </trkpt>
      <trkpt lat="43.65673" lon="6.18305">
        <ele>603.3877</ele>
        <time>2026-03-24T09:46:07.003Z</time>
      </trkpt>
      <trkpt lat="43.65671" lon="6.18306">
        <ele>603.35434</ele>
        <time>2026-03-24T09:46:09.003Z</time>
      </trkpt>
      <trkpt lat="43.6567" lon="6.1831">
        <ele>603.3169</ele>
        <time>2026-03-24T09:46:11.003Z</time>
      </trkpt>
      <trkpt lat="43.65669" lon="6.18315">
        <ele>603.26004</ele>
        <time>2026-03-24T09:46:14.003Z</time>
      </trkpt>
      <trkpt lat="43.6567" lon="6.18318">
        <ele>603.22766</ele>
        <time>2026-03-24T09:46:16.003Z</time>
      </trkpt>
      <trkpt lat="43.6567" lon="6.18321">
        <ele>603.18329</ele>
        <time>2026-03-24T09:46:20.003Z</time>
      </trkpt>
      <trkpt lat="43.65667" lon="6.18322">
        <ele>603.16779</ele>
        <time>2026-03-24T09:46:22.003Z</time>
      </trkpt>
      <trkpt lat="43.65666" lon="6.18326">
        <ele>603.15667</ele>
        <time>2026-03-24T09:46:24.003Z</time>
      </trkpt>
      <trkpt lat="43.65664" lon="6.18329">
        <ele>603.14606</ele>
        <time>2026-03-24T09:46:26.003Z</time>
      </trkpt>
      <trkpt lat="43.65662" lon="6.18332">
        <ele>603.13744</ele>
        <time>2026-03-24T09:46:28.003Z</time>
      </trkpt>
      <trkpt lat="43.65661" lon="6.18335">
        <ele>603.12582</ele>
        <time>2026-03-24T09:46:30.002Z</time>
      </trkpt>
      <trkpt lat="43.6566" lon="6.18339">
        <ele>603.10618</ele>
        <time>2026-03-24T09:46:32.002Z</time>
      </trkpt>
      <trkpt lat="43.65659" lon="6.18343">
        <ele>603.07219</ele>
        <time>2026-03-24T09:46:35.002Z</time>
      </trkpt>
      <trkpt lat="43.65658" lon="6.18347">
        <ele>602.99897</ele>
        <time>2026-03-24T09:46:38.002Z</time>
      </trkpt>
      <trkpt lat="43.65658" lon="6.18351">
        <ele>602.93998</ele>
        <time>2026-03-24T09:46:40.002Z</time>
      </trkpt>
      <trkpt lat="43.65656" lon="6.18355">
        <ele>602.87167</ele>
        <time>2026-03-24T09:46:42.002Z</time>
      </trkpt>
      <trkpt lat="43.65656" lon="6.18358">
        <ele>602.8016</ele>
        <time>2026-03-24T09:46:44.002Z</time>
      </trkpt>
      <trkpt lat="43.65654" lon="6.18362">
        <ele>602.69535</ele>
        <time>2026-03-24T09:46:47.002Z</time>
      </trkpt>
      <trkpt lat="43.65652" lon="6.18365">
        <ele>602.63723</ele>
        <time>2026-03-24T09:46:49.002Z</time>
      </trkpt>
      <trkpt lat="43.65651" lon="6.18368">
        <ele>602.58213</ele>
        <time>2026-03-24T09:46:51.002Z</time>
      </trkpt>
      <trkpt lat="43.65651" lon="6.18373">
        <ele>602.5042</ele>
        <time>2026-03-24T09:46:54.002Z</time>
      </trkpt>
      <trkpt lat="43.65651" lon="6.18377">
        <ele>602.43583</ele>
        <time>2026-03-24T09:46:57.002Z</time>
      </trkpt>
      <trkpt lat="43.6565" lon="6.1838">
        <ele>602.38961</ele>
        <time>2026-03-24T09:46:59.002Z</time>
      </trkpt>
      <trkpt lat="43.6565" lon="6.18384">
        <ele>602.34564</ele>
        <time>2026-03-24T09:47:01.002Z</time>
      </trkpt>
      <trkpt lat="43.65649" lon="6.18388">
        <ele>602.28637</ele>
        <time>2026-03-24T09:47:04.002Z</time>
      </trkpt>
      <trkpt lat="43.65649" lon="6.18393">
        <ele>602.24103</ele>
        <time>2026-03-24T09:47:06.002Z</time>
      </trkpt>
      <trkpt lat="43.6565" lon="6.18398">
        <ele>602.16676</ele>
        <time>2026-03-24T09:47:09.002Z</time>
      </trkpt>
      <trkpt lat="43.6565" lon="6.18402">
        <ele>602.10868</ele>
        <time>2026-03-24T09:47:11.002Z</time>
      </trkpt>
      <trkpt lat="43.6565" lon="6.18405">
        <ele>602.04781</ele>
        <time>2026-03-24T09:47:13.002Z</time>
      </trkpt>
      <trkpt lat="43.6565" lon="6.18409">
        <ele>601.96378</ele>
        <time>2026-03-24T09:47:15.002Z</time>
      </trkpt>
      <trkpt lat="43.65649" lon="6.18413">
        <ele>601.87266</ele>
        <time>2026-03-24T09:47:17.002Z</time>
      </trkpt>
      <trkpt lat="43.65648" lon="6.18416">
        <ele>601.79517</ele>
        <time>2026-03-24T09:47:19.002Z</time>
      </trkpt>
      <trkpt lat="43.65648" lon="6.18419">
        <ele>601.72762</ele>
        <time>2026-03-24T09:47:21.002Z</time>
      </trkpt>
      <trkpt lat="43.65648" lon="6.18423">
        <ele>601.64624</ele>
        <time>2026-03-24T09:47:23.002Z</time>
      </trkpt>
      <trkpt lat="43.65646" lon="6.18428">
        <ele>601.55818</ele>
        <time>2026-03-24T09:47:26.002Z</time>
      </trkpt>
      <trkpt lat="43.65647" lon="6.18432">
        <ele>601.40996</ele>
        <time>2026-03-24T09:47:29.002Z</time>
      </trkpt>
      <trkpt lat="43.65646" lon="6.18435">
        <ele>601.25232</ele>
        <time>2026-03-24T09:47:32.002Z</time>
      </trkpt>
      <trkpt lat="43.65644" lon="6.18439">
        <ele>601.13712</ele>
        <time>2026-03-24T09:47:34.002Z</time>
      </trkpt>
      <trkpt lat="43.65644" lon="6.18443">
        <ele>601.03558</ele>
        <time>2026-03-24T09:47:36.002Z</time>
      </trkpt>
      <trkpt lat="43.65643" lon="6.18446">
        <ele>600.90437</ele>
        <time>2026-03-24T09:47:38.002Z</time>
      </trkpt>
      <trkpt lat="43.65643" lon="6.18449">
        <ele>600.67819</ele>
        <time>2026-03-24T09:47:40.002Z</time>
      </trkpt>
      <trkpt lat="43.65643" lon="6.18453">
        <ele>600.26924</ele>
        <time>2026-03-24T09:47:43.002Z</time>
      </trkpt>
      <trkpt lat="43.65641" lon="6.18457">
        <ele>600.0018</ele>
        <time>2026-03-24T09:47:45.002Z</time>
      </trkpt>
      <trkpt lat="43.65641" lon="6.18461">
        <ele>599.76648</ele>
        <time>2026-03-24T09:47:47.002Z</time>
      </trkpt>
      <trkpt lat="43.65639" lon="6.18463">
        <ele>599.58399</ele>
        <time>2026-03-24T09:47:49.002Z</time>
      </trkpt>
      <trkpt lat="43.65638" lon="6.18466">
        <ele>599.40456</ele>
        <time>2026-03-24T09:47:51.002Z</time>
      </trkpt>
      <trkpt lat="43.65637" lon="6.18469">
        <ele>599.25139</ele>
        <time>2026-03-24T09:47:53.002Z</time>
      </trkpt>
      <trkpt lat="43.65637" lon="6.18473">
        <ele>599.08107</ele>
        <time>2026-03-24T09:47:55.002Z</time>
      </trkpt>
      <trkpt lat="43.65636" lon="6.18477">
        <ele>598.85733</ele>
        <time>2026-03-24T09:47:58.002Z</time>
      </trkpt>
      <trkpt lat="43.65635" lon="6.1848">
        <ele>598.68633</ele>
        <time>2026-03-24T09:48:01.002Z</time>
      </trkpt>
      <trkpt lat="43.65634" lon="6.18484">
        <ele>598.61331</ele>
        <time>2026-03-24T09:48:03.002Z</time>
      </trkpt>
      <trkpt lat="43.65634" lon="6.18487">
        <ele>598.50862</ele>
        <time>2026-03-24T09:48:05.002Z</time>
      </trkpt>
      <trkpt lat="43.65632" lon="6.1849">
        <ele>598.41428</ele>
        <time>2026-03-24T09:48:07.002Z</time>
      </trkpt>
      <trkpt lat="43.6563" lon="6.18494">
        <ele>598.34598</ele>
        <time>2026-03-24T09:48:09.002Z</time>
      </trkpt>
      <trkpt lat="43.6563" lon="6.18498">
        <ele>598.31329</ele>
        <time>2026-03-24T09:48:11.003Z</time>
      </trkpt>
      <trkpt lat="43.65628" lon="6.18502">
        <ele>598.2902</ele>
        <time>2026-03-24T09:48:13.002Z</time>
      </trkpt>
      <trkpt lat="43.65628" lon="6.18506">
        <ele>598.25276</ele>
        <time>2026-03-24T09:48:15.002Z</time>
      </trkpt>
      <trkpt lat="43.65627" lon="6.1851">
        <ele>598.18823</ele>
        <time>2026-03-24T09:48:18.002Z</time>
      </trkpt>
      <trkpt lat="43.65626" lon="6.18514">
        <ele>598.12309</ele>
        <time>2026-03-24T09:48:21.002Z</time>
      </trkpt>
      <trkpt lat="43.65624" lon="6.18517">
        <ele>598.07251</ele>
        <time>2026-03-24T09:48:23.002Z</time>
      </trkpt>
      <trkpt lat="43.65621" lon="6.1852">
        <ele>598.0376</ele>
        <time>2026-03-24T09:48:25.002Z</time>
      </trkpt>
      <trkpt lat="43.65619" lon="6.18522">
        <ele>598.00252</ele>
        <time>2026-03-24T09:48:27.002Z</time>
      </trkpt>
      <trkpt lat="43.65617" lon="6.18526">
        <ele>597.94093</ele>
        <time>2026-03-24T09:48:30.002Z</time>
      </trkpt>
      <trkpt lat="43.65615" lon="6.18529">
        <ele>597.83766</ele>
        <time>2026-03-24T09:48:33.002Z</time>
      </trkpt>
      <trkpt lat="43.65612" lon="6.18533">
        <ele>597.7705</ele>
        <time>2026-03-24T09:48:35.002Z</time>
      </trkpt>
      <trkpt lat="43.65611" lon="6.18536">
        <ele>597.69271</ele>
        <time>2026-03-24T09:48:37.002Z</time>
      </trkpt>
      <trkpt lat="43.65609" lon="6.18538">
        <ele>597.60068</ele>
        <time>2026-03-24T09:48:39.002Z</time>
      </trkpt>
      <trkpt lat="43.65606" lon="6.1854">
        <ele>597.528</ele>
        <time>2026-03-24T09:48:41.002Z</time>
      </trkpt>
      <trkpt lat="43.65604" lon="6.18543">
        <ele>597.43288</ele>
        <time>2026-03-24T09:48:44.002Z</time>
      </trkpt>
      <trkpt lat="43.65602" lon="6.18545">
        <ele>597.38967</ele>
        <time>2026-03-24T09:48:46.002Z</time>
      </trkpt>
      <trkpt lat="43.65599" lon="6.18548">
        <ele>597.32043</ele>
        <time>2026-03-24T09:48:48.002Z</time>
      </trkpt>
      <trkpt lat="43.65597" lon="6.18551">
        <ele>597.22319</ele>
        <time>2026-03-24T09:48:50.002Z</time>
      </trkpt>
      <trkpt lat="43.65594" lon="6.18553">
        <ele>597.1265</ele>
        <time>2026-03-24T09:48:52.002Z</time>
      </trkpt>
      <trkpt lat="43.65592" lon="6.18555">
        <ele>597.05018</ele>
        <time>2026-03-24T09:48:54.002Z</time>
      </trkpt>
      <trkpt lat="43.6559" lon="6.18558">
        <ele>596.96962</ele>
        <time>2026-03-24T09:48:56.002Z</time>
      </trkpt>
      <trkpt lat="43.65589" lon="6.18561">
        <ele>596.91614</ele>
        <time>2026-03-24T09:48:58.002Z</time>
      </trkpt>
      <trkpt lat="43.65587" lon="6.18563">
        <ele>596.8245</ele>
        <time>2026-03-24T09:49:01.002Z</time>
      </trkpt>
      <trkpt lat="43.65586" lon="6.18566">
        <ele>596.78399</ele>
        <time>2026-03-24T09:49:03.002Z</time>
      </trkpt>
      <trkpt lat="43.65584" lon="6.18569">
        <ele>596.71136</ele>
        <time>2026-03-24T09:49:07.002Z</time>
      </trkpt>
      <trkpt lat="43.65584" lon="6.18572">
        <ele>596.68976</ele>
        <time>2026-03-24T09:49:09.002Z</time>
      </trkpt>
      <trkpt lat="43.65584" lon="6.18576">
        <ele>596.67858</ele>
        <time>2026-03-24T09:49:11.002Z</time>
      </trkpt>
      <trkpt lat="43.65583" lon="6.1858">
        <ele>596.67214</ele>
        <time>2026-03-24T09:49:13.002Z</time>
      </trkpt>
      <trkpt lat="43.65583" lon="6.18584">
        <ele>596.65756</ele>
        <time>2026-03-24T09:49:15.002Z</time>
      </trkpt>
      <trkpt lat="43.65581" lon="6.18587">
        <ele>596.64606</ele>
        <time>2026-03-24T09:49:17.002Z</time>
      </trkpt>
      <trkpt lat="43.65581" lon="6.18591">
        <ele>596.61916</ele>
        <time>2026-03-24T09:49:19.002Z</time>
      </trkpt>
      <trkpt lat="43.65581" lon="6.18594">
        <ele>596.58333</ele>
        <time>2026-03-24T09:49:21.002Z</time>
      </trkpt>
      <trkpt lat="43.6558" lon="6.18598">
        <ele>596.55023</ele>
        <time>2026-03-24T09:49:23.002Z</time>
      </trkpt>
      <trkpt lat="43.6558" lon="6.18602">
        <ele>596.51442</ele>
        <time>2026-03-24T09:49:25.002Z</time>
      </trkpt>
      <trkpt lat="43.6558" lon="6.18605">
        <ele>596.48202</ele>
        <time>2026-03-24T09:49:28.002Z</time>
      </trkpt>
      <trkpt lat="43.6558" lon="6.18609">
        <ele>596.45439</ele>
        <time>2026-03-24T09:49:30.002Z</time>
      </trkpt>
      <trkpt lat="43.6558" lon="6.18612">
        <ele>596.42244</ele>
        <time>2026-03-24T09:49:32.001Z</time>
      </trkpt>
      <trkpt lat="43.6558" lon="6.18617">
        <ele>596.38816</ele>
        <time>2026-03-24T09:49:34.001Z</time>
      </trkpt>
      <trkpt lat="43.6558" lon="6.1862">
        <ele>596.3508</ele>
        <time>2026-03-24T09:49:36.001Z</time>
      </trkpt>
      <trkpt lat="43.65579" lon="6.18623">
        <ele>596.30918</ele>
        <time>2026-03-24T09:49:38.001Z</time>
      </trkpt>
      <trkpt lat="43.6558" lon="6.18628">
        <ele>596.26834</ele>
        <time>2026-03-24T09:49:40.001Z</time>
      </trkpt>
      <trkpt lat="43.6558" lon="6.18632">
        <ele>596.25794</ele>
        <time>2026-03-24T09:49:42.001Z</time>
      </trkpt>
      <trkpt lat="43.65579" lon="6.18636">
        <ele>596.22897</ele>
        <time>2026-03-24T09:49:44.001Z</time>
      </trkpt>
      <trkpt lat="43.65579" lon="6.1864">
        <ele>596.15434</ele>
        <time>2026-03-24T09:49:46.001Z</time>
      </trkpt>
      <trkpt lat="43.65578" lon="6.18644">
        <ele>596.07699</ele>
        <time>2026-03-24T09:49:48.001Z</time>
      </trkpt>
      <trkpt lat="43.65579" lon="6.18648">
        <ele>595.97511</ele>
        <time>2026-03-24T09:49:50.001Z</time>
      </trkpt>
      <trkpt lat="43.65579" lon="6.18652">
        <ele>595.86915</ele>
        <time>2026-03-24T09:49:52.001Z</time>
      </trkpt>
      <trkpt lat="43.65579" lon="6.18655">
        <ele>595.77165</ele>
        <time>2026-03-24T09:49:54.001Z</time>
      </trkpt>
      <trkpt lat="43.65578" lon="6.18659">
        <ele>595.65473</ele>
        <time>2026-03-24T09:49:56.001Z</time>
      </trkpt>
      <trkpt lat="43.65577" lon="6.18662">
        <ele>595.51883</ele>
        <time>2026-03-24T09:49:58.001Z</time>
      </trkpt>
      <trkpt lat="43.65578" lon="6.18667">
        <ele>595.38051</ele>
        <time>2026-03-24T09:50:00.001Z</time>
      </trkpt>
      <trkpt lat="43.65577" lon="6.18671">
        <ele>595.25039</ele>
        <time>2026-03-24T09:50:02.001Z</time>
      </trkpt>
      <trkpt lat="43.65577" lon="6.18674">
        <ele>595.14187</ele>
        <time>2026-03-24T09:50:04.001Z</time>
      </trkpt>
      <trkpt lat="43.65578" lon="6.18679">
        <ele>594.91356</ele>
        <time>2026-03-24T09:50:07.002Z</time>
      </trkpt>
      <trkpt lat="43.65578" lon="6.18683">
        <ele>594.76402</ele>
        <time>2026-03-24T09:50:09.001Z</time>
      </trkpt>
      <trkpt lat="43.65578" lon="6.18687">
        <ele>594.62082</ele>
        <time>2026-03-24T09:50:11.001Z</time>
      </trkpt>
      <trkpt lat="43.65577" lon="6.18691">
        <ele>594.50942</ele>
        <time>2026-03-24T09:50:13.001Z</time>
      </trkpt>
      <trkpt lat="43.65576" lon="6.18695">
        <ele>594.41765</ele>
        <time>2026-03-24T09:50:15.001Z</time>
      </trkpt>
      <trkpt lat="43.65576" lon="6.18698">
        <ele>594.29729</ele>
        <time>2026-03-24T09:50:17.001Z</time>
      </trkpt>
      <trkpt lat="43.65575" lon="6.18703">
        <ele>594.15662</ele>
        <time>2026-03-24T09:50:20.001Z</time>
      </trkpt>
      <trkpt lat="43.65574" lon="6.18707">
        <ele>594.09969</ele>
        <time>2026-03-24T09:50:22.001Z</time>
      </trkpt>
      <trkpt lat="43.65574" lon="6.18711">
        <ele>594.02313</ele>
        <time>2026-03-24T09:50:24.001Z</time>
      </trkpt>
      <trkpt lat="43.65574" lon="6.18715">
        <ele>593.93665</ele>
        <time>2026-03-24T09:50:26.001Z</time>
      </trkpt>
      <trkpt lat="43.65573" lon="6.1872">
        <ele>593.83121</ele>
        <time>2026-03-24T09:50:29.001Z</time>
      </trkpt>
      <trkpt lat="43.65572" lon="6.18724">
        <ele>593.69268</ele>
        <time>2026-03-24T09:50:32.001Z</time>
      </trkpt>
      <trkpt lat="43.6557" lon="6.18728">
        <ele>593.56745</ele>
        <time>2026-03-24T09:50:35.001Z</time>
      </trkpt>
      <trkpt lat="43.65569" lon="6.18732">
        <ele>593.50714</ele>
        <time>2026-03-24T09:50:37.001Z</time>
      </trkpt>
      <trkpt lat="43.65568" lon="6.18736">
        <ele>593.34037</ele>
        <time>2026-03-24T09:50:40.001Z</time>
      </trkpt>
      <trkpt lat="43.65566" lon="6.18739">
        <ele>593.19151</ele>
        <time>2026-03-24T09:50:42.001Z</time>
      </trkpt>
      <trkpt lat="43.65565" lon="6.18743">
        <ele>593.0737</ele>
        <time>2026-03-24T09:50:44.001Z</time>
      </trkpt>
      <trkpt lat="43.65563" lon="6.18747">
        <ele>592.96943</ele>
        <time>2026-03-24T09:50:46.001Z</time>
      </trkpt>
      <trkpt lat="43.65562" lon="6.1875">
        <ele>592.79752</ele>
        <time>2026-03-24T09:50:49.001Z</time>
      </trkpt>
      <trkpt lat="43.6556" lon="6.18754">
        <ele>592.64792</ele>
        <time>2026-03-24T09:50:51.001Z</time>
      </trkpt>
      <trkpt lat="43.65559" lon="6.18757">
        <ele>592.49819</ele>
        <time>2026-03-24T09:50:53.001Z</time>
      </trkpt>
      <trkpt lat="43.65556" lon="6.18761">
        <ele>592.34299</ele>
        <time>2026-03-24T09:50:56.001Z</time>
      </trkpt>
      <trkpt lat="43.65555" lon="6.18763">
        <ele>592.21744</ele>
        <time>2026-03-24T09:50:58.001Z</time>
      </trkpt>
      <trkpt lat="43.65553" lon="6.18767">
        <ele>592.03343</ele>
        <time>2026-03-24T09:51:01.001Z</time>
      </trkpt>
      <trkpt lat="43.6555" lon="6.1877">
        <ele>591.93712</ele>
        <time>2026-03-24T09:51:03.001Z</time>
      </trkpt>
      <trkpt lat="43.65548" lon="6.18772">
        <ele>591.81865</ele>
        <time>2026-03-24T09:51:05.001Z</time>
      </trkpt>
      <trkpt lat="43.65545" lon="6.18773">
        <ele>591.72404</ele>
        <time>2026-03-24T09:51:07.001Z</time>
      </trkpt>
      <trkpt lat="43.65542" lon="6.18776">
        <ele>591.66755</ele>
        <time>2026-03-24T09:51:09.001Z</time>
      </trkpt>
      <trkpt lat="43.65539" lon="6.18776">
        <ele>591.60187</ele>
        <time>2026-03-24T09:51:11.000Z</time>
      </trkpt>
      <trkpt lat="43.65537" lon="6.18777">
        <ele>591.53208</ele>
        <time>2026-03-24T09:51:13.000Z</time>
      </trkpt>
      <trkpt lat="43.65534" lon="6.18778">
        <ele>591.47564</ele>
        <time>2026-03-24T09:51:15.000Z</time>
      </trkpt>
      <trkpt lat="43.65531" lon="6.18778">
        <ele>591.43012</ele>
        <time>2026-03-24T09:51:17.000Z</time>
      </trkpt>
      <trkpt lat="43.65529" lon="6.1878">
        <ele>591.3741</ele>
        <time>2026-03-24T09:51:19.000Z</time>
      </trkpt>
      <trkpt lat="43.65526" lon="6.1878">
        <ele>591.31088</ele>
        <time>2026-03-24T09:51:21.000Z</time>
      </trkpt>
      <trkpt lat="43.65522" lon="6.1878">
        <ele>591.26601</ele>
        <time>2026-03-24T09:51:23.000Z</time>
      </trkpt>
      <trkpt lat="43.6552" lon="6.18781">
        <ele>591.22533</ele>
        <time>2026-03-24T09:51:25.000Z</time>
      </trkpt>
      <trkpt lat="43.65516" lon="6.18782">
        <ele>591.14388</ele>
        <time>2026-03-24T09:51:28.000Z</time>
      </trkpt>
      <trkpt lat="43.65514" lon="6.18783">
        <ele>591.08852</ele>
        <time>2026-03-24T09:51:30.000Z</time>
      </trkpt>
      <trkpt lat="43.65511" lon="6.18784">
        <ele>591.0468</ele>
        <time>2026-03-24T09:51:32.000Z</time>
      </trkpt>
      <trkpt lat="43.65508" lon="6.18786">
        <ele>590.98026</ele>
        <time>2026-03-24T09:51:35.000Z</time>
      </trkpt>
      <trkpt lat="43.65505" lon="6.18789">
        <ele>590.89462</ele>
        <time>2026-03-24T09:51:38.000Z</time>
      </trkpt>
      <trkpt lat="43.65502" lon="6.18791">
        <ele>590.85335</ele>
        <time>2026-03-24T09:51:40.000Z</time>
      </trkpt>
      <trkpt lat="43.655" lon="6.18792">
        <ele>590.81297</ele>
        <time>2026-03-24T09:51:42.000Z</time>
      </trkpt>
      <trkpt lat="43.65497" lon="6.18795">
        <ele>590.75748</ele>
        <time>2026-03-24T09:51:44.000Z</time>
      </trkpt>
      <trkpt lat="43.65495" lon="6.18797">
        <ele>590.72259</ele>
        <time>2026-03-24T09:51:46.000Z</time>
      </trkpt>
      <trkpt lat="43.65492" lon="6.188">
        <ele>590.7224</ele>
        <time>2026-03-24T09:51:48.000Z</time>
      </trkpt>
      <trkpt lat="43.6549" lon="6.18802">
        <ele>590.73578</ele>
        <time>2026-03-24T09:51:50.000Z</time>
      </trkpt>
      <trkpt lat="43.65489" lon="6.18805">
        <ele>590.73486</ele>
        <time>2026-03-24T09:51:52.000Z</time>
      </trkpt>
      <trkpt lat="43.65488" lon="6.18808">
        <ele>590.7201</ele>
        <time>2026-03-24T09:51:54.000Z</time>
      </trkpt>
      <trkpt lat="43.65487" lon="6.18812">
        <ele>590.70995</ele>
        <time>2026-03-24T09:51:56.000Z</time>
      </trkpt>
      <trkpt lat="43.65487" lon="6.18816">
        <ele>590.70181</ele>
        <time>2026-03-24T09:51:58.000Z</time>
      </trkpt>
      <trkpt lat="43.65486" lon="6.18819">
        <ele>590.69904</ele>
        <time>2026-03-24T09:52:00.000Z</time>
      </trkpt>
      <trkpt lat="43.65486" lon="6.18823">
        <ele>590.70105</ele>
        <time>2026-03-24T09:52:02.000Z</time>
      </trkpt>
      <trkpt lat="43.65486" lon="6.18827">
        <ele>590.70019</ele>
        <time>2026-03-24T09:52:04.000Z</time>
      </trkpt>
      <trkpt lat="43.65484" lon="6.18831">
        <ele>590.69392</ele>
        <time>2026-03-24T09:52:06.000Z</time>
      </trkpt>
      <trkpt lat="43.65483" lon="6.18835">
        <ele>590.68684</ele>
        <time>2026-03-24T09:52:08.000Z</time>
      </trkpt>
      <trkpt lat="43.65482" lon="6.18838">
        <ele>590.68074</ele>
        <time>2026-03-24T09:52:10.000Z</time>
      </trkpt>
      <trkpt lat="43.65483" lon="6.18843">
        <ele>590.67678</ele>
        <time>2026-03-24T09:52:12.000Z</time>
      </trkpt>
      <trkpt lat="43.65482" lon="6.18848">
        <ele>590.65962</ele>
        <time>2026-03-24T09:52:15.000Z</time>
      </trkpt>
      <trkpt lat="43.65481" lon="6.18852">
        <ele>590.64582</ele>
        <time>2026-03-24T09:52:18.000Z</time>
      </trkpt>
      <trkpt lat="43.6548" lon="6.18856">
        <ele>590.63208</ele>
        <time>2026-03-24T09:52:20.000Z</time>
      </trkpt>
      <trkpt lat="43.65481" lon="6.18858">
        <ele>590.61233</ele>
        <time>2026-03-24T09:52:22.000Z</time>
      </trkpt>
      <trkpt lat="43.65482" lon="6.18862">
        <ele>590.59785</ele>
        <time>2026-03-24T09:52:24.000Z</time>
      </trkpt>
      <trkpt lat="43.65483" lon="6.18865">
        <ele>590.58176</ele>
        <time>2026-03-24T09:52:26.000Z</time>
      </trkpt>
      <trkpt lat="43.65484" lon="6.18868">
        <ele>590.56156</ele>
        <time>2026-03-24T09:52:28.000Z</time>
      </trkpt>
      <trkpt lat="43.65484" lon="6.18872">
        <ele>590.53869</ele>
        <time>2026-03-24T09:52:30.000Z</time>
      </trkpt>
      <trkpt lat="43.65485" lon="6.18876">
        <ele>590.51604</ele>
        <time>2026-03-24T09:52:32.000Z</time>
      </trkpt>
      <trkpt lat="43.65487" lon="6.1888">
        <ele>590.48058</ele>
        <time>2026-03-24T09:52:34.000Z</time>
      </trkpt>
      <trkpt lat="43.65487" lon="6.18885">
        <ele>590.41188</ele>
        <time>2026-03-24T09:52:37.000Z</time>
      </trkpt>
      <trkpt lat="43.65487" lon="6.18888">
        <ele>590.37418</ele>
        <time>2026-03-24T09:52:40.000Z</time>
      </trkpt>
      <trkpt lat="43.65489" lon="6.18892">
        <ele>590.33094</ele>
        <time>2026-03-24T09:52:42.000Z</time>
      </trkpt>
      <trkpt lat="43.65489" lon="6.18895">
        <ele>590.29386</ele>
        <time>2026-03-24T09:52:44.000Z</time>
      </trkpt>
      <trkpt lat="43.65489" lon="6.18899">
        <ele>590.25603</ele>
        <time>2026-03-24T09:52:46.000Z</time>
      </trkpt>
      <trkpt lat="43.65488" lon="6.18902">
        <ele>590.20756</ele>
        <time>2026-03-24T09:52:48.000Z</time>
      </trkpt>
      <trkpt lat="43.65488" lon="6.18906">
        <ele>590.16505</ele>
        <time>2026-03-24T09:52:50.000Z</time>
      </trkpt>
      <trkpt lat="43.65488" lon="6.1891">
        <ele>590.12112</ele>
        <time>2026-03-24T09:52:52.000Z</time>
      </trkpt>
      <trkpt lat="43.65487" lon="6.18913">
        <ele>590.08426</ele>
        <time>2026-03-24T09:52:54.000Z</time>
      </trkpt>
      <trkpt lat="43.65488" lon="6.18918">
        <ele>590.0365</ele>
        <time>2026-03-24T09:52:56.000Z</time>
      </trkpt>
      <trkpt lat="43.65488" lon="6.18922">
        <ele>589.97041</ele>
        <time>2026-03-24T09:52:59.000Z</time>
      </trkpt>
      <trkpt lat="43.65489" lon="6.18927">
        <ele>589.92775</ele>
        <time>2026-03-24T09:53:01.000Z</time>
      </trkpt>
      <trkpt lat="43.65489" lon="6.1893">
        <ele>589.88161</ele>
        <time>2026-03-24T09:53:03.000Z</time>
      </trkpt>
      <trkpt lat="43.65489" lon="6.18935">
        <ele>589.81218</ele>
        <time>2026-03-24T09:53:06.000Z</time>
      </trkpt>
      <trkpt lat="43.65488" lon="6.18938">
        <ele>589.75944</ele>
        <time>2026-03-24T09:53:08.000Z</time>
      </trkpt>
      <trkpt lat="43.65488" lon="6.18943">
        <ele>589.70118</ele>
        <time>2026-03-24T09:53:10.000Z</time>
      </trkpt>
      <trkpt lat="43.65487" lon="6.18947">
        <ele>589.56615</ele>
        <time>2026-03-24T09:53:13.000Z</time>
      </trkpt>
      <trkpt lat="43.65486" lon="6.18951">
        <ele>589.48488</ele>
        <time>2026-03-24T09:53:15.000Z</time>
      </trkpt>
      <trkpt lat="43.65485" lon="6.18953">
        <ele>589.42059</ele>
        <time>2026-03-24T09:53:17.000Z</time>
      </trkpt>
      <trkpt lat="43.65484" lon="6.18957">
        <ele>589.35726</ele>
        <time>2026-03-24T09:53:19.000Z</time>
      </trkpt>
      <trkpt lat="43.65484" lon="6.1896">
        <ele>589.26315</ele>
        <time>2026-03-24T09:53:22.000Z</time>
      </trkpt>
      <trkpt lat="43.65483" lon="6.18963">
        <ele>589.17896</ele>
        <time>2026-03-24T09:53:25.000Z</time>
      </trkpt>
      <trkpt lat="43.65482" lon="6.18966">
        <ele>589.15107</ele>
        <time>2026-03-24T09:53:27.000Z</time>
      </trkpt>
      <trkpt lat="43.65481" lon="6.18969">
        <ele>589.10541</ele>
        <time>2026-03-24T09:53:29.000Z</time>
      </trkpt>
      <trkpt lat="43.65479" lon="6.18971">
        <ele>589.05577</ele>
        <time>2026-03-24T09:53:31.000Z</time>
      </trkpt>
      <trkpt lat="43.65477" lon="6.18974">
        <ele>589.00986</ele>
        <time>2026-03-24T09:53:33.000Z</time>
      </trkpt>
      <trkpt lat="43.65475" lon="6.18976">
        <ele>588.97911</ele>
        <time>2026-03-24T09:53:35.000Z</time>
      </trkpt>
      <trkpt lat="43.65473" lon="6.18979">
        <ele>588.94918</ele>
        <time>2026-03-24T09:53:37.000Z</time>
      </trkpt>
      <trkpt lat="43.65472" lon="6.18982">
        <ele>588.90211</ele>
        <time>2026-03-24T09:53:39.000Z</time>
      </trkpt>
      <trkpt lat="43.65471" lon="6.18985">
        <ele>588.86355</ele>
        <time>2026-03-24T09:53:41.000Z</time>
      </trkpt>
      <trkpt lat="43.6547" lon="6.18988">
        <ele>588.83827</ele>
        <time>2026-03-24T09:53:43.000Z</time>
      </trkpt>
      <trkpt lat="43.65468" lon="6.18992">
        <ele>588.77647</ele>
        <time>2026-03-24T09:53:45.999Z</time>
      </trkpt>
      <trkpt lat="43.65467" lon="6.18995">
        <ele>588.7175</ele>
        <time>2026-03-24T09:53:47.999Z</time>
      </trkpt>
      <trkpt lat="43.65465" lon="6.18997">
        <ele>588.66249</ele>
        <time>2026-03-24T09:53:49.999Z</time>
      </trkpt>
      <trkpt lat="43.65463" lon="6.19">
        <ele>588.62262</ele>
        <time>2026-03-24T09:53:51.999Z</time>
      </trkpt>
      <trkpt lat="43.65462" lon="6.19003">
        <ele>588.59048</ele>
        <time>2026-03-24T09:53:53.999Z</time>
      </trkpt>
      <trkpt lat="43.65461" lon="6.19007">
        <ele>588.53802</ele>
        <time>2026-03-24T09:53:55.999Z</time>
      </trkpt>
      <trkpt lat="43.65459" lon="6.1901">
        <ele>588.49437</ele>
        <time>2026-03-24T09:53:57.999Z</time>
      </trkpt>
      <trkpt lat="43.65458" lon="6.19013">
        <ele>588.44232</ele>
        <time>2026-03-24T09:53:59.999Z</time>
      </trkpt>
      <trkpt lat="43.65457" lon="6.19017">
        <ele>588.38606</ele>
        <time>2026-03-24T09:54:01.999Z</time>
      </trkpt>
      <trkpt lat="43.65456" lon="6.1902">
        <ele>588.32675</ele>
        <time>2026-03-24T09:54:03.998Z</time>
      </trkpt>
      <trkpt lat="43.65455" lon="6.19024">
        <ele>588.23401</ele>
        <time>2026-03-24T09:54:06.998Z</time>
      </trkpt>
      <trkpt lat="43.65454" lon="6.19027">
        <ele>588.14537</ele>
        <time>2026-03-24T09:54:08.998Z</time>
      </trkpt>
      <trkpt lat="43.65452" lon="6.1903">
        <ele>588.04674</ele>
        <time>2026-03-24T09:54:10.998Z</time>
      </trkpt>
      <trkpt lat="43.65451" lon="6.19034">
        <ele>587.95129</ele>
        <time>2026-03-24T09:54:12.998Z</time>
      </trkpt>
      <trkpt lat="43.65448" lon="6.19035">
        <ele>587.85602</ele>
        <time>2026-03-24T09:54:14.997Z</time>
      </trkpt>
      <trkpt lat="43.65446" lon="6.19038">
        <ele>587.77726</ele>
        <time>2026-03-24T09:54:16.997Z</time>
      </trkpt>
      <trkpt lat="43.65444" lon="6.1904">
        <ele>587.71428</ele>
        <time>2026-03-24T09:54:18.998Z</time>
      </trkpt>
      <trkpt lat="43.65442" lon="6.19041">
        <ele>587.66229</ele>
        <time>2026-03-24T09:54:20.997Z</time>
      </trkpt>
      <trkpt lat="43.65439" lon="6.19045">
        <ele>587.61341</ele>
        <time>2026-03-24T09:54:22.997Z</time>
      </trkpt>
      <trkpt lat="43.65437" lon="6.19045">
        <ele>587.56418</ele>
        <time>2026-03-24T09:54:24.997Z</time>
      </trkpt>
      <trkpt lat="43.65434" lon="6.19047">
        <ele>587.51876</ele>
        <time>2026-03-24T09:54:26.998Z</time>
      </trkpt>
      <trkpt lat="43.65431" lon="6.19049">
        <ele>587.46982</ele>
        <time>2026-03-24T09:54:29.998Z</time>
      </trkpt>
      <trkpt lat="43.65428" lon="6.1905">
        <ele>587.4421</ele>
        <time>2026-03-24T09:54:31.998Z</time>
      </trkpt>
      <trkpt lat="43.65425" lon="6.19052">
        <ele>587.42417</ele>
        <time>2026-03-24T09:54:33.998Z</time>
      </trkpt>
      <trkpt lat="43.65422" lon="6.19054">
        <ele>587.40781</ele>
        <time>2026-03-24T09:54:36.998Z</time>
      </trkpt>
      <trkpt lat="43.65419" lon="6.19057">
        <ele>587.38287</ele>
        <time>2026-03-24T09:54:39.998Z</time>
      </trkpt>
      <trkpt lat="43.65418" lon="6.1906">
        <ele>587.35998</ele>
        <time>2026-03-24T09:54:41.998Z</time>
      </trkpt>
      <trkpt lat="43.65416" lon="6.19062">
        <ele>587.34682</ele>
        <time>2026-03-24T09:54:43.998Z</time>
      </trkpt>
      <trkpt lat="43.65414" lon="6.19064">
        <ele>587.34608</ele>
        <time>2026-03-24T09:54:45.998Z</time>
      </trkpt>
      <trkpt lat="43.65412" lon="6.19066">
        <ele>587.33423</ele>
        <time>2026-03-24T09:54:47.998Z</time>
      </trkpt>
      <trkpt lat="43.6541" lon="6.19069">
        <ele>587.32694</ele>
        <time>2026-03-24T09:54:49.998Z</time>
      </trkpt>
      <trkpt lat="43.65408" lon="6.19072">
        <ele>587.31499</ele>
        <time>2026-03-24T09:54:51.997Z</time>
      </trkpt>
      <trkpt lat="43.65407" lon="6.19075">
        <ele>587.30897</ele>
        <time>2026-03-24T09:54:53.997Z</time>
      </trkpt>
      <trkpt lat="43.65405" lon="6.1908">
        <ele>587.29306</ele>
        <time>2026-03-24T09:54:56.997Z</time>
      </trkpt>
      <trkpt lat="43.65404" lon="6.19083">
        <ele>587.29097</ele>
        <time>2026-03-24T09:54:58.997Z</time>
      </trkpt>
      <trkpt lat="43.65404" lon="6.19087">
        <ele>587.28826</ele>
        <time>2026-03-24T09:55:00.997Z</time>
      </trkpt>
      <trkpt lat="43.65402" lon="6.19091">
        <ele>587.27918</ele>
        <time>2026-03-24T09:55:03.997Z</time>
      </trkpt>
      <trkpt lat="43.65401" lon="6.19094">
        <ele>587.26527</ele>
        <time>2026-03-24T09:55:05.997Z</time>
      </trkpt>
      <trkpt lat="43.65399" lon="6.19096">
        <ele>587.24779</ele>
        <time>2026-03-24T09:55:07.997Z</time>
      </trkpt>
      <trkpt lat="43.65397" lon="6.19099">
        <ele>587.23121</ele>
        <time>2026-03-24T09:55:09.997Z</time>
      </trkpt>
      <trkpt lat="43.65395" lon="6.19103">
        <ele>587.21428</ele>
        <time>2026-03-24T09:55:11.997Z</time>
      </trkpt>
      <trkpt lat="43.65394" lon="6.19107">
        <ele>587.18449</ele>
        <time>2026-03-24T09:55:14.997Z</time>
      </trkpt>
      <trkpt lat="43.65393" lon="6.19112">
        <ele>587.15572</ele>
        <time>2026-03-24T09:55:17.997Z</time>
      </trkpt>
      <trkpt lat="43.65393" lon="6.19116">
        <ele>587.13458</ele>
        <time>2026-03-24T09:55:19.997Z</time>
      </trkpt>
      <trkpt lat="43.65392" lon="6.19119">
        <ele>587.11559</ele>
        <time>2026-03-24T09:55:21.997Z</time>
      </trkpt>
      <trkpt lat="43.65392" lon="6.19124">
        <ele>587.09171</ele>
        <time>2026-03-24T09:55:24.997Z</time>
      </trkpt>
      <trkpt lat="43.65392" lon="6.19127">
        <ele>587.08377</ele>
        <time>2026-03-24T09:55:26.997Z</time>
      </trkpt>
      <trkpt lat="43.65393" lon="6.19131">
        <ele>587.07297</ele>
        <time>2026-03-24T09:55:28.997Z</time>
      </trkpt>
      <trkpt lat="43.65393" lon="6.19135">
        <ele>587.07022</ele>
        <time>2026-03-24T09:55:30.997Z</time>
      </trkpt>
      <trkpt lat="43.65393" lon="6.1914">
        <ele>587.06401</ele>
        <time>2026-03-24T09:55:32.997Z</time>
      </trkpt>
      <trkpt lat="43.65392" lon="6.19144">
        <ele>587.05671</ele>
        <time>2026-03-24T09:55:34.997Z</time>
      </trkpt>
      <trkpt lat="43.65391" lon="6.19146">
        <ele>587.04701</ele>
        <time>2026-03-24T09:55:36.997Z</time>
      </trkpt>
      <trkpt lat="43.65389" lon="6.1915">
        <ele>587.03881</ele>
        <time>2026-03-24T09:55:38.997Z</time>
      </trkpt>
      <trkpt lat="43.65387" lon="6.19154">
        <ele>587.03546</ele>
        <time>2026-03-24T09:55:40.997Z</time>
      </trkpt>
      <trkpt lat="43.65384" lon="6.19156">
        <ele>587.0264</ele>
        <time>2026-03-24T09:55:42.997Z</time>
      </trkpt>
      <trkpt lat="43.65383" lon="6.19159">
        <ele>587.01535</ele>
        <time>2026-03-24T09:55:44.997Z</time>
      </trkpt>
      <trkpt lat="43.65382" lon="6.19162">
        <ele>587.01089</ele>
        <time>2026-03-24T09:55:46.997Z</time>
      </trkpt>
      <trkpt lat="43.65381" lon="6.19166">
        <ele>587.00015</ele>
        <time>2026-03-24T09:55:48.997Z</time>
      </trkpt>
      <trkpt lat="43.65379" lon="6.19169">
        <ele>586.98067</ele>
        <time>2026-03-24T09:55:50.997Z</time>
      </trkpt>
      <trkpt lat="43.65378" lon="6.19171">
        <ele>586.95858</ele>
        <time>2026-03-24T09:55:52.997Z</time>
      </trkpt>
      <trkpt lat="43.65377" lon="6.19176">
        <ele>586.9332</ele>
        <time>2026-03-24T09:55:55.997Z</time>
      </trkpt>
      <trkpt lat="43.65376" lon="6.1918">
        <ele>586.90859</ele>
        <time>2026-03-24T09:55:57.997Z</time>
      </trkpt>
      <trkpt lat="43.65374" lon="6.19184">
        <ele>586.88503</ele>
        <time>2026-03-24T09:55:59.997Z</time>
      </trkpt>
      <trkpt lat="43.65374" lon="6.19187">
        <ele>586.87589</ele>
        <time>2026-03-24T09:56:01.997Z</time>
      </trkpt>
      <trkpt lat="43.65373" lon="6.1919">
        <ele>586.83654</ele>
        <time>2026-03-24T09:56:03.997Z</time>
      </trkpt>
      <trkpt lat="43.65372" lon="6.19193">
        <ele>586.80035</ele>
        <time>2026-03-24T09:56:05.997Z</time>
      </trkpt>
      <trkpt lat="43.65371" lon="6.19196">
        <ele>586.76676</ele>
        <time>2026-03-24T09:56:07.997Z</time>
      </trkpt>
      <trkpt lat="43.65371" lon="6.192">
        <ele>586.74201</ele>
        <time>2026-03-24T09:56:09.997Z</time>
      </trkpt>
      <trkpt lat="43.65369" lon="6.19204">
        <ele>586.70307</ele>
        <time>2026-03-24T09:56:11.997Z</time>
      </trkpt>
      <trkpt lat="43.6537" lon="6.19207">
        <ele>586.64224</ele>
        <time>2026-03-24T09:56:13.996Z</time>
      </trkpt>
      <trkpt lat="43.65369" lon="6.1921">
        <ele>586.57439</ele>
        <time>2026-03-24T09:56:15.996Z</time>
      </trkpt>
      <trkpt lat="43.6537" lon="6.19214">
        <ele>586.52144</ele>
        <time>2026-03-24T09:56:17.996Z</time>
      </trkpt>
      <trkpt lat="43.6537" lon="6.19218">
        <ele>586.48323</ele>
        <time>2026-03-24T09:56:19.996Z</time>
      </trkpt>
      <trkpt lat="43.65369" lon="6.19223">
        <ele>586.40357</ele>
        <time>2026-03-24T09:56:22.996Z</time>
      </trkpt>
      <trkpt lat="43.65368" lon="6.19228">
        <ele>586.30937</ele>
        <time>2026-03-24T09:56:25.996Z</time>
      </trkpt>
      <trkpt lat="43.65367" lon="6.19231">
        <ele>586.26706</ele>
        <time>2026-03-24T09:56:26.996Z</time>
      </trkpt>
      <trkpt lat="43.65365" lon="6.19234">
        <ele>586.2033</ele>
        <time>2026-03-24T09:56:28.996Z</time>
      </trkpt>
      <trkpt lat="43.65362" lon="6.19236">
        <ele>586.13885</ele>
        <time>2026-03-24T09:56:30.996Z</time>
      </trkpt>
      <trkpt lat="43.65361" lon="6.19239">
        <ele>586.04814</ele>
        <time>2026-03-24T09:56:32.996Z</time>
      </trkpt>
      <trkpt lat="43.65359" lon="6.19241">
        <ele>585.95904</ele>
        <time>2026-03-24T09:56:34.996Z</time>
      </trkpt>
      <trkpt lat="43.65356" lon="6.19244">
        <ele>585.90426</ele>
        <time>2026-03-24T09:56:36.996Z</time>
      </trkpt>
      <trkpt lat="43.65355" lon="6.19247">
        <ele>585.82171</ele>
        <time>2026-03-24T09:56:38.996Z</time>
      </trkpt>
      <trkpt lat="43.65354" lon="6.1925">
        <ele>585.71799</ele>
        <time>2026-03-24T09:56:40.996Z</time>
      </trkpt>
      <trkpt lat="43.65353" lon="6.19254">
        <ele>585.60071</ele>
        <time>2026-03-24T09:56:42.996Z</time>
      </trkpt>
      <trkpt lat="43.65352" lon="6.19256">
        <ele>585.48206</ele>
        <time>2026-03-24T09:56:44.996Z</time>
      </trkpt>
      <trkpt lat="43.6535" lon="6.1926">
        <ele>585.40524</ele>
        <time>2026-03-24T09:56:46.996Z</time>
      </trkpt>
      <trkpt lat="43.65349" lon="6.19263">
        <ele>585.29683</ele>
        <time>2026-03-24T09:56:48.996Z</time>
      </trkpt>
      <trkpt lat="43.65347" lon="6.19266">
        <ele>585.18489</ele>
        <time>2026-03-24T09:56:50.996Z</time>
      </trkpt>
      <trkpt lat="43.65345" lon="6.1927">
        <ele>585.07881</ele>
        <time>2026-03-24T09:56:52.996Z</time>
      </trkpt>
      <trkpt lat="43.65343" lon="6.19273">
        <ele>584.96297</ele>
        <time>2026-03-24T09:56:54.996Z</time>
      </trkpt>
      <trkpt lat="43.65342" lon="6.19276">
        <ele>584.82414</ele>
        <time>2026-03-24T09:56:56.996Z</time>
      </trkpt>
      <trkpt lat="43.6534" lon="6.1928">
        <ele>584.7088</ele>
        <time>2026-03-24T09:56:58.996Z</time>
      </trkpt>
      <trkpt lat="43.65338" lon="6.19282">
        <ele>584.58125</ele>
        <time>2026-03-24T09:57:00.996Z</time>
      </trkpt>
      <trkpt lat="43.65336" lon="6.19287">
        <ele>584.36082</ele>
        <time>2026-03-24T09:57:03.996Z</time>
      </trkpt>
      <trkpt lat="43.65335" lon="6.1929">
        <ele>584.23369</ele>
        <time>2026-03-24T09:57:05.995Z</time>
      </trkpt>
      <trkpt lat="43.65332" lon="6.19293">
        <ele>584.07201</ele>
        <time>2026-03-24T09:57:07.995Z</time>
      </trkpt>
      <trkpt lat="43.65331" lon="6.19296">
        <ele>583.93868</ele>
        <time>2026-03-24T09:57:09.995Z</time>
      </trkpt>
      <trkpt lat="43.6533" lon="6.19299">
        <ele>583.82704</ele>
        <time>2026-03-24T09:57:11.995Z</time>
      </trkpt>
      <trkpt lat="43.65328" lon="6.19302">
        <ele>583.72447</ele>
        <time>2026-03-24T09:57:13.995Z</time>
      </trkpt>
      <trkpt lat="43.65326" lon="6.19305">
        <ele>583.49228</ele>
        <time>2026-03-24T09:57:16.995Z</time>
      </trkpt>
      <trkpt lat="43.65325" lon="6.19309">
        <ele>583.38561</ele>
        <time>2026-03-24T09:57:18.995Z</time>
      </trkpt>
      <trkpt lat="43.65323" lon="6.19313">
        <ele>583.27417</ele>
        <time>2026-03-24T09:57:20.995Z</time>
      </trkpt>
      <trkpt lat="43.65322" lon="6.19316">
        <ele>583.15379</ele>
        <time>2026-03-24T09:57:22.995Z</time>
      </trkpt>
      <trkpt lat="43.65321" lon="6.19321">
        <ele>583.03532</ele>
        <time>2026-03-24T09:57:25.995Z</time>
      </trkpt>
      <trkpt lat="43.6532" lon="6.19325">
        <ele>582.9189</ele>
        <time>2026-03-24T09:57:27.995Z</time>
      </trkpt>
      <trkpt lat="43.65319" lon="6.19329">
        <ele>582.8429</ele>
        <time>2026-03-24T09:57:29.995Z</time>
      </trkpt>
      <trkpt lat="43.65318" lon="6.19334">
        <ele>582.77591</ele>
        <time>2026-03-24T09:57:31.995Z</time>
      </trkpt>
      <trkpt lat="43.65317" lon="6.19338">
        <ele>582.71664</ele>
        <time>2026-03-24T09:57:33.995Z</time>
      </trkpt>
      <trkpt lat="43.65316" lon="6.19341">
        <ele>582.64065</ele>
        <time>2026-03-24T09:57:36.995Z</time>
      </trkpt>
      <trkpt lat="43.65315" lon="6.19345">
        <ele>582.62114</ele>
        <time>2026-03-24T09:57:38.995Z</time>
      </trkpt>
      <trkpt lat="43.65315" lon="6.19349">
        <ele>582.632</ele>
        <time>2026-03-24T09:57:41.995Z</time>
      </trkpt>
      <trkpt lat="43.65314" lon="6.19353">
        <ele>582.59056</ele>
        <time>2026-03-24T09:57:43.995Z</time>
      </trkpt>
      <trkpt lat="43.65312" lon="6.19356">
        <ele>582.55151</ele>
        <time>2026-03-24T09:57:45.995Z</time>
      </trkpt>
      <trkpt lat="43.6531" lon="6.19359">
        <ele>582.49151</ele>
        <time>2026-03-24T09:57:48.995Z</time>
      </trkpt>
      <trkpt lat="43.65308" lon="6.19361">
        <ele>582.4474</ele>
        <time>2026-03-24T09:57:50.995Z</time>
      </trkpt>
      <trkpt lat="43.65306" lon="6.19365">
        <ele>582.40621</ele>
        <time>2026-03-24T09:57:52.995Z</time>
      </trkpt>
      <trkpt lat="43.65305" lon="6.19368">
        <ele>582.37117</ele>
        <time>2026-03-24T09:57:54.995Z</time>
      </trkpt>
      <trkpt lat="43.65304" lon="6.19371">
        <ele>582.3269</ele>
        <time>2026-03-24T09:57:56.995Z</time>
      </trkpt>
      <trkpt lat="43.65304" lon="6.19376">
        <ele>582.26291</ele>
        <time>2026-03-24T09:57:59.995Z</time>
      </trkpt>
      <trkpt lat="43.65304" lon="6.1938">
        <ele>582.21145</ele>
        <time>2026-03-24T09:58:01.995Z</time>
      </trkpt>
      <trkpt lat="43.65304" lon="6.19384">
        <ele>582.16332</ele>
        <time>2026-03-24T09:58:04.995Z</time>
      </trkpt>
      <trkpt lat="43.65305" lon="6.19388">
        <ele>582.14413</ele>
        <time>2026-03-24T09:58:06.995Z</time>
      </trkpt>
      <trkpt lat="43.65306" lon="6.19393">
        <ele>582.12471</ele>
        <time>2026-03-24T09:58:09.995Z</time>
      </trkpt>
      <trkpt lat="43.65307" lon="6.19396">
        <ele>582.12008</ele>
        <time>2026-03-24T09:58:11.995Z</time>
      </trkpt>
      <trkpt lat="43.65308" lon="6.19399">
        <ele>582.11674</ele>
        <time>2026-03-24T09:58:12.995Z</time>
      </trkpt>
      <trkpt lat="43.65311" lon="6.19403">
        <ele>582.09245</ele>
        <time>2026-03-24T09:58:15.995Z</time>
      </trkpt>
      <trkpt lat="43.65312" lon="6.19405">
        <ele>582.07852</ele>
        <time>2026-03-24T09:58:17.995Z</time>
      </trkpt>
      <trkpt lat="43.65312" lon="6.1941">
        <ele>582.05131</ele>
        <time>2026-03-24T09:58:20.995Z</time>
      </trkpt>
      <trkpt lat="43.65311" lon="6.19414">
        <ele>582.02046</ele>
        <time>2026-03-24T09:58:22.995Z</time>
      </trkpt>
      <trkpt lat="43.65311" lon="6.19419">
        <ele>581.97535</ele>
        <time>2026-03-24T09:58:25.995Z</time>
      </trkpt>
      <trkpt lat="43.6531" lon="6.19423">
        <ele>581.92683</ele>
        <time>2026-03-24T09:58:27.995Z</time>
      </trkpt>
      <trkpt lat="43.65309" lon="6.19426">
        <ele>581.88216</ele>
        <time>2026-03-24T09:58:29.996Z</time>
      </trkpt>
      <trkpt lat="43.65309" lon="6.19431">
        <ele>581.83336</ele>
        <time>2026-03-24T09:58:31.996Z</time>
      </trkpt>
      <trkpt lat="43.65309" lon="6.19434">
        <ele>581.77193</ele>
        <time>2026-03-24T09:58:33.996Z</time>
      </trkpt>
      <trkpt lat="43.65309" lon="6.19438">
        <ele>581.72174</ele>
        <time>2026-03-24T09:58:35.995Z</time>
      </trkpt>
      <trkpt lat="43.65308" lon="6.19442">
        <ele>581.59525</ele>
        <time>2026-03-24T09:58:38.996Z</time>
      </trkpt>
      <trkpt lat="43.65307" lon="6.19447">
        <ele>581.4437</ele>
        <time>2026-03-24T09:58:41.995Z</time>
      </trkpt>
      <trkpt lat="43.65307" lon="6.19451">
        <ele>581.32914</ele>
        <time>2026-03-24T09:58:44.995Z</time>
      </trkpt>
      <trkpt lat="43.65306" lon="6.19454">
        <ele>581.25272</ele>
        <time>2026-03-24T09:58:46.995Z</time>
      </trkpt>
      <trkpt lat="43.65304" lon="6.19458">
        <ele>581.16263</ele>
        <time>2026-03-24T09:58:48.995Z</time>
      </trkpt>
      <trkpt lat="43.65303" lon="6.19463">
        <ele>581.06377</ele>
        <time>2026-03-24T09:58:51.995Z</time>
      </trkpt>
      <trkpt lat="43.65302" lon="6.19467">
        <ele>580.95223</ele>
        <time>2026-03-24T09:58:53.995Z</time>
      </trkpt>
      <trkpt lat="43.65301" lon="6.1947">
        <ele>580.78944</ele>
        <time>2026-03-24T09:58:56.995Z</time>
      </trkpt>
      <trkpt lat="43.65299" lon="6.19473">
        <ele>580.69482</ele>
        <time>2026-03-24T09:58:58.995Z</time>
      </trkpt>
      <trkpt lat="43.65297" lon="6.19475">
        <ele>580.564</ele>
        <time>2026-03-24T09:59:00.995Z</time>
      </trkpt>
      <trkpt lat="43.65295" lon="6.19477">
        <ele>580.43779</ele>
        <time>2026-03-24T09:59:02.995Z</time>
      </trkpt>
      <trkpt lat="43.65293" lon="6.1948">
        <ele>580.30016</ele>
        <time>2026-03-24T09:59:05.995Z</time>
      </trkpt>
      <trkpt lat="43.65289" lon="6.19482">
        <ele>580.12019</ele>
        <time>2026-03-24T09:59:07.995Z</time>
      </trkpt>
      <trkpt lat="43.65287" lon="6.19484">
        <ele>579.91891</ele>
        <time>2026-03-24T09:59:09.995Z</time>
      </trkpt>
      <trkpt lat="43.65285" lon="6.19485">
        <ele>579.54713</ele>
        <time>2026-03-24T09:59:12.995Z</time>
      </trkpt>
      <trkpt lat="43.65282" lon="6.19487">
        <ele>579.31819</ele>
        <time>2026-03-24T09:59:14.995Z</time>
      </trkpt>
      <trkpt lat="43.65279" lon="6.1949">
        <ele>579.0074</ele>
        <time>2026-03-24T09:59:17.995Z</time>
      </trkpt>
      <trkpt lat="43.65277" lon="6.19492">
        <ele>578.77883</ele>
        <time>2026-03-24T09:59:19.995Z</time>
      </trkpt>
      <trkpt lat="43.65276" lon="6.19495">
        <ele>578.54072</ele>
        <time>2026-03-24T09:59:21.995Z</time>
      </trkpt>
      <trkpt lat="43.65274" lon="6.19499">
        <ele>578.31878</ele>
        <time>2026-03-24T09:59:23.995Z</time>
      </trkpt>
      <trkpt lat="43.65272" lon="6.19502">
        <ele>578.11998</ele>
        <time>2026-03-24T09:59:25.995Z</time>
      </trkpt>
      <trkpt lat="43.6527" lon="6.19506">
        <ele>577.7526</ele>
        <time>2026-03-24T09:59:28.995Z</time>
      </trkpt>
      <trkpt lat="43.65268" lon="6.1951">
        <ele>577.50266</ele>
        <time>2026-03-24T09:59:31.995Z</time>
      </trkpt>
      <trkpt lat="43.65267" lon="6.19512">
        <ele>577.37233</ele>
        <time>2026-03-24T09:59:33.995Z</time>
      </trkpt>
      <trkpt lat="43.65266" lon="6.19515">
        <ele>577.2284</ele>
        <time>2026-03-24T09:59:35.995Z</time>
      </trkpt>
      <trkpt lat="43.65265" lon="6.19518">
        <ele>577.13346</ele>
        <time>2026-03-24T09:59:37.994Z</time>
      </trkpt>
      <trkpt lat="43.65266" lon="6.19523">
        <ele>577.08745</ele>
        <time>2026-03-24T09:59:39.994Z</time>
      </trkpt>
      <trkpt lat="43.65265" lon="6.19527">
        <ele>577.06405</ele>
        <time>2026-03-24T09:59:42.994Z</time>
      </trkpt>
      <trkpt lat="43.65263" lon="6.19531">
        <ele>576.98737</ele>
        <time>2026-03-24T09:59:45.994Z</time>
      </trkpt>
      <trkpt lat="43.6526" lon="6.19532">
        <ele>576.95763</ele>
        <time>2026-03-24T09:59:47.994Z</time>
      </trkpt>
      <trkpt lat="43.65257" lon="6.19533">
        <ele>576.91905</ele>
        <time>2026-03-24T09:59:49.994Z</time>
      </trkpt>
      <trkpt lat="43.65256" lon="6.19536">
        <ele>576.88021</ele>
        <time>2026-03-24T09:59:51.994Z</time>
      </trkpt>
      <trkpt lat="43.65254" lon="6.1954">
        <ele>576.84875</ele>
        <time>2026-03-24T09:59:53.994Z</time>
      </trkpt>
      <trkpt lat="43.65253" lon="6.19544">
        <ele>576.81467</ele>
        <time>2026-03-24T09:59:55.994Z</time>
      </trkpt>
      <trkpt lat="43.65251" lon="6.19547">
        <ele>576.77045</ele>
        <time>2026-03-24T09:59:57.994Z</time>
      </trkpt>
      <trkpt lat="43.6525" lon="6.1955">
        <ele>576.69479</ele>
        <time>2026-03-24T10:00:00.994Z</time>
      </trkpt>
      <trkpt lat="43.65249" lon="6.19553">
        <ele>576.63876</ele>
        <time>2026-03-24T10:00:02.994Z</time>
      </trkpt>
      <trkpt lat="43.65248" lon="6.19557">
        <ele>576.59643</ele>
        <time>2026-03-24T10:00:04.994Z</time>
      </trkpt>
      <trkpt lat="43.65246" lon="6.19559">
        <ele>576.51982</ele>
        <time>2026-03-24T10:00:07.994Z</time>
      </trkpt>
      <trkpt lat="43.65245" lon="6.19564">
        <ele>576.44755</ele>
        <time>2026-03-24T10:00:10.994Z</time>
      </trkpt>
      <trkpt lat="43.65243" lon="6.19564">
        <ele>576.37419</ele>
        <time>2026-03-24T10:00:13.994Z</time>
      </trkpt>
      <trkpt lat="43.65242" lon="6.19568">
        <ele>576.30046</ele>
        <time>2026-03-24T10:00:15.994Z</time>
      </trkpt>
      <trkpt lat="43.65239" lon="6.19568">
        <ele>576.2521</ele>
        <time>2026-03-24T10:00:17.994Z</time>
      </trkpt>
      <trkpt lat="43.65235" lon="6.19571">
        <ele>576.21109</ele>
        <time>2026-03-24T10:00:19.994Z</time>
      </trkpt>
      <trkpt lat="43.65233" lon="6.19573">
        <ele>576.16968</ele>
        <time>2026-03-24T10:00:22.994Z</time>
      </trkpt>
      <trkpt lat="43.65231" lon="6.19573">
        <ele>576.13824</ele>
        <time>2026-03-24T10:00:24.994Z</time>
      </trkpt>
      <trkpt lat="43.65228" lon="6.19574">
        <ele>576.11983</ele>
        <time>2026-03-24T10:00:26.994Z</time>
      </trkpt>
      <trkpt lat="43.65225" lon="6.19576">
        <ele>576.11209</ele>
        <time>2026-03-24T10:00:28.994Z</time>
      </trkpt>
      <trkpt lat="43.65222" lon="6.19576">
        <ele>576.1138</ele>
        <time>2026-03-24T10:00:31.994Z</time>
      </trkpt>
      <trkpt lat="43.6522" lon="6.19577">
        <ele>576.10933</ele>
        <time>2026-03-24T10:00:33.995Z</time>
      </trkpt>
      <trkpt lat="43.65217" lon="6.19577">
        <ele>576.11263</ele>
        <time>2026-03-24T10:00:35.996Z</time>
      </trkpt>
      <trkpt lat="43.65213" lon="6.1958">
        <ele>576.12012</ele>
        <time>2026-03-24T10:00:38.995Z</time>
      </trkpt>
      <trkpt lat="43.65211" lon="6.19582">
        <ele>576.13946</ele>
        <time>2026-03-24T10:00:40.995Z</time>
      </trkpt>
      <trkpt lat="43.6521" lon="6.19585">
        <ele>576.1692</ele>
        <time>2026-03-24T10:00:42.995Z</time>
      </trkpt>
      <trkpt lat="43.65208" lon="6.19587">
        <ele>576.18453</ele>
        <time>2026-03-24T10:00:43.994Z</time>
      </trkpt>
      <trkpt lat="43.65205" lon="6.19589">
        <ele>576.20516</ele>
        <time>2026-03-24T10:00:45.995Z</time>
      </trkpt>
      <trkpt lat="43.65203" lon="6.19592">
        <ele>576.22964</ele>
        <time>2026-03-24T10:00:47.995Z</time>
      </trkpt>
      <trkpt lat="43.65201" lon="6.19595">
        <ele>576.25636</ele>
        <time>2026-03-24T10:00:50.995Z</time>
      </trkpt>
      <trkpt lat="43.65198" lon="6.19598">
        <ele>576.28162</ele>
        <time>2026-03-24T10:00:53.995Z</time>
      </trkpt>
      <trkpt lat="43.65196" lon="6.19602">
        <ele>576.2889</ele>
        <time>2026-03-24T10:00:55.995Z</time>
      </trkpt>
      <trkpt lat="43.65194" lon="6.19604">
        <ele>576.79349</ele>
        <time>2026-03-24T10:01:14.995Z</time>
      </trkpt>
      <trkpt lat="43.65194" lon="6.19607">
        <ele>577.42434</ele>
        <time>2026-03-24T10:01:28.995Z</time>
      </trkpt>
      <trkpt lat="43.65194" lon="6.19611">
        <ele>577.58751</ele>
        <time>2026-03-24T10:01:33.994Z</time>
      </trkpt>
      <trkpt lat="43.65194" lon="6.19614">
        <ele>577.67656</ele>
        <time>2026-03-24T10:01:37.994Z</time>
      </trkpt>
      <trkpt lat="43.65195" lon="6.19617">
        <ele>577.7495</ele>
        <time>2026-03-24T10:01:41.994Z</time>
      </trkpt>
      <trkpt lat="43.65193" lon="6.19622">
        <ele>577.85433</ele>
        <time>2026-03-24T10:01:45.994Z</time>
      </trkpt>
      <trkpt lat="43.65194" lon="6.19625">
        <ele>577.91651</ele>
        <time>2026-03-24T10:01:47.994Z</time>
      </trkpt>
      <trkpt lat="43.65195" lon="6.19628">
        <ele>577.96994</ele>
        <time>2026-03-24T10:01:49.994Z</time>
      </trkpt>
      <trkpt lat="43.65195" lon="6.19633">
        <ele>578.01339</ele>
        <time>2026-03-24T10:01:51.994Z</time>
      </trkpt>
      <trkpt lat="43.65194" lon="6.19636">
        <ele>578.04337</ele>
        <time>2026-03-24T10:01:53.994Z</time>
      </trkpt>
      <trkpt lat="43.65195" lon="6.1964">
        <ele>578.08302</ele>
        <time>2026-03-24T10:01:56.994Z</time>
      </trkpt>
      <trkpt lat="43.65195" lon="6.19645">
        <ele>578.07663</ele>
        <time>2026-03-24T10:01:59.994Z</time>
      </trkpt>
      <trkpt lat="43.65196" lon="6.19648">
        <ele>578.07636</ele>
        <time>2026-03-24T10:02:01.994Z</time>
      </trkpt>
      <trkpt lat="43.65195" lon="6.19652">
        <ele>578.07184</ele>
        <time>2026-03-24T10:02:03.994Z</time>
      </trkpt>
      <trkpt lat="43.65195" lon="6.19656">
        <ele>578.04905</ele>
        <time>2026-03-24T10:02:06.994Z</time>
      </trkpt>
      <trkpt lat="43.65194" lon="6.1966">
        <ele>578.02824</ele>
        <time>2026-03-24T10:02:08.994Z</time>
      </trkpt>
      <trkpt lat="43.65194" lon="6.19663">
        <ele>577.98941</ele>
        <time>2026-03-24T10:02:10.994Z</time>
      </trkpt>
      <trkpt lat="43.65194" lon="6.19667">
        <ele>577.93616</ele>
        <time>2026-03-24T10:02:12.994Z</time>
      </trkpt>
      <trkpt lat="43.65194" lon="6.19671">
        <ele>577.86524</ele>
        <time>2026-03-24T10:02:15.994Z</time>
      </trkpt>
      <trkpt lat="43.65194" lon="6.19676">
        <ele>577.77872</ele>
        <time>2026-03-24T10:02:18.994Z</time>
      </trkpt>
      <trkpt lat="43.65195" lon="6.19679">
        <ele>577.71052</ele>
        <time>2026-03-24T10:02:20.994Z</time>
      </trkpt>
      <trkpt lat="43.65195" lon="6.19683">
        <ele>577.61728</ele>
        <time>2026-03-24T10:02:22.994Z</time>
      </trkpt>
      <trkpt lat="43.65194" lon="6.19687">
        <ele>577.434</ele>
        <time>2026-03-24T10:02:25.994Z</time>
      </trkpt>
      <trkpt lat="43.65194" lon="6.19692">
        <ele>577.29885</ele>
        <time>2026-03-24T10:02:27.994Z</time>
      </trkpt>
      <trkpt lat="43.65195" lon="6.19696">
        <ele>577.14831</ele>
        <time>2026-03-24T10:02:29.994Z</time>
      </trkpt>
      <trkpt lat="43.65195" lon="6.197">
        <ele>576.87587</ele>
        <time>2026-03-24T10:02:32.994Z</time>
      </trkpt>
      <trkpt lat="43.65194" lon="6.19704">
        <ele>576.49878</ele>
        <time>2026-03-24T10:02:35.994Z</time>
      </trkpt>
      <trkpt lat="43.65193" lon="6.19707">
        <ele>576.2838</ele>
        <time>2026-03-24T10:02:37.994Z</time>
      </trkpt>
      <trkpt lat="43.65192" lon="6.19711">
        <ele>575.99535</ele>
        <time>2026-03-24T10:02:39.994Z</time>
      </trkpt>
      <trkpt lat="43.65191" lon="6.19715">
        <ele>575.57164</ele>
        <time>2026-03-24T10:02:42.994Z</time>
      </trkpt>
      <trkpt lat="43.6519" lon="6.19719">
        <ele>575.31856</ele>
        <time>2026-03-24T10:02:44.994Z</time>
      </trkpt>
      <trkpt lat="43.65188" lon="6.19722">
        <ele>574.97823</ele>
        <time>2026-03-24T10:02:47.994Z</time>
      </trkpt>
      <trkpt lat="43.65186" lon="6.19726">
        <ele>574.72884</ele>
        <time>2026-03-24T10:02:50.994Z</time>
      </trkpt>
      <trkpt lat="43.65184" lon="6.19728">
        <ele>574.57474</ele>
        <time>2026-03-24T10:02:52.994Z</time>
      </trkpt>
      <trkpt lat="43.65182" lon="6.19731">
        <ele>574.41144</ele>
        <time>2026-03-24T10:02:54.994Z</time>
      </trkpt>
      <trkpt lat="43.6518" lon="6.19735">
        <ele>574.22143</ele>
        <time>2026-03-24T10:02:57.994Z</time>
      </trkpt>
      <trkpt lat="43.65179" lon="6.19738">
        <ele>574.09371</ele>
        <time>2026-03-24T10:02:59.994Z</time>
      </trkpt>
      <trkpt lat="43.65177" lon="6.19741">
        <ele>573.9663</ele>
        <time>2026-03-24T10:03:01.994Z</time>
      </trkpt>
      <trkpt lat="43.65176" lon="6.19743">
        <ele>573.84992</ele>
        <time>2026-03-24T10:03:03.994Z</time>
      </trkpt>
      <trkpt lat="43.65175" lon="6.19747">
        <ele>573.65764</ele>
        <time>2026-03-24T10:03:06.994Z</time>
      </trkpt>
      <trkpt lat="43.65173" lon="6.19749">
        <ele>573.53178</ele>
        <time>2026-03-24T10:03:08.994Z</time>
      </trkpt>
      <trkpt lat="43.65171" lon="6.19751">
        <ele>573.39818</ele>
        <time>2026-03-24T10:03:10.994Z</time>
      </trkpt>
      <trkpt lat="43.65168" lon="6.19752">
        <ele>573.27008</ele>
        <time>2026-03-24T10:03:12.994Z</time>
      </trkpt>
      <trkpt lat="43.65166" lon="6.19754">
        <ele>573.14662</ele>
        <time>2026-03-24T10:03:14.994Z</time>
      </trkpt>
      <trkpt lat="43.65164" lon="6.19756">
        <ele>572.97026</ele>
        <time>2026-03-24T10:03:17.994Z</time>
      </trkpt>
      <trkpt lat="43.65161" lon="6.19758">
        <ele>572.82117</ele>
        <time>2026-03-24T10:03:20.994Z</time>
      </trkpt>
      <trkpt lat="43.65159" lon="6.19758">
        <ele>572.74194</ele>
        <time>2026-03-24T10:03:22.994Z</time>
      </trkpt>
      <trkpt lat="43.65157" lon="6.19761">
        <ele>572.57988</ele>
        <time>2026-03-24T10:03:25.994Z</time>
      </trkpt>
      <trkpt lat="43.65155" lon="6.19763">
        <ele>572.4913</ele>
        <time>2026-03-24T10:03:27.994Z</time>
      </trkpt>
      <trkpt lat="43.65152" lon="6.19764">
        <ele>572.42214</ele>
        <time>2026-03-24T10:03:29.994Z</time>
      </trkpt>
      <trkpt lat="43.6515" lon="6.19766">
        <ele>572.34537</ele>
        <time>2026-03-24T10:03:31.994Z</time>
      </trkpt>
      <trkpt lat="43.65147" lon="6.19766">
        <ele>572.27546</ele>
        <time>2026-03-24T10:03:33.994Z</time>
      </trkpt>
      <trkpt lat="43.65145" lon="6.19769">
        <ele>572.09565</ele>
        <time>2026-03-24T10:03:40.994Z</time>
      </trkpt>
      <trkpt lat="43.65143" lon="6.19771">
        <ele>571.80767</ele>
        <time>2026-03-24T10:03:58.994Z</time>
      </trkpt>
      <trkpt lat="43.6514" lon="6.19771">
        <ele>571.77449</ele>
        <time>2026-03-24T10:04:00.994Z</time>
      </trkpt>
      <trkpt lat="43.65138" lon="6.19771">
        <ele>571.67905</ele>
        <time>2026-03-24T10:04:06.994Z</time>
      </trkpt>
      <trkpt lat="43.65135" lon="6.19772">
        <ele>571.63724</ele>
        <time>2026-03-24T10:04:09.994Z</time>
      </trkpt>
      <trkpt lat="43.65132" lon="6.1977">
        <ele>571.59923</ele>
        <time>2026-03-24T10:04:12.994Z</time>
      </trkpt>
      <trkpt lat="43.6513" lon="6.19771">
        <ele>571.57627</ele>
        <time>2026-03-24T10:04:14.993Z</time>
      </trkpt>
      <trkpt lat="43.65127" lon="6.19774">
        <ele>571.53852</ele>
        <time>2026-03-24T10:04:17.993Z</time>
      </trkpt>
      <trkpt lat="43.65124" lon="6.19774">
        <ele>571.51152</ele>
        <time>2026-03-24T10:04:19.993Z</time>
      </trkpt>
      <trkpt lat="43.65121" lon="6.19775">
        <ele>571.48549</ele>
        <time>2026-03-24T10:04:21.993Z</time>
      </trkpt>
      <trkpt lat="43.65118" lon="6.19774">
        <ele>571.41644</ele>
        <time>2026-03-24T10:04:25.993Z</time>
      </trkpt>
      <trkpt lat="43.65114" lon="6.19774">
        <ele>571.35874</ele>
        <time>2026-03-24T10:04:27.993Z</time>
      </trkpt>
      <trkpt lat="43.65112" lon="6.19776">
        <ele>571.22093</ele>
        <time>2026-03-24T10:04:30.993Z</time>
      </trkpt>
      <trkpt lat="43.65108" lon="6.19775">
        <ele>571.04621</ele>
        <time>2026-03-24T10:04:33.993Z</time>
      </trkpt>
      <trkpt lat="43.65106" lon="6.19775">
        <ele>570.91296</ele>
        <time>2026-03-24T10:04:35.993Z</time>
      </trkpt>
      <trkpt lat="43.65103" lon="6.19775">
        <ele>570.70325</ele>
        <time>2026-03-24T10:04:38.993Z</time>
      </trkpt>
      <trkpt lat="43.651" lon="6.19774">
        <ele>570.518</ele>
        <time>2026-03-24T10:04:41.993Z</time>
      </trkpt>
      <trkpt lat="43.65096" lon="6.19773">
        <ele>570.30308</ele>
        <time>2026-03-24T10:04:44.993Z</time>
      </trkpt>
      <trkpt lat="43.65094" lon="6.19774">
        <ele>570.10511</ele>
        <time>2026-03-24T10:04:47.993Z</time>
      </trkpt>
      <trkpt lat="43.65092" lon="6.19773">
        <ele>569.93061</ele>
        <time>2026-03-24T10:04:50.994Z</time>
      </trkpt>
      <trkpt lat="43.65088" lon="6.19773">
        <ele>569.78625</ele>
        <time>2026-03-24T10:04:53.994Z</time>
      </trkpt>
      <trkpt lat="43.65086" lon="6.19772">
        <ele>569.63412</ele>
        <time>2026-03-24T10:04:57.994Z</time>
      </trkpt>
      <trkpt lat="43.65083" lon="6.19771">
        <ele>569.55125</ele>
        <time>2026-03-24T10:04:59.993Z</time>
      </trkpt>
      <trkpt lat="43.6508" lon="6.19769">
        <ele>569.45246</ele>
        <time>2026-03-24T10:05:01.993Z</time>
      </trkpt>
      <trkpt lat="43.65077" lon="6.19767">
        <ele>569.34033</ele>
        <time>2026-03-24T10:05:03.993Z</time>
      </trkpt>
      <trkpt lat="43.65075" lon="6.19764">
        <ele>569.22249</ele>
        <time>2026-03-24T10:05:05.993Z</time>
      </trkpt>
      <trkpt lat="43.65073" lon="6.1976">
        <ele>569.12624</ele>
        <time>2026-03-24T10:05:07.993Z</time>
      </trkpt>
      <trkpt lat="43.65071" lon="6.19759">
        <ele>569.0192</ele>
        <time>2026-03-24T10:05:09.993Z</time>
      </trkpt>
      <trkpt lat="43.65069" lon="6.19756">
        <ele>568.91494</ele>
        <time>2026-03-24T10:05:11.993Z</time>
      </trkpt>
      <trkpt lat="43.65068" lon="6.19752">
        <ele>568.81792</ele>
        <time>2026-03-24T10:05:13.993Z</time>
      </trkpt>
      <trkpt lat="43.65066" lon="6.19749">
        <ele>568.7062</ele>
        <time>2026-03-24T10:05:16.993Z</time>
      </trkpt>
      <trkpt lat="43.65063" lon="6.19748">
        <ele>568.66106</ele>
        <time>2026-03-24T10:05:19.993Z</time>
      </trkpt>
      <trkpt lat="43.6506" lon="6.19746">
        <ele>568.65718</ele>
        <time>2026-03-24T10:05:22.993Z</time>
      </trkpt>
      <trkpt lat="43.65057" lon="6.19746">
        <ele>568.66422</ele>
        <time>2026-03-24T10:05:24.993Z</time>
      </trkpt>
      <trkpt lat="43.65055" lon="6.19743">
        <ele>568.68966</ele>
        <time>2026-03-24T10:05:27.993Z</time>
      </trkpt>
      <trkpt lat="43.65052" lon="6.19743">
        <ele>568.7293</ele>
        <time>2026-03-24T10:05:30.993Z</time>
      </trkpt>
      <trkpt lat="43.6505" lon="6.19744">
        <ele>568.79925</ele>
        <time>2026-03-24T10:05:33.993Z</time>
      </trkpt>
      <trkpt lat="43.65047" lon="6.19745">
        <ele>568.9117</ele>
        <time>2026-03-24T10:05:36.993Z</time>
      </trkpt>
      <trkpt lat="43.65044" lon="6.19745">
        <ele>569.05573</ele>
        <time>2026-03-24T10:05:39.992Z</time>
      </trkpt>
      <trkpt lat="43.65041" lon="6.19746">
        <ele>569.15941</ele>
        <time>2026-03-24T10:05:41.992Z</time>
      </trkpt>
      <trkpt lat="43.65039" lon="6.19748">
        <ele>569.30443</ele>
        <time>2026-03-24T10:05:43.992Z</time>
      </trkpt>
      <trkpt lat="43.65037" lon="6.19749">
        <ele>569.51771</ele>
        <time>2026-03-24T10:05:45.992Z</time>
      </trkpt>
      <trkpt lat="43.65034" lon="6.19751">
        <ele>569.74467</ele>
        <time>2026-03-24T10:05:47.992Z</time>
      </trkpt>
      <trkpt lat="43.65031" lon="6.19752">
        <ele>569.92918</ele>
        <time>2026-03-24T10:05:49.992Z</time>
      </trkpt>
      <trkpt lat="43.65028" lon="6.19754">
        <ele>570.12352</ele>
        <time>2026-03-24T10:05:51.992Z</time>
      </trkpt>
      <trkpt lat="43.65027" lon="6.19757">
        <ele>570.296</ele>
        <time>2026-03-24T10:05:53.992Z</time>
      </trkpt>
      <trkpt lat="43.65025" lon="6.1976">
        <ele>570.51218</ele>
        <time>2026-03-24T10:05:55.992Z</time>
      </trkpt>
      <trkpt lat="43.65023" lon="6.19762">
        <ele>570.74559</ele>
        <time>2026-03-24T10:05:57.992Z</time>
      </trkpt>
      <trkpt lat="43.65021" lon="6.19765">
        <ele>571.01603</ele>
        <time>2026-03-24T10:05:59.992Z</time>
      </trkpt>
      <trkpt lat="43.65019" lon="6.19768">
        <ele>571.27382</ele>
        <time>2026-03-24T10:06:01.992Z</time>
      </trkpt>
      <trkpt lat="43.65017" lon="6.19772">
        <ele>571.50768</ele>
        <time>2026-03-24T10:06:03.992Z</time>
      </trkpt>
      <trkpt lat="43.65015" lon="6.19775">
        <ele>571.7155</ele>
        <time>2026-03-24T10:06:05.992Z</time>
      </trkpt>
      <trkpt lat="43.65014" lon="6.19777">
        <ele>571.94097</ele>
        <time>2026-03-24T10:06:07.992Z</time>
      </trkpt>
      <trkpt lat="43.65013" lon="6.19781">
        <ele>572.32637</ele>
        <time>2026-03-24T10:06:10.992Z</time>
      </trkpt>
      <trkpt lat="43.65012" lon="6.19784">
        <ele>572.58267</ele>
        <time>2026-03-24T10:06:12.992Z</time>
      </trkpt>
      <trkpt lat="43.65012" lon="6.19788">
        <ele>572.82118</ele>
        <time>2026-03-24T10:06:14.992Z</time>
      </trkpt>
      <trkpt lat="43.65011" lon="6.19792">
        <ele>573.05286</ele>
        <time>2026-03-24T10:06:16.992Z</time>
      </trkpt>
      <trkpt lat="43.65011" lon="6.19796">
        <ele>573.28665</ele>
        <time>2026-03-24T10:06:18.992Z</time>
      </trkpt>
      <trkpt lat="43.6501" lon="6.198">
        <ele>573.48535</ele>
        <time>2026-03-24T10:06:20.992Z</time>
      </trkpt>
      <trkpt lat="43.6501" lon="6.19804">
        <ele>573.68879</ele>
        <time>2026-03-24T10:06:22.992Z</time>
      </trkpt>
      <trkpt lat="43.6501" lon="6.19809">
        <ele>573.82134</ele>
        <time>2026-03-24T10:06:24.992Z</time>
      </trkpt>
      <trkpt lat="43.6501" lon="6.19812">
        <ele>573.96793</ele>
        <time>2026-03-24T10:06:26.992Z</time>
      </trkpt>
      <trkpt lat="43.6501" lon="6.19816">
        <ele>574.08278</ele>
        <time>2026-03-24T10:06:28.992Z</time>
      </trkpt>
      <trkpt lat="43.6501" lon="6.19819">
        <ele>574.1841</ele>
        <time>2026-03-24T10:06:30.992Z</time>
      </trkpt>
      <trkpt lat="43.65011" lon="6.19823">
        <ele>574.24949</ele>
        <time>2026-03-24T10:06:32.992Z</time>
      </trkpt>
      <trkpt lat="43.65011" lon="6.19827">
        <ele>574.30653</ele>
        <time>2026-03-24T10:06:34.992Z</time>
      </trkpt>
      <trkpt lat="43.65012" lon="6.19832">
        <ele>574.36699</ele>
        <time>2026-03-24T10:06:37.992Z</time>
      </trkpt>
      <trkpt lat="43.65013" lon="6.19835">
        <ele>574.41566</ele>
        <time>2026-03-24T10:06:39.992Z</time>
      </trkpt>
      <trkpt lat="43.65014" lon="6.19839">
        <ele>574.47591</ele>
        <time>2026-03-24T10:06:41.992Z</time>
      </trkpt>
      <trkpt lat="43.65015" lon="6.19842">
        <ele>574.51961</ele>
        <time>2026-03-24T10:06:43.992Z</time>
      </trkpt>
      <trkpt lat="43.65017" lon="6.19846">
        <ele>574.54726</ele>
        <time>2026-03-24T10:06:45.992Z</time>
      </trkpt>
      <trkpt lat="43.65018" lon="6.19849">
        <ele>574.5483</ele>
        <time>2026-03-24T10:06:47.992Z</time>
      </trkpt>
      <trkpt lat="43.65019" lon="6.19852">
        <ele>574.54127</ele>
        <time>2026-03-24T10:06:50.992Z</time>
      </trkpt>
      <trkpt lat="43.6502" lon="6.19855">
        <ele>574.50741</ele>
        <time>2026-03-24T10:06:52.993Z</time>
      </trkpt>
      <trkpt lat="43.65021" lon="6.19858">
        <ele>574.46108</ele>
        <time>2026-03-24T10:06:54.993Z</time>
      </trkpt>
      <trkpt lat="43.65022" lon="6.19861">
        <ele>574.39942</ele>
        <time>2026-03-24T10:06:56.993Z</time>
      </trkpt>
      <trkpt lat="43.65023" lon="6.19865">
        <ele>574.31081</ele>
        <time>2026-03-24T10:06:58.993Z</time>
      </trkpt>
      <trkpt lat="43.65023" lon="6.19869">
        <ele>574.20609</ele>
        <time>2026-03-24T10:07:00.993Z</time>
      </trkpt>
      <trkpt lat="43.65024" lon="6.19871">
        <ele>574.07693</ele>
        <time>2026-03-24T10:07:02.992Z</time>
      </trkpt>
      <trkpt lat="43.65026" lon="6.19874">
        <ele>573.93136</ele>
        <time>2026-03-24T10:07:04.993Z</time>
      </trkpt>
      <trkpt lat="43.65027" lon="6.19877">
        <ele>573.77229</ele>
        <time>2026-03-24T10:07:06.993Z</time>
      </trkpt>
      <trkpt lat="43.65027" lon="6.1988">
        <ele>573.60539</ele>
        <time>2026-03-24T10:07:08.993Z</time>
      </trkpt>
      <trkpt lat="43.65027" lon="6.19885">
        <ele>573.28046</ele>
        <time>2026-03-24T10:07:11.993Z</time>
      </trkpt>
      <trkpt lat="43.65027" lon="6.19888">
        <ele>573.04104</ele>
        <time>2026-03-24T10:07:13.993Z</time>
      </trkpt>
      <trkpt lat="43.65029" lon="6.19891">
        <ele>572.72037</ele>
        <time>2026-03-24T10:07:15.993Z</time>
      </trkpt>
      <trkpt lat="43.65029" lon="6.19895">
        <ele>572.21287</ele>
        <time>2026-03-24T10:07:18.993Z</time>
      </trkpt>
      <trkpt lat="43.6503" lon="6.19898">
        <ele>571.89233</ele>
        <time>2026-03-24T10:07:20.993Z</time>
      </trkpt>
      <trkpt lat="43.65031" lon="6.19902">
        <ele>571.55522</ele>
        <time>2026-03-24T10:07:22.993Z</time>
      </trkpt>
      <trkpt lat="43.65031" lon="6.19906">
        <ele>571.06885</ele>
        <time>2026-03-24T10:07:25.993Z</time>
      </trkpt>
      <trkpt lat="43.65031" lon="6.19911">
        <ele>570.51027</ele>
        <time>2026-03-24T10:07:28.993Z</time>
      </trkpt>
      <trkpt lat="43.65029" lon="6.19913">
        <ele>570.20751</ele>
        <time>2026-03-24T10:07:30.993Z</time>
      </trkpt>
      <trkpt lat="43.65027" lon="6.19916">
        <ele>569.68633</ele>
        <time>2026-03-24T10:07:33.993Z</time>
      </trkpt>
      <trkpt lat="43.65025" lon="6.19919">
        <ele>569.21354</ele>
        <time>2026-03-24T10:07:36.993Z</time>
      </trkpt>
      <trkpt lat="43.65023" lon="6.1992">
        <ele>568.93306</ele>
        <time>2026-03-24T10:07:38.993Z</time>
      </trkpt>
      <trkpt lat="43.6502" lon="6.19923">
        <ele>568.51279</ele>
        <time>2026-03-24T10:07:41.993Z</time>
      </trkpt>
      <trkpt lat="43.65017" lon="6.19924">
        <ele>568.31551</ele>
        <time>2026-03-24T10:07:43.993Z</time>
      </trkpt>
      <trkpt lat="43.65014" lon="6.19925">
        <ele>568.10651</ele>
        <time>2026-03-24T10:07:45.992Z</time>
      </trkpt>
      <trkpt lat="43.65011" lon="6.19926">
        <ele>567.90535</ele>
        <time>2026-03-24T10:07:48.992Z</time>
      </trkpt>
      <trkpt lat="43.65009" lon="6.19927">
        <ele>567.77546</ele>
        <time>2026-03-24T10:07:50.992Z</time>
      </trkpt>
      <trkpt lat="43.65006" lon="6.19928">
        <ele>567.67469</ele>
        <time>2026-03-24T10:07:52.992Z</time>
      </trkpt>
      <trkpt lat="43.65004" lon="6.19929">
        <ele>567.63255</ele>
        <time>2026-03-24T10:07:54.992Z</time>
      </trkpt>
      <trkpt lat="43.65001" lon="6.1993">
        <ele>567.59579</ele>
        <time>2026-03-24T10:07:56.992Z</time>
      </trkpt>
      <trkpt lat="43.64998" lon="6.19933">
        <ele>567.51865</ele>
        <time>2026-03-24T10:07:59.992Z</time>
      </trkpt>
      <trkpt lat="43.64995" lon="6.19935">
        <ele>567.5241</ele>
        <time>2026-03-24T10:08:01.992Z</time>
      </trkpt>
      <trkpt lat="43.64992" lon="6.19937">
        <ele>567.54938</ele>
        <time>2026-03-24T10:08:04.992Z</time>
      </trkpt>
      <trkpt lat="43.6499" lon="6.19939">
        <ele>567.5734</ele>
        <time>2026-03-24T10:08:06.992Z</time>
      </trkpt>
      <trkpt lat="43.6499" lon="6.19942">
        <ele>567.65366</ele>
        <time>2026-03-24T10:08:09.992Z</time>
      </trkpt>
      <trkpt lat="43.64989" lon="6.19946">
        <ele>567.75579</ele>
        <time>2026-03-24T10:08:13.992Z</time>
      </trkpt>
      <trkpt lat="43.64989" lon="6.19949">
        <ele>567.89392</ele>
        <time>2026-03-24T10:08:19.992Z</time>
      </trkpt>
      <trkpt lat="43.64989" lon="6.19955">
        <ele>568.23356</ele>
        <time>2026-03-24T10:08:33.992Z</time>
      </trkpt>
      <trkpt lat="43.64988" lon="6.19958">
        <ele>568.55784</ele>
        <time>2026-03-24T10:09:08.993Z</time>
      </trkpt>
      <trkpt lat="43.64987" lon="6.1996">
        <ele>568.56556</ele>
        <time>2026-03-24T10:09:12.993Z</time>
      </trkpt>
      <trkpt lat="43.64986" lon="6.19964">
        <ele>568.5713</ele>
        <time>2026-03-24T10:09:18.993Z</time>
      </trkpt>
      <trkpt lat="43.64985" lon="6.19968">
        <ele>568.5714</ele>
        <time>2026-03-24T10:09:23.993Z</time>
      </trkpt>
      <trkpt lat="43.64983" lon="6.1997">
        <ele>568.56619</ele>
        <time>2026-03-24T10:09:26.991Z</time>
      </trkpt>
      <trkpt lat="43.64981" lon="6.19972">
        <ele>568.5591</ele>
        <time>2026-03-24T10:09:29.990Z</time>
      </trkpt>
      <trkpt lat="43.64979" lon="6.19974">
        <ele>568.55655</ele>
        <time>2026-03-24T10:09:32.989Z</time>
      </trkpt>
      <trkpt lat="43.64977" lon="6.19977">
        <ele>568.53753</ele>
        <time>2026-03-24T10:09:36.987Z</time>
      </trkpt>
      <trkpt lat="43.64976" lon="6.1998">
        <ele>568.52258</ele>
        <time>2026-03-24T10:09:38.987Z</time>
      </trkpt>
      <trkpt lat="43.64975" lon="6.19983">
        <ele>568.49454</ele>
        <time>2026-03-24T10:09:41.986Z</time>
      </trkpt>
      <trkpt lat="43.64972" lon="6.19985">
        <ele>568.46715</ele>
        <time>2026-03-24T10:09:43.986Z</time>
      </trkpt>
      <trkpt lat="43.64971" lon="6.19988">
        <ele>568.40581</ele>
        <time>2026-03-24T10:09:45.985Z</time>
      </trkpt>
      <trkpt lat="43.64971" lon="6.19992">
        <ele>568.36372</ele>
        <time>2026-03-24T10:09:47.985Z</time>
      </trkpt>
      <trkpt lat="43.64971" lon="6.19995">
        <ele>568.32928</ele>
        <time>2026-03-24T10:09:49.985Z</time>
      </trkpt>
      <trkpt lat="43.6497" lon="6.19999">
        <ele>568.23936</ele>
        <time>2026-03-24T10:09:52.984Z</time>
      </trkpt>
      <trkpt lat="43.64968" lon="6.20002">
        <ele>568.13055</ele>
        <time>2026-03-24T10:09:55.984Z</time>
      </trkpt>
      <trkpt lat="43.64966" lon="6.20006">
        <ele>568.0642</ele>
        <time>2026-03-24T10:09:58.984Z</time>
      </trkpt>
      <trkpt lat="43.64963" lon="6.20007">
        <ele>567.96565</ele>
        <time>2026-03-24T10:10:01.984Z</time>
      </trkpt>
      <trkpt lat="43.64961" lon="6.2001">
        <ele>567.90869</ele>
        <time>2026-03-24T10:10:03.984Z</time>
      </trkpt>
      <trkpt lat="43.64959" lon="6.20013">
        <ele>567.81481</ele>
        <time>2026-03-24T10:10:06.983Z</time>
      </trkpt>
      <trkpt lat="43.64956" lon="6.20012">
        <ele>567.73663</ele>
        <time>2026-03-24T10:10:08.983Z</time>
      </trkpt>
      <trkpt lat="43.64953" lon="6.20013">
        <ele>567.58976</ele>
        <time>2026-03-24T10:10:11.983Z</time>
      </trkpt>
      <trkpt lat="43.64951" lon="6.20015">
        <ele>567.47482</ele>
        <time>2026-03-24T10:10:13.983Z</time>
      </trkpt>
      <trkpt lat="43.64949" lon="6.20017">
        <ele>567.33819</ele>
        <time>2026-03-24T10:10:15.983Z</time>
      </trkpt>
      <trkpt lat="43.64945" lon="6.20016">
        <ele>567.09397</ele>
        <time>2026-03-24T10:10:18.983Z</time>
      </trkpt>
      <trkpt lat="43.64943" lon="6.20015">
        <ele>566.7804</ele>
        <time>2026-03-24T10:10:21.983Z</time>
      </trkpt>
      <trkpt lat="43.64941" lon="6.20016">
        <ele>566.54388</ele>
        <time>2026-03-24T10:10:23.983Z</time>
      </trkpt>
      <trkpt lat="43.64938" lon="6.20015">
        <ele>566.33473</ele>
        <time>2026-03-24T10:10:25.983Z</time>
      </trkpt>
      <trkpt lat="43.64935" lon="6.20013">
        <ele>566.1201</ele>
        <time>2026-03-24T10:10:27.983Z</time>
      </trkpt>
      <trkpt lat="43.64933" lon="6.20014">
        <ele>565.90304</ele>
        <time>2026-03-24T10:10:29.983Z</time>
      </trkpt>
      <trkpt lat="43.64931" lon="6.20013">
        <ele>565.70905</ele>
        <time>2026-03-24T10:10:31.983Z</time>
      </trkpt>
      <trkpt lat="43.64928" lon="6.20012">
        <ele>565.56127</ele>
        <time>2026-03-24T10:10:33.982Z</time>
      </trkpt>
      <trkpt lat="43.64925" lon="6.20012">
        <ele>565.38491</ele>
        <time>2026-03-24T10:10:37.982Z</time>
      </trkpt>
      <trkpt lat="43.64922" lon="6.20012">
        <ele>565.33395</ele>
        <time>2026-03-24T10:10:40.982Z</time>
      </trkpt>
      <trkpt lat="43.64919" lon="6.20012">
        <ele>565.30882</ele>
        <time>2026-03-24T10:10:43.982Z</time>
      </trkpt>
      <trkpt lat="43.64916" lon="6.20013">
        <ele>565.30742</ele>
        <time>2026-03-24T10:10:48.982Z</time>
      </trkpt>
      <trkpt lat="43.64913" lon="6.20014">
        <ele>565.31638</ele>
        <time>2026-03-24T10:10:51.982Z</time>
      </trkpt>
      <trkpt lat="43.6491" lon="6.20015">
        <ele>565.34347</ele>
        <time>2026-03-24T10:10:56.982Z</time>
      </trkpt>
      <trkpt lat="43.64908" lon="6.20016">
        <ele>565.34818</ele>
        <time>2026-03-24T10:10:58.982Z</time>
      </trkpt>
      <trkpt lat="43.64906" lon="6.20017">
        <ele>565.36187</ele>
        <time>2026-03-24T10:11:00.982Z</time>
      </trkpt>
      <trkpt lat="43.64903" lon="6.2002">
        <ele>565.37354</ele>
        <time>2026-03-24T10:11:03.983Z</time>
      </trkpt>
      <trkpt lat="43.64902" lon="6.20022">
        <ele>565.37514</ele>
        <time>2026-03-24T10:11:05.982Z</time>
      </trkpt>
      <trkpt lat="43.649" lon="6.20024">
        <ele>565.40027</ele>
        <time>2026-03-24T10:11:10.983Z</time>
      </trkpt>
      <trkpt lat="43.64898" lon="6.20027">
        <ele>565.4056</ele>
        <time>2026-03-24T10:11:12.983Z</time>
      </trkpt>
      <trkpt lat="43.64897" lon="6.2003">
        <ele>565.41613</ele>
        <time>2026-03-24T10:11:15.983Z</time>
      </trkpt>
      <trkpt lat="43.64895" lon="6.20032">
        <ele>565.43417</ele>
        <time>2026-03-24T10:11:18.982Z</time>
      </trkpt>
      <trkpt lat="43.64894" lon="6.20035">
        <ele>565.45571</ele>
        <time>2026-03-24T10:11:20.982Z</time>
      </trkpt>
      <trkpt lat="43.64892" lon="6.20038">
        <ele>565.46588</ele>
        <time>2026-03-24T10:11:23.982Z</time>
      </trkpt>
      <trkpt lat="43.64891" lon="6.20041">
        <ele>565.46069</ele>
        <time>2026-03-24T10:11:26.982Z</time>
      </trkpt>
      <trkpt lat="43.6489" lon="6.20044">
        <ele>565.46139</ele>
        <time>2026-03-24T10:11:29.982Z</time>
      </trkpt>
      <trkpt lat="43.64888" lon="6.20049">
        <ele>565.4556</ele>
        <time>2026-03-24T10:11:32.982Z</time>
      </trkpt>
      <trkpt lat="43.64886" lon="6.20053">
        <ele>565.44648</ele>
        <time>2026-03-24T10:11:35.982Z</time>
      </trkpt>
      <trkpt lat="43.64885" lon="6.20056">
        <ele>565.43532</ele>
        <time>2026-03-24T10:11:37.982Z</time>
      </trkpt>
      <trkpt lat="43.64884" lon="6.2006">
        <ele>565.41498</ele>
        <time>2026-03-24T10:11:40.982Z</time>
      </trkpt>
      <trkpt lat="43.64879" lon="6.20062">
        <ele>565.36381</ele>
        <time>2026-03-24T10:11:43.982Z</time>
      </trkpt>
      <trkpt lat="43.64877" lon="6.20065">
        <ele>565.27439</ele>
        <time>2026-03-24T10:11:46.982Z</time>
      </trkpt>
      <trkpt lat="43.64877" lon="6.2007">
        <ele>565.16671</ele>
        <time>2026-03-24T10:11:48.982Z</time>
      </trkpt>
      <trkpt lat="43.64875" lon="6.20073">
        <ele>564.92527</ele>
        <time>2026-03-24T10:11:51.982Z</time>
      </trkpt>
      <trkpt lat="43.64874" lon="6.20077">
        <ele>564.68311</ele>
        <time>2026-03-24T10:11:53.982Z</time>
      </trkpt>
      <trkpt lat="43.64872" lon="6.2008">
        <ele>564.20626</ele>
        <time>2026-03-24T10:11:56.982Z</time>
      </trkpt>
      <trkpt lat="43.64873" lon="6.20084">
        <ele>563.84046</ele>
        <time>2026-03-24T10:11:58.982Z</time>
      </trkpt>
      <trkpt lat="43.64871" lon="6.20087">
        <ele>563.18172</ele>
        <time>2026-03-24T10:12:01.982Z</time>
      </trkpt>
      <trkpt lat="43.64869" lon="6.20091">
        <ele>562.39153</ele>
        <time>2026-03-24T10:12:04.982Z</time>
      </trkpt>
      <trkpt lat="43.64868" lon="6.20094">
        <ele>561.97087</ele>
        <time>2026-03-24T10:12:06.982Z</time>
      </trkpt>
      <trkpt lat="43.64867" lon="6.20097">
        <ele>561.02222</ele>
        <time>2026-03-24T10:12:10.981Z</time>
      </trkpt>
      <trkpt lat="43.64866" lon="6.20101">
        <ele>560.51745</ele>
        <time>2026-03-24T10:12:12.981Z</time>
      </trkpt>
      <trkpt lat="43.64864" lon="6.20104">
        <ele>559.97091</ele>
        <time>2026-03-24T10:12:14.981Z</time>
      </trkpt>
      <trkpt lat="43.64862" lon="6.20107">
        <ele>559.17521</ele>
        <time>2026-03-24T10:12:17.981Z</time>
      </trkpt>
      <trkpt lat="43.6486" lon="6.20109">
        <ele>558.6513</ele>
        <time>2026-03-24T10:12:19.981Z</time>
      </trkpt>
      <trkpt lat="43.64859" lon="6.20113">
        <ele>557.82702</ele>
        <time>2026-03-24T10:12:22.981Z</time>
      </trkpt>
      <trkpt lat="43.64858" lon="6.20116">
        <ele>557.34944</ele>
        <time>2026-03-24T10:12:24.981Z</time>
      </trkpt>
      <trkpt lat="43.64855" lon="6.20118">
        <ele>556.7739</ele>
        <time>2026-03-24T10:12:27.981Z</time>
      </trkpt>
      <trkpt lat="43.64854" lon="6.20121">
        <ele>556.3192</ele>
        <time>2026-03-24T10:12:30.981Z</time>
      </trkpt>
      <trkpt lat="43.64853" lon="6.20125">
        <ele>555.88815</ele>
        <time>2026-03-24T10:12:33.981Z</time>
      </trkpt>
      <trkpt lat="43.6485" lon="6.20129">
        <ele>555.47451</ele>
        <time>2026-03-24T10:12:36.981Z</time>
      </trkpt>
      <trkpt lat="43.64848" lon="6.20131">
        <ele>555.2385</ele>
        <time>2026-03-24T10:12:38.981Z</time>
      </trkpt>
      <trkpt lat="43.64846" lon="6.20132">
        <ele>554.99446</ele>
        <time>2026-03-24T10:12:40.981Z</time>
      </trkpt>
      <trkpt lat="43.64843" lon="6.20133">
        <ele>554.65035</ele>
        <time>2026-03-24T10:12:44.981Z</time>
      </trkpt>
      <trkpt lat="43.64841" lon="6.20135">
        <ele>554.53063</ele>
        <time>2026-03-24T10:12:46.981Z</time>
      </trkpt>
      <trkpt lat="43.64839" lon="6.20135">
        <ele>554.39218</ele>
        <time>2026-03-24T10:12:49.981Z</time>
      </trkpt>
      <trkpt lat="43.64836" lon="6.20135">
        <ele>554.06385</ele>
        <time>2026-03-24T10:13:05.981Z</time>
      </trkpt>
      <trkpt lat="43.64834" lon="6.20137">
        <ele>554.01682</ele>
        <time>2026-03-24T10:13:10.982Z</time>
      </trkpt>
      <trkpt lat="43.64831" lon="6.20137">
        <ele>553.94433</ele>
        <time>2026-03-24T10:13:15.982Z</time>
      </trkpt>
      <trkpt lat="43.64828" lon="6.20136">
        <ele>553.88321</ele>
        <time>2026-03-24T10:13:18.982Z</time>
      </trkpt>
      <trkpt lat="43.64825" lon="6.20136">
        <ele>553.84036</ele>
        <time>2026-03-24T10:13:20.982Z</time>
      </trkpt>
      <trkpt lat="43.64823" lon="6.20134">
        <ele>553.80226</ele>
        <time>2026-03-24T10:13:22.982Z</time>
      </trkpt>
      <trkpt lat="43.64821" lon="6.20132">
        <ele>553.77234</ele>
        <time>2026-03-24T10:13:24.982Z</time>
      </trkpt>
      <trkpt lat="43.64817" lon="6.20132">
        <ele>553.72257</ele>
        <time>2026-03-24T10:13:27.982Z</time>
      </trkpt>
      <trkpt lat="43.64813" lon="6.20133">
        <ele>553.71235</ele>
        <time>2026-03-24T10:13:29.982Z</time>
      </trkpt>
      <trkpt lat="43.64809" lon="6.20133">
        <ele>553.70775</ele>
        <time>2026-03-24T10:13:33.982Z</time>
      </trkpt>
      <trkpt lat="43.64807" lon="6.20132">
        <ele>553.69477</ele>
        <time>2026-03-24T10:13:35.982Z</time>
      </trkpt>
      <trkpt lat="43.64804" lon="6.20131">
        <ele>553.67895</ele>
        <time>2026-03-24T10:13:38.982Z</time>
      </trkpt>
      <trkpt lat="43.64801" lon="6.20132">
        <ele>553.69074</ele>
        <time>2026-03-24T10:13:41.982Z</time>
      </trkpt>
      <trkpt lat="43.64798" lon="6.20132">
        <ele>553.69703</ele>
        <time>2026-03-24T10:13:43.982Z</time>
      </trkpt>
      <trkpt lat="43.64796" lon="6.20133">
        <ele>553.70636</ele>
        <time>2026-03-24T10:13:45.982Z</time>
      </trkpt>
      <trkpt lat="43.64794" lon="6.20134">
        <ele>553.7154</ele>
        <time>2026-03-24T10:13:47.982Z</time>
      </trkpt>
      <trkpt lat="43.6479" lon="6.20137">
        <ele>553.73753</ele>
        <time>2026-03-24T10:13:50.982Z</time>
      </trkpt>
      <trkpt lat="43.64789" lon="6.2014">
        <ele>553.75699</ele>
        <time>2026-03-24T10:13:52.981Z</time>
      </trkpt>
      <trkpt lat="43.64787" lon="6.20143">
        <ele>553.77745</ele>
        <time>2026-03-24T10:13:54.981Z</time>
      </trkpt>
      <trkpt lat="43.64786" lon="6.20146">
        <ele>553.80442</ele>
        <time>2026-03-24T10:13:56.981Z</time>
      </trkpt>
      <trkpt lat="43.64784" lon="6.20149">
        <ele>553.83201</ele>
        <time>2026-03-24T10:13:58.981Z</time>
      </trkpt>
      <trkpt lat="43.64782" lon="6.20151">
        <ele>553.87473</ele>
        <time>2026-03-24T10:14:00.981Z</time>
      </trkpt>
      <trkpt lat="43.64781" lon="6.20154">
        <ele>553.97892</ele>
        <time>2026-03-24T10:14:03.981Z</time>
      </trkpt>
      <trkpt lat="43.6478" lon="6.20157">
        <ele>554.07103</ele>
        <time>2026-03-24T10:14:05.981Z</time>
      </trkpt>
      <trkpt lat="43.64778" lon="6.20159">
        <ele>554.18959</ele>
        <time>2026-03-24T10:14:07.981Z</time>
      </trkpt>
      <trkpt lat="43.64776" lon="6.20162">
        <ele>554.37684</ele>
        <time>2026-03-24T10:14:10.981Z</time>
      </trkpt>
      <trkpt lat="43.64774" lon="6.20166">
        <ele>554.55107</ele>
        <time>2026-03-24T10:14:13.981Z</time>
      </trkpt>
      <trkpt lat="43.64772" lon="6.20171">
        <ele>554.59053</ele>
        <time>2026-03-24T10:14:16.981Z</time>
      </trkpt>
      <trkpt lat="43.6477" lon="6.20174">
        <ele>554.59956</ele>
        <time>2026-03-24T10:14:18.981Z</time>
      </trkpt>
      <trkpt lat="43.6477" lon="6.20178">
        <ele>554.59016</ele>
        <time>2026-03-24T10:14:21.981Z</time>
      </trkpt>
      <trkpt lat="43.64769" lon="6.20182">
        <ele>554.56393</ele>
        <time>2026-03-24T10:14:23.981Z</time>
      </trkpt>
      <trkpt lat="43.64769" lon="6.20185">
        <ele>554.51406</ele>
        <time>2026-03-24T10:14:25.981Z</time>
      </trkpt>
      <trkpt lat="43.64768" lon="6.20189">
        <ele>554.48112</ele>
        <time>2026-03-24T10:14:27.981Z</time>
      </trkpt>
      <trkpt lat="43.64768" lon="6.20192">
        <ele>554.43917</ele>
        <time>2026-03-24T10:14:29.981Z</time>
      </trkpt>
      <trkpt lat="43.64768" lon="6.20196">
        <ele>554.36321</ele>
        <time>2026-03-24T10:14:31.981Z</time>
      </trkpt>
      <trkpt lat="43.64766" lon="6.20199">
        <ele>554.27154</ele>
        <time>2026-03-24T10:14:33.981Z</time>
      </trkpt>
      <trkpt lat="43.64765" lon="6.20202">
        <ele>554.14846</ele>
        <time>2026-03-24T10:14:35.981Z</time>
      </trkpt>
      <trkpt lat="43.64764" lon="6.20207">
        <ele>553.94142</ele>
        <time>2026-03-24T10:14:38.981Z</time>
      </trkpt>
      <trkpt lat="43.64763" lon="6.20209">
        <ele>553.7683</ele>
        <time>2026-03-24T10:14:40.981Z</time>
      </trkpt>
      <trkpt lat="43.64762" lon="6.20213">
        <ele>553.52921</ele>
        <time>2026-03-24T10:14:42.981Z</time>
      </trkpt>
      <trkpt lat="43.64761" lon="6.20217">
        <ele>553.28091</ele>
        <time>2026-03-24T10:14:44.981Z</time>
      </trkpt>
      <trkpt lat="43.6476" lon="6.2022">
        <ele>552.86118</ele>
        <time>2026-03-24T10:14:47.981Z</time>
      </trkpt>
      <trkpt lat="43.64758" lon="6.20224">
        <ele>552.46532</ele>
        <time>2026-03-24T10:14:50.981Z</time>
      </trkpt>
      <trkpt lat="43.64757" lon="6.20227">
        <ele>552.1721</ele>
        <time>2026-03-24T10:14:52.981Z</time>
      </trkpt>
      <trkpt lat="43.64756" lon="6.20231">
        <ele>551.72686</ele>
        <time>2026-03-24T10:14:55.981Z</time>
      </trkpt>
      <trkpt lat="43.64755" lon="6.20235">
        <ele>551.46383</ele>
        <time>2026-03-24T10:14:57.981Z</time>
      </trkpt>
      <trkpt lat="43.64754" lon="6.20239">
        <ele>551.08528</ele>
        <time>2026-03-24T10:15:00.981Z</time>
      </trkpt>
      <trkpt lat="43.64753" lon="6.20242">
        <ele>550.7337</ele>
        <time>2026-03-24T10:15:02.981Z</time>
      </trkpt>
      <trkpt lat="43.64751" lon="6.20245">
        <ele>550.35575</ele>
        <time>2026-03-24T10:15:04.981Z</time>
      </trkpt>
      <trkpt lat="43.64751" lon="6.20249">
        <ele>549.9418</ele>
        <time>2026-03-24T10:15:06.981Z</time>
      </trkpt>
      <trkpt lat="43.6475" lon="6.20253">
        <ele>549.50344</ele>
        <time>2026-03-24T10:15:08.981Z</time>
      </trkpt>
      <trkpt lat="43.64748" lon="6.20257">
        <ele>548.73625</ele>
        <time>2026-03-24T10:15:11.980Z</time>
      </trkpt>
      <trkpt lat="43.64747" lon="6.2026">
        <ele>548.16722</ele>
        <time>2026-03-24T10:15:13.980Z</time>
      </trkpt>
      <trkpt lat="43.64746" lon="6.20263">
        <ele>547.58734</ele>
        <time>2026-03-24T10:15:15.981Z</time>
      </trkpt>
      <trkpt lat="43.64744" lon="6.20267">
        <ele>546.7543</ele>
        <time>2026-03-24T10:15:18.981Z</time>
      </trkpt>
      <trkpt lat="43.64742" lon="6.20269">
        <ele>546.23742</ele>
        <time>2026-03-24T10:15:20.981Z</time>
      </trkpt>
      <trkpt lat="43.6474" lon="6.20272">
        <ele>545.72781</ele>
        <time>2026-03-24T10:15:22.981Z</time>
      </trkpt>
      <trkpt lat="43.64737" lon="6.20273">
        <ele>545.0409</ele>
        <time>2026-03-24T10:15:25.980Z</time>
      </trkpt>
      <trkpt lat="43.64734" lon="6.20274">
        <ele>544.68723</ele>
        <time>2026-03-24T10:15:28.981Z</time>
      </trkpt>
      <trkpt lat="43.64731" lon="6.20276">
        <ele>544.40813</ele>
        <time>2026-03-24T10:15:32.981Z</time>
      </trkpt>
      <trkpt lat="43.64731" lon="6.20279">
        <ele>544.14826</ele>
        <time>2026-03-24T10:15:35.981Z</time>
      </trkpt>
      <trkpt lat="43.64729" lon="6.20281">
        <ele>544.0645</ele>
        <time>2026-03-24T10:15:36.981Z</time>
      </trkpt>
      <trkpt lat="43.64727" lon="6.20283">
        <ele>543.86197</ele>
        <time>2026-03-24T10:15:38.981Z</time>
      </trkpt>
      <trkpt lat="43.64724" lon="6.20283">
        <ele>543.68932</ele>
        <time>2026-03-24T10:15:40.981Z</time>
      </trkpt>
      <trkpt lat="43.64722" lon="6.20283">
        <ele>543.53419</ele>
        <time>2026-03-24T10:15:42.981Z</time>
      </trkpt>
      <trkpt lat="43.64719" lon="6.20285">
        <ele>543.36455</ele>
        <time>2026-03-24T10:15:44.981Z</time>
      </trkpt>
      <trkpt lat="43.64716" lon="6.20286">
        <ele>543.12636</ele>
        <time>2026-03-24T10:15:47.981Z</time>
      </trkpt>
      <trkpt lat="43.64718" lon="6.20285">
        <ele>542.91401</ele>
        <time>2026-03-24T10:15:50.981Z</time>
      </trkpt>
      <trkpt lat="43.6472" lon="6.20283">
        <ele>542.81059</ele>
        <time>2026-03-24T10:15:52.981Z</time>
      </trkpt>
      <trkpt lat="43.64722" lon="6.2028">
        <ele>542.75612</ele>
        <time>2026-03-24T10:15:54.981Z</time>
      </trkpt>
      <trkpt lat="43.64723" lon="6.20276">
        <ele>542.69289</ele>
        <time>2026-03-24T10:15:56.981Z</time>
      </trkpt>
      <trkpt lat="43.64725" lon="6.20274">
        <ele>542.65713</ele>
        <time>2026-03-24T10:15:58.981Z</time>
      </trkpt>
      <trkpt lat="43.64728" lon="6.20273">
        <ele>542.59361</ele>
        <time>2026-03-24T10:16:01.980Z</time>
      </trkpt>
      <trkpt lat="43.64731" lon="6.20273">
        <ele>542.58336</ele>
        <time>2026-03-24T10:16:03.980Z</time>
      </trkpt>
      <trkpt lat="43.64733" lon="6.20275">
        <ele>542.52916</ele>
        <time>2026-03-24T10:16:06.980Z</time>
      </trkpt>
      <trkpt lat="43.64735" lon="6.20274">
        <ele>542.43906</ele>
        <time>2026-03-24T10:16:09.980Z</time>
      </trkpt>
      <trkpt lat="43.64736" lon="6.2027">
        <ele>542.36657</ele>
        <time>2026-03-24T10:16:12.980Z</time>
      </trkpt>
      <trkpt lat="43.64734" lon="6.20269">
        <ele>542.33167</ele>
        <time>2026-03-24T10:16:16.980Z</time>
      </trkpt>
      <trkpt lat="43.64732" lon="6.20266">
        <ele>542.31142</ele>
        <time>2026-03-24T10:16:18.980Z</time>
      </trkpt>
      <trkpt lat="43.6473" lon="6.20263">
        <ele>542.29512</ele>
        <time>2026-03-24T10:16:20.980Z</time>
      </trkpt>
      <trkpt lat="43.64728" lon="6.20261">
        <ele>542.29197</ele>
        <time>2026-03-24T10:16:22.980Z</time>
      </trkpt>
      <trkpt lat="43.64725" lon="6.20259">
        <ele>542.29853</ele>
        <time>2026-03-24T10:16:24.980Z</time>
      </trkpt>
      <trkpt lat="43.64722" lon="6.20257">
        <ele>542.31542</ele>
        <time>2026-03-24T10:16:26.980Z</time>
      </trkpt>
      <trkpt lat="43.6472" lon="6.20258">
        <ele>542.3266</ele>
        <time>2026-03-24T10:16:28.980Z</time>
      </trkpt>
      <trkpt lat="43.64717" lon="6.20258">
        <ele>542.31905</ele>
        <time>2026-03-24T10:16:30.980Z</time>
      </trkpt>
      <trkpt lat="43.64714" lon="6.2026">
        <ele>542.31164</ele>
        <time>2026-03-24T10:16:33.980Z</time>
      </trkpt>
      <trkpt lat="43.64712" lon="6.2026">
        <ele>542.31149</ele>
        <time>2026-03-24T10:16:35.980Z</time>
      </trkpt>
      <trkpt lat="43.64709" lon="6.20261">
        <ele>542.31154</ele>
        <time>2026-03-24T10:16:38.980Z</time>
      </trkpt>
      <trkpt lat="43.64705" lon="6.20262">
        <ele>542.30624</ele>
        <time>2026-03-24T10:16:41.980Z</time>
      </trkpt>
      <trkpt lat="43.64703" lon="6.20262">
        <ele>542.28782</ele>
        <time>2026-03-24T10:16:43.980Z</time>
      </trkpt>
      <trkpt lat="43.64701" lon="6.20263">
        <ele>542.26615</ele>
        <time>2026-03-24T10:16:45.980Z</time>
      </trkpt>
      <trkpt lat="43.64697" lon="6.20264">
        <ele>542.22295</ele>
        <time>2026-03-24T10:16:48.980Z</time>
      </trkpt>
      <trkpt lat="43.64695" lon="6.20263">
        <ele>542.18864</ele>
        <time>2026-03-24T10:16:50.980Z</time>
      </trkpt>
      <trkpt lat="43.64691" lon="6.20262">
        <ele>542.13163</ele>
        <time>2026-03-24T10:16:53.980Z</time>
      </trkpt>
      <trkpt lat="43.64688" lon="6.20262">
        <ele>542.03664</ele>
        <time>2026-03-24T10:16:56.980Z</time>
      </trkpt>
      <trkpt lat="43.64686" lon="6.20263">
        <ele>541.96857</ele>
        <time>2026-03-24T10:16:58.980Z</time>
      </trkpt>
      <trkpt lat="43.64684" lon="6.20263">
        <ele>541.72616</ele>
        <time>2026-03-24T10:17:02.980Z</time>
      </trkpt>
      <trkpt lat="43.64682" lon="6.20265">
        <ele>541.37786</ele>
        <time>2026-03-24T10:17:06.980Z</time>
      </trkpt>
      <trkpt lat="43.6468" lon="6.20262">
        <ele>540.99248</ele>
        <time>2026-03-24T10:17:10.980Z</time>
      </trkpt>
      <trkpt lat="43.64678" lon="6.2026">
        <ele>540.65456</ele>
        <time>2026-03-24T10:17:13.980Z</time>
      </trkpt>
      <trkpt lat="43.64677" lon="6.20257">
        <ele>540.32725</ele>
        <time>2026-03-24T10:17:17.980Z</time>
      </trkpt>
      <trkpt lat="43.64675" lon="6.20253">
        <ele>540.1249</ele>
        <time>2026-03-24T10:17:20.979Z</time>
      </trkpt>
      <trkpt lat="43.64675" lon="6.2025">
        <ele>539.91583</ele>
        <time>2026-03-24T10:17:23.980Z</time>
      </trkpt>
      <trkpt lat="43.64673" lon="6.20247">
        <ele>539.83374</ele>
        <time>2026-03-24T10:17:26.980Z</time>
      </trkpt>
      <trkpt lat="43.64671" lon="6.20246">
        <ele>539.77429</ele>
        <time>2026-03-24T10:17:28.980Z</time>
      </trkpt>
      <trkpt lat="43.64668" lon="6.20244">
        <ele>539.64845</ele>
        <time>2026-03-24T10:17:31.980Z</time>
      </trkpt>
      <trkpt lat="43.64664" lon="6.20243">
        <ele>539.42581</ele>
        <time>2026-03-24T10:17:37.979Z</time>
      </trkpt>
      <trkpt lat="43.64661" lon="6.20242">
        <ele>539.34766</ele>
        <time>2026-03-24T10:17:41.979Z</time>
      </trkpt>
      <trkpt lat="43.64659" lon="6.2024">
        <ele>539.3377</ele>
        <time>2026-03-24T10:17:43.979Z</time>
      </trkpt>
      <trkpt lat="43.64657" lon="6.20239">
        <ele>539.28322</ele>
        <time>2026-03-24T10:17:47.979Z</time>
      </trkpt>
      <trkpt lat="43.64654" lon="6.20238">
        <ele>539.26896</ele>
        <time>2026-03-24T10:17:50.979Z</time>
      </trkpt>
      <trkpt lat="43.64651" lon="6.20236">
        <ele>539.27552</ele>
        <time>2026-03-24T10:17:52.979Z</time>
      </trkpt>
      <trkpt lat="43.64649" lon="6.20237">
        <ele>539.28102</ele>
        <time>2026-03-24T10:17:55.979Z</time>
      </trkpt>
      <trkpt lat="43.64647" lon="6.20235">
        <ele>539.32616</ele>
        <time>2026-03-24T10:18:06.979Z</time>
      </trkpt>
      <trkpt lat="43.64646" lon="6.20232">
        <ele>539.34121</ele>
        <time>2026-03-24T10:18:11.979Z</time>
      </trkpt>
      <trkpt lat="43.64644" lon="6.20229">
        <ele>539.35045</ele>
        <time>2026-03-24T10:18:15.979Z</time>
      </trkpt>
      <trkpt lat="43.64641" lon="6.2023">
        <ele>539.35216</ele>
        <time>2026-03-24T10:18:18.979Z</time>
      </trkpt>
      <trkpt lat="43.64638" lon="6.20228">
        <ele>539.35132</ele>
        <time>2026-03-24T10:18:22.979Z</time>
      </trkpt>
      <trkpt lat="43.64636" lon="6.20227">
        <ele>539.35433</ele>
        <time>2026-03-24T10:18:25.979Z</time>
      </trkpt>
      <trkpt lat="43.64634" lon="6.20224">
        <ele>539.35183</ele>
        <time>2026-03-24T10:18:28.979Z</time>
      </trkpt>
      <trkpt lat="43.64632" lon="6.20221">
        <ele>539.357</ele>
        <time>2026-03-24T10:18:32.979Z</time>
      </trkpt>
      <trkpt lat="43.64631" lon="6.20217">
        <ele>539.36542</ele>
        <time>2026-03-24T10:18:36.978Z</time>
      </trkpt>
      <trkpt lat="43.64631" lon="6.20213">
        <ele>539.3682</ele>
        <time>2026-03-24T10:18:41.978Z</time>
      </trkpt>
      <trkpt lat="43.64632" lon="6.2021">
        <ele>539.36615</ele>
        <time>2026-03-24T10:18:43.978Z</time>
      </trkpt>
      <trkpt lat="43.64632" lon="6.20206">
        <ele>539.36277</ele>
        <time>2026-03-24T10:18:45.978Z</time>
      </trkpt>
      <trkpt lat="43.64631" lon="6.20203">
        <ele>539.33345</ele>
        <time>2026-03-24T10:18:47.978Z</time>
      </trkpt>
      <trkpt lat="43.64629" lon="6.20202">
        <ele>539.29418</ele>
        <time>2026-03-24T10:18:51.978Z</time>
      </trkpt>
      <trkpt lat="43.64627" lon="6.20199">
        <ele>539.2495</ele>
        <time>2026-03-24T10:18:56.978Z</time>
      </trkpt>
      <trkpt lat="43.64627" lon="6.20196">
        <ele>539.20984</ele>
        <time>2026-03-24T10:18:59.978Z</time>
      </trkpt>
      <trkpt lat="43.64626" lon="6.20193">
        <ele>539.16258</ele>
        <time>2026-03-24T10:19:03.978Z</time>
      </trkpt>
      <trkpt lat="43.64627" lon="6.20189">
        <ele>539.08319</ele>
        <time>2026-03-24T10:19:08.978Z</time>
      </trkpt>
      <trkpt lat="43.64627" lon="6.20186">
        <ele>539.04263</ele>
        <time>2026-03-24T10:19:10.978Z</time>
      </trkpt>
      <trkpt lat="43.64626" lon="6.20182">
        <ele>538.97175</ele>
        <time>2026-03-24T10:19:12.978Z</time>
      </trkpt>
      <trkpt lat="43.64626" lon="6.20179">
        <ele>538.86316</ele>
        <time>2026-03-24T10:19:15.978Z</time>
      </trkpt>
      <trkpt lat="43.64624" lon="6.20177">
        <ele>538.70837</ele>
        <time>2026-03-24T10:19:19.978Z</time>
      </trkpt>
      <trkpt lat="43.64621" lon="6.20176">
        <ele>538.62218</ele>
        <time>2026-03-24T10:19:22.978Z</time>
      </trkpt>
      <trkpt lat="43.64618" lon="6.20175">
        <ele>538.5578</ele>
        <time>2026-03-24T10:19:24.978Z</time>
      </trkpt>
      <trkpt lat="43.64615" lon="6.20175">
        <ele>538.48145</ele>
        <time>2026-03-24T10:19:27.979Z</time>
      </trkpt>
      <trkpt lat="43.64613" lon="6.20174">
        <ele>538.44444</ele>
        <time>2026-03-24T10:19:29.978Z</time>
      </trkpt>
      <trkpt lat="43.6461" lon="6.20175">
        <ele>538.36931</ele>
        <time>2026-03-24T10:19:32.979Z</time>
      </trkpt>
      <trkpt lat="43.64608" lon="6.20174">
        <ele>538.35146</ele>
        <time>2026-03-24T10:19:35.978Z</time>
      </trkpt>
      <trkpt lat="43.64605" lon="6.20172">
        <ele>538.3257</ele>
        <time>2026-03-24T10:19:38.978Z</time>
      </trkpt>
      <trkpt lat="43.64603" lon="6.20169">
        <ele>538.29387</ele>
        <time>2026-03-24T10:19:41.979Z</time>
      </trkpt>
      <trkpt lat="43.64601" lon="6.20167">
        <ele>538.25887</ele>
        <time>2026-03-24T10:19:45.979Z</time>
      </trkpt>
      <trkpt lat="43.64598" lon="6.20166">
        <ele>538.25656</ele>
        <time>2026-03-24T10:19:47.978Z</time>
      </trkpt>
      <trkpt lat="43.64595" lon="6.20165">
        <ele>538.25192</ele>
        <time>2026-03-24T10:19:50.978Z</time>
      </trkpt>
      <trkpt lat="43.64593" lon="6.20164">
        <ele>538.25795</ele>
        <time>2026-03-24T10:19:53.978Z</time>
      </trkpt>
      <trkpt lat="43.6459" lon="6.20162">
        <ele>538.27101</ele>
        <time>2026-03-24T10:19:56.978Z</time>
      </trkpt>
      <trkpt lat="43.64588" lon="6.20159">
        <ele>538.28564</ele>
        <time>2026-03-24T10:19:59.978Z</time>
      </trkpt>
      <trkpt lat="43.64586" lon="6.20155">
        <ele>538.29608</ele>
        <time>2026-03-24T10:20:01.978Z</time>
      </trkpt>
      <trkpt lat="43.64583" lon="6.20154">
        <ele>538.31111</ele>
        <time>2026-03-24T10:20:04.978Z</time>
      </trkpt>
      <trkpt lat="43.64581" lon="6.20153">
        <ele>538.31767</ele>
        <time>2026-03-24T10:20:06.978Z</time>
      </trkpt>
      <trkpt lat="43.64579" lon="6.20151">
        <ele>538.32043</ele>
        <time>2026-03-24T10:20:08.978Z</time>
      </trkpt>
      <trkpt lat="43.64575" lon="6.20148">
        <ele>538.31244</ele>
        <time>2026-03-24T10:20:10.978Z</time>
      </trkpt>
      <trkpt lat="43.64578" lon="6.20145">
        <ele>538.30143</ele>
        <time>2026-03-24T10:20:12.978Z</time>
      </trkpt>
      <trkpt lat="43.64578" lon="6.20142">
        <ele>538.29743</ele>
        <time>2026-03-24T10:20:15.978Z</time>
      </trkpt>
      <trkpt lat="43.64577" lon="6.20138">
        <ele>538.29482</ele>
        <time>2026-03-24T10:20:18.978Z</time>
      </trkpt>
      <trkpt lat="43.64576" lon="6.20134">
        <ele>538.28277</ele>
        <time>2026-03-24T10:20:21.978Z</time>
      </trkpt>
      <trkpt lat="43.64575" lon="6.20129">
        <ele>538.27193</ele>
        <time>2026-03-24T10:20:23.978Z</time>
      </trkpt>
      <trkpt lat="43.64575" lon="6.20125">
        <ele>538.2457</ele>
        <time>2026-03-24T10:20:26.978Z</time>
      </trkpt>
      <trkpt lat="43.64576" lon="6.20122">
        <ele>538.22133</ele>
        <time>2026-03-24T10:20:28.978Z</time>
      </trkpt>
      <trkpt lat="43.64575" lon="6.20118">
        <ele>538.15867</ele>
        <time>2026-03-24T10:20:30.978Z</time>
      </trkpt>
      <trkpt lat="43.64574" lon="6.20116">
        <ele>538.08605</ele>
        <time>2026-03-24T10:20:32.978Z</time>
      </trkpt>
      <trkpt lat="43.64573" lon="6.20112">
        <ele>537.99321</ele>
        <time>2026-03-24T10:20:34.978Z</time>
      </trkpt>
      <trkpt lat="43.64572" lon="6.20108">
        <ele>537.77801</ele>
        <time>2026-03-24T10:20:37.978Z</time>
      </trkpt>
      <trkpt lat="43.64571" lon="6.20103">
        <ele>537.46544</ele>
        <time>2026-03-24T10:20:40.978Z</time>
      </trkpt>
      <trkpt lat="43.64569" lon="6.201">
        <ele>537.21701</ele>
        <time>2026-03-24T10:20:42.978Z</time>
      </trkpt>
      <trkpt lat="43.64568" lon="6.20096">
        <ele>536.93582</ele>
        <time>2026-03-24T10:20:44.978Z</time>
      </trkpt>
      <trkpt lat="43.64566" lon="6.20094">
        <ele>536.64011</ele>
        <time>2026-03-24T10:20:46.978Z</time>
      </trkpt>
      <trkpt lat="43.64564" lon="6.20092">
        <ele>536.35582</ele>
        <time>2026-03-24T10:20:48.978Z</time>
      </trkpt>
      <trkpt lat="43.64561" lon="6.20089">
        <ele>536.14094</ele>
        <time>2026-03-24T10:20:50.978Z</time>
      </trkpt>
      <trkpt lat="43.64559" lon="6.20088">
        <ele>535.82445</ele>
        <time>2026-03-24T10:20:52.978Z</time>
      </trkpt>
      <trkpt lat="43.64556" lon="6.20088">
        <ele>535.5452</ele>
        <time>2026-03-24T10:20:54.978Z</time>
      </trkpt>
      <trkpt lat="43.64554" lon="6.20086">
        <ele>535.35836</ele>
        <time>2026-03-24T10:20:56.978Z</time>
      </trkpt>
      <trkpt lat="43.64551" lon="6.20085">
        <ele>535.12509</ele>
        <time>2026-03-24T10:20:58.978Z</time>
      </trkpt>
      <trkpt lat="43.64548" lon="6.20083">
        <ele>534.78218</ele>
        <time>2026-03-24T10:21:01.978Z</time>
      </trkpt>
      <trkpt lat="43.64545" lon="6.20082">
        <ele>534.61755</ele>
        <time>2026-03-24T10:21:03.978Z</time>
      </trkpt>
      <trkpt lat="43.64542" lon="6.2008">
        <ele>534.37035</ele>
        <time>2026-03-24T10:21:06.977Z</time>
      </trkpt>
      <trkpt lat="43.6454" lon="6.20079">
        <ele>534.13196</ele>
        <time>2026-03-24T10:21:09.977Z</time>
      </trkpt>
      <trkpt lat="43.64537" lon="6.20078">
        <ele>533.90329</ele>
        <time>2026-03-24T10:21:12.977Z</time>
      </trkpt>
      <trkpt lat="43.64534" lon="6.20077">
        <ele>533.75084</ele>
        <time>2026-03-24T10:21:14.977Z</time>
      </trkpt>
      <trkpt lat="43.64532" lon="6.20077">
        <ele>533.58173</ele>
        <time>2026-03-24T10:21:16.977Z</time>
      </trkpt>
      <trkpt lat="43.64529" lon="6.20078">
        <ele>533.34313</ele>
        <time>2026-03-24T10:21:19.977Z</time>
      </trkpt>
      <trkpt lat="43.64527" lon="6.20077">
        <ele>533.17166</ele>
        <time>2026-03-24T10:21:21.977Z</time>
      </trkpt>
      <trkpt lat="43.64524" lon="6.20074">
        <ele>533.00953</ele>
        <time>2026-03-24T10:21:23.977Z</time>
      </trkpt>
      <trkpt lat="43.64521" lon="6.20073">
        <ele>532.84377</ele>
        <time>2026-03-24T10:21:25.977Z</time>
      </trkpt>
      <trkpt lat="43.64518" lon="6.20074">
        <ele>532.61859</ele>
        <time>2026-03-24T10:21:28.977Z</time>
      </trkpt>
      <trkpt lat="43.64516" lon="6.20074">
        <ele>532.49443</ele>
        <time>2026-03-24T10:21:30.977Z</time>
      </trkpt>
      <trkpt lat="43.64513" lon="6.20073">
        <ele>532.33988</ele>
        <time>2026-03-24T10:21:32.977Z</time>
      </trkpt>
      <trkpt lat="43.6451" lon="6.20074">
        <ele>532.1662</ele>
        <time>2026-03-24T10:21:34.978Z</time>
      </trkpt>
      <trkpt lat="43.64507" lon="6.20073">
        <ele>532.00897</ele>
        <time>2026-03-24T10:21:36.978Z</time>
      </trkpt>
      <trkpt lat="43.64504" lon="6.20073">
        <ele>531.86183</ele>
        <time>2026-03-24T10:21:38.977Z</time>
      </trkpt>
      <trkpt lat="43.64502" lon="6.20075">
        <ele>531.70237</ele>
        <time>2026-03-24T10:21:40.977Z</time>
      </trkpt>
      <trkpt lat="43.645" lon="6.20078">
        <ele>531.48746</ele>
        <time>2026-03-24T10:21:43.977Z</time>
      </trkpt>
      <trkpt lat="43.64497" lon="6.20078">
        <ele>531.35302</ele>
        <time>2026-03-24T10:21:45.977Z</time>
      </trkpt>
      <trkpt lat="43.64495" lon="6.20081">
        <ele>531.11676</ele>
        <time>2026-03-24T10:21:49.977Z</time>
      </trkpt>
      <trkpt lat="43.64492" lon="6.20082">
        <ele>530.96936</ele>
        <time>2026-03-24T10:21:52.977Z</time>
      </trkpt>
      <trkpt lat="43.6449" lon="6.20083">
        <ele>530.83888</ele>
        <time>2026-03-24T10:21:55.977Z</time>
      </trkpt>
      <trkpt lat="43.64488" lon="6.20085">
        <ele>530.76828</ele>
        <time>2026-03-24T10:21:57.977Z</time>
      </trkpt>
      <trkpt lat="43.64486" lon="6.20089">
        <ele>530.67659</ele>
        <time>2026-03-24T10:22:00.977Z</time>
      </trkpt>
      <trkpt lat="43.64486" lon="6.20092">
        <ele>530.5525</ele>
        <time>2026-03-24T10:22:05.977Z</time>
      </trkpt>
      <trkpt lat="43.64483" lon="6.20093">
        <ele>530.50781</ele>
        <time>2026-03-24T10:22:08.977Z</time>
      </trkpt>
      <trkpt lat="43.64481" lon="6.20092">
        <ele>530.46749</ele>
        <time>2026-03-24T10:22:11.977Z</time>
      </trkpt>
      <trkpt lat="43.64479" lon="6.20094">
        <ele>530.43452</ele>
        <time>2026-03-24T10:22:13.977Z</time>
      </trkpt>
      <trkpt lat="43.64477" lon="6.20096">
        <ele>530.40615</ele>
        <time>2026-03-24T10:22:15.977Z</time>
      </trkpt>
      <trkpt lat="43.64475" lon="6.20098">
        <ele>530.35927</ele>
        <time>2026-03-24T10:22:18.977Z</time>
      </trkpt>
      <trkpt lat="43.64472" lon="6.201">
        <ele>530.31904</ele>
        <time>2026-03-24T10:22:21.977Z</time>
      </trkpt>
      <trkpt lat="43.6447" lon="6.20102">
        <ele>530.29974</ele>
        <time>2026-03-24T10:22:23.977Z</time>
      </trkpt>
      <trkpt lat="43.64469" lon="6.20102">
        <ele>529.66462</ele>
        <time>2026-03-24T10:22:25.977Z</time>
      </trkpt>
    </trkseg>
  </trk>
</gpx>